<?xml version="1.0" encoding="UTF-8"?>
<gpx version="1.1" creator="https://www.youtrack.es" xsi:schemaLocation="http://www.topografix.com/GPX/1/1 http://www.topografix.com/GPX/1/1/gpx.xsd http://www.garmin.com/xmlschemas/GpxExtensions/v3 http://www.garmin.com/xmlschemas/GpxExtensionsv3.xsd http://www.garmin.com/xmlschemas/TrackPointExtension/v1 http://www.garmin.com/xmlschemas/TrackPointExtensionv1.xsd" xmlns:gpxtpx="http://www.garmin.com/xmlschemas/TrackPointExtension/v1" xmlns:gpxx="http://www.garmin.com/xmlschemas/GpxExtensions/v3" xmlns:xsi="http://www.w3.org/2001/XMLSchema-instance">
  <metadata>
    <link href="https://www.youtrack.es">
      <text>YouTrack.es</text>
    </link>
    <time>2026-05-10T21:21:33Z</time>
  </metadata>
  <trk>
    <src>https://www.youtrack.es</src>
    <link href="https://www.youtrack.es/ruta/33934-beniatjar-benicadell">
      <text>YouTrack.es</text>
    </link>
    <trkseg>
      <trkpt lat="38.845153" lon="-0.417356">
        <ele>411.459</ele>
        <time>2022-07-10T05:03:09Z</time>
      </trkpt>
      <trkpt lat="38.845147" lon="-0.417341">
        <ele>411.403</ele>
        <time>2022-07-10T05:03:10Z</time>
      </trkpt>
      <trkpt lat="38.845131" lon="-0.417319">
        <ele>411.423</ele>
        <time>2022-07-10T05:03:12Z</time>
      </trkpt>
      <trkpt lat="38.845097" lon="-0.417298">
        <ele>411.209</ele>
        <time>2022-07-10T05:03:14Z</time>
      </trkpt>
      <trkpt lat="38.845034" lon="-0.417282">
        <ele>412.036</ele>
        <time>2022-07-10T05:03:18Z</time>
      </trkpt>
      <trkpt lat="38.845007" lon="-0.417272">
        <ele>412.675</ele>
        <time>2022-07-10T05:03:20Z</time>
      </trkpt>
      <trkpt lat="38.844953" lon="-0.417257">
        <ele>413.072</ele>
        <time>2022-07-10T05:03:23Z</time>
      </trkpt>
      <trkpt lat="38.844937" lon="-0.417246">
        <ele>413.260</ele>
        <time>2022-07-10T05:03:25Z</time>
      </trkpt>
      <trkpt lat="38.844931" lon="-0.417241">
        <ele>413.439</ele>
        <time>2022-07-10T05:03:26Z</time>
      </trkpt>
      <trkpt lat="38.844891" lon="-0.417224">
        <ele>413.655</ele>
        <time>2022-07-10T05:03:29Z</time>
      </trkpt>
      <trkpt lat="38.844877" lon="-0.417220">
        <ele>413.678</ele>
        <time>2022-07-10T05:03:30Z</time>
      </trkpt>
      <trkpt lat="38.844777" lon="-0.417171">
        <ele>414.295</ele>
        <time>2022-07-10T05:03:38Z</time>
      </trkpt>
      <trkpt lat="38.844744" lon="-0.417156">
        <ele>414.692</ele>
        <time>2022-07-10T05:03:41Z</time>
      </trkpt>
      <trkpt lat="38.844654" lon="-0.417142">
        <ele>415.654</ele>
        <time>2022-07-10T05:03:48Z</time>
      </trkpt>
      <trkpt lat="38.844641" lon="-0.417139">
        <ele>415.856</ele>
        <time>2022-07-10T05:03:49Z</time>
      </trkpt>
      <trkpt lat="38.844625" lon="-0.417140">
        <ele>415.811</ele>
        <time>2022-07-10T05:03:50Z</time>
      </trkpt>
      <trkpt lat="38.844545" lon="-0.417138">
        <ele>416.209</ele>
        <time>2022-07-10T05:03:55Z</time>
      </trkpt>
      <trkpt lat="38.844431" lon="-0.417159">
        <ele>416.486</ele>
        <time>2022-07-10T05:04:04Z</time>
      </trkpt>
      <trkpt lat="38.844314" lon="-0.417187">
        <ele>416.485</ele>
        <time>2022-07-10T05:04:12Z</time>
      </trkpt>
      <trkpt lat="38.844236" lon="-0.417214">
        <ele>416.282</ele>
        <time>2022-07-10T05:04:18Z</time>
      </trkpt>
      <trkpt lat="38.844220" lon="-0.417252">
        <ele>416.230</ele>
        <time>2022-07-10T05:04:20Z</time>
      </trkpt>
      <trkpt lat="38.844171" lon="-0.417260">
        <ele>416.849</ele>
        <time>2022-07-10T05:04:24Z</time>
      </trkpt>
      <trkpt lat="38.844056" lon="-0.417273">
        <ele>417.645</ele>
        <time>2022-07-10T05:04:32Z</time>
      </trkpt>
      <trkpt lat="38.844001" lon="-0.417291">
        <ele>418.068</ele>
        <time>2022-07-10T05:04:36Z</time>
      </trkpt>
      <trkpt lat="38.843975" lon="-0.417291">
        <ele>418.285</ele>
        <time>2022-07-10T05:04:38Z</time>
      </trkpt>
      <trkpt lat="38.843962" lon="-0.417287">
        <ele>418.422</ele>
        <time>2022-07-10T05:04:39Z</time>
      </trkpt>
      <trkpt lat="38.843950" lon="-0.417285">
        <ele>418.675</ele>
        <time>2022-07-10T05:04:40Z</time>
      </trkpt>
      <trkpt lat="38.843908" lon="-0.417268">
        <ele>419.028</ele>
        <time>2022-07-10T05:04:44Z</time>
      </trkpt>
      <trkpt lat="38.843866" lon="-0.417228">
        <ele>420.020</ele>
        <time>2022-07-10T05:04:48Z</time>
      </trkpt>
      <trkpt lat="38.843844" lon="-0.417203">
        <ele>420.409</ele>
        <time>2022-07-10T05:04:50Z</time>
      </trkpt>
      <trkpt lat="38.843783" lon="-0.417130">
        <ele>421.218</ele>
        <time>2022-07-10T05:04:56Z</time>
      </trkpt>
      <trkpt lat="38.843773" lon="-0.417123">
        <ele>421.437</ele>
        <time>2022-07-10T05:04:57Z</time>
      </trkpt>
      <trkpt lat="38.843700" lon="-0.417065">
        <ele>422.444</ele>
        <time>2022-07-10T05:05:03Z</time>
      </trkpt>
      <trkpt lat="38.843694" lon="-0.417053">
        <ele>422.492</ele>
        <time>2022-07-10T05:05:04Z</time>
      </trkpt>
      <trkpt lat="38.843647" lon="-0.417003">
        <ele>423.061</ele>
        <time>2022-07-10T05:05:08Z</time>
      </trkpt>
      <trkpt lat="38.843643" lon="-0.416989">
        <ele>423.087</ele>
        <time>2022-07-10T05:05:09Z</time>
      </trkpt>
      <trkpt lat="38.843630" lon="-0.416980">
        <ele>423.280</ele>
        <time>2022-07-10T05:05:10Z</time>
      </trkpt>
      <trkpt lat="38.843603" lon="-0.416963">
        <ele>423.427</ele>
        <time>2022-07-10T05:05:12Z</time>
      </trkpt>
      <trkpt lat="38.843575" lon="-0.416945">
        <ele>423.464</ele>
        <time>2022-07-10T05:05:14Z</time>
      </trkpt>
      <trkpt lat="38.843566" lon="-0.416936">
        <ele>423.634</ele>
        <time>2022-07-10T05:05:15Z</time>
      </trkpt>
      <trkpt lat="38.843524" lon="-0.416896">
        <ele>424.255</ele>
        <time>2022-07-10T05:05:19Z</time>
      </trkpt>
      <trkpt lat="38.843509" lon="-0.416873">
        <ele>424.410</ele>
        <time>2022-07-10T05:05:21Z</time>
      </trkpt>
      <trkpt lat="38.843507" lon="-0.416855">
        <ele>424.609</ele>
        <time>2022-07-10T05:05:22Z</time>
      </trkpt>
      <trkpt lat="38.843487" lon="-0.416788">
        <ele>425.214</ele>
        <time>2022-07-10T05:05:25Z</time>
      </trkpt>
      <trkpt lat="38.843459" lon="-0.416741">
        <ele>425.623</ele>
        <time>2022-07-10T05:05:28Z</time>
      </trkpt>
      <trkpt lat="38.843459" lon="-0.416731">
        <ele>425.840</ele>
        <time>2022-07-10T05:05:29Z</time>
      </trkpt>
      <trkpt lat="38.843462" lon="-0.416676">
        <ele>426.018</ele>
        <time>2022-07-10T05:05:32Z</time>
      </trkpt>
      <trkpt lat="38.843463" lon="-0.416602">
        <ele>426.627</ele>
        <time>2022-07-10T05:05:36Z</time>
      </trkpt>
      <trkpt lat="38.843470" lon="-0.416554">
        <ele>427.023</ele>
        <time>2022-07-10T05:05:39Z</time>
      </trkpt>
      <trkpt lat="38.843490" lon="-0.416416">
        <ele>427.646</ele>
        <time>2022-07-10T05:05:46Z</time>
      </trkpt>
      <trkpt lat="38.843481" lon="-0.416403">
        <ele>427.833</ele>
        <time>2022-07-10T05:05:47Z</time>
      </trkpt>
      <trkpt lat="38.843428" lon="-0.416348">
        <ele>428.420</ele>
        <time>2022-07-10T05:05:52Z</time>
      </trkpt>
      <trkpt lat="38.843345" lon="-0.416289">
        <ele>428.845</ele>
        <time>2022-07-10T05:05:58Z</time>
      </trkpt>
      <trkpt lat="38.843336" lon="-0.416243">
        <ele>429.047</ele>
        <time>2022-07-10T05:06:01Z</time>
      </trkpt>
      <trkpt lat="38.843310" lon="-0.416194">
        <ele>429.811</ele>
        <time>2022-07-10T05:06:05Z</time>
      </trkpt>
      <trkpt lat="38.843287" lon="-0.416163">
        <ele>430.609</ele>
        <time>2022-07-10T05:06:08Z</time>
      </trkpt>
      <trkpt lat="38.843282" lon="-0.416145">
        <ele>430.885</ele>
        <time>2022-07-10T05:06:09Z</time>
      </trkpt>
      <trkpt lat="38.843242" lon="-0.416061">
        <ele>431.874</ele>
        <time>2022-07-10T05:06:15Z</time>
      </trkpt>
      <trkpt lat="38.843230" lon="-0.416054">
        <ele>431.871</ele>
        <time>2022-07-10T05:06:16Z</time>
      </trkpt>
      <trkpt lat="38.843214" lon="-0.416018">
        <ele>432.469</ele>
        <time>2022-07-10T05:06:19Z</time>
      </trkpt>
      <trkpt lat="38.843171" lon="-0.415982">
        <ele>433.058</ele>
        <time>2022-07-10T05:06:24Z</time>
      </trkpt>
      <trkpt lat="38.843131" lon="-0.415952">
        <ele>433.674</ele>
        <time>2022-07-10T05:06:28Z</time>
      </trkpt>
      <trkpt lat="38.843109" lon="-0.415935">
        <ele>434.267</ele>
        <time>2022-07-10T05:06:30Z</time>
      </trkpt>
      <trkpt lat="38.843054" lon="-0.415909">
        <ele>435.284</ele>
        <time>2022-07-10T05:06:34Z</time>
      </trkpt>
      <trkpt lat="38.843033" lon="-0.415898">
        <ele>435.611</ele>
        <time>2022-07-10T05:06:36Z</time>
      </trkpt>
      <trkpt lat="38.843025" lon="-0.415894">
        <ele>435.862</ele>
        <time>2022-07-10T05:06:37Z</time>
      </trkpt>
      <trkpt lat="38.842976" lon="-0.415867">
        <ele>436.483</ele>
        <time>2022-07-10T05:06:42Z</time>
      </trkpt>
      <trkpt lat="38.842967" lon="-0.415868">
        <ele>436.411</ele>
        <time>2022-07-10T05:06:43Z</time>
      </trkpt>
      <trkpt lat="38.842956" lon="-0.415869">
        <ele>436.609</ele>
        <time>2022-07-10T05:06:44Z</time>
      </trkpt>
      <trkpt lat="38.842849" lon="-0.415825">
        <ele>437.447</ele>
        <time>2022-07-10T05:06:53Z</time>
      </trkpt>
      <trkpt lat="38.842843" lon="-0.415816">
        <ele>437.696</ele>
        <time>2022-07-10T05:06:54Z</time>
      </trkpt>
      <trkpt lat="38.842840" lon="-0.415819">
        <ele>437.853</ele>
        <time>2022-07-10T05:06:55Z</time>
      </trkpt>
      <trkpt lat="38.842840" lon="-0.415823">
        <ele>438.091</ele>
        <time>2022-07-10T05:06:57Z</time>
      </trkpt>
      <trkpt lat="38.842832" lon="-0.415822">
        <ele>438.250</ele>
        <time>2022-07-10T05:06:58Z</time>
      </trkpt>
      <trkpt lat="38.842777" lon="-0.415812">
        <ele>438.696</ele>
        <time>2022-07-10T05:07:01Z</time>
      </trkpt>
      <trkpt lat="38.842762" lon="-0.415803">
        <ele>438.899</ele>
        <time>2022-07-10T05:07:02Z</time>
      </trkpt>
      <trkpt lat="38.842753" lon="-0.415794">
        <ele>439.086</ele>
        <time>2022-07-10T05:07:03Z</time>
      </trkpt>
      <trkpt lat="38.842729" lon="-0.415764">
        <ele>439.843</ele>
        <time>2022-07-10T05:07:06Z</time>
      </trkpt>
      <trkpt lat="38.842696" lon="-0.415674">
        <ele>440.854</ele>
        <time>2022-07-10T05:07:12Z</time>
      </trkpt>
      <trkpt lat="38.842690" lon="-0.415644">
        <ele>441.456</ele>
        <time>2022-07-10T05:07:14Z</time>
      </trkpt>
      <trkpt lat="38.842686" lon="-0.415629">
        <ele>441.611</ele>
        <time>2022-07-10T05:07:15Z</time>
      </trkpt>
      <trkpt lat="38.842675" lon="-0.415595">
        <ele>442.009</ele>
        <time>2022-07-10T05:07:17Z</time>
      </trkpt>
      <trkpt lat="38.842672" lon="-0.415562">
        <ele>442.446</ele>
        <time>2022-07-10T05:07:19Z</time>
      </trkpt>
      <trkpt lat="38.842658" lon="-0.415533">
        <ele>443.075</ele>
        <time>2022-07-10T05:07:21Z</time>
      </trkpt>
      <trkpt lat="38.842643" lon="-0.415489">
        <ele>443.662</ele>
        <time>2022-07-10T05:07:24Z</time>
      </trkpt>
      <trkpt lat="38.842625" lon="-0.415465">
        <ele>444.270</ele>
        <time>2022-07-10T05:07:26Z</time>
      </trkpt>
      <trkpt lat="38.842561" lon="-0.415407">
        <ele>445.499</ele>
        <time>2022-07-10T05:07:32Z</time>
      </trkpt>
      <trkpt lat="38.842528" lon="-0.415377">
        <ele>446.465</ele>
        <time>2022-07-10T05:07:36Z</time>
      </trkpt>
      <trkpt lat="38.842520" lon="-0.415365">
        <ele>446.498</ele>
        <time>2022-07-10T05:07:37Z</time>
      </trkpt>
      <trkpt lat="38.842492" lon="-0.415281">
        <ele>446.615</ele>
        <time>2022-07-10T05:07:43Z</time>
      </trkpt>
      <trkpt lat="38.842494" lon="-0.415265">
        <ele>446.692</ele>
        <time>2022-07-10T05:07:44Z</time>
      </trkpt>
      <trkpt lat="38.842498" lon="-0.415250">
        <ele>446.887</ele>
        <time>2022-07-10T05:07:45Z</time>
      </trkpt>
      <trkpt lat="38.842503" lon="-0.415240">
        <ele>446.842</ele>
        <time>2022-07-10T05:07:46Z</time>
      </trkpt>
      <trkpt lat="38.842527" lon="-0.415200">
        <ele>447.226</ele>
        <time>2022-07-10T05:07:49Z</time>
      </trkpt>
      <trkpt lat="38.842538" lon="-0.415193">
        <ele>447.409</ele>
        <time>2022-07-10T05:07:50Z</time>
      </trkpt>
      <trkpt lat="38.842548" lon="-0.415181">
        <ele>447.669</ele>
        <time>2022-07-10T05:07:51Z</time>
      </trkpt>
      <trkpt lat="38.842610" lon="-0.415140">
        <ele>448.018</ele>
        <time>2022-07-10T05:07:55Z</time>
      </trkpt>
      <trkpt lat="38.842644" lon="-0.415113">
        <ele>448.655</ele>
        <time>2022-07-10T05:07:58Z</time>
      </trkpt>
      <trkpt lat="38.842715" lon="-0.415098">
        <ele>449.043</ele>
        <time>2022-07-10T05:08:03Z</time>
      </trkpt>
      <trkpt lat="38.842774" lon="-0.415093">
        <ele>449.632</ele>
        <time>2022-07-10T05:08:08Z</time>
      </trkpt>
      <trkpt lat="38.842787" lon="-0.415083">
        <ele>449.818</ele>
        <time>2022-07-10T05:08:09Z</time>
      </trkpt>
      <trkpt lat="38.842797" lon="-0.415083">
        <ele>450.071</ele>
        <time>2022-07-10T05:08:10Z</time>
      </trkpt>
      <trkpt lat="38.842807" lon="-0.415090">
        <ele>450.078</ele>
        <time>2022-07-10T05:08:11Z</time>
      </trkpt>
      <trkpt lat="38.842826" lon="-0.415092">
        <ele>450.475</ele>
        <time>2022-07-10T05:08:13Z</time>
      </trkpt>
      <trkpt lat="38.842858" lon="-0.415093">
        <ele>450.869</ele>
        <time>2022-07-10T05:08:17Z</time>
      </trkpt>
      <trkpt lat="38.842918" lon="-0.415073">
        <ele>451.204</ele>
        <time>2022-07-10T05:08:22Z</time>
      </trkpt>
      <trkpt lat="38.842948" lon="-0.415048">
        <ele>451.624</ele>
        <time>2022-07-10T05:08:24Z</time>
      </trkpt>
      <trkpt lat="38.842963" lon="-0.415036">
        <ele>451.809</ele>
        <time>2022-07-10T05:08:25Z</time>
      </trkpt>
      <trkpt lat="38.843013" lon="-0.415015">
        <ele>452.427</ele>
        <time>2022-07-10T05:08:29Z</time>
      </trkpt>
      <trkpt lat="38.843035" lon="-0.415005">
        <ele>452.676</ele>
        <time>2022-07-10T05:08:31Z</time>
      </trkpt>
      <trkpt lat="38.843050" lon="-0.415003">
        <ele>453.023</ele>
        <time>2022-07-10T05:08:33Z</time>
      </trkpt>
      <trkpt lat="38.843095" lon="-0.414981">
        <ele>453.841</ele>
        <time>2022-07-10T05:08:37Z</time>
      </trkpt>
      <trkpt lat="38.843116" lon="-0.414979">
        <ele>453.880</ele>
        <time>2022-07-10T05:08:38Z</time>
      </trkpt>
      <trkpt lat="38.843158" lon="-0.414991">
        <ele>454.286</ele>
        <time>2022-07-10T05:08:41Z</time>
      </trkpt>
      <trkpt lat="38.843202" lon="-0.415010">
        <ele>454.669</ele>
        <time>2022-07-10T05:08:45Z</time>
      </trkpt>
      <trkpt lat="38.843222" lon="-0.415033">
        <ele>454.876</ele>
        <time>2022-07-10T05:08:47Z</time>
      </trkpt>
      <trkpt lat="38.843280" lon="-0.415122">
        <ele>455.213</ele>
        <time>2022-07-10T05:08:54Z</time>
      </trkpt>
      <trkpt lat="38.843296" lon="-0.415157">
        <ele>455.455</ele>
        <time>2022-07-10T05:08:56Z</time>
      </trkpt>
      <trkpt lat="38.843335" lon="-0.415200">
        <ele>455.607</ele>
        <time>2022-07-10T05:08:59Z</time>
      </trkpt>
      <trkpt lat="38.843345" lon="-0.415230">
        <ele>455.617</ele>
        <time>2022-07-10T05:09:01Z</time>
      </trkpt>
      <trkpt lat="38.843367" lon="-0.415253">
        <ele>455.609</ele>
        <time>2022-07-10T05:09:03Z</time>
      </trkpt>
      <trkpt lat="38.843406" lon="-0.415295">
        <ele>455.636</ele>
        <time>2022-07-10T05:09:07Z</time>
      </trkpt>
      <trkpt lat="38.843415" lon="-0.415306">
        <ele>455.685</ele>
        <time>2022-07-10T05:09:08Z</time>
      </trkpt>
      <trkpt lat="38.843428" lon="-0.415311">
        <ele>455.652</ele>
        <time>2022-07-10T05:09:09Z</time>
      </trkpt>
      <trkpt lat="38.843458" lon="-0.415305">
        <ele>455.610</ele>
        <time>2022-07-10T05:09:11Z</time>
      </trkpt>
      <trkpt lat="38.843464" lon="-0.415312">
        <ele>455.639</ele>
        <time>2022-07-10T05:09:12Z</time>
      </trkpt>
      <trkpt lat="38.843460" lon="-0.415332">
        <ele>455.615</ele>
        <time>2022-07-10T05:09:14Z</time>
      </trkpt>
      <trkpt lat="38.843467" lon="-0.415335">
        <ele>455.698</ele>
        <time>2022-07-10T05:09:15Z</time>
      </trkpt>
      <trkpt lat="38.843518" lon="-0.415307">
        <ele>455.845</ele>
        <time>2022-07-10T05:09:17Z</time>
      </trkpt>
      <trkpt lat="38.843540" lon="-0.415306">
        <ele>456.042</ele>
        <time>2022-07-10T05:09:18Z</time>
      </trkpt>
      <trkpt lat="38.843645" lon="-0.415302">
        <ele>456.298</ele>
        <time>2022-07-10T05:09:25Z</time>
      </trkpt>
      <trkpt lat="38.843688" lon="-0.415281">
        <ele>456.215</ele>
        <time>2022-07-10T05:09:28Z</time>
      </trkpt>
      <trkpt lat="38.843715" lon="-0.415267">
        <ele>456.426</ele>
        <time>2022-07-10T05:09:30Z</time>
      </trkpt>
      <trkpt lat="38.843776" lon="-0.415263">
        <ele>456.409</ele>
        <time>2022-07-10T05:09:34Z</time>
      </trkpt>
      <trkpt lat="38.843833" lon="-0.415280">
        <ele>456.480</ele>
        <time>2022-07-10T05:09:38Z</time>
      </trkpt>
      <trkpt lat="38.843870" lon="-0.415291">
        <ele>456.689</ele>
        <time>2022-07-10T05:09:41Z</time>
      </trkpt>
      <trkpt lat="38.843907" lon="-0.415295">
        <ele>456.886</ele>
        <time>2022-07-10T05:09:44Z</time>
      </trkpt>
      <trkpt lat="38.843967" lon="-0.415333">
        <ele>457.284</ele>
        <time>2022-07-10T05:09:49Z</time>
      </trkpt>
      <trkpt lat="38.843990" lon="-0.415348">
        <ele>457.423</ele>
        <time>2022-07-10T05:09:51Z</time>
      </trkpt>
      <trkpt lat="38.844015" lon="-0.415350">
        <ele>457.889</ele>
        <time>2022-07-10T05:09:53Z</time>
      </trkpt>
      <trkpt lat="38.844026" lon="-0.415349">
        <ele>458.032</ele>
        <time>2022-07-10T05:09:54Z</time>
      </trkpt>
      <trkpt lat="38.844054" lon="-0.415332">
        <ele>458.489</ele>
        <time>2022-07-10T05:09:56Z</time>
      </trkpt>
      <trkpt lat="38.844064" lon="-0.415332">
        <ele>458.686</ele>
        <time>2022-07-10T05:09:57Z</time>
      </trkpt>
      <trkpt lat="38.844075" lon="-0.415331">
        <ele>458.628</ele>
        <time>2022-07-10T05:09:58Z</time>
      </trkpt>
      <trkpt lat="38.844087" lon="-0.415351">
        <ele>458.889</ele>
        <time>2022-07-10T05:09:59Z</time>
      </trkpt>
      <trkpt lat="38.844103" lon="-0.415364">
        <ele>459.017</ele>
        <time>2022-07-10T05:10:01Z</time>
      </trkpt>
      <trkpt lat="38.844124" lon="-0.415375">
        <ele>459.209</ele>
        <time>2022-07-10T05:10:02Z</time>
      </trkpt>
      <trkpt lat="38.844144" lon="-0.415379">
        <ele>459.433</ele>
        <time>2022-07-10T05:10:03Z</time>
      </trkpt>
      <trkpt lat="38.844201" lon="-0.415369">
        <ele>460.242</ele>
        <time>2022-07-10T05:10:07Z</time>
      </trkpt>
      <trkpt lat="38.844229" lon="-0.415355">
        <ele>460.669</ele>
        <time>2022-07-10T05:10:09Z</time>
      </trkpt>
      <trkpt lat="38.844240" lon="-0.415353">
        <ele>460.857</ele>
        <time>2022-07-10T05:10:10Z</time>
      </trkpt>
      <trkpt lat="38.844312" lon="-0.415370">
        <ele>461.096</ele>
        <time>2022-07-10T05:10:15Z</time>
      </trkpt>
      <trkpt lat="38.844326" lon="-0.415362">
        <ele>461.072</ele>
        <time>2022-07-10T05:10:16Z</time>
      </trkpt>
      <trkpt lat="38.844337" lon="-0.415355">
        <ele>461.085</ele>
        <time>2022-07-10T05:10:17Z</time>
      </trkpt>
      <trkpt lat="38.844376" lon="-0.415333">
        <ele>461.612</ele>
        <time>2022-07-10T05:10:21Z</time>
      </trkpt>
      <trkpt lat="38.844416" lon="-0.415302">
        <ele>461.659</ele>
        <time>2022-07-10T05:10:24Z</time>
      </trkpt>
      <trkpt lat="38.844432" lon="-0.415285">
        <ele>461.652</ele>
        <time>2022-07-10T05:10:26Z</time>
      </trkpt>
      <trkpt lat="38.844476" lon="-0.415237">
        <ele>461.653</ele>
        <time>2022-07-10T05:10:29Z</time>
      </trkpt>
      <trkpt lat="38.844491" lon="-0.415198">
        <ele>461.608</ele>
        <time>2022-07-10T05:10:31Z</time>
      </trkpt>
      <trkpt lat="38.844500" lon="-0.415162">
        <ele>461.809</ele>
        <time>2022-07-10T05:10:33Z</time>
      </trkpt>
      <trkpt lat="38.844522" lon="-0.415039">
        <ele>461.696</ele>
        <time>2022-07-10T05:10:40Z</time>
      </trkpt>
      <trkpt lat="38.844536" lon="-0.415002">
        <ele>461.625</ele>
        <time>2022-07-10T05:10:42Z</time>
      </trkpt>
      <trkpt lat="38.844569" lon="-0.414913">
        <ele>462.072</ele>
        <time>2022-07-10T05:10:47Z</time>
      </trkpt>
      <trkpt lat="38.844587" lon="-0.414883">
        <ele>462.050</ele>
        <time>2022-07-10T05:10:49Z</time>
      </trkpt>
      <trkpt lat="38.844628" lon="-0.414840">
        <ele>462.049</ele>
        <time>2022-07-10T05:10:52Z</time>
      </trkpt>
      <trkpt lat="38.844636" lon="-0.414826">
        <ele>462.035</ele>
        <time>2022-07-10T05:10:53Z</time>
      </trkpt>
      <trkpt lat="38.844653" lon="-0.414768">
        <ele>462.298</ele>
        <time>2022-07-10T05:10:56Z</time>
      </trkpt>
      <trkpt lat="38.844658" lon="-0.414758">
        <ele>462.255</ele>
        <time>2022-07-10T05:10:57Z</time>
      </trkpt>
      <trkpt lat="38.844672" lon="-0.414715">
        <ele>462.692</ele>
        <time>2022-07-10T05:11:00Z</time>
      </trkpt>
      <trkpt lat="38.844677" lon="-0.414697">
        <ele>462.692</ele>
        <time>2022-07-10T05:11:01Z</time>
      </trkpt>
      <trkpt lat="38.844673" lon="-0.414681">
        <ele>462.673</ele>
        <time>2022-07-10T05:11:02Z</time>
      </trkpt>
      <trkpt lat="38.844700" lon="-0.414635">
        <ele>463.020</ele>
        <time>2022-07-10T05:11:05Z</time>
      </trkpt>
      <trkpt lat="38.844743" lon="-0.414560">
        <ele>463.609</ele>
        <time>2022-07-10T05:11:10Z</time>
      </trkpt>
      <trkpt lat="38.844771" lon="-0.414532">
        <ele>464.060</ele>
        <time>2022-07-10T05:11:12Z</time>
      </trkpt>
      <trkpt lat="38.844850" lon="-0.414475">
        <ele>464.459</ele>
        <time>2022-07-10T05:11:20Z</time>
      </trkpt>
      <trkpt lat="38.844838" lon="-0.414474">
        <ele>464.816</ele>
        <time>2022-07-10T05:11:21Z</time>
      </trkpt>
      <trkpt lat="38.844847" lon="-0.414464">
        <ele>465.074</ele>
        <time>2022-07-10T05:11:22Z</time>
      </trkpt>
      <trkpt lat="38.844848" lon="-0.414448">
        <ele>465.053</ele>
        <time>2022-07-10T05:11:23Z</time>
      </trkpt>
      <trkpt lat="38.844873" lon="-0.414402">
        <ele>465.619</ele>
        <time>2022-07-10T05:11:26Z</time>
      </trkpt>
      <trkpt lat="38.844881" lon="-0.414387">
        <ele>465.862</ele>
        <time>2022-07-10T05:11:27Z</time>
      </trkpt>
      <trkpt lat="38.844890" lon="-0.414373">
        <ele>466.029</ele>
        <time>2022-07-10T05:11:28Z</time>
      </trkpt>
      <trkpt lat="38.844899" lon="-0.414348">
        <ele>466.456</ele>
        <time>2022-07-10T05:11:30Z</time>
      </trkpt>
      <trkpt lat="38.844887" lon="-0.414327">
        <ele>466.872</ele>
        <time>2022-07-10T05:11:32Z</time>
      </trkpt>
      <trkpt lat="38.844887" lon="-0.414310">
        <ele>467.013</ele>
        <time>2022-07-10T05:11:33Z</time>
      </trkpt>
      <trkpt lat="38.844886" lon="-0.414282">
        <ele>467.414</ele>
        <time>2022-07-10T05:11:35Z</time>
      </trkpt>
      <trkpt lat="38.844898" lon="-0.414239">
        <ele>468.009</ele>
        <time>2022-07-10T05:11:38Z</time>
      </trkpt>
      <trkpt lat="38.844905" lon="-0.414225">
        <ele>468.268</ele>
        <time>2022-07-10T05:11:39Z</time>
      </trkpt>
      <trkpt lat="38.844906" lon="-0.414211">
        <ele>468.447</ele>
        <time>2022-07-10T05:11:40Z</time>
      </trkpt>
      <trkpt lat="38.844923" lon="-0.414171">
        <ele>468.474</ele>
        <time>2022-07-10T05:11:42Z</time>
      </trkpt>
      <trkpt lat="38.844943" lon="-0.414140">
        <ele>468.442</ele>
        <time>2022-07-10T05:11:44Z</time>
      </trkpt>
      <trkpt lat="38.844944" lon="-0.414127">
        <ele>468.461</ele>
        <time>2022-07-10T05:11:47Z</time>
      </trkpt>
      <trkpt lat="38.844942" lon="-0.414137">
        <ele>468.277</ele>
        <time>2022-07-10T05:11:48Z</time>
      </trkpt>
      <trkpt lat="38.844936" lon="-0.414151">
        <ele>468.220</ele>
        <time>2022-07-10T05:11:49Z</time>
      </trkpt>
      <trkpt lat="38.844922" lon="-0.414167">
        <ele>468.467</ele>
        <time>2022-07-10T05:11:51Z</time>
      </trkpt>
      <trkpt lat="38.844912" lon="-0.414177">
        <ele>468.474</ele>
        <time>2022-07-10T05:11:52Z</time>
      </trkpt>
      <trkpt lat="38.844980" lon="-0.414246">
        <ele>468.261</ele>
        <time>2022-07-10T05:14:24Z</time>
      </trkpt>
      <trkpt lat="38.844977" lon="-0.414246">
        <ele>468.221</ele>
        <time>2022-07-10T05:14:25Z</time>
      </trkpt>
      <trkpt lat="38.844973" lon="-0.414244">
        <ele>468.213</ele>
        <time>2022-07-10T05:14:26Z</time>
      </trkpt>
      <trkpt lat="38.844984" lon="-0.414182">
        <ele>468.209</ele>
        <time>2022-07-10T05:14:30Z</time>
      </trkpt>
      <trkpt lat="38.845024" lon="-0.414124">
        <ele>468.237</ele>
        <time>2022-07-10T05:14:34Z</time>
      </trkpt>
      <trkpt lat="38.845186" lon="-0.414034">
        <ele>468.686</ele>
        <time>2022-07-10T05:14:40Z</time>
      </trkpt>
      <trkpt lat="38.845204" lon="-0.413999">
        <ele>469.023</ele>
        <time>2022-07-10T05:14:42Z</time>
      </trkpt>
      <trkpt lat="38.845214" lon="-0.413984">
        <ele>469.241</ele>
        <time>2022-07-10T05:14:43Z</time>
      </trkpt>
      <trkpt lat="38.845252" lon="-0.413900">
        <ele>469.480</ele>
        <time>2022-07-10T05:14:51Z</time>
      </trkpt>
      <trkpt lat="38.845305" lon="-0.413873">
        <ele>469.266</ele>
        <time>2022-07-10T05:14:55Z</time>
      </trkpt>
      <trkpt lat="38.845322" lon="-0.413869">
        <ele>469.259</ele>
        <time>2022-07-10T05:14:57Z</time>
      </trkpt>
      <trkpt lat="38.845323" lon="-0.413865">
        <ele>469.246</ele>
        <time>2022-07-10T05:14:58Z</time>
      </trkpt>
      <trkpt lat="38.845353" lon="-0.413848">
        <ele>469.093</ele>
        <time>2022-07-10T05:15:02Z</time>
      </trkpt>
      <trkpt lat="38.845360" lon="-0.413844">
        <ele>469.031</ele>
        <time>2022-07-10T05:15:03Z</time>
      </trkpt>
      <trkpt lat="38.845360" lon="-0.413844">
        <ele>469.061</ele>
        <time>2022-07-10T05:15:04Z</time>
      </trkpt>
      <trkpt lat="38.845367" lon="-0.413836">
        <ele>469.007</ele>
        <time>2022-07-10T05:15:05Z</time>
      </trkpt>
      <trkpt lat="38.845348" lon="-0.413834">
        <ele>468.809</ele>
        <time>2022-07-10T05:15:06Z</time>
      </trkpt>
      <trkpt lat="38.845283" lon="-0.413826">
        <ele>469.014</ele>
        <time>2022-07-10T05:15:09Z</time>
      </trkpt>
      <trkpt lat="38.845245" lon="-0.413822">
        <ele>469.253</ele>
        <time>2022-07-10T05:15:12Z</time>
      </trkpt>
      <trkpt lat="38.845157" lon="-0.413874">
        <ele>469.450</ele>
        <time>2022-07-10T05:15:19Z</time>
      </trkpt>
      <trkpt lat="38.845104" lon="-0.413947">
        <ele>469.088</ele>
        <time>2022-07-10T05:15:24Z</time>
      </trkpt>
      <trkpt lat="38.845082" lon="-0.413988">
        <ele>469.087</ele>
        <time>2022-07-10T05:15:27Z</time>
      </trkpt>
      <trkpt lat="38.845041" lon="-0.414028">
        <ele>468.823</ele>
        <time>2022-07-10T05:15:31Z</time>
      </trkpt>
      <trkpt lat="38.845034" lon="-0.414045">
        <ele>468.816</ele>
        <time>2022-07-10T05:15:32Z</time>
      </trkpt>
      <trkpt lat="38.845015" lon="-0.414082">
        <ele>468.623</ele>
        <time>2022-07-10T05:15:34Z</time>
      </trkpt>
      <trkpt lat="38.845007" lon="-0.414119">
        <ele>468.230</ele>
        <time>2022-07-10T05:15:36Z</time>
      </trkpt>
      <trkpt lat="38.844975" lon="-0.414195">
        <ele>468.275</ele>
        <time>2022-07-10T05:15:40Z</time>
      </trkpt>
      <trkpt lat="38.844970" lon="-0.414201">
        <ele>468.028</ele>
        <time>2022-07-10T05:15:41Z</time>
      </trkpt>
      <trkpt lat="38.844932" lon="-0.414232">
        <ele>468.220</ele>
        <time>2022-07-10T05:15:45Z</time>
      </trkpt>
      <trkpt lat="38.844894" lon="-0.414239">
        <ele>468.409</ele>
        <time>2022-07-10T05:15:47Z</time>
      </trkpt>
      <trkpt lat="38.844874" lon="-0.414234">
        <ele>468.478</ele>
        <time>2022-07-10T05:15:49Z</time>
      </trkpt>
      <trkpt lat="38.844851" lon="-0.414238">
        <ele>468.617</ele>
        <time>2022-07-10T05:15:51Z</time>
      </trkpt>
      <trkpt lat="38.844827" lon="-0.414239">
        <ele>469.284</ele>
        <time>2022-07-10T05:15:54Z</time>
      </trkpt>
      <trkpt lat="38.844826" lon="-0.414233">
        <ele>469.242</ele>
        <time>2022-07-10T05:15:55Z</time>
      </trkpt>
      <trkpt lat="38.844749" lon="-0.414303">
        <ele>469.871</ele>
        <time>2022-07-10T05:16:02Z</time>
      </trkpt>
      <trkpt lat="38.844737" lon="-0.414308">
        <ele>470.087</ele>
        <time>2022-07-10T05:16:03Z</time>
      </trkpt>
      <trkpt lat="38.844716" lon="-0.414307">
        <ele>470.220</ele>
        <time>2022-07-10T05:16:05Z</time>
      </trkpt>
      <trkpt lat="38.844701" lon="-0.414314">
        <ele>470.257</ele>
        <time>2022-07-10T05:16:06Z</time>
      </trkpt>
      <trkpt lat="38.844683" lon="-0.414321">
        <ele>470.284</ele>
        <time>2022-07-10T05:16:07Z</time>
      </trkpt>
      <trkpt lat="38.844673" lon="-0.414331">
        <ele>470.464</ele>
        <time>2022-07-10T05:16:08Z</time>
      </trkpt>
      <trkpt lat="38.844662" lon="-0.414368">
        <ele>470.806</ele>
        <time>2022-07-10T05:16:11Z</time>
      </trkpt>
      <trkpt lat="38.844644" lon="-0.414386">
        <ele>470.816</ele>
        <time>2022-07-10T05:16:12Z</time>
      </trkpt>
      <trkpt lat="38.844544" lon="-0.414467">
        <ele>471.209</ele>
        <time>2022-07-10T05:16:16Z</time>
      </trkpt>
      <trkpt lat="38.844532" lon="-0.414480">
        <ele>471.427</ele>
        <time>2022-07-10T05:16:17Z</time>
      </trkpt>
      <trkpt lat="38.844480" lon="-0.414523">
        <ele>471.856</ele>
        <time>2022-07-10T05:16:21Z</time>
      </trkpt>
      <trkpt lat="38.844424" lon="-0.414548">
        <ele>472.433</ele>
        <time>2022-07-10T05:16:25Z</time>
      </trkpt>
      <trkpt lat="38.844383" lon="-0.414542">
        <ele>472.611</ele>
        <time>2022-07-10T05:16:28Z</time>
      </trkpt>
      <trkpt lat="38.844360" lon="-0.414555">
        <ele>472.870</ele>
        <time>2022-07-10T05:16:30Z</time>
      </trkpt>
      <trkpt lat="38.844338" lon="-0.414574">
        <ele>473.416</ele>
        <time>2022-07-10T05:16:33Z</time>
      </trkpt>
      <trkpt lat="38.844325" lon="-0.414574">
        <ele>473.679</ele>
        <time>2022-07-10T05:16:34Z</time>
      </trkpt>
      <trkpt lat="38.844265" lon="-0.414551">
        <ele>474.616</ele>
        <time>2022-07-10T05:16:39Z</time>
      </trkpt>
      <trkpt lat="38.844233" lon="-0.414539">
        <ele>475.013</ele>
        <time>2022-07-10T05:16:42Z</time>
      </trkpt>
      <trkpt lat="38.844212" lon="-0.414537">
        <ele>475.258</ele>
        <time>2022-07-10T05:16:43Z</time>
      </trkpt>
      <trkpt lat="38.844183" lon="-0.414537">
        <ele>475.652</ele>
        <time>2022-07-10T05:16:45Z</time>
      </trkpt>
      <trkpt lat="38.844152" lon="-0.414536">
        <ele>476.217</ele>
        <time>2022-07-10T05:16:48Z</time>
      </trkpt>
      <trkpt lat="38.844110" lon="-0.414542">
        <ele>476.609</ele>
        <time>2022-07-10T05:16:51Z</time>
      </trkpt>
      <trkpt lat="38.844075" lon="-0.414548">
        <ele>477.256</ele>
        <time>2022-07-10T05:16:54Z</time>
      </trkpt>
      <trkpt lat="38.844062" lon="-0.414545">
        <ele>477.495</ele>
        <time>2022-07-10T05:16:55Z</time>
      </trkpt>
      <trkpt lat="38.844035" lon="-0.414538">
        <ele>477.862</ele>
        <time>2022-07-10T05:16:57Z</time>
      </trkpt>
      <trkpt lat="38.843954" lon="-0.414509">
        <ele>478.880</ele>
        <time>2022-07-10T05:17:02Z</time>
      </trkpt>
      <trkpt lat="38.843937" lon="-0.414507">
        <ele>479.219</ele>
        <time>2022-07-10T05:17:03Z</time>
      </trkpt>
      <trkpt lat="38.843921" lon="-0.414507">
        <ele>479.855</ele>
        <time>2022-07-10T05:17:04Z</time>
      </trkpt>
      <trkpt lat="38.843891" lon="-0.414477">
        <ele>480.488</ele>
        <time>2022-07-10T05:17:07Z</time>
      </trkpt>
      <trkpt lat="38.843864" lon="-0.414457">
        <ele>480.425</ele>
        <time>2022-07-10T05:17:09Z</time>
      </trkpt>
      <trkpt lat="38.843839" lon="-0.414447">
        <ele>480.642</ele>
        <time>2022-07-10T05:17:11Z</time>
      </trkpt>
      <trkpt lat="38.843812" lon="-0.414444">
        <ele>481.071</ele>
        <time>2022-07-10T05:17:13Z</time>
      </trkpt>
      <trkpt lat="38.843785" lon="-0.414443">
        <ele>481.241</ele>
        <time>2022-07-10T05:17:15Z</time>
      </trkpt>
      <trkpt lat="38.843771" lon="-0.414436">
        <ele>481.415</ele>
        <time>2022-07-10T05:17:16Z</time>
      </trkpt>
      <trkpt lat="38.842113" lon="-0.413622">
        <ele>490.209</ele>
        <time>2022-07-10T05:19:32Z</time>
      </trkpt>
      <trkpt lat="38.842108" lon="-0.413617">
        <ele>490.268</ele>
        <time>2022-07-10T05:19:33Z</time>
      </trkpt>
      <trkpt lat="38.842092" lon="-0.413610">
        <ele>490.217</ele>
        <time>2022-07-10T05:19:34Z</time>
      </trkpt>
      <trkpt lat="38.842079" lon="-0.413622">
        <ele>490.424</ele>
        <time>2022-07-10T05:19:35Z</time>
      </trkpt>
      <trkpt lat="38.842070" lon="-0.413626">
        <ele>490.472</ele>
        <time>2022-07-10T05:19:38Z</time>
      </trkpt>
      <trkpt lat="38.842060" lon="-0.413606">
        <ele>490.451</ele>
        <time>2022-07-10T05:19:39Z</time>
      </trkpt>
      <trkpt lat="38.841983" lon="-0.413554">
        <ele>490.627</ele>
        <time>2022-07-10T05:19:44Z</time>
      </trkpt>
      <trkpt lat="38.841964" lon="-0.413546">
        <ele>490.870</ele>
        <time>2022-07-10T05:19:45Z</time>
      </trkpt>
      <trkpt lat="38.841945" lon="-0.413542">
        <ele>490.847</ele>
        <time>2022-07-10T05:19:46Z</time>
      </trkpt>
      <trkpt lat="38.841900" lon="-0.413546">
        <ele>491.264</ele>
        <time>2022-07-10T05:19:48Z</time>
      </trkpt>
      <trkpt lat="38.841877" lon="-0.413549">
        <ele>491.258</ele>
        <time>2022-07-10T05:19:49Z</time>
      </trkpt>
      <trkpt lat="38.841845" lon="-0.413550">
        <ele>491.452</ele>
        <time>2022-07-10T05:19:51Z</time>
      </trkpt>
      <trkpt lat="38.841794" lon="-0.413557">
        <ele>491.617</ele>
        <time>2022-07-10T05:19:54Z</time>
      </trkpt>
      <trkpt lat="38.841771" lon="-0.413551">
        <ele>491.809</ele>
        <time>2022-07-10T05:19:56Z</time>
      </trkpt>
      <trkpt lat="38.841723" lon="-0.413538">
        <ele>492.226</ele>
        <time>2022-07-10T05:19:59Z</time>
      </trkpt>
      <trkpt lat="38.841714" lon="-0.413530">
        <ele>492.435</ele>
        <time>2022-07-10T05:20:00Z</time>
      </trkpt>
      <trkpt lat="38.841642" lon="-0.413507">
        <ele>493.022</ele>
        <time>2022-07-10T05:20:05Z</time>
      </trkpt>
      <trkpt lat="38.841611" lon="-0.413494">
        <ele>493.250</ele>
        <time>2022-07-10T05:20:07Z</time>
      </trkpt>
      <trkpt lat="38.841568" lon="-0.413489">
        <ele>493.439</ele>
        <time>2022-07-10T05:20:10Z</time>
      </trkpt>
      <trkpt lat="38.841551" lon="-0.413488">
        <ele>493.415</ele>
        <time>2022-07-10T05:20:11Z</time>
      </trkpt>
      <trkpt lat="38.841532" lon="-0.413481">
        <ele>493.888</ele>
        <time>2022-07-10T05:20:12Z</time>
      </trkpt>
      <trkpt lat="38.841498" lon="-0.413474">
        <ele>494.025</ele>
        <time>2022-07-10T05:20:14Z</time>
      </trkpt>
      <trkpt lat="38.841451" lon="-0.413468">
        <ele>494.212</ele>
        <time>2022-07-10T05:20:17Z</time>
      </trkpt>
      <trkpt lat="38.841437" lon="-0.413475">
        <ele>494.428</ele>
        <time>2022-07-10T05:20:18Z</time>
      </trkpt>
      <trkpt lat="38.841411" lon="-0.413478">
        <ele>494.689</ele>
        <time>2022-07-10T05:20:20Z</time>
      </trkpt>
      <trkpt lat="38.841381" lon="-0.413468">
        <ele>495.217</ele>
        <time>2022-07-10T05:20:24Z</time>
      </trkpt>
      <trkpt lat="38.841365" lon="-0.413456">
        <ele>495.609</ele>
        <time>2022-07-10T05:20:26Z</time>
      </trkpt>
      <trkpt lat="38.841289" lon="-0.413467">
        <ele>496.643</ele>
        <time>2022-07-10T05:20:31Z</time>
      </trkpt>
      <trkpt lat="38.841270" lon="-0.413466">
        <ele>496.662</ele>
        <time>2022-07-10T05:20:32Z</time>
      </trkpt>
      <trkpt lat="38.841247" lon="-0.413452">
        <ele>496.879</ele>
        <time>2022-07-10T05:20:34Z</time>
      </trkpt>
      <trkpt lat="38.841228" lon="-0.413438">
        <ele>497.017</ele>
        <time>2022-07-10T05:20:36Z</time>
      </trkpt>
      <trkpt lat="38.841201" lon="-0.413425">
        <ele>497.446</ele>
        <time>2022-07-10T05:20:39Z</time>
      </trkpt>
      <trkpt lat="38.841181" lon="-0.413419">
        <ele>497.632</ele>
        <time>2022-07-10T05:20:41Z</time>
      </trkpt>
      <trkpt lat="38.841187" lon="-0.413412">
        <ele>497.875</ele>
        <time>2022-07-10T05:20:43Z</time>
      </trkpt>
      <trkpt lat="38.841182" lon="-0.413400">
        <ele>497.892</ele>
        <time>2022-07-10T05:20:44Z</time>
      </trkpt>
      <trkpt lat="38.841175" lon="-0.413383">
        <ele>497.869</ele>
        <time>2022-07-10T05:20:45Z</time>
      </trkpt>
      <trkpt lat="38.841150" lon="-0.413359">
        <ele>498.095</ele>
        <time>2022-07-10T05:20:47Z</time>
      </trkpt>
      <trkpt lat="38.841116" lon="-0.413342">
        <ele>498.049</ele>
        <time>2022-07-10T05:20:50Z</time>
      </trkpt>
      <trkpt lat="38.841106" lon="-0.413337">
        <ele>498.423</ele>
        <time>2022-07-10T05:20:52Z</time>
      </trkpt>
      <trkpt lat="38.841072" lon="-0.413300">
        <ele>498.809</ele>
        <time>2022-07-10T05:20:55Z</time>
      </trkpt>
      <trkpt lat="38.841031" lon="-0.413304">
        <ele>499.060</ele>
        <time>2022-07-10T05:20:57Z</time>
      </trkpt>
      <trkpt lat="38.840883" lon="-0.413263">
        <ele>499.449</ele>
        <time>2022-07-10T05:21:04Z</time>
      </trkpt>
      <trkpt lat="38.840874" lon="-0.413257">
        <ele>499.226</ele>
        <time>2022-07-10T05:21:05Z</time>
      </trkpt>
      <trkpt lat="38.840862" lon="-0.413258">
        <ele>499.054</ele>
        <time>2022-07-10T05:21:07Z</time>
      </trkpt>
      <trkpt lat="38.840849" lon="-0.413255">
        <ele>499.053</ele>
        <time>2022-07-10T05:21:08Z</time>
      </trkpt>
      <trkpt lat="38.840816" lon="-0.413229">
        <ele>499.679</ele>
        <time>2022-07-10T05:21:10Z</time>
      </trkpt>
      <trkpt lat="38.840807" lon="-0.413213">
        <ele>499.882</ele>
        <time>2022-07-10T05:21:11Z</time>
      </trkpt>
      <trkpt lat="38.840794" lon="-0.413202">
        <ele>500.249</ele>
        <time>2022-07-10T05:21:12Z</time>
      </trkpt>
      <trkpt lat="38.840776" lon="-0.413179">
        <ele>500.656</ele>
        <time>2022-07-10T05:21:14Z</time>
      </trkpt>
      <trkpt lat="38.840769" lon="-0.413163">
        <ele>500.863</ele>
        <time>2022-07-10T05:21:15Z</time>
      </trkpt>
      <trkpt lat="38.840762" lon="-0.413154">
        <ele>501.044</ele>
        <time>2022-07-10T05:21:16Z</time>
      </trkpt>
      <trkpt lat="38.840749" lon="-0.413157">
        <ele>501.418</ele>
        <time>2022-07-10T05:21:18Z</time>
      </trkpt>
      <trkpt lat="38.840724" lon="-0.413169">
        <ele>501.609</ele>
        <time>2022-07-10T05:21:20Z</time>
      </trkpt>
      <trkpt lat="38.840689" lon="-0.413174">
        <ele>502.097</ele>
        <time>2022-07-10T05:21:22Z</time>
      </trkpt>
      <trkpt lat="38.840662" lon="-0.413163">
        <ele>502.496</ele>
        <time>2022-07-10T05:21:24Z</time>
      </trkpt>
      <trkpt lat="38.840627" lon="-0.413147">
        <ele>503.033</ele>
        <time>2022-07-10T05:21:26Z</time>
      </trkpt>
      <trkpt lat="38.840602" lon="-0.413142">
        <ele>503.211</ele>
        <time>2022-07-10T05:21:28Z</time>
      </trkpt>
      <trkpt lat="38.840594" lon="-0.413134">
        <ele>503.490</ele>
        <time>2022-07-10T05:21:29Z</time>
      </trkpt>
      <trkpt lat="38.840579" lon="-0.413134">
        <ele>503.666</ele>
        <time>2022-07-10T05:21:30Z</time>
      </trkpt>
      <trkpt lat="38.840548" lon="-0.413131">
        <ele>504.079</ele>
        <time>2022-07-10T05:21:33Z</time>
      </trkpt>
      <trkpt lat="38.840539" lon="-0.413125">
        <ele>504.256</ele>
        <time>2022-07-10T05:21:34Z</time>
      </trkpt>
      <trkpt lat="38.840495" lon="-0.413045">
        <ele>505.283</ele>
        <time>2022-07-10T05:21:40Z</time>
      </trkpt>
      <trkpt lat="38.840504" lon="-0.412958">
        <ele>505.885</ele>
        <time>2022-07-10T05:21:43Z</time>
      </trkpt>
      <trkpt lat="38.840512" lon="-0.412913">
        <ele>506.489</ele>
        <time>2022-07-10T05:21:45Z</time>
      </trkpt>
      <trkpt lat="38.840508" lon="-0.412872">
        <ele>506.617</ele>
        <time>2022-07-10T05:21:47Z</time>
      </trkpt>
      <trkpt lat="38.840500" lon="-0.412836">
        <ele>506.809</ele>
        <time>2022-07-10T05:21:49Z</time>
      </trkpt>
      <trkpt lat="38.840497" lon="-0.412792">
        <ele>507.419</ele>
        <time>2022-07-10T05:21:53Z</time>
      </trkpt>
      <trkpt lat="38.840498" lon="-0.412771">
        <ele>507.628</ele>
        <time>2022-07-10T05:21:55Z</time>
      </trkpt>
      <trkpt lat="38.840506" lon="-0.412766">
        <ele>507.845</ele>
        <time>2022-07-10T05:21:56Z</time>
      </trkpt>
      <trkpt lat="38.840543" lon="-0.412746">
        <ele>508.643</ele>
        <time>2022-07-10T05:22:00Z</time>
      </trkpt>
      <trkpt lat="38.840557" lon="-0.412753">
        <ele>509.082</ele>
        <time>2022-07-10T05:22:02Z</time>
      </trkpt>
      <trkpt lat="38.840578" lon="-0.412794">
        <ele>509.298</ele>
        <time>2022-07-10T05:22:04Z</time>
      </trkpt>
      <trkpt lat="38.840591" lon="-0.412803">
        <ele>509.491</ele>
        <time>2022-07-10T05:22:05Z</time>
      </trkpt>
      <trkpt lat="38.840605" lon="-0.412816">
        <ele>509.628</ele>
        <time>2022-07-10T05:22:07Z</time>
      </trkpt>
      <trkpt lat="38.840605" lon="-0.412816">
        <ele>509.645</ele>
        <time>2022-07-10T05:22:08Z</time>
      </trkpt>
      <trkpt lat="38.840614" lon="-0.412808">
        <ele>509.889</ele>
        <time>2022-07-10T05:22:09Z</time>
      </trkpt>
      <trkpt lat="38.840609" lon="-0.412785">
        <ele>510.406</ele>
        <time>2022-07-10T05:22:12Z</time>
      </trkpt>
      <trkpt lat="38.840602" lon="-0.412766">
        <ele>510.826</ele>
        <time>2022-07-10T05:22:14Z</time>
      </trkpt>
      <trkpt lat="38.840565" lon="-0.412719">
        <ele>511.409</ele>
        <time>2022-07-10T05:22:18Z</time>
      </trkpt>
      <trkpt lat="38.840570" lon="-0.412685">
        <ele>511.849</ele>
        <time>2022-07-10T05:22:20Z</time>
      </trkpt>
      <trkpt lat="38.840558" lon="-0.412627">
        <ele>512.848</ele>
        <time>2022-07-10T05:22:25Z</time>
      </trkpt>
      <trkpt lat="38.840548" lon="-0.412610">
        <ele>513.095</ele>
        <time>2022-07-10T05:22:26Z</time>
      </trkpt>
      <trkpt lat="38.840484" lon="-0.412537">
        <ele>514.083</ele>
        <time>2022-07-10T05:22:32Z</time>
      </trkpt>
      <trkpt lat="38.840473" lon="-0.412527">
        <ele>514.222</ele>
        <time>2022-07-10T05:22:33Z</time>
      </trkpt>
      <trkpt lat="38.840455" lon="-0.412502">
        <ele>514.658</ele>
        <time>2022-07-10T05:22:35Z</time>
      </trkpt>
      <trkpt lat="38.840445" lon="-0.412470">
        <ele>515.241</ele>
        <time>2022-07-10T05:22:38Z</time>
      </trkpt>
      <trkpt lat="38.840384" lon="-0.412396">
        <ele>515.848</ele>
        <time>2022-07-10T05:22:44Z</time>
      </trkpt>
      <trkpt lat="38.840358" lon="-0.412382">
        <ele>516.235</ele>
        <time>2022-07-10T05:22:46Z</time>
      </trkpt>
      <trkpt lat="38.840320" lon="-0.412360">
        <ele>517.296</ele>
        <time>2022-07-10T05:22:50Z</time>
      </trkpt>
      <trkpt lat="38.840316" lon="-0.412354">
        <ele>517.431</ele>
        <time>2022-07-10T05:22:51Z</time>
      </trkpt>
      <trkpt lat="38.840305" lon="-0.412340">
        <ele>517.624</ele>
        <time>2022-07-10T05:22:53Z</time>
      </trkpt>
      <trkpt lat="38.840289" lon="-0.412333">
        <ele>518.209</ele>
        <time>2022-07-10T05:22:55Z</time>
      </trkpt>
      <trkpt lat="38.840255" lon="-0.412310">
        <ele>519.080</ele>
        <time>2022-07-10T05:23:00Z</time>
      </trkpt>
      <trkpt lat="38.840240" lon="-0.412297">
        <ele>519.459</ele>
        <time>2022-07-10T05:23:02Z</time>
      </trkpt>
      <trkpt lat="38.840214" lon="-0.412285">
        <ele>520.066</ele>
        <time>2022-07-10T05:23:05Z</time>
      </trkpt>
      <trkpt lat="38.840194" lon="-0.412280">
        <ele>520.484</ele>
        <time>2022-07-10T05:23:07Z</time>
      </trkpt>
      <trkpt lat="38.840145" lon="-0.412257">
        <ele>521.483</ele>
        <time>2022-07-10T05:23:12Z</time>
      </trkpt>
      <trkpt lat="38.840139" lon="-0.412253">
        <ele>521.869</ele>
        <time>2022-07-10T05:23:13Z</time>
      </trkpt>
      <trkpt lat="38.840134" lon="-0.412245">
        <ele>522.072</ele>
        <time>2022-07-10T05:23:14Z</time>
      </trkpt>
      <trkpt lat="38.840090" lon="-0.412240">
        <ele>522.679</ele>
        <time>2022-07-10T05:23:17Z</time>
      </trkpt>
      <trkpt lat="38.840074" lon="-0.412245">
        <ele>522.836</ele>
        <time>2022-07-10T05:23:18Z</time>
      </trkpt>
      <trkpt lat="38.840013" lon="-0.412221">
        <ele>523.853</ele>
        <time>2022-07-10T05:23:24Z</time>
      </trkpt>
      <trkpt lat="38.840015" lon="-0.412187">
        <ele>524.004</ele>
        <time>2022-07-10T05:23:26Z</time>
      </trkpt>
      <trkpt lat="38.840026" lon="-0.412169">
        <ele>524.614</ele>
        <time>2022-07-10T05:23:28Z</time>
      </trkpt>
      <trkpt lat="38.840023" lon="-0.412176">
        <ele>524.809</ele>
        <time>2022-07-10T05:23:30Z</time>
      </trkpt>
      <trkpt lat="38.840040" lon="-0.412171">
        <ele>525.466</ele>
        <time>2022-07-10T05:23:32Z</time>
      </trkpt>
      <trkpt lat="38.840056" lon="-0.412167">
        <ele>525.645</ele>
        <time>2022-07-10T05:23:33Z</time>
      </trkpt>
      <trkpt lat="38.840068" lon="-0.412157">
        <ele>526.012</ele>
        <time>2022-07-10T05:23:34Z</time>
      </trkpt>
      <trkpt lat="38.840091" lon="-0.412145">
        <ele>526.240</ele>
        <time>2022-07-10T05:23:36Z</time>
      </trkpt>
      <trkpt lat="38.840102" lon="-0.412145">
        <ele>526.499</ele>
        <time>2022-07-10T05:23:38Z</time>
      </trkpt>
      <trkpt lat="38.840125" lon="-0.412136">
        <ele>527.055</ele>
        <time>2022-07-10T05:23:41Z</time>
      </trkpt>
      <trkpt lat="38.840133" lon="-0.412142">
        <ele>527.648</ele>
        <time>2022-07-10T05:23:43Z</time>
      </trkpt>
      <trkpt lat="38.840143" lon="-0.412145">
        <ele>527.885</ele>
        <time>2022-07-10T05:23:45Z</time>
      </trkpt>
      <trkpt lat="38.840148" lon="-0.412146">
        <ele>528.022</ele>
        <time>2022-07-10T05:23:46Z</time>
      </trkpt>
      <trkpt lat="38.840158" lon="-0.412146">
        <ele>528.218</ele>
        <time>2022-07-10T05:23:47Z</time>
      </trkpt>
      <trkpt lat="38.840159" lon="-0.412133">
        <ele>528.498</ele>
        <time>2022-07-10T05:23:49Z</time>
      </trkpt>
      <trkpt lat="38.840163" lon="-0.412128">
        <ele>528.617</ele>
        <time>2022-07-10T05:23:50Z</time>
      </trkpt>
      <trkpt lat="38.840189" lon="-0.412129">
        <ele>529.209</ele>
        <time>2022-07-10T05:23:53Z</time>
      </trkpt>
      <trkpt lat="38.840204" lon="-0.412127">
        <ele>529.492</ele>
        <time>2022-07-10T05:23:54Z</time>
      </trkpt>
      <trkpt lat="38.840228" lon="-0.412123">
        <ele>530.041</ele>
        <time>2022-07-10T05:23:56Z</time>
      </trkpt>
      <trkpt lat="38.840239" lon="-0.412121">
        <ele>530.038</ele>
        <time>2022-07-10T05:23:57Z</time>
      </trkpt>
      <trkpt lat="38.840266" lon="-0.412118">
        <ele>530.266</ele>
        <time>2022-07-10T05:23:59Z</time>
      </trkpt>
      <trkpt lat="38.840291" lon="-0.412121">
        <ele>530.645</ele>
        <time>2022-07-10T05:24:01Z</time>
      </trkpt>
      <trkpt lat="38.840336" lon="-0.412112">
        <ele>531.671</ele>
        <time>2022-07-10T05:24:04Z</time>
      </trkpt>
      <trkpt lat="38.840366" lon="-0.412092">
        <ele>532.294</ele>
        <time>2022-07-10T05:24:08Z</time>
      </trkpt>
      <trkpt lat="38.840384" lon="-0.412078">
        <ele>532.671</ele>
        <time>2022-07-10T05:24:10Z</time>
      </trkpt>
      <trkpt lat="38.840408" lon="-0.412061">
        <ele>532.828</ele>
        <time>2022-07-10T05:24:12Z</time>
      </trkpt>
      <trkpt lat="38.840447" lon="-0.412018">
        <ele>533.487</ele>
        <time>2022-07-10T05:24:15Z</time>
      </trkpt>
      <trkpt lat="38.840458" lon="-0.412005">
        <ele>533.642</ele>
        <time>2022-07-10T05:24:16Z</time>
      </trkpt>
      <trkpt lat="38.840467" lon="-0.412000">
        <ele>534.026</ele>
        <time>2022-07-10T05:24:18Z</time>
      </trkpt>
      <trkpt lat="38.840475" lon="-0.411988">
        <ele>534.409</ele>
        <time>2022-07-10T05:24:20Z</time>
      </trkpt>
      <trkpt lat="38.840484" lon="-0.411979">
        <ele>534.679</ele>
        <time>2022-07-10T05:24:22Z</time>
      </trkpt>
      <trkpt lat="38.840493" lon="-0.411965">
        <ele>534.628</ele>
        <time>2022-07-10T05:24:23Z</time>
      </trkpt>
      <trkpt lat="38.840509" lon="-0.411950">
        <ele>535.075</ele>
        <time>2022-07-10T05:24:26Z</time>
      </trkpt>
      <trkpt lat="38.840542" lon="-0.411933">
        <ele>536.013</ele>
        <time>2022-07-10T05:24:30Z</time>
      </trkpt>
      <trkpt lat="38.840562" lon="-0.411929">
        <ele>536.232</ele>
        <time>2022-07-10T05:24:32Z</time>
      </trkpt>
      <trkpt lat="38.840594" lon="-0.411929">
        <ele>537.278</ele>
        <time>2022-07-10T05:24:36Z</time>
      </trkpt>
      <trkpt lat="38.840600" lon="-0.411930">
        <ele>537.611</ele>
        <time>2022-07-10T05:24:38Z</time>
      </trkpt>
      <trkpt lat="38.840621" lon="-0.411959">
        <ele>538.258</ele>
        <time>2022-07-10T05:24:42Z</time>
      </trkpt>
      <trkpt lat="38.840634" lon="-0.411967">
        <ele>538.625</ele>
        <time>2022-07-10T05:24:45Z</time>
      </trkpt>
      <trkpt lat="38.840640" lon="-0.411967">
        <ele>538.627</ele>
        <time>2022-07-10T05:24:46Z</time>
      </trkpt>
      <trkpt lat="38.840648" lon="-0.412001">
        <ele>539.468</ele>
        <time>2022-07-10T05:24:49Z</time>
      </trkpt>
      <trkpt lat="38.840651" lon="-0.412010">
        <ele>539.414</ele>
        <time>2022-07-10T05:24:50Z</time>
      </trkpt>
      <trkpt lat="38.840661" lon="-0.412012">
        <ele>539.609</ele>
        <time>2022-07-10T05:24:51Z</time>
      </trkpt>
      <trkpt lat="38.840682" lon="-0.412016">
        <ele>540.063</ele>
        <time>2022-07-10T05:24:53Z</time>
      </trkpt>
      <trkpt lat="38.840688" lon="-0.411996">
        <ele>540.482</ele>
        <time>2022-07-10T05:24:55Z</time>
      </trkpt>
      <trkpt lat="38.840683" lon="-0.411985">
        <ele>540.659</ele>
        <time>2022-07-10T05:24:56Z</time>
      </trkpt>
      <trkpt lat="38.840674" lon="-0.411962">
        <ele>540.857</ele>
        <time>2022-07-10T05:24:58Z</time>
      </trkpt>
      <trkpt lat="38.840680" lon="-0.411933">
        <ele>541.036</ele>
        <time>2022-07-10T05:25:00Z</time>
      </trkpt>
      <trkpt lat="38.840668" lon="-0.411911">
        <ele>541.452</ele>
        <time>2022-07-10T05:25:02Z</time>
      </trkpt>
      <trkpt lat="38.840658" lon="-0.411903">
        <ele>541.685</ele>
        <time>2022-07-10T05:25:03Z</time>
      </trkpt>
      <trkpt lat="38.840655" lon="-0.411867">
        <ele>542.052</ele>
        <time>2022-07-10T05:25:06Z</time>
      </trkpt>
      <trkpt lat="38.840651" lon="-0.411842">
        <ele>542.219</ele>
        <time>2022-07-10T05:25:08Z</time>
      </trkpt>
      <trkpt lat="38.840626" lon="-0.411825">
        <ele>542.877</ele>
        <time>2022-07-10T05:25:11Z</time>
      </trkpt>
      <trkpt lat="38.840616" lon="-0.411814">
        <ele>543.261</ele>
        <time>2022-07-10T05:25:13Z</time>
      </trkpt>
      <trkpt lat="38.840606" lon="-0.411781">
        <ele>543.827</ele>
        <time>2022-07-10T05:25:16Z</time>
      </trkpt>
      <trkpt lat="38.840594" lon="-0.411747">
        <ele>544.609</ele>
        <time>2022-07-10T05:25:20Z</time>
      </trkpt>
      <trkpt lat="38.840583" lon="-0.411728">
        <ele>544.888</ele>
        <time>2022-07-10T05:25:22Z</time>
      </trkpt>
      <trkpt lat="38.840532" lon="-0.411671">
        <ele>545.637</ele>
        <time>2022-07-10T05:25:29Z</time>
      </trkpt>
      <trkpt lat="38.840511" lon="-0.411657">
        <ele>546.234</ele>
        <time>2022-07-10T05:25:31Z</time>
      </trkpt>
      <trkpt lat="38.840481" lon="-0.411649">
        <ele>546.662</ele>
        <time>2022-07-10T05:25:34Z</time>
      </trkpt>
      <trkpt lat="38.840456" lon="-0.411642">
        <ele>546.841</ele>
        <time>2022-07-10T05:25:36Z</time>
      </trkpt>
      <trkpt lat="38.840431" lon="-0.411638">
        <ele>547.217</ele>
        <time>2022-07-10T05:25:39Z</time>
      </trkpt>
      <trkpt lat="38.840409" lon="-0.411639">
        <ele>547.850</ele>
        <time>2022-07-10T05:25:42Z</time>
      </trkpt>
      <trkpt lat="38.840386" lon="-0.411647">
        <ele>548.287</ele>
        <time>2022-07-10T05:25:44Z</time>
      </trkpt>
      <trkpt lat="38.840377" lon="-0.411651">
        <ele>548.424</ele>
        <time>2022-07-10T05:25:45Z</time>
      </trkpt>
      <trkpt lat="38.840369" lon="-0.411652">
        <ele>548.885</ele>
        <time>2022-07-10T05:25:48Z</time>
      </trkpt>
      <trkpt lat="38.840347" lon="-0.411651">
        <ele>549.489</ele>
        <time>2022-07-10T05:25:50Z</time>
      </trkpt>
      <trkpt lat="38.840319" lon="-0.411631">
        <ele>549.617</ele>
        <time>2022-07-10T05:25:52Z</time>
      </trkpt>
      <trkpt lat="38.840314" lon="-0.411621">
        <ele>549.809</ele>
        <time>2022-07-10T05:25:53Z</time>
      </trkpt>
      <trkpt lat="38.840310" lon="-0.411613">
        <ele>550.079</ele>
        <time>2022-07-10T05:25:54Z</time>
      </trkpt>
      <trkpt lat="38.840302" lon="-0.411617">
        <ele>550.238</ele>
        <time>2022-07-10T05:25:55Z</time>
      </trkpt>
      <trkpt lat="38.840293" lon="-0.411624">
        <ele>550.495</ele>
        <time>2022-07-10T05:25:56Z</time>
      </trkpt>
      <trkpt lat="38.840257" lon="-0.411638">
        <ele>550.863</ele>
        <time>2022-07-10T05:25:59Z</time>
      </trkpt>
      <trkpt lat="38.840227" lon="-0.411637">
        <ele>551.462</ele>
        <time>2022-07-10T05:26:02Z</time>
      </trkpt>
      <trkpt lat="38.840206" lon="-0.411639">
        <ele>552.018</ele>
        <time>2022-07-10T05:26:05Z</time>
      </trkpt>
      <trkpt lat="38.840181" lon="-0.411647">
        <ele>552.421</ele>
        <time>2022-07-10T05:26:07Z</time>
      </trkpt>
      <trkpt lat="38.840132" lon="-0.411642">
        <ele>553.448</ele>
        <time>2022-07-10T05:26:11Z</time>
      </trkpt>
      <trkpt lat="38.840111" lon="-0.411643">
        <ele>553.695</ele>
        <time>2022-07-10T05:26:13Z</time>
      </trkpt>
      <trkpt lat="38.840101" lon="-0.411632">
        <ele>554.057</ele>
        <time>2022-07-10T05:26:15Z</time>
      </trkpt>
      <trkpt lat="38.840100" lon="-0.411615">
        <ele>554.400</ele>
        <time>2022-07-10T05:26:17Z</time>
      </trkpt>
      <trkpt lat="38.840103" lon="-0.411609">
        <ele>554.620</ele>
        <time>2022-07-10T05:26:18Z</time>
      </trkpt>
      <trkpt lat="38.840112" lon="-0.411602">
        <ele>554.809</ele>
        <time>2022-07-10T05:26:19Z</time>
      </trkpt>
      <trkpt lat="38.840150" lon="-0.411584">
        <ele>555.696</ele>
        <time>2022-07-10T05:26:22Z</time>
      </trkpt>
      <trkpt lat="38.840178" lon="-0.411577">
        <ele>555.885</ele>
        <time>2022-07-10T05:26:25Z</time>
      </trkpt>
      <trkpt lat="38.840183" lon="-0.411569">
        <ele>556.062</ele>
        <time>2022-07-10T05:26:26Z</time>
      </trkpt>
      <trkpt lat="38.840191" lon="-0.411560">
        <ele>556.290</ele>
        <time>2022-07-10T05:26:27Z</time>
      </trkpt>
      <trkpt lat="38.840201" lon="-0.411563">
        <ele>556.239</ele>
        <time>2022-07-10T05:26:28Z</time>
      </trkpt>
      <trkpt lat="38.840212" lon="-0.411572">
        <ele>556.625</ele>
        <time>2022-07-10T05:26:30Z</time>
      </trkpt>
      <trkpt lat="38.840252" lon="-0.411569">
        <ele>557.068</ele>
        <time>2022-07-10T05:26:33Z</time>
      </trkpt>
      <trkpt lat="38.840270" lon="-0.411546">
        <ele>557.265</ele>
        <time>2022-07-10T05:26:35Z</time>
      </trkpt>
      <trkpt lat="38.840269" lon="-0.411528">
        <ele>557.292</ele>
        <time>2022-07-10T05:26:36Z</time>
      </trkpt>
      <trkpt lat="38.840252" lon="-0.411509">
        <ele>557.642</ele>
        <time>2022-07-10T05:26:38Z</time>
      </trkpt>
      <trkpt lat="38.840201" lon="-0.411505">
        <ele>558.022</ele>
        <time>2022-07-10T05:26:42Z</time>
      </trkpt>
      <trkpt lat="38.840188" lon="-0.411506">
        <ele>558.214</ele>
        <time>2022-07-10T05:26:43Z</time>
      </trkpt>
      <trkpt lat="38.840176" lon="-0.411496">
        <ele>558.409</ele>
        <time>2022-07-10T05:26:44Z</time>
      </trkpt>
      <trkpt lat="38.840164" lon="-0.411482">
        <ele>558.625</ele>
        <time>2022-07-10T05:26:45Z</time>
      </trkpt>
      <trkpt lat="38.840131" lon="-0.411488">
        <ele>559.074</ele>
        <time>2022-07-10T05:26:48Z</time>
      </trkpt>
      <trkpt lat="38.840075" lon="-0.411487">
        <ele>559.661</ele>
        <time>2022-07-10T05:26:53Z</time>
      </trkpt>
      <trkpt lat="38.840034" lon="-0.411492">
        <ele>560.239</ele>
        <time>2022-07-10T05:26:56Z</time>
      </trkpt>
      <trkpt lat="38.840023" lon="-0.411493">
        <ele>560.428</ele>
        <time>2022-07-10T05:26:57Z</time>
      </trkpt>
      <trkpt lat="38.839978" lon="-0.411494">
        <ele>560.614</ele>
        <time>2022-07-10T05:27:00Z</time>
      </trkpt>
      <trkpt lat="38.839955" lon="-0.411497">
        <ele>561.227</ele>
        <time>2022-07-10T05:27:03Z</time>
      </trkpt>
      <trkpt lat="38.839951" lon="-0.411493">
        <ele>561.274</ele>
        <time>2022-07-10T05:27:04Z</time>
      </trkpt>
      <trkpt lat="38.839951" lon="-0.411495">
        <ele>561.471</ele>
        <time>2022-07-10T05:27:05Z</time>
      </trkpt>
      <trkpt lat="38.839976" lon="-0.411479">
        <ele>561.836</ele>
        <time>2022-07-10T05:27:08Z</time>
      </trkpt>
      <trkpt lat="38.839983" lon="-0.411474">
        <ele>562.217</ele>
        <time>2022-07-10T05:27:09Z</time>
      </trkpt>
      <trkpt lat="38.839993" lon="-0.411455">
        <ele>562.618</ele>
        <time>2022-07-10T05:27:11Z</time>
      </trkpt>
      <trkpt lat="38.840029" lon="-0.411417">
        <ele>563.209</ele>
        <time>2022-07-10T05:27:16Z</time>
      </trkpt>
      <trkpt lat="38.840050" lon="-0.411394">
        <ele>563.624</ele>
        <time>2022-07-10T05:27:18Z</time>
      </trkpt>
      <trkpt lat="38.840069" lon="-0.411378">
        <ele>563.893</ele>
        <time>2022-07-10T05:27:19Z</time>
      </trkpt>
      <trkpt lat="38.840101" lon="-0.411359">
        <ele>564.490</ele>
        <time>2022-07-10T05:27:21Z</time>
      </trkpt>
      <trkpt lat="38.840122" lon="-0.411359">
        <ele>564.848</ele>
        <time>2022-07-10T05:27:23Z</time>
      </trkpt>
      <trkpt lat="38.840147" lon="-0.411360">
        <ele>565.057</ele>
        <time>2022-07-10T05:27:25Z</time>
      </trkpt>
      <trkpt lat="38.840170" lon="-0.411360">
        <ele>565.623</ele>
        <time>2022-07-10T05:27:27Z</time>
      </trkpt>
      <trkpt lat="38.840176" lon="-0.411361">
        <ele>565.826</ele>
        <time>2022-07-10T05:27:28Z</time>
      </trkpt>
      <trkpt lat="38.840234" lon="-0.411358">
        <ele>566.673</ele>
        <time>2022-07-10T05:27:32Z</time>
      </trkpt>
      <trkpt lat="38.840251" lon="-0.411360">
        <ele>566.680</ele>
        <time>2022-07-10T05:27:33Z</time>
      </trkpt>
      <trkpt lat="38.840262" lon="-0.411368">
        <ele>567.064</ele>
        <time>2022-07-10T05:27:35Z</time>
      </trkpt>
      <trkpt lat="38.840270" lon="-0.411372">
        <ele>567.006</ele>
        <time>2022-07-10T05:27:36Z</time>
      </trkpt>
      <trkpt lat="38.840296" lon="-0.411332">
        <ele>567.616</ele>
        <time>2022-07-10T05:27:39Z</time>
      </trkpt>
      <trkpt lat="38.840332" lon="-0.411309">
        <ele>568.409</ele>
        <time>2022-07-10T05:27:42Z</time>
      </trkpt>
      <trkpt lat="38.840356" lon="-0.411297">
        <ele>568.647</ele>
        <time>2022-07-10T05:27:44Z</time>
      </trkpt>
      <trkpt lat="38.840359" lon="-0.411290">
        <ele>568.826</ele>
        <time>2022-07-10T05:27:45Z</time>
      </trkpt>
      <trkpt lat="38.840336" lon="-0.411295">
        <ele>569.053</ele>
        <time>2022-07-10T05:27:47Z</time>
      </trkpt>
      <trkpt lat="38.840322" lon="-0.411296">
        <ele>569.231</ele>
        <time>2022-07-10T05:27:48Z</time>
      </trkpt>
      <trkpt lat="38.840299" lon="-0.411312">
        <ele>569.450</ele>
        <time>2022-07-10T05:27:50Z</time>
      </trkpt>
      <trkpt lat="38.840272" lon="-0.411323">
        <ele>570.016</ele>
        <time>2022-07-10T05:27:52Z</time>
      </trkpt>
      <trkpt lat="38.840262" lon="-0.411307">
        <ele>570.019</ele>
        <time>2022-07-10T05:27:53Z</time>
      </trkpt>
      <trkpt lat="38.840205" lon="-0.411261">
        <ele>571.096</ele>
        <time>2022-07-10T05:27:59Z</time>
      </trkpt>
      <trkpt lat="38.840184" lon="-0.411252">
        <ele>571.473</ele>
        <time>2022-07-10T05:28:01Z</time>
      </trkpt>
      <trkpt lat="38.840133" lon="-0.411240">
        <ele>572.096</ele>
        <time>2022-07-10T05:28:05Z</time>
      </trkpt>
      <trkpt lat="38.840116" lon="-0.411227">
        <ele>572.631</ele>
        <time>2022-07-10T05:28:07Z</time>
      </trkpt>
      <trkpt lat="38.840104" lon="-0.411218">
        <ele>572.824</ele>
        <time>2022-07-10T05:28:09Z</time>
      </trkpt>
      <trkpt lat="38.840096" lon="-0.411215">
        <ele>573.009</ele>
        <time>2022-07-10T05:28:10Z</time>
      </trkpt>
      <trkpt lat="38.840075" lon="-0.411207">
        <ele>573.210</ele>
        <time>2022-07-10T05:28:12Z</time>
      </trkpt>
      <trkpt lat="38.840056" lon="-0.411196">
        <ele>573.429</ele>
        <time>2022-07-10T05:28:14Z</time>
      </trkpt>
      <trkpt lat="38.840002" lon="-0.411185">
        <ele>574.266</ele>
        <time>2022-07-10T05:28:18Z</time>
      </trkpt>
      <trkpt lat="38.839951" lon="-0.411157">
        <ele>574.814</ele>
        <time>2022-07-10T05:28:22Z</time>
      </trkpt>
      <trkpt lat="38.839944" lon="-0.411151">
        <ele>575.093</ele>
        <time>2022-07-10T05:28:23Z</time>
      </trkpt>
      <trkpt lat="38.839925" lon="-0.411137">
        <ele>575.269</ele>
        <time>2022-07-10T05:28:25Z</time>
      </trkpt>
      <trkpt lat="38.839887" lon="-0.411126">
        <ele>576.242</ele>
        <time>2022-07-10T05:28:29Z</time>
      </trkpt>
      <trkpt lat="38.839875" lon="-0.411116">
        <ele>576.499</ele>
        <time>2022-07-10T05:28:31Z</time>
      </trkpt>
      <trkpt lat="38.839881" lon="-0.411083">
        <ele>576.816</ele>
        <time>2022-07-10T05:28:34Z</time>
      </trkpt>
      <trkpt lat="38.839892" lon="-0.411085">
        <ele>577.265</ele>
        <time>2022-07-10T05:28:36Z</time>
      </trkpt>
      <trkpt lat="38.839902" lon="-0.411100">
        <ele>577.468</ele>
        <time>2022-07-10T05:28:38Z</time>
      </trkpt>
      <trkpt lat="38.839957" lon="-0.411138">
        <ele>578.614</ele>
        <time>2022-07-10T05:28:45Z</time>
      </trkpt>
      <trkpt lat="38.839979" lon="-0.411140">
        <ele>578.809</ele>
        <time>2022-07-10T05:28:47Z</time>
      </trkpt>
      <trkpt lat="38.840003" lon="-0.411123">
        <ele>579.417</ele>
        <time>2022-07-10T05:28:50Z</time>
      </trkpt>
      <trkpt lat="38.840007" lon="-0.411085">
        <ele>579.616</ele>
        <time>2022-07-10T05:28:52Z</time>
      </trkpt>
      <trkpt lat="38.840003" lon="-0.411067">
        <ele>580.023</ele>
        <time>2022-07-10T05:28:53Z</time>
      </trkpt>
      <trkpt lat="38.839972" lon="-0.411021">
        <ele>580.811</ele>
        <time>2022-07-10T05:28:58Z</time>
      </trkpt>
      <trkpt lat="38.839961" lon="-0.411005">
        <ele>581.250</ele>
        <time>2022-07-10T05:29:00Z</time>
      </trkpt>
      <trkpt lat="38.839943" lon="-0.410987">
        <ele>581.866</ele>
        <time>2022-07-10T05:29:02Z</time>
      </trkpt>
      <trkpt lat="38.839936" lon="-0.410973">
        <ele>581.859</ele>
        <time>2022-07-10T05:29:03Z</time>
      </trkpt>
      <trkpt lat="38.839915" lon="-0.410951">
        <ele>582.266</ele>
        <time>2022-07-10T05:29:06Z</time>
      </trkpt>
      <trkpt lat="38.839909" lon="-0.410941">
        <ele>582.423</ele>
        <time>2022-07-10T05:29:07Z</time>
      </trkpt>
      <trkpt lat="38.839894" lon="-0.410934">
        <ele>582.898</ele>
        <time>2022-07-10T05:29:09Z</time>
      </trkpt>
      <trkpt lat="38.839886" lon="-0.410931">
        <ele>583.015</ele>
        <time>2022-07-10T05:29:10Z</time>
      </trkpt>
      <trkpt lat="38.839873" lon="-0.410926">
        <ele>583.226</ele>
        <time>2022-07-10T05:29:11Z</time>
      </trkpt>
      <trkpt lat="38.839853" lon="-0.410905">
        <ele>583.409</ele>
        <time>2022-07-10T05:29:13Z</time>
      </trkpt>
      <trkpt lat="38.839844" lon="-0.410872">
        <ele>584.080</ele>
        <time>2022-07-10T05:29:16Z</time>
      </trkpt>
      <trkpt lat="38.839781" lon="-0.410829">
        <ele>585.219</ele>
        <time>2022-07-10T05:29:23Z</time>
      </trkpt>
      <trkpt lat="38.839764" lon="-0.410813">
        <ele>585.626</ele>
        <time>2022-07-10T05:29:25Z</time>
      </trkpt>
      <trkpt lat="38.839744" lon="-0.410785">
        <ele>586.464</ele>
        <time>2022-07-10T05:29:29Z</time>
      </trkpt>
      <trkpt lat="38.839715" lon="-0.410759">
        <ele>587.233</ele>
        <time>2022-07-10T05:29:34Z</time>
      </trkpt>
      <trkpt lat="38.839696" lon="-0.410752">
        <ele>587.689</ele>
        <time>2022-07-10T05:29:35Z</time>
      </trkpt>
      <trkpt lat="38.839690" lon="-0.410740">
        <ele>587.872</ele>
        <time>2022-07-10T05:29:36Z</time>
      </trkpt>
      <trkpt lat="38.839677" lon="-0.410685">
        <ele>588.669</ele>
        <time>2022-07-10T05:29:40Z</time>
      </trkpt>
      <trkpt lat="38.839668" lon="-0.410676">
        <ele>588.846</ele>
        <time>2022-07-10T05:29:41Z</time>
      </trkpt>
      <trkpt lat="38.839628" lon="-0.410655">
        <ele>589.418</ele>
        <time>2022-07-10T05:29:45Z</time>
      </trkpt>
      <trkpt lat="38.839624" lon="-0.410639">
        <ele>589.698</ele>
        <time>2022-07-10T05:29:46Z</time>
      </trkpt>
      <trkpt lat="38.839616" lon="-0.410614">
        <ele>589.817</ele>
        <time>2022-07-10T05:29:48Z</time>
      </trkpt>
      <trkpt lat="38.839600" lon="-0.410598">
        <ele>590.409</ele>
        <time>2022-07-10T05:29:50Z</time>
      </trkpt>
      <trkpt lat="38.839578" lon="-0.410576">
        <ele>590.632</ele>
        <time>2022-07-10T05:29:52Z</time>
      </trkpt>
      <trkpt lat="38.839564" lon="-0.410549">
        <ele>591.061</ele>
        <time>2022-07-10T05:29:54Z</time>
      </trkpt>
      <trkpt lat="38.839543" lon="-0.410520">
        <ele>591.828</ele>
        <time>2022-07-10T05:29:57Z</time>
      </trkpt>
      <trkpt lat="38.839537" lon="-0.410515">
        <ele>592.016</ele>
        <time>2022-07-10T05:29:58Z</time>
      </trkpt>
      <trkpt lat="38.839532" lon="-0.410507">
        <ele>592.295</ele>
        <time>2022-07-10T05:29:59Z</time>
      </trkpt>
      <trkpt lat="38.839517" lon="-0.410477">
        <ele>592.881</ele>
        <time>2022-07-10T05:30:03Z</time>
      </trkpt>
      <trkpt lat="38.839502" lon="-0.410457">
        <ele>593.464</ele>
        <time>2022-07-10T05:30:05Z</time>
      </trkpt>
      <trkpt lat="38.839468" lon="-0.410427">
        <ele>594.031</ele>
        <time>2022-07-10T05:30:10Z</time>
      </trkpt>
      <trkpt lat="38.839456" lon="-0.410430">
        <ele>594.218</ele>
        <time>2022-07-10T05:30:11Z</time>
      </trkpt>
      <trkpt lat="38.839447" lon="-0.410429">
        <ele>594.699</ele>
        <time>2022-07-10T05:30:12Z</time>
      </trkpt>
      <trkpt lat="38.839406" lon="-0.410421">
        <ele>595.207</ele>
        <time>2022-07-10T05:30:16Z</time>
      </trkpt>
      <trkpt lat="38.839382" lon="-0.410405">
        <ele>595.627</ele>
        <time>2022-07-10T05:30:18Z</time>
      </trkpt>
      <trkpt lat="38.839373" lon="-0.410406">
        <ele>595.809</ele>
        <time>2022-07-10T05:30:19Z</time>
      </trkpt>
      <trkpt lat="38.839337" lon="-0.410396">
        <ele>596.290</ele>
        <time>2022-07-10T05:30:22Z</time>
      </trkpt>
      <trkpt lat="38.839307" lon="-0.410395">
        <ele>596.649</ele>
        <time>2022-07-10T05:30:24Z</time>
      </trkpt>
      <trkpt lat="38.839250" lon="-0.410413">
        <ele>597.246</ele>
        <time>2022-07-10T05:30:27Z</time>
      </trkpt>
      <trkpt lat="38.839213" lon="-0.410405">
        <ele>597.844</ele>
        <time>2022-07-10T05:30:30Z</time>
      </trkpt>
      <trkpt lat="38.839142" lon="-0.410365">
        <ele>598.633</ele>
        <time>2022-07-10T05:30:36Z</time>
      </trkpt>
      <trkpt lat="38.839131" lon="-0.410360">
        <ele>598.869</ele>
        <time>2022-07-10T05:30:37Z</time>
      </trkpt>
      <trkpt lat="38.839103" lon="-0.410324">
        <ele>599.882</ele>
        <time>2022-07-10T05:30:42Z</time>
      </trkpt>
      <trkpt lat="38.839095" lon="-0.410326">
        <ele>599.879</ele>
        <time>2022-07-10T05:30:43Z</time>
      </trkpt>
      <trkpt lat="38.839089" lon="-0.410324">
        <ele>600.036</ele>
        <time>2022-07-10T05:30:44Z</time>
      </trkpt>
      <trkpt lat="38.839074" lon="-0.410323">
        <ele>601.036</ele>
        <time>2022-07-10T05:30:47Z</time>
      </trkpt>
      <trkpt lat="38.839047" lon="-0.410306">
        <ele>601.617</ele>
        <time>2022-07-10T05:30:50Z</time>
      </trkpt>
      <trkpt lat="38.839023" lon="-0.410303">
        <ele>602.218</ele>
        <time>2022-07-10T05:30:52Z</time>
      </trkpt>
      <trkpt lat="38.838988" lon="-0.410289">
        <ele>602.809</ele>
        <time>2022-07-10T05:30:56Z</time>
      </trkpt>
      <trkpt lat="38.838984" lon="-0.410279">
        <ele>602.864</ele>
        <time>2022-07-10T05:30:57Z</time>
      </trkpt>
      <trkpt lat="38.838977" lon="-0.410260">
        <ele>603.443</ele>
        <time>2022-07-10T05:30:59Z</time>
      </trkpt>
      <trkpt lat="38.838964" lon="-0.410236">
        <ele>604.040</ele>
        <time>2022-07-10T05:31:02Z</time>
      </trkpt>
      <trkpt lat="38.838957" lon="-0.410210">
        <ele>604.468</ele>
        <time>2022-07-10T05:31:05Z</time>
      </trkpt>
      <trkpt lat="38.838955" lon="-0.410199">
        <ele>604.647</ele>
        <time>2022-07-10T05:31:06Z</time>
      </trkpt>
      <trkpt lat="38.838951" lon="-0.410186">
        <ele>604.863</ele>
        <time>2022-07-10T05:31:07Z</time>
      </trkpt>
      <trkpt lat="38.838929" lon="-0.410151">
        <ele>605.656</ele>
        <time>2022-07-10T05:31:10Z</time>
      </trkpt>
      <trkpt lat="38.838877" lon="-0.410120">
        <ele>606.633</ele>
        <time>2022-07-10T05:31:15Z</time>
      </trkpt>
      <trkpt lat="38.838857" lon="-0.410048">
        <ele>607.660</ele>
        <time>2022-07-10T05:31:20Z</time>
      </trkpt>
      <trkpt lat="38.838851" lon="-0.410038">
        <ele>607.834</ele>
        <time>2022-07-10T05:31:21Z</time>
      </trkpt>
      <trkpt lat="38.838843" lon="-0.410030">
        <ele>608.055</ele>
        <time>2022-07-10T05:31:22Z</time>
      </trkpt>
      <trkpt lat="38.838821" lon="-0.410008">
        <ele>608.810</ele>
        <time>2022-07-10T05:31:25Z</time>
      </trkpt>
      <trkpt lat="38.838823" lon="-0.409994">
        <ele>609.009</ele>
        <time>2022-07-10T05:31:26Z</time>
      </trkpt>
      <trkpt lat="38.838824" lon="-0.409982">
        <ele>609.224</ele>
        <time>2022-07-10T05:31:27Z</time>
      </trkpt>
      <trkpt lat="38.838811" lon="-0.409946">
        <ele>609.883</ele>
        <time>2022-07-10T05:31:31Z</time>
      </trkpt>
      <trkpt lat="38.838808" lon="-0.409894">
        <ele>610.440</ele>
        <time>2022-07-10T05:31:34Z</time>
      </trkpt>
      <trkpt lat="38.838803" lon="-0.409867">
        <ele>611.078</ele>
        <time>2022-07-10T05:31:36Z</time>
      </trkpt>
      <trkpt lat="38.838779" lon="-0.409859">
        <ele>611.887</ele>
        <time>2022-07-10T05:31:39Z</time>
      </trkpt>
      <trkpt lat="38.838769" lon="-0.409847">
        <ele>612.083</ele>
        <time>2022-07-10T05:31:41Z</time>
      </trkpt>
      <trkpt lat="38.838767" lon="-0.409814">
        <ele>612.676</ele>
        <time>2022-07-10T05:31:44Z</time>
      </trkpt>
      <trkpt lat="38.838762" lon="-0.409773">
        <ele>613.263</ele>
        <time>2022-07-10T05:31:47Z</time>
      </trkpt>
      <trkpt lat="38.838751" lon="-0.409760">
        <ele>613.860</ele>
        <time>2022-07-10T05:31:49Z</time>
      </trkpt>
      <trkpt lat="38.838755" lon="-0.409702">
        <ele>614.466</ele>
        <time>2022-07-10T05:31:52Z</time>
      </trkpt>
      <trkpt lat="38.838747" lon="-0.409637">
        <ele>615.629</ele>
        <time>2022-07-10T05:31:57Z</time>
      </trkpt>
      <trkpt lat="38.838727" lon="-0.409610">
        <ele>616.021</ele>
        <time>2022-07-10T05:32:00Z</time>
      </trkpt>
      <trkpt lat="38.838712" lon="-0.409600">
        <ele>616.209</ele>
        <time>2022-07-10T05:32:01Z</time>
      </trkpt>
      <trkpt lat="38.838706" lon="-0.409566">
        <ele>616.857</ele>
        <time>2022-07-10T05:32:03Z</time>
      </trkpt>
      <trkpt lat="38.838704" lon="-0.409555">
        <ele>617.096</ele>
        <time>2022-07-10T05:32:04Z</time>
      </trkpt>
      <trkpt lat="38.838678" lon="-0.409534">
        <ele>617.683</ele>
        <time>2022-07-10T05:32:07Z</time>
      </trkpt>
      <trkpt lat="38.838669" lon="-0.409528">
        <ele>617.891</ele>
        <time>2022-07-10T05:32:08Z</time>
      </trkpt>
      <trkpt lat="38.838670" lon="-0.409482">
        <ele>618.470</ele>
        <time>2022-07-10T05:32:11Z</time>
      </trkpt>
      <trkpt lat="38.838657" lon="-0.409439">
        <ele>618.876</ele>
        <time>2022-07-10T05:32:14Z</time>
      </trkpt>
      <trkpt lat="38.838644" lon="-0.409415">
        <ele>619.089</ele>
        <time>2022-07-10T05:32:16Z</time>
      </trkpt>
      <trkpt lat="38.838639" lon="-0.409400">
        <ele>619.486</ele>
        <time>2022-07-10T05:32:17Z</time>
      </trkpt>
      <trkpt lat="38.838629" lon="-0.409377">
        <ele>619.823</ele>
        <time>2022-07-10T05:32:19Z</time>
      </trkpt>
      <trkpt lat="38.838615" lon="-0.409348">
        <ele>620.274</ele>
        <time>2022-07-10T05:32:22Z</time>
      </trkpt>
      <trkpt lat="38.838602" lon="-0.409345">
        <ele>620.656</ele>
        <time>2022-07-10T05:32:24Z</time>
      </trkpt>
      <trkpt lat="38.838584" lon="-0.409298">
        <ele>621.221</ele>
        <time>2022-07-10T05:32:27Z</time>
      </trkpt>
      <trkpt lat="38.838572" lon="-0.409286">
        <ele>621.409</ele>
        <time>2022-07-10T05:32:28Z</time>
      </trkpt>
      <trkpt lat="38.838549" lon="-0.409239">
        <ele>622.288</ele>
        <time>2022-07-10T05:32:32Z</time>
      </trkpt>
      <trkpt lat="38.838548" lon="-0.409226">
        <ele>622.447</ele>
        <time>2022-07-10T05:32:33Z</time>
      </trkpt>
      <trkpt lat="38.838533" lon="-0.409181">
        <ele>623.444</ele>
        <time>2022-07-10T05:32:38Z</time>
      </trkpt>
      <trkpt lat="38.838524" lon="-0.409165">
        <ele>623.852</ele>
        <time>2022-07-10T05:32:40Z</time>
      </trkpt>
      <trkpt lat="38.838522" lon="-0.409146">
        <ele>624.631</ele>
        <time>2022-07-10T05:32:43Z</time>
      </trkpt>
      <trkpt lat="38.838502" lon="-0.409140">
        <ele>624.857</ele>
        <time>2022-07-10T05:32:46Z</time>
      </trkpt>
      <trkpt lat="38.838496" lon="-0.409127">
        <ele>625.010</ele>
        <time>2022-07-10T05:32:47Z</time>
      </trkpt>
      <trkpt lat="38.838474" lon="-0.409098">
        <ele>625.467</ele>
        <time>2022-07-10T05:32:49Z</time>
      </trkpt>
      <trkpt lat="38.838453" lon="-0.409074">
        <ele>625.614</ele>
        <time>2022-07-10T05:32:51Z</time>
      </trkpt>
      <trkpt lat="38.838446" lon="-0.409064">
        <ele>626.092</ele>
        <time>2022-07-10T05:32:53Z</time>
      </trkpt>
      <trkpt lat="38.838438" lon="-0.409040">
        <ele>626.473</ele>
        <time>2022-07-10T05:32:55Z</time>
      </trkpt>
      <trkpt lat="38.838432" lon="-0.409021">
        <ele>626.820</ele>
        <time>2022-07-10T05:32:57Z</time>
      </trkpt>
      <trkpt lat="38.838421" lon="-0.409012">
        <ele>627.009</ele>
        <time>2022-07-10T05:32:58Z</time>
      </trkpt>
      <trkpt lat="38.838391" lon="-0.408979">
        <ele>627.840</ele>
        <time>2022-07-10T05:33:01Z</time>
      </trkpt>
      <trkpt lat="38.838379" lon="-0.408968">
        <ele>628.099</ele>
        <time>2022-07-10T05:33:02Z</time>
      </trkpt>
      <trkpt lat="38.838343" lon="-0.408950">
        <ele>628.816</ele>
        <time>2022-07-10T05:33:06Z</time>
      </trkpt>
      <trkpt lat="38.838331" lon="-0.408942">
        <ele>629.494</ele>
        <time>2022-07-10T05:33:08Z</time>
      </trkpt>
      <trkpt lat="38.838281" lon="-0.408917">
        <ele>630.053</ele>
        <time>2022-07-10T05:33:12Z</time>
      </trkpt>
      <trkpt lat="38.838251" lon="-0.408877">
        <ele>630.689</ele>
        <time>2022-07-10T05:33:16Z</time>
      </trkpt>
      <trkpt lat="38.838240" lon="-0.408855">
        <ele>631.262</ele>
        <time>2022-07-10T05:33:18Z</time>
      </trkpt>
      <trkpt lat="38.838241" lon="-0.408849">
        <ele>631.469</ele>
        <time>2022-07-10T05:33:19Z</time>
      </trkpt>
      <trkpt lat="38.838263" lon="-0.408844">
        <ele>632.056</ele>
        <time>2022-07-10T05:33:22Z</time>
      </trkpt>
      <trkpt lat="38.838285" lon="-0.408844">
        <ele>632.495</ele>
        <time>2022-07-10T05:33:24Z</time>
      </trkpt>
      <trkpt lat="38.838297" lon="-0.408845">
        <ele>632.449</ele>
        <time>2022-07-10T05:33:25Z</time>
      </trkpt>
      <trkpt lat="38.838343" lon="-0.408840">
        <ele>633.223</ele>
        <time>2022-07-10T05:33:29Z</time>
      </trkpt>
      <trkpt lat="38.838369" lon="-0.408844">
        <ele>633.409</ele>
        <time>2022-07-10T05:33:31Z</time>
      </trkpt>
      <trkpt lat="38.838441" lon="-0.408840">
        <ele>634.460</ele>
        <time>2022-07-10T05:33:37Z</time>
      </trkpt>
      <trkpt lat="38.838455" lon="-0.408841">
        <ele>634.659</ele>
        <time>2022-07-10T05:33:38Z</time>
      </trkpt>
      <trkpt lat="38.838519" lon="-0.408869">
        <ele>635.446</ele>
        <time>2022-07-10T05:33:43Z</time>
      </trkpt>
      <trkpt lat="38.838576" lon="-0.408860">
        <ele>636.254</ele>
        <time>2022-07-10T05:33:48Z</time>
      </trkpt>
      <trkpt lat="38.838601" lon="-0.408873">
        <ele>636.653</ele>
        <time>2022-07-10T05:33:51Z</time>
      </trkpt>
      <trkpt lat="38.838623" lon="-0.408883">
        <ele>637.069</ele>
        <time>2022-07-10T05:33:54Z</time>
      </trkpt>
      <trkpt lat="38.838632" lon="-0.408883">
        <ele>637.282</ele>
        <time>2022-07-10T05:33:55Z</time>
      </trkpt>
      <trkpt lat="38.838652" lon="-0.408899">
        <ele>637.639</ele>
        <time>2022-07-10T05:33:57Z</time>
      </trkpt>
      <trkpt lat="38.838660" lon="-0.408906">
        <ele>637.646</ele>
        <time>2022-07-10T05:33:58Z</time>
      </trkpt>
      <trkpt lat="38.838687" lon="-0.408912">
        <ele>638.072</ele>
        <time>2022-07-10T05:34:01Z</time>
      </trkpt>
      <trkpt lat="38.838711" lon="-0.408917">
        <ele>638.813</ele>
        <time>2022-07-10T05:34:04Z</time>
      </trkpt>
      <trkpt lat="38.838724" lon="-0.408904">
        <ele>639.214</ele>
        <time>2022-07-10T05:34:06Z</time>
      </trkpt>
      <trkpt lat="38.838730" lon="-0.408906">
        <ele>639.409</ele>
        <time>2022-07-10T05:34:08Z</time>
      </trkpt>
      <trkpt lat="38.838732" lon="-0.408904">
        <ele>639.448</ele>
        <time>2022-07-10T05:34:09Z</time>
      </trkpt>
      <trkpt lat="38.838741" lon="-0.408884">
        <ele>639.417</ele>
        <time>2022-07-10T05:34:12Z</time>
      </trkpt>
      <trkpt lat="38.838736" lon="-0.408874">
        <ele>639.694</ele>
        <time>2022-07-10T05:34:13Z</time>
      </trkpt>
      <trkpt lat="38.838727" lon="-0.408835">
        <ele>639.632</ele>
        <time>2022-07-10T05:34:15Z</time>
      </trkpt>
      <trkpt lat="38.838704" lon="-0.408801">
        <ele>639.871</ele>
        <time>2022-07-10T05:34:17Z</time>
      </trkpt>
      <trkpt lat="38.838697" lon="-0.408789">
        <ele>639.877</ele>
        <time>2022-07-10T05:34:18Z</time>
      </trkpt>
      <trkpt lat="38.838692" lon="-0.408783">
        <ele>640.030</ele>
        <time>2022-07-10T05:34:19Z</time>
      </trkpt>
      <trkpt lat="38.838687" lon="-0.408776">
        <ele>640.297</ele>
        <time>2022-07-10T05:34:20Z</time>
      </trkpt>
      <trkpt lat="38.838675" lon="-0.408757">
        <ele>640.434</ele>
        <time>2022-07-10T05:34:22Z</time>
      </trkpt>
      <trkpt lat="38.838650" lon="-0.408728">
        <ele>641.099</ele>
        <time>2022-07-10T05:34:25Z</time>
      </trkpt>
      <trkpt lat="38.838640" lon="-0.408721">
        <ele>641.207</ele>
        <time>2022-07-10T05:34:26Z</time>
      </trkpt>
      <trkpt lat="38.838627" lon="-0.408701">
        <ele>642.027</ele>
        <time>2022-07-10T05:34:29Z</time>
      </trkpt>
      <trkpt lat="38.838601" lon="-0.408651">
        <ele>642.809</ele>
        <time>2022-07-10T05:34:34Z</time>
      </trkpt>
      <trkpt lat="38.838586" lon="-0.408625">
        <ele>643.220</ele>
        <time>2022-07-10T05:34:36Z</time>
      </trkpt>
      <trkpt lat="38.838578" lon="-0.408620">
        <ele>643.469</ele>
        <time>2022-07-10T05:34:37Z</time>
      </trkpt>
      <trkpt lat="38.838563" lon="-0.408601">
        <ele>644.086</ele>
        <time>2022-07-10T05:34:39Z</time>
      </trkpt>
      <trkpt lat="38.838558" lon="-0.408587">
        <ele>644.294</ele>
        <time>2022-07-10T05:34:40Z</time>
      </trkpt>
      <trkpt lat="38.838552" lon="-0.408577">
        <ele>644.453</ele>
        <time>2022-07-10T05:34:41Z</time>
      </trkpt>
      <trkpt lat="38.838507" lon="-0.408545">
        <ele>645.249</ele>
        <time>2022-07-10T05:34:45Z</time>
      </trkpt>
      <trkpt lat="38.838494" lon="-0.408537">
        <ele>645.622</ele>
        <time>2022-07-10T05:34:47Z</time>
      </trkpt>
      <trkpt lat="38.838489" lon="-0.408534">
        <ele>645.639</ele>
        <time>2022-07-10T05:34:48Z</time>
      </trkpt>
      <trkpt lat="38.838497" lon="-0.408515">
        <ele>646.616</ele>
        <time>2022-07-10T05:34:52Z</time>
      </trkpt>
      <trkpt lat="38.838462" lon="-0.408476">
        <ele>647.821</ele>
        <time>2022-07-10T05:34:57Z</time>
      </trkpt>
      <trkpt lat="38.838462" lon="-0.408474">
        <ele>647.841</ele>
        <time>2022-07-10T05:34:58Z</time>
      </trkpt>
      <trkpt lat="38.838454" lon="-0.408468">
        <ele>648.205</ele>
        <time>2022-07-10T05:35:00Z</time>
      </trkpt>
      <trkpt lat="38.838439" lon="-0.408456">
        <ele>648.409</ele>
        <time>2022-07-10T05:35:02Z</time>
      </trkpt>
      <trkpt lat="38.838445" lon="-0.408433">
        <ele>648.653</ele>
        <time>2022-07-10T05:35:04Z</time>
      </trkpt>
      <trkpt lat="38.838452" lon="-0.408432">
        <ele>648.892</ele>
        <time>2022-07-10T05:35:05Z</time>
      </trkpt>
      <trkpt lat="38.838475" lon="-0.408443">
        <ele>649.229</ele>
        <time>2022-07-10T05:35:08Z</time>
      </trkpt>
      <trkpt lat="38.838495" lon="-0.408452">
        <ele>649.677</ele>
        <time>2022-07-10T05:35:10Z</time>
      </trkpt>
      <trkpt lat="38.838504" lon="-0.408455">
        <ele>649.846</ele>
        <time>2022-07-10T05:35:11Z</time>
      </trkpt>
      <trkpt lat="38.838542" lon="-0.408479">
        <ele>650.632</ele>
        <time>2022-07-10T05:35:16Z</time>
      </trkpt>
      <trkpt lat="38.838550" lon="-0.408481">
        <ele>650.865</ele>
        <time>2022-07-10T05:35:17Z</time>
      </trkpt>
      <trkpt lat="38.838609" lon="-0.408492">
        <ele>651.882</ele>
        <time>2022-07-10T05:35:23Z</time>
      </trkpt>
      <trkpt lat="38.838668" lon="-0.408497">
        <ele>653.049</ele>
        <time>2022-07-10T05:35:29Z</time>
      </trkpt>
      <trkpt lat="38.838719" lon="-0.408507">
        <ele>653.872</ele>
        <time>2022-07-10T05:35:33Z</time>
      </trkpt>
      <trkpt lat="38.838731" lon="-0.408512">
        <ele>654.013</ele>
        <time>2022-07-10T05:35:34Z</time>
      </trkpt>
      <trkpt lat="38.838766" lon="-0.408530">
        <ele>654.414</ele>
        <time>2022-07-10T05:35:37Z</time>
      </trkpt>
      <trkpt lat="38.838788" lon="-0.408535">
        <ele>654.809</ele>
        <time>2022-07-10T05:35:39Z</time>
      </trkpt>
      <trkpt lat="38.838817" lon="-0.408540">
        <ele>655.028</ele>
        <time>2022-07-10T05:35:42Z</time>
      </trkpt>
      <trkpt lat="38.838859" lon="-0.408556">
        <ele>655.667</ele>
        <time>2022-07-10T05:35:45Z</time>
      </trkpt>
      <trkpt lat="38.838876" lon="-0.408573">
        <ele>656.294</ele>
        <time>2022-07-10T05:35:47Z</time>
      </trkpt>
      <trkpt lat="38.838926" lon="-0.408637">
        <ele>657.232</ele>
        <time>2022-07-10T05:35:54Z</time>
      </trkpt>
      <trkpt lat="38.838986" lon="-0.408677">
        <ele>658.441</ele>
        <time>2022-07-10T05:36:00Z</time>
      </trkpt>
      <trkpt lat="38.839028" lon="-0.408714">
        <ele>659.497</ele>
        <time>2022-07-10T05:36:06Z</time>
      </trkpt>
      <trkpt lat="38.839039" lon="-0.408742">
        <ele>659.810</ele>
        <time>2022-07-10T05:36:09Z</time>
      </trkpt>
      <trkpt lat="38.839055" lon="-0.408761">
        <ele>660.297</ele>
        <time>2022-07-10T05:36:11Z</time>
      </trkpt>
      <trkpt lat="38.839079" lon="-0.408783">
        <ele>660.624</ele>
        <time>2022-07-10T05:36:13Z</time>
      </trkpt>
      <trkpt lat="38.839126" lon="-0.408789">
        <ele>661.241</ele>
        <time>2022-07-10T05:36:16Z</time>
      </trkpt>
      <trkpt lat="38.839138" lon="-0.408799">
        <ele>661.481</ele>
        <time>2022-07-10T05:36:17Z</time>
      </trkpt>
      <trkpt lat="38.839168" lon="-0.408815">
        <ele>661.609</ele>
        <time>2022-07-10T05:36:19Z</time>
      </trkpt>
      <trkpt lat="38.839192" lon="-0.408832">
        <ele>662.209</ele>
        <time>2022-07-10T05:36:22Z</time>
      </trkpt>
      <trkpt lat="38.839211" lon="-0.408844">
        <ele>662.625</ele>
        <time>2022-07-10T05:36:25Z</time>
      </trkpt>
      <trkpt lat="38.839230" lon="-0.408880">
        <ele>663.214</ele>
        <time>2022-07-10T05:36:28Z</time>
      </trkpt>
      <trkpt lat="38.839260" lon="-0.408906">
        <ele>663.831</ele>
        <time>2022-07-10T05:36:31Z</time>
      </trkpt>
      <trkpt lat="38.839317" lon="-0.408910">
        <ele>664.259</ele>
        <time>2022-07-10T05:36:35Z</time>
      </trkpt>
      <trkpt lat="38.839366" lon="-0.408907">
        <ele>664.888</ele>
        <time>2022-07-10T05:36:39Z</time>
      </trkpt>
      <trkpt lat="38.839403" lon="-0.408899">
        <ele>665.494</ele>
        <time>2022-07-10T05:36:43Z</time>
      </trkpt>
      <trkpt lat="38.839425" lon="-0.408899">
        <ele>665.827</ele>
        <time>2022-07-10T05:36:45Z</time>
      </trkpt>
      <trkpt lat="38.839470" lon="-0.408909">
        <ele>666.484</ele>
        <time>2022-07-10T05:36:49Z</time>
      </trkpt>
      <trkpt lat="38.839506" lon="-0.408924">
        <ele>667.071</ele>
        <time>2022-07-10T05:36:52Z</time>
      </trkpt>
      <trkpt lat="38.839576" lon="-0.408933">
        <ele>667.847</ele>
        <time>2022-07-10T05:36:58Z</time>
      </trkpt>
      <trkpt lat="38.839581" lon="-0.408942">
        <ele>668.029</ele>
        <time>2022-07-10T05:36:59Z</time>
      </trkpt>
      <trkpt lat="38.839587" lon="-0.408947">
        <ele>668.221</ele>
        <time>2022-07-10T05:37:00Z</time>
      </trkpt>
      <trkpt lat="38.839624" lon="-0.408942">
        <ele>668.609</ele>
        <time>2022-07-10T05:37:04Z</time>
      </trkpt>
      <trkpt lat="38.839653" lon="-0.408940">
        <ele>669.215</ele>
        <time>2022-07-10T05:37:06Z</time>
      </trkpt>
      <trkpt lat="38.839662" lon="-0.408945">
        <ele>669.624</ele>
        <time>2022-07-10T05:37:07Z</time>
      </trkpt>
      <trkpt lat="38.839673" lon="-0.408963">
        <ele>670.081</ele>
        <time>2022-07-10T05:37:09Z</time>
      </trkpt>
      <trkpt lat="38.839692" lon="-0.408973">
        <ele>670.249</ele>
        <time>2022-07-10T05:37:12Z</time>
      </trkpt>
      <trkpt lat="38.839710" lon="-0.408968">
        <ele>670.418</ele>
        <time>2022-07-10T05:37:13Z</time>
      </trkpt>
      <trkpt lat="38.839759" lon="-0.408965">
        <ele>671.074</ele>
        <time>2022-07-10T05:37:16Z</time>
      </trkpt>
      <trkpt lat="38.839802" lon="-0.408970">
        <ele>671.637</ele>
        <time>2022-07-10T05:37:20Z</time>
      </trkpt>
      <trkpt lat="38.839844" lon="-0.408988">
        <ele>672.444</ele>
        <time>2022-07-10T05:37:24Z</time>
      </trkpt>
      <trkpt lat="38.839851" lon="-0.408991">
        <ele>672.671</ele>
        <time>2022-07-10T05:37:25Z</time>
      </trkpt>
      <trkpt lat="38.839941" lon="-0.409031">
        <ele>673.617</ele>
        <time>2022-07-10T05:37:33Z</time>
      </trkpt>
      <trkpt lat="38.839972" lon="-0.409062">
        <ele>674.287</ele>
        <time>2022-07-10T05:37:36Z</time>
      </trkpt>
      <trkpt lat="38.840009" lon="-0.409058">
        <ele>674.815</ele>
        <time>2022-07-10T05:37:39Z</time>
      </trkpt>
      <trkpt lat="38.840035" lon="-0.409062">
        <ele>674.809</ele>
        <time>2022-07-10T05:37:41Z</time>
      </trkpt>
      <trkpt lat="38.840113" lon="-0.409078">
        <ele>675.812</ele>
        <time>2022-07-10T05:37:47Z</time>
      </trkpt>
      <trkpt lat="38.840136" lon="-0.409091">
        <ele>676.411</ele>
        <time>2022-07-10T05:37:50Z</time>
      </trkpt>
      <trkpt lat="38.840138" lon="-0.409094">
        <ele>676.628</ele>
        <time>2022-07-10T05:37:51Z</time>
      </trkpt>
      <trkpt lat="38.840133" lon="-0.409089">
        <ele>676.816</ele>
        <time>2022-07-10T05:37:53Z</time>
      </trkpt>
      <trkpt lat="38.840136" lon="-0.409092">
        <ele>676.845</ele>
        <time>2022-07-10T05:37:54Z</time>
      </trkpt>
      <trkpt lat="38.840138" lon="-0.409099">
        <ele>676.861</ele>
        <time>2022-07-10T05:37:55Z</time>
      </trkpt>
      <trkpt lat="38.840155" lon="-0.409114">
        <ele>677.054</ele>
        <time>2022-07-10T05:37:57Z</time>
      </trkpt>
      <trkpt lat="38.840188" lon="-0.409104">
        <ele>677.091</ele>
        <time>2022-07-10T05:37:59Z</time>
      </trkpt>
      <trkpt lat="38.840238" lon="-0.409084">
        <ele>677.068</ele>
        <time>2022-07-10T05:38:04Z</time>
      </trkpt>
      <trkpt lat="38.840285" lon="-0.409092">
        <ele>677.838</ele>
        <time>2022-07-10T05:38:09Z</time>
      </trkpt>
      <trkpt lat="38.840292" lon="-0.409093">
        <ele>677.870</ele>
        <time>2022-07-10T05:38:10Z</time>
      </trkpt>
      <trkpt lat="38.840299" lon="-0.409102">
        <ele>678.217</ele>
        <time>2022-07-10T05:38:12Z</time>
      </trkpt>
      <trkpt lat="38.840311" lon="-0.409110">
        <ele>678.809</ele>
        <time>2022-07-10T05:38:15Z</time>
      </trkpt>
      <trkpt lat="38.840324" lon="-0.409111">
        <ele>679.084</ele>
        <time>2022-07-10T05:38:17Z</time>
      </trkpt>
      <trkpt lat="38.840340" lon="-0.409114">
        <ele>679.273</ele>
        <time>2022-07-10T05:38:19Z</time>
      </trkpt>
      <trkpt lat="38.840371" lon="-0.409118">
        <ele>679.810</ele>
        <time>2022-07-10T05:38:22Z</time>
      </trkpt>
      <trkpt lat="38.840391" lon="-0.409121">
        <ele>680.238</ele>
        <time>2022-07-10T05:38:24Z</time>
      </trkpt>
      <trkpt lat="38.840427" lon="-0.409162">
        <ele>681.097</ele>
        <time>2022-07-10T05:38:28Z</time>
      </trkpt>
      <trkpt lat="38.840471" lon="-0.409174">
        <ele>681.653</ele>
        <time>2022-07-10T05:38:33Z</time>
      </trkpt>
      <trkpt lat="38.840489" lon="-0.409189">
        <ele>682.016</ele>
        <time>2022-07-10T05:38:35Z</time>
      </trkpt>
      <trkpt lat="38.840501" lon="-0.409192">
        <ele>682.093</ele>
        <time>2022-07-10T05:38:36Z</time>
      </trkpt>
      <trkpt lat="38.840529" lon="-0.409205">
        <ele>682.290</ele>
        <time>2022-07-10T05:38:38Z</time>
      </trkpt>
      <trkpt lat="38.840566" lon="-0.409230">
        <ele>682.836</ele>
        <time>2022-07-10T05:38:42Z</time>
      </trkpt>
      <trkpt lat="38.840575" lon="-0.409244">
        <ele>683.017</ele>
        <time>2022-07-10T05:38:43Z</time>
      </trkpt>
      <trkpt lat="38.840629" lon="-0.409279">
        <ele>684.018</ele>
        <time>2022-07-10T05:38:49Z</time>
      </trkpt>
      <trkpt lat="38.840641" lon="-0.409281">
        <ele>684.009</ele>
        <time>2022-07-10T05:38:50Z</time>
      </trkpt>
      <trkpt lat="38.840697" lon="-0.409286">
        <ele>685.224</ele>
        <time>2022-07-10T05:38:56Z</time>
      </trkpt>
      <trkpt lat="38.840726" lon="-0.409301">
        <ele>685.463</ele>
        <time>2022-07-10T05:38:59Z</time>
      </trkpt>
      <trkpt lat="38.840789" lon="-0.409301">
        <ele>685.820</ele>
        <time>2022-07-10T05:39:03Z</time>
      </trkpt>
      <trkpt lat="38.840817" lon="-0.409310">
        <ele>686.258</ele>
        <time>2022-07-10T05:39:06Z</time>
      </trkpt>
      <trkpt lat="38.840847" lon="-0.409295">
        <ele>686.657</ele>
        <time>2022-07-10T05:39:08Z</time>
      </trkpt>
      <trkpt lat="38.840867" lon="-0.409314">
        <ele>687.413</ele>
        <time>2022-07-10T05:39:12Z</time>
      </trkpt>
      <trkpt lat="38.840877" lon="-0.409317">
        <ele>687.656</ele>
        <time>2022-07-10T05:39:13Z</time>
      </trkpt>
      <trkpt lat="38.840910" lon="-0.409341">
        <ele>688.013</ele>
        <time>2022-07-10T05:39:16Z</time>
      </trkpt>
      <trkpt lat="38.840954" lon="-0.409353">
        <ele>688.490</ele>
        <time>2022-07-10T05:39:19Z</time>
      </trkpt>
      <trkpt lat="38.840970" lon="-0.409347">
        <ele>688.498</ele>
        <time>2022-07-10T05:39:20Z</time>
      </trkpt>
      <trkpt lat="38.841000" lon="-0.409331">
        <ele>688.815</ele>
        <time>2022-07-10T05:39:22Z</time>
      </trkpt>
      <trkpt lat="38.841007" lon="-0.409330">
        <ele>689.026</ele>
        <time>2022-07-10T05:39:24Z</time>
      </trkpt>
      <trkpt lat="38.841035" lon="-0.409328">
        <ele>689.609</ele>
        <time>2022-07-10T05:39:28Z</time>
      </trkpt>
      <trkpt lat="38.841051" lon="-0.409346">
        <ele>689.840</ele>
        <time>2022-07-10T05:39:30Z</time>
      </trkpt>
      <trkpt lat="38.841076" lon="-0.409358">
        <ele>690.249</ele>
        <time>2022-07-10T05:39:32Z</time>
      </trkpt>
      <trkpt lat="38.841105" lon="-0.409363">
        <ele>690.666</ele>
        <time>2022-07-10T05:39:35Z</time>
      </trkpt>
      <trkpt lat="38.841109" lon="-0.409358">
        <ele>690.634</ele>
        <time>2022-07-10T05:39:36Z</time>
      </trkpt>
      <trkpt lat="38.841131" lon="-0.409359">
        <ele>691.073</ele>
        <time>2022-07-10T05:39:39Z</time>
      </trkpt>
      <trkpt lat="38.841155" lon="-0.409357">
        <ele>691.459</ele>
        <time>2022-07-10T05:39:41Z</time>
      </trkpt>
      <trkpt lat="38.841181" lon="-0.409341">
        <ele>691.852</ele>
        <time>2022-07-10T05:39:43Z</time>
      </trkpt>
      <trkpt lat="38.841279" lon="-0.409276">
        <ele>692.879</ele>
        <time>2022-07-10T05:39:50Z</time>
      </trkpt>
      <trkpt lat="38.841290" lon="-0.409265">
        <ele>692.866</ele>
        <time>2022-07-10T05:39:51Z</time>
      </trkpt>
      <trkpt lat="38.841312" lon="-0.409233">
        <ele>693.413</ele>
        <time>2022-07-10T05:39:54Z</time>
      </trkpt>
      <trkpt lat="38.841304" lon="-0.409213">
        <ele>693.843</ele>
        <time>2022-07-10T05:39:56Z</time>
      </trkpt>
      <trkpt lat="38.841254" lon="-0.409129">
        <ele>694.607</ele>
        <time>2022-07-10T05:40:03Z</time>
      </trkpt>
      <trkpt lat="38.841248" lon="-0.409099">
        <ele>694.809</ele>
        <time>2022-07-10T05:40:05Z</time>
      </trkpt>
      <trkpt lat="38.841246" lon="-0.409083">
        <ele>695.092</ele>
        <time>2022-07-10T05:40:06Z</time>
      </trkpt>
      <trkpt lat="38.841212" lon="-0.409008">
        <ele>695.831</ele>
        <time>2022-07-10T05:40:12Z</time>
      </trkpt>
      <trkpt lat="38.841206" lon="-0.409002">
        <ele>696.028</ele>
        <time>2022-07-10T05:40:13Z</time>
      </trkpt>
      <trkpt lat="38.841169" lon="-0.408938">
        <ele>696.826</ele>
        <time>2022-07-10T05:40:18Z</time>
      </trkpt>
      <trkpt lat="38.841160" lon="-0.408905">
        <ele>697.275</ele>
        <time>2022-07-10T05:40:20Z</time>
      </trkpt>
      <trkpt lat="38.841154" lon="-0.408876">
        <ele>697.491</ele>
        <time>2022-07-10T05:40:23Z</time>
      </trkpt>
      <trkpt lat="38.841145" lon="-0.408823">
        <ele>697.864</ele>
        <time>2022-07-10T05:40:27Z</time>
      </trkpt>
      <trkpt lat="38.841137" lon="-0.408799">
        <ele>698.251</ele>
        <time>2022-07-10T05:40:30Z</time>
      </trkpt>
      <trkpt lat="38.841084" lon="-0.408724">
        <ele>699.238</ele>
        <time>2022-07-10T05:40:36Z</time>
      </trkpt>
      <trkpt lat="38.841078" lon="-0.408714">
        <ele>699.496</ele>
        <time>2022-07-10T05:40:37Z</time>
      </trkpt>
      <trkpt lat="38.841072" lon="-0.408709">
        <ele>699.431</ele>
        <time>2022-07-10T05:40:38Z</time>
      </trkpt>
      <trkpt lat="38.841043" lon="-0.408686">
        <ele>700.024</ele>
        <time>2022-07-10T05:40:42Z</time>
      </trkpt>
      <trkpt lat="38.841035" lon="-0.408674">
        <ele>700.009</ele>
        <time>2022-07-10T05:40:43Z</time>
      </trkpt>
      <trkpt lat="38.841018" lon="-0.408647">
        <ele>700.460</ele>
        <time>2022-07-10T05:40:45Z</time>
      </trkpt>
      <trkpt lat="38.840997" lon="-0.408648">
        <ele>700.659</ele>
        <time>2022-07-10T05:40:47Z</time>
      </trkpt>
      <trkpt lat="38.840981" lon="-0.408675">
        <ele>701.056</ele>
        <time>2022-07-10T05:40:49Z</time>
      </trkpt>
      <trkpt lat="38.840980" lon="-0.408695">
        <ele>701.454</ele>
        <time>2022-07-10T05:40:51Z</time>
      </trkpt>
      <trkpt lat="38.840991" lon="-0.408734">
        <ele>702.023</ele>
        <time>2022-07-10T05:40:54Z</time>
      </trkpt>
      <trkpt lat="38.840991" lon="-0.408751">
        <ele>702.069</ele>
        <time>2022-07-10T05:40:55Z</time>
      </trkpt>
      <trkpt lat="38.840985" lon="-0.408805">
        <ele>702.672</ele>
        <time>2022-07-10T05:40:58Z</time>
      </trkpt>
      <trkpt lat="38.840975" lon="-0.408824">
        <ele>703.069</ele>
        <time>2022-07-10T05:41:00Z</time>
      </trkpt>
      <trkpt lat="38.840966" lon="-0.408824">
        <ele>703.226</ele>
        <time>2022-07-10T05:41:01Z</time>
      </trkpt>
      <trkpt lat="38.840958" lon="-0.408808">
        <ele>703.243</ele>
        <time>2022-07-10T05:41:03Z</time>
      </trkpt>
      <trkpt lat="38.840942" lon="-0.408783">
        <ele>703.864</ele>
        <time>2022-07-10T05:41:05Z</time>
      </trkpt>
      <trkpt lat="38.840930" lon="-0.408779">
        <ele>704.210</ele>
        <time>2022-07-10T05:41:06Z</time>
      </trkpt>
      <trkpt lat="38.840929" lon="-0.408782">
        <ele>704.409</ele>
        <time>2022-07-10T05:41:07Z</time>
      </trkpt>
      <trkpt lat="38.840933" lon="-0.408827">
        <ele>705.025</ele>
        <time>2022-07-10T05:41:10Z</time>
      </trkpt>
      <trkpt lat="38.840933" lon="-0.408844">
        <ele>705.264</ele>
        <time>2022-07-10T05:41:11Z</time>
      </trkpt>
      <trkpt lat="38.840900" lon="-0.408870">
        <ele>705.671</ele>
        <time>2022-07-10T05:41:14Z</time>
      </trkpt>
      <trkpt lat="38.840890" lon="-0.408873">
        <ele>706.059</ele>
        <time>2022-07-10T05:41:15Z</time>
      </trkpt>
      <trkpt lat="38.840885" lon="-0.408868">
        <ele>706.288</ele>
        <time>2022-07-10T05:41:16Z</time>
      </trkpt>
      <trkpt lat="38.840876" lon="-0.408825">
        <ele>707.024</ele>
        <time>2022-07-10T05:41:20Z</time>
      </trkpt>
      <trkpt lat="38.840861" lon="-0.408808">
        <ele>707.667</ele>
        <time>2022-07-10T05:41:22Z</time>
      </trkpt>
      <trkpt lat="38.840825" lon="-0.408750">
        <ele>708.074</ele>
        <time>2022-07-10T05:41:27Z</time>
      </trkpt>
      <trkpt lat="38.840822" lon="-0.408723">
        <ele>708.061</ele>
        <time>2022-07-10T05:41:29Z</time>
      </trkpt>
      <trkpt lat="38.840826" lon="-0.408693">
        <ele>708.271</ele>
        <time>2022-07-10T05:41:32Z</time>
      </trkpt>
      <trkpt lat="38.840824" lon="-0.408686">
        <ele>708.241</ele>
        <time>2022-07-10T05:41:33Z</time>
      </trkpt>
      <trkpt lat="38.840812" lon="-0.408652">
        <ele>708.415</ele>
        <time>2022-07-10T05:41:36Z</time>
      </trkpt>
      <trkpt lat="38.840793" lon="-0.408607">
        <ele>708.809</ele>
        <time>2022-07-10T05:41:39Z</time>
      </trkpt>
      <trkpt lat="38.840745" lon="-0.408533">
        <ele>709.268</ele>
        <time>2022-07-10T05:41:44Z</time>
      </trkpt>
      <trkpt lat="38.840719" lon="-0.408522">
        <ele>709.237</ele>
        <time>2022-07-10T05:41:46Z</time>
      </trkpt>
      <trkpt lat="38.840692" lon="-0.408505">
        <ele>709.284</ele>
        <time>2022-07-10T05:41:48Z</time>
      </trkpt>
      <trkpt lat="38.840669" lon="-0.408467">
        <ele>709.442</ele>
        <time>2022-07-10T05:41:51Z</time>
      </trkpt>
      <trkpt lat="38.840676" lon="-0.408448">
        <ele>709.661</ele>
        <time>2022-07-10T05:41:53Z</time>
      </trkpt>
      <trkpt lat="38.840688" lon="-0.408443">
        <ele>709.637</ele>
        <time>2022-07-10T05:41:55Z</time>
      </trkpt>
      <trkpt lat="38.840682" lon="-0.408438">
        <ele>709.640</ele>
        <time>2022-07-10T05:41:57Z</time>
      </trkpt>
      <trkpt lat="38.840639" lon="-0.408449">
        <ele>709.287</ele>
        <time>2022-07-10T05:43:19Z</time>
      </trkpt>
      <trkpt lat="38.840628" lon="-0.408443">
        <ele>709.264</ele>
        <time>2022-07-10T05:43:20Z</time>
      </trkpt>
      <trkpt lat="38.840621" lon="-0.408434">
        <ele>709.451</ele>
        <time>2022-07-10T05:43:21Z</time>
      </trkpt>
      <trkpt lat="38.840591" lon="-0.408403">
        <ele>709.601</ele>
        <time>2022-07-10T05:43:26Z</time>
      </trkpt>
      <trkpt lat="38.840538" lon="-0.408388">
        <ele>710.211</ele>
        <time>2022-07-10T05:43:29Z</time>
      </trkpt>
      <trkpt lat="38.840490" lon="-0.408361">
        <ele>710.809</ele>
        <time>2022-07-10T05:43:33Z</time>
      </trkpt>
      <trkpt lat="38.840416" lon="-0.408322">
        <ele>711.246</ele>
        <time>2022-07-10T05:43:40Z</time>
      </trkpt>
      <trkpt lat="38.840376" lon="-0.408301">
        <ele>711.855</ele>
        <time>2022-07-10T05:43:43Z</time>
      </trkpt>
      <trkpt lat="38.840324" lon="-0.408283">
        <ele>712.242</ele>
        <time>2022-07-10T05:43:48Z</time>
      </trkpt>
      <trkpt lat="38.840313" lon="-0.408278">
        <ele>712.470</ele>
        <time>2022-07-10T05:43:49Z</time>
      </trkpt>
      <trkpt lat="38.840256" lon="-0.408252">
        <ele>713.029</ele>
        <time>2022-07-10T05:43:53Z</time>
      </trkpt>
      <trkpt lat="38.840247" lon="-0.408241">
        <ele>713.285</ele>
        <time>2022-07-10T05:43:54Z</time>
      </trkpt>
      <trkpt lat="38.840247" lon="-0.408230">
        <ele>713.458</ele>
        <time>2022-07-10T05:43:55Z</time>
      </trkpt>
      <trkpt lat="38.840243" lon="-0.408202">
        <ele>713.685</ele>
        <time>2022-07-10T05:43:57Z</time>
      </trkpt>
      <trkpt lat="38.840232" lon="-0.408195">
        <ele>713.842</ele>
        <time>2022-07-10T05:43:58Z</time>
      </trkpt>
      <trkpt lat="38.840231" lon="-0.408194">
        <ele>714.059</ele>
        <time>2022-07-10T05:43:59Z</time>
      </trkpt>
      <trkpt lat="38.840223" lon="-0.408195">
        <ele>714.003</ele>
        <time>2022-07-10T05:44:00Z</time>
      </trkpt>
      <trkpt lat="38.840192" lon="-0.408178">
        <ele>714.423</ele>
        <time>2022-07-10T05:44:03Z</time>
      </trkpt>
      <trkpt lat="38.840184" lon="-0.408169">
        <ele>714.609</ele>
        <time>2022-07-10T05:44:04Z</time>
      </trkpt>
      <trkpt lat="38.840130" lon="-0.408132">
        <ele>715.216</ele>
        <time>2022-07-10T05:44:10Z</time>
      </trkpt>
      <trkpt lat="38.840109" lon="-0.408122">
        <ele>715.685</ele>
        <time>2022-07-10T05:44:12Z</time>
      </trkpt>
      <trkpt lat="38.840092" lon="-0.408115">
        <ele>715.662</ele>
        <time>2022-07-10T05:44:13Z</time>
      </trkpt>
      <trkpt lat="38.840075" lon="-0.408113">
        <ele>715.850</ele>
        <time>2022-07-10T05:44:15Z</time>
      </trkpt>
      <trkpt lat="38.840069" lon="-0.408113">
        <ele>716.039</ele>
        <time>2022-07-10T05:44:16Z</time>
      </trkpt>
      <trkpt lat="38.840054" lon="-0.408108">
        <ele>716.675</ele>
        <time>2022-07-10T05:44:19Z</time>
      </trkpt>
      <trkpt lat="38.840048" lon="-0.408104">
        <ele>716.668</ele>
        <time>2022-07-10T05:44:20Z</time>
      </trkpt>
      <trkpt lat="38.840036" lon="-0.408084">
        <ele>717.245</ele>
        <time>2022-07-10T05:44:22Z</time>
      </trkpt>
      <trkpt lat="38.840026" lon="-0.408074">
        <ele>717.242</ele>
        <time>2022-07-10T05:44:23Z</time>
      </trkpt>
      <trkpt lat="38.840007" lon="-0.408061">
        <ele>717.669</ele>
        <time>2022-07-10T05:44:25Z</time>
      </trkpt>
      <trkpt lat="38.839991" lon="-0.408054">
        <ele>717.604</ele>
        <time>2022-07-10T05:44:26Z</time>
      </trkpt>
      <trkpt lat="38.839938" lon="-0.408037">
        <ele>718.024</ele>
        <time>2022-07-10T05:44:28Z</time>
      </trkpt>
      <trkpt lat="38.839918" lon="-0.408033">
        <ele>718.009</ele>
        <time>2022-07-10T05:44:29Z</time>
      </trkpt>
      <trkpt lat="38.839863" lon="-0.407973">
        <ele>718.667</ele>
        <time>2022-07-10T05:44:34Z</time>
      </trkpt>
      <trkpt lat="38.839845" lon="-0.407942">
        <ele>719.096</ele>
        <time>2022-07-10T05:44:36Z</time>
      </trkpt>
      <trkpt lat="38.839819" lon="-0.407924">
        <ele>719.423</ele>
        <time>2022-07-10T05:44:38Z</time>
      </trkpt>
      <trkpt lat="38.839784" lon="-0.407894">
        <ele>720.091</ele>
        <time>2022-07-10T05:44:41Z</time>
      </trkpt>
      <trkpt lat="38.839776" lon="-0.407877">
        <ele>720.050</ele>
        <time>2022-07-10T05:44:42Z</time>
      </trkpt>
      <trkpt lat="38.839737" lon="-0.407836">
        <ele>720.466</ele>
        <time>2022-07-10T05:44:45Z</time>
      </trkpt>
      <trkpt lat="38.839730" lon="-0.407819">
        <ele>720.679</ele>
        <time>2022-07-10T05:44:46Z</time>
      </trkpt>
      <trkpt lat="38.839721" lon="-0.407805">
        <ele>720.666</ele>
        <time>2022-07-10T05:44:47Z</time>
      </trkpt>
      <trkpt lat="38.839695" lon="-0.407755">
        <ele>721.093</ele>
        <time>2022-07-10T05:44:50Z</time>
      </trkpt>
      <trkpt lat="38.839682" lon="-0.407743">
        <ele>721.028</ele>
        <time>2022-07-10T05:44:51Z</time>
      </trkpt>
      <trkpt lat="38.839636" lon="-0.407707">
        <ele>721.889</ele>
        <time>2022-07-10T05:44:56Z</time>
      </trkpt>
      <trkpt lat="38.839617" lon="-0.407694">
        <ele>722.017</ele>
        <time>2022-07-10T05:44:58Z</time>
      </trkpt>
      <trkpt lat="38.839606" lon="-0.407687">
        <ele>722.209</ele>
        <time>2022-07-10T05:44:59Z</time>
      </trkpt>
      <trkpt lat="38.839581" lon="-0.407656">
        <ele>722.493</ele>
        <time>2022-07-10T05:45:02Z</time>
      </trkpt>
      <trkpt lat="38.839540" lon="-0.407574">
        <ele>723.292</ele>
        <time>2022-07-10T05:45:07Z</time>
      </trkpt>
      <trkpt lat="38.839509" lon="-0.407538">
        <ele>723.899</ele>
        <time>2022-07-10T05:45:10Z</time>
      </trkpt>
      <trkpt lat="38.839493" lon="-0.407502">
        <ele>724.047</ele>
        <time>2022-07-10T05:45:12Z</time>
      </trkpt>
      <trkpt lat="38.839488" lon="-0.407470">
        <ele>724.276</ele>
        <time>2022-07-10T05:45:14Z</time>
      </trkpt>
      <trkpt lat="38.839470" lon="-0.407444">
        <ele>724.692</ele>
        <time>2022-07-10T05:45:16Z</time>
      </trkpt>
      <trkpt lat="38.839424" lon="-0.407421">
        <ele>725.275</ele>
        <time>2022-07-10T05:45:20Z</time>
      </trkpt>
      <trkpt lat="38.839419" lon="-0.407406">
        <ele>725.272</ele>
        <time>2022-07-10T05:45:21Z</time>
      </trkpt>
      <trkpt lat="38.839404" lon="-0.407374">
        <ele>725.459</ele>
        <time>2022-07-10T05:45:23Z</time>
      </trkpt>
      <trkpt lat="38.839373" lon="-0.407345">
        <ele>726.023</ele>
        <time>2022-07-10T05:45:26Z</time>
      </trkpt>
      <trkpt lat="38.839348" lon="-0.407327">
        <ele>726.483</ele>
        <time>2022-07-10T05:45:28Z</time>
      </trkpt>
      <trkpt lat="38.839318" lon="-0.407319">
        <ele>726.611</ele>
        <time>2022-07-10T05:45:30Z</time>
      </trkpt>
      <trkpt lat="38.839244" lon="-0.407223">
        <ele>727.609</ele>
        <time>2022-07-10T05:45:37Z</time>
      </trkpt>
      <trkpt lat="38.839233" lon="-0.407217">
        <ele>727.663</ele>
        <time>2022-07-10T05:45:38Z</time>
      </trkpt>
      <trkpt lat="38.839198" lon="-0.407199">
        <ele>728.462</ele>
        <time>2022-07-10T05:45:42Z</time>
      </trkpt>
      <trkpt lat="38.839188" lon="-0.407188">
        <ele>728.659</ele>
        <time>2022-07-10T05:45:44Z</time>
      </trkpt>
      <trkpt lat="38.839089" lon="-0.407132">
        <ele>729.877</ele>
        <time>2022-07-10T05:45:51Z</time>
      </trkpt>
      <trkpt lat="38.839057" lon="-0.407121">
        <ele>730.096</ele>
        <time>2022-07-10T05:45:53Z</time>
      </trkpt>
      <trkpt lat="38.838993" lon="-0.407122">
        <ele>730.612</ele>
        <time>2022-07-10T05:45:57Z</time>
      </trkpt>
      <trkpt lat="38.838976" lon="-0.407120">
        <ele>730.855</ele>
        <time>2022-07-10T05:45:58Z</time>
      </trkpt>
      <trkpt lat="38.838916" lon="-0.407095">
        <ele>731.622</ele>
        <time>2022-07-10T05:46:02Z</time>
      </trkpt>
      <trkpt lat="38.838909" lon="-0.407096">
        <ele>731.639</ele>
        <time>2022-07-10T05:46:03Z</time>
      </trkpt>
      <trkpt lat="38.838895" lon="-0.407097">
        <ele>731.842</ele>
        <time>2022-07-10T05:46:05Z</time>
      </trkpt>
      <trkpt lat="38.838835" lon="-0.407076">
        <ele>732.822</ele>
        <time>2022-07-10T05:46:11Z</time>
      </trkpt>
      <trkpt lat="38.838822" lon="-0.407068">
        <ele>733.014</ele>
        <time>2022-07-10T05:46:12Z</time>
      </trkpt>
      <trkpt lat="38.838801" lon="-0.407050">
        <ele>733.409</ele>
        <time>2022-07-10T05:46:14Z</time>
      </trkpt>
      <trkpt lat="38.838788" lon="-0.407013">
        <ele>733.875</ele>
        <time>2022-07-10T05:46:17Z</time>
      </trkpt>
      <trkpt lat="38.838775" lon="-0.406982">
        <ele>734.214</ele>
        <time>2022-07-10T05:46:19Z</time>
      </trkpt>
      <trkpt lat="38.838733" lon="-0.406915">
        <ele>734.681</ele>
        <time>2022-07-10T05:46:24Z</time>
      </trkpt>
      <trkpt lat="38.838706" lon="-0.406866">
        <ele>735.249</ele>
        <time>2022-07-10T05:46:28Z</time>
      </trkpt>
      <trkpt lat="38.838701" lon="-0.406852">
        <ele>735.468</ele>
        <time>2022-07-10T05:46:29Z</time>
      </trkpt>
      <trkpt lat="38.838687" lon="-0.406784">
        <ele>735.844</ele>
        <time>2022-07-10T05:46:33Z</time>
      </trkpt>
      <trkpt lat="38.838688" lon="-0.406757">
        <ele>736.057</ele>
        <time>2022-07-10T05:46:35Z</time>
      </trkpt>
      <trkpt lat="38.838688" lon="-0.406733">
        <ele>736.454</ele>
        <time>2022-07-10T05:46:37Z</time>
      </trkpt>
      <trkpt lat="38.838655" lon="-0.406665">
        <ele>736.831</ele>
        <time>2022-07-10T05:46:42Z</time>
      </trkpt>
      <trkpt lat="38.838643" lon="-0.406607">
        <ele>737.443</ele>
        <time>2022-07-10T05:46:46Z</time>
      </trkpt>
      <trkpt lat="38.838621" lon="-0.406566">
        <ele>737.864</ele>
        <time>2022-07-10T05:46:49Z</time>
      </trkpt>
      <trkpt lat="38.838615" lon="-0.406530">
        <ele>737.810</ele>
        <time>2022-07-10T05:46:51Z</time>
      </trkpt>
      <trkpt lat="38.838613" lon="-0.406445">
        <ele>738.409</ele>
        <time>2022-07-10T05:46:56Z</time>
      </trkpt>
      <trkpt lat="38.838610" lon="-0.406431">
        <ele>738.645</ele>
        <time>2022-07-10T05:46:57Z</time>
      </trkpt>
      <trkpt lat="38.838586" lon="-0.406375">
        <ele>738.864</ele>
        <time>2022-07-10T05:47:01Z</time>
      </trkpt>
      <trkpt lat="38.838565" lon="-0.406320">
        <ele>739.031</ele>
        <time>2022-07-10T05:47:05Z</time>
      </trkpt>
      <trkpt lat="38.838566" lon="-0.406278">
        <ele>739.239</ele>
        <time>2022-07-10T05:47:08Z</time>
      </trkpt>
      <trkpt lat="38.838554" lon="-0.406255">
        <ele>739.638</ele>
        <time>2022-07-10T05:47:09Z</time>
      </trkpt>
      <trkpt lat="38.838548" lon="-0.406242">
        <ele>739.614</ele>
        <time>2022-07-10T05:47:10Z</time>
      </trkpt>
      <trkpt lat="38.838550" lon="-0.406194">
        <ele>740.257</ele>
        <time>2022-07-10T05:47:13Z</time>
      </trkpt>
      <trkpt lat="38.838551" lon="-0.406180">
        <ele>740.414</ele>
        <time>2022-07-10T05:47:14Z</time>
      </trkpt>
      <trkpt lat="38.838548" lon="-0.406148">
        <ele>740.671</ele>
        <time>2022-07-10T05:47:16Z</time>
      </trkpt>
      <trkpt lat="38.838535" lon="-0.406094">
        <ele>741.057</ele>
        <time>2022-07-10T05:47:19Z</time>
      </trkpt>
      <trkpt lat="38.838488" lon="-0.405981">
        <ele>741.600</ele>
        <time>2022-07-10T05:47:26Z</time>
      </trkpt>
      <trkpt lat="38.838469" lon="-0.405944">
        <ele>742.020</ele>
        <time>2022-07-10T05:47:29Z</time>
      </trkpt>
      <trkpt lat="38.838461" lon="-0.405933">
        <ele>742.009</ele>
        <time>2022-07-10T05:47:30Z</time>
      </trkpt>
      <trkpt lat="38.838414" lon="-0.405865">
        <ele>742.616</ele>
        <time>2022-07-10T05:47:35Z</time>
      </trkpt>
      <trkpt lat="38.838394" lon="-0.405827">
        <ele>742.815</ele>
        <time>2022-07-10T05:47:38Z</time>
      </trkpt>
      <trkpt lat="38.838392" lon="-0.405813">
        <ele>742.812</ele>
        <time>2022-07-10T05:47:39Z</time>
      </trkpt>
      <trkpt lat="38.838377" lon="-0.405764">
        <ele>743.440</ele>
        <time>2022-07-10T05:47:42Z</time>
      </trkpt>
      <trkpt lat="38.838368" lon="-0.405708">
        <ele>743.869</ele>
        <time>2022-07-10T05:47:45Z</time>
      </trkpt>
      <trkpt lat="38.838353" lon="-0.405681">
        <ele>744.075</ele>
        <time>2022-07-10T05:47:48Z</time>
      </trkpt>
      <trkpt lat="38.838346" lon="-0.405660">
        <ele>744.278</ele>
        <time>2022-07-10T05:47:50Z</time>
      </trkpt>
      <trkpt lat="38.838297" lon="-0.405574">
        <ele>744.835</ele>
        <time>2022-07-10T05:47:57Z</time>
      </trkpt>
      <trkpt lat="38.838289" lon="-0.405561">
        <ele>745.052</ele>
        <time>2022-07-10T05:47:58Z</time>
      </trkpt>
      <trkpt lat="38.838259" lon="-0.405502">
        <ele>745.454</ele>
        <time>2022-07-10T05:48:03Z</time>
      </trkpt>
      <trkpt lat="38.838236" lon="-0.405465">
        <ele>745.856</ele>
        <time>2022-07-10T05:48:06Z</time>
      </trkpt>
      <trkpt lat="38.838234" lon="-0.405447">
        <ele>745.811</ele>
        <time>2022-07-10T05:48:07Z</time>
      </trkpt>
      <trkpt lat="38.838215" lon="-0.405413">
        <ele>746.009</ele>
        <time>2022-07-10T05:48:09Z</time>
      </trkpt>
      <trkpt lat="38.838198" lon="-0.405388">
        <ele>746.216</ele>
        <time>2022-07-10T05:48:11Z</time>
      </trkpt>
      <trkpt lat="38.838189" lon="-0.405380">
        <ele>746.445</ele>
        <time>2022-07-10T05:48:12Z</time>
      </trkpt>
      <trkpt lat="38.838166" lon="-0.405336">
        <ele>747.012</ele>
        <time>2022-07-10T05:48:16Z</time>
      </trkpt>
      <trkpt lat="38.838155" lon="-0.405329">
        <ele>747.270</ele>
        <time>2022-07-10T05:48:17Z</time>
      </trkpt>
      <trkpt lat="38.838127" lon="-0.405321">
        <ele>747.639</ele>
        <time>2022-07-10T05:48:19Z</time>
      </trkpt>
      <trkpt lat="38.838103" lon="-0.405291">
        <ele>748.085</ele>
        <time>2022-07-10T05:48:22Z</time>
      </trkpt>
      <trkpt lat="38.838098" lon="-0.405273">
        <ele>748.238</ele>
        <time>2022-07-10T05:48:23Z</time>
      </trkpt>
      <trkpt lat="38.838079" lon="-0.405239">
        <ele>748.645</ele>
        <time>2022-07-10T05:48:26Z</time>
      </trkpt>
      <trkpt lat="38.838060" lon="-0.405181">
        <ele>749.282</ele>
        <time>2022-07-10T05:48:30Z</time>
      </trkpt>
      <trkpt lat="38.838054" lon="-0.405168">
        <ele>749.489</ele>
        <time>2022-07-10T05:48:31Z</time>
      </trkpt>
      <trkpt lat="38.838049" lon="-0.405152">
        <ele>749.606</ele>
        <time>2022-07-10T05:48:32Z</time>
      </trkpt>
      <trkpt lat="38.838032" lon="-0.405124">
        <ele>750.026</ele>
        <time>2022-07-10T05:48:34Z</time>
      </trkpt>
      <trkpt lat="38.837999" lon="-0.405077">
        <ele>750.409</ele>
        <time>2022-07-10T05:48:38Z</time>
      </trkpt>
      <trkpt lat="38.837991" lon="-0.405069">
        <ele>750.459</ele>
        <time>2022-07-10T05:48:39Z</time>
      </trkpt>
      <trkpt lat="38.837952" lon="-0.405024">
        <ele>751.698</ele>
        <time>2022-07-10T05:48:46Z</time>
      </trkpt>
      <trkpt lat="38.837942" lon="-0.405026">
        <ele>751.685</ele>
        <time>2022-07-10T05:48:47Z</time>
      </trkpt>
      <trkpt lat="38.837885" lon="-0.404978">
        <ele>752.683</ele>
        <time>2022-07-10T05:48:53Z</time>
      </trkpt>
      <trkpt lat="38.837874" lon="-0.404978">
        <ele>752.892</ele>
        <time>2022-07-10T05:48:54Z</time>
      </trkpt>
      <trkpt lat="38.837779" lon="-0.404976">
        <ele>753.838</ele>
        <time>2022-07-10T05:48:59Z</time>
      </trkpt>
      <trkpt lat="38.837742" lon="-0.404954">
        <ele>754.251</ele>
        <time>2022-07-10T05:49:02Z</time>
      </trkpt>
      <trkpt lat="38.837728" lon="-0.404949">
        <ele>754.458</ele>
        <time>2022-07-10T05:49:03Z</time>
      </trkpt>
      <trkpt lat="38.837712" lon="-0.404937">
        <ele>754.625</ele>
        <time>2022-07-10T05:49:05Z</time>
      </trkpt>
      <trkpt lat="38.837695" lon="-0.404921">
        <ele>754.864</ele>
        <time>2022-07-10T05:49:07Z</time>
      </trkpt>
      <trkpt lat="38.837668" lon="-0.404908">
        <ele>755.206</ele>
        <time>2022-07-10T05:49:10Z</time>
      </trkpt>
      <trkpt lat="38.837631" lon="-0.404897">
        <ele>755.616</ele>
        <time>2022-07-10T05:49:14Z</time>
      </trkpt>
      <trkpt lat="38.837600" lon="-0.404863">
        <ele>756.009</ele>
        <time>2022-07-10T05:49:18Z</time>
      </trkpt>
      <trkpt lat="38.837545" lon="-0.404815">
        <ele>756.657</ele>
        <time>2022-07-10T05:49:22Z</time>
      </trkpt>
      <trkpt lat="38.837504" lon="-0.404805">
        <ele>757.266</ele>
        <time>2022-07-10T05:49:25Z</time>
      </trkpt>
      <trkpt lat="38.837459" lon="-0.404811">
        <ele>757.643</ele>
        <time>2022-07-10T05:49:29Z</time>
      </trkpt>
      <trkpt lat="38.837419" lon="-0.404810">
        <ele>757.691</ele>
        <time>2022-07-10T05:49:32Z</time>
      </trkpt>
      <trkpt lat="38.837379" lon="-0.404817">
        <ele>758.010</ele>
        <time>2022-07-10T05:49:35Z</time>
      </trkpt>
      <trkpt lat="38.837348" lon="-0.404822">
        <ele>758.036</ele>
        <time>2022-07-10T05:49:37Z</time>
      </trkpt>
      <trkpt lat="38.837338" lon="-0.404820">
        <ele>758.249</ele>
        <time>2022-07-10T05:49:38Z</time>
      </trkpt>
      <trkpt lat="38.837325" lon="-0.404821">
        <ele>758.496</ele>
        <time>2022-07-10T05:49:40Z</time>
      </trkpt>
      <trkpt lat="38.837301" lon="-0.404839">
        <ele>758.453</ele>
        <time>2022-07-10T05:49:43Z</time>
      </trkpt>
      <trkpt lat="38.837179" lon="-0.404889">
        <ele>759.289</ele>
        <time>2022-07-10T05:49:51Z</time>
      </trkpt>
      <trkpt lat="38.837168" lon="-0.404896">
        <ele>759.406</ele>
        <time>2022-07-10T05:49:52Z</time>
      </trkpt>
      <trkpt lat="38.837141" lon="-0.404914">
        <ele>759.626</ele>
        <time>2022-07-10T05:49:54Z</time>
      </trkpt>
      <trkpt lat="38.837098" lon="-0.404910">
        <ele>759.809</ele>
        <time>2022-07-10T05:49:57Z</time>
      </trkpt>
      <trkpt lat="38.837002" lon="-0.404912">
        <ele>760.429</ele>
        <time>2022-07-10T05:50:05Z</time>
      </trkpt>
      <trkpt lat="38.836989" lon="-0.404908">
        <ele>760.498</ele>
        <time>2022-07-10T05:50:06Z</time>
      </trkpt>
      <trkpt lat="38.836967" lon="-0.404909">
        <ele>760.645</ele>
        <time>2022-07-10T05:50:08Z</time>
      </trkpt>
      <trkpt lat="38.836907" lon="-0.404895">
        <ele>761.043</ele>
        <time>2022-07-10T05:50:12Z</time>
      </trkpt>
      <trkpt lat="38.836854" lon="-0.404885">
        <ele>761.492</ele>
        <time>2022-07-10T05:50:15Z</time>
      </trkpt>
      <trkpt lat="38.836826" lon="-0.404891">
        <ele>761.658</ele>
        <time>2022-07-10T05:50:17Z</time>
      </trkpt>
      <trkpt lat="38.836787" lon="-0.404908">
        <ele>762.081</ele>
        <time>2022-07-10T05:50:20Z</time>
      </trkpt>
      <trkpt lat="38.836761" lon="-0.404924">
        <ele>762.268</ele>
        <time>2022-07-10T05:50:22Z</time>
      </trkpt>
      <trkpt lat="38.836734" lon="-0.404946">
        <ele>762.675</ele>
        <time>2022-07-10T05:50:24Z</time>
      </trkpt>
      <trkpt lat="38.836656" lon="-0.404993">
        <ele>763.226</ele>
        <time>2022-07-10T05:50:30Z</time>
      </trkpt>
      <trkpt lat="38.836624" lon="-0.405017">
        <ele>763.647</ele>
        <time>2022-07-10T05:50:33Z</time>
      </trkpt>
      <trkpt lat="38.836583" lon="-0.405044">
        <ele>764.411</ele>
        <time>2022-07-10T05:50:37Z</time>
      </trkpt>
      <trkpt lat="38.836560" lon="-0.405065">
        <ele>764.609</ele>
        <time>2022-07-10T05:50:39Z</time>
      </trkpt>
      <trkpt lat="38.836488" lon="-0.405115">
        <ele>765.263</ele>
        <time>2022-07-10T05:50:45Z</time>
      </trkpt>
      <trkpt lat="38.836406" lon="-0.405150">
        <ele>765.632</ele>
        <time>2022-07-10T05:50:52Z</time>
      </trkpt>
      <trkpt lat="38.836392" lon="-0.405155">
        <ele>765.679</ele>
        <time>2022-07-10T05:50:53Z</time>
      </trkpt>
      <trkpt lat="38.836320" lon="-0.405189">
        <ele>766.227</ele>
        <time>2022-07-10T05:51:00Z</time>
      </trkpt>
      <trkpt lat="38.836309" lon="-0.405195">
        <ele>766.486</ele>
        <time>2022-07-10T05:51:01Z</time>
      </trkpt>
      <trkpt lat="38.836290" lon="-0.405211">
        <ele>766.482</ele>
        <time>2022-07-10T05:51:03Z</time>
      </trkpt>
      <trkpt lat="38.836266" lon="-0.405218">
        <ele>766.615</ele>
        <time>2022-07-10T05:51:05Z</time>
      </trkpt>
      <trkpt lat="38.836247" lon="-0.405228">
        <ele>766.682</ele>
        <time>2022-07-10T05:51:07Z</time>
      </trkpt>
      <trkpt lat="38.836160" lon="-0.405265">
        <ele>767.479</ele>
        <time>2022-07-10T05:51:14Z</time>
      </trkpt>
      <trkpt lat="38.836110" lon="-0.405296">
        <ele>767.859</ele>
        <time>2022-07-10T05:51:18Z</time>
      </trkpt>
      <trkpt lat="38.836058" lon="-0.405381">
        <ele>768.403</ele>
        <time>2022-07-10T05:51:24Z</time>
      </trkpt>
      <trkpt lat="38.836023" lon="-0.405453">
        <ele>768.823</ele>
        <time>2022-07-10T05:51:28Z</time>
      </trkpt>
      <trkpt lat="38.836015" lon="-0.405482">
        <ele>769.009</ele>
        <time>2022-07-10T05:51:30Z</time>
      </trkpt>
      <trkpt lat="38.835998" lon="-0.405602">
        <ele>770.066</ele>
        <time>2022-07-10T05:51:36Z</time>
      </trkpt>
      <trkpt lat="38.836000" lon="-0.405637">
        <ele>770.255</ele>
        <time>2022-07-10T05:51:38Z</time>
      </trkpt>
      <trkpt lat="38.836005" lon="-0.405699">
        <ele>770.632</ele>
        <time>2022-07-10T05:51:42Z</time>
      </trkpt>
      <trkpt lat="38.836000" lon="-0.405723">
        <ele>770.620</ele>
        <time>2022-07-10T05:51:44Z</time>
      </trkpt>
      <trkpt lat="38.836004" lon="-0.405735">
        <ele>770.829</ele>
        <time>2022-07-10T05:51:45Z</time>
      </trkpt>
      <trkpt lat="38.836008" lon="-0.405768">
        <ele>771.285</ele>
        <time>2022-07-10T05:51:47Z</time>
      </trkpt>
      <trkpt lat="38.836006" lon="-0.405820">
        <ele>771.438</ele>
        <time>2022-07-10T05:51:50Z</time>
      </trkpt>
      <trkpt lat="38.835998" lon="-0.405939">
        <ele>772.085</ele>
        <time>2022-07-10T05:51:58Z</time>
      </trkpt>
      <trkpt lat="38.835989" lon="-0.405965">
        <ele>772.262</ele>
        <time>2022-07-10T05:52:00Z</time>
      </trkpt>
      <trkpt lat="38.835989" lon="-0.406059">
        <ele>772.874</ele>
        <time>2022-07-10T05:52:06Z</time>
      </trkpt>
      <trkpt lat="38.835957" lon="-0.406161">
        <ele>773.256</ele>
        <time>2022-07-10T05:52:13Z</time>
      </trkpt>
      <trkpt lat="38.835949" lon="-0.406192">
        <ele>773.621</ele>
        <time>2022-07-10T05:52:15Z</time>
      </trkpt>
      <trkpt lat="38.835913" lon="-0.406330">
        <ele>774.209</ele>
        <time>2022-07-10T05:52:24Z</time>
      </trkpt>
      <trkpt lat="38.835904" lon="-0.406356">
        <ele>774.468</ele>
        <time>2022-07-10T05:52:26Z</time>
      </trkpt>
      <trkpt lat="38.835853" lon="-0.406374">
        <ele>774.687</ele>
        <time>2022-07-10T05:52:31Z</time>
      </trkpt>
      <trkpt lat="38.835796" lon="-0.406333">
        <ele>775.024</ele>
        <time>2022-07-10T05:52:38Z</time>
      </trkpt>
      <trkpt lat="38.835759" lon="-0.406252">
        <ele>774.842</ele>
        <time>2022-07-10T05:52:44Z</time>
      </trkpt>
      <trkpt lat="38.835747" lon="-0.406247">
        <ele>774.661</ele>
        <time>2022-07-10T05:52:45Z</time>
      </trkpt>
      <trkpt lat="38.835739" lon="-0.406235">
        <ele>774.627</ele>
        <time>2022-07-10T05:52:46Z</time>
      </trkpt>
      <trkpt lat="38.835696" lon="-0.406178">
        <ele>774.230</ele>
        <time>2022-07-10T05:52:51Z</time>
      </trkpt>
      <trkpt lat="38.835687" lon="-0.406163">
        <ele>774.217</ele>
        <time>2022-07-10T05:52:52Z</time>
      </trkpt>
      <trkpt lat="38.835678" lon="-0.406155">
        <ele>774.214</ele>
        <time>2022-07-10T05:52:53Z</time>
      </trkpt>
      <trkpt lat="38.835643" lon="-0.406121">
        <ele>774.053</ele>
        <time>2022-07-10T05:52:56Z</time>
      </trkpt>
      <trkpt lat="38.835626" lon="-0.406105">
        <ele>773.804</ele>
        <time>2022-07-10T05:52:58Z</time>
      </trkpt>
      <trkpt lat="38.835563" lon="-0.406087">
        <ele>773.414</ele>
        <time>2022-07-10T05:53:02Z</time>
      </trkpt>
      <trkpt lat="38.835528" lon="-0.406080">
        <ele>773.209</ele>
        <time>2022-07-10T05:53:04Z</time>
      </trkpt>
      <trkpt lat="38.835515" lon="-0.406093">
        <ele>773.066</ele>
        <time>2022-07-10T05:53:05Z</time>
      </trkpt>
      <trkpt lat="38.835501" lon="-0.406145">
        <ele>772.635</ele>
        <time>2022-07-10T05:53:08Z</time>
      </trkpt>
      <trkpt lat="38.835492" lon="-0.406190">
        <ele>772.422</ele>
        <time>2022-07-10T05:53:10Z</time>
      </trkpt>
      <trkpt lat="38.835482" lon="-0.406233">
        <ele>772.260</ele>
        <time>2022-07-10T05:53:12Z</time>
      </trkpt>
      <trkpt lat="38.835470" lon="-0.406253">
        <ele>772.249</ele>
        <time>2022-07-10T05:53:13Z</time>
      </trkpt>
      <trkpt lat="38.835459" lon="-0.406316">
        <ele>772.295</ele>
        <time>2022-07-10T05:53:16Z</time>
      </trkpt>
      <trkpt lat="38.835453" lon="-0.406348">
        <ele>772.058</ele>
        <time>2022-07-10T05:53:18Z</time>
      </trkpt>
      <trkpt lat="38.835447" lon="-0.406361">
        <ele>772.065</ele>
        <time>2022-07-10T05:53:19Z</time>
      </trkpt>
      <trkpt lat="38.835426" lon="-0.406461">
        <ele>771.842</ele>
        <time>2022-07-10T05:53:25Z</time>
      </trkpt>
      <trkpt lat="38.835421" lon="-0.406487">
        <ele>771.419</ele>
        <time>2022-07-10T05:53:27Z</time>
      </trkpt>
      <trkpt lat="38.835410" lon="-0.406517">
        <ele>771.009</ele>
        <time>2022-07-10T05:53:29Z</time>
      </trkpt>
      <trkpt lat="38.835406" lon="-0.406549">
        <ele>770.819</ele>
        <time>2022-07-10T05:53:31Z</time>
      </trkpt>
      <trkpt lat="38.835405" lon="-0.406560">
        <ele>770.809</ele>
        <time>2022-07-10T05:53:32Z</time>
      </trkpt>
      <trkpt lat="38.835395" lon="-0.406647">
        <ele>770.212</ele>
        <time>2022-07-10T05:53:37Z</time>
      </trkpt>
      <trkpt lat="38.835391" lon="-0.406665">
        <ele>770.211</ele>
        <time>2022-07-10T05:53:38Z</time>
      </trkpt>
      <trkpt lat="38.835389" lon="-0.406686">
        <ele>770.088</ele>
        <time>2022-07-10T05:53:39Z</time>
      </trkpt>
      <trkpt lat="38.835390" lon="-0.406705">
        <ele>770.056</ele>
        <time>2022-07-10T05:53:40Z</time>
      </trkpt>
      <trkpt lat="38.835374" lon="-0.406813">
        <ele>769.415</ele>
        <time>2022-07-10T05:53:45Z</time>
      </trkpt>
      <trkpt lat="38.835365" lon="-0.406860">
        <ele>769.251</ele>
        <time>2022-07-10T05:53:48Z</time>
      </trkpt>
      <trkpt lat="38.835354" lon="-0.406913">
        <ele>769.064</ele>
        <time>2022-07-10T05:53:51Z</time>
      </trkpt>
      <trkpt lat="38.835355" lon="-0.406961">
        <ele>769.081</ele>
        <time>2022-07-10T05:53:53Z</time>
      </trkpt>
      <trkpt lat="38.835340" lon="-0.407066">
        <ele>768.488</ele>
        <time>2022-07-10T05:53:59Z</time>
      </trkpt>
      <trkpt lat="38.835342" lon="-0.407158">
        <ele>768.017</ele>
        <time>2022-07-10T05:54:05Z</time>
      </trkpt>
      <trkpt lat="38.835348" lon="-0.407175">
        <ele>767.887</ele>
        <time>2022-07-10T05:54:06Z</time>
      </trkpt>
      <trkpt lat="38.835371" lon="-0.407314">
        <ele>767.215</ele>
        <time>2022-07-10T05:54:15Z</time>
      </trkpt>
      <trkpt lat="38.835375" lon="-0.407363">
        <ele>767.009</ele>
        <time>2022-07-10T05:54:18Z</time>
      </trkpt>
      <trkpt lat="38.835374" lon="-0.407393">
        <ele>767.052</ele>
        <time>2022-07-10T05:54:20Z</time>
      </trkpt>
      <trkpt lat="38.835378" lon="-0.407433">
        <ele>767.021</ele>
        <time>2022-07-10T05:54:22Z</time>
      </trkpt>
      <trkpt lat="38.835365" lon="-0.407514">
        <ele>766.888</ele>
        <time>2022-07-10T05:54:27Z</time>
      </trkpt>
      <trkpt lat="38.835368" lon="-0.407585">
        <ele>766.826</ele>
        <time>2022-07-10T05:54:31Z</time>
      </trkpt>
      <trkpt lat="38.835384" lon="-0.407727">
        <ele>766.415</ele>
        <time>2022-07-10T05:54:39Z</time>
      </trkpt>
      <trkpt lat="38.835390" lon="-0.407787">
        <ele>766.481</ele>
        <time>2022-07-10T05:54:42Z</time>
      </trkpt>
      <trkpt lat="38.835376" lon="-0.407816">
        <ele>766.414</ele>
        <time>2022-07-10T05:54:44Z</time>
      </trkpt>
      <trkpt lat="38.835354" lon="-0.407842">
        <ele>766.671</ele>
        <time>2022-07-10T05:54:46Z</time>
      </trkpt>
      <trkpt lat="38.835305" lon="-0.407891">
        <ele>766.868</ele>
        <time>2022-07-10T05:54:50Z</time>
      </trkpt>
      <trkpt lat="38.835273" lon="-0.407921">
        <ele>766.875</ele>
        <time>2022-07-10T05:54:53Z</time>
      </trkpt>
      <trkpt lat="38.835211" lon="-0.407962">
        <ele>766.828</ele>
        <time>2022-07-10T05:54:58Z</time>
      </trkpt>
      <trkpt lat="38.835176" lon="-0.407986">
        <ele>766.620</ele>
        <time>2022-07-10T05:55:01Z</time>
      </trkpt>
      <trkpt lat="38.835080" lon="-0.407998">
        <ele>766.209</ele>
        <time>2022-07-10T05:55:08Z</time>
      </trkpt>
      <trkpt lat="38.835059" lon="-0.408002">
        <ele>765.838</ele>
        <time>2022-07-10T05:55:10Z</time>
      </trkpt>
      <trkpt lat="38.834967" lon="-0.408041">
        <ele>765.657</ele>
        <time>2022-07-10T05:55:17Z</time>
      </trkpt>
      <trkpt lat="38.834882" lon="-0.408120">
        <ele>765.414</ele>
        <time>2022-07-10T05:55:25Z</time>
      </trkpt>
      <trkpt lat="38.834808" lon="-0.408164">
        <ele>765.062</ele>
        <time>2022-07-10T05:55:31Z</time>
      </trkpt>
      <trkpt lat="38.834795" lon="-0.408154">
        <ele>765.051</ele>
        <time>2022-07-10T05:55:32Z</time>
      </trkpt>
      <trkpt lat="38.834788" lon="-0.408151">
        <ele>765.097</ele>
        <time>2022-07-10T05:55:33Z</time>
      </trkpt>
      <trkpt lat="38.834782" lon="-0.408151">
        <ele>764.870</ele>
        <time>2022-07-10T05:55:34Z</time>
      </trkpt>
      <trkpt lat="38.834784" lon="-0.408152">
        <ele>764.627</ele>
        <time>2022-07-10T05:55:35Z</time>
      </trkpt>
      <trkpt lat="38.834802" lon="-0.408137">
        <ele>764.464</ele>
        <time>2022-07-10T05:55:38Z</time>
      </trkpt>
      <trkpt lat="38.834799" lon="-0.408137">
        <ele>764.465</ele>
        <time>2022-07-10T05:55:40Z</time>
      </trkpt>
      <trkpt lat="38.834803" lon="-0.408135">
        <ele>764.468</ele>
        <time>2022-07-10T05:55:42Z</time>
      </trkpt>
      <trkpt lat="38.834808" lon="-0.408137">
        <ele>764.414</ele>
        <time>2022-07-10T05:55:43Z</time>
      </trkpt>
      <trkpt lat="38.834812" lon="-0.408139">
        <ele>764.409</ele>
        <time>2022-07-10T05:55:44Z</time>
      </trkpt>
      <trkpt lat="38.834812" lon="-0.408139">
        <ele>764.427</ele>
        <time>2022-07-10T05:55:45Z</time>
      </trkpt>
      <trkpt lat="38.834803" lon="-0.408105">
        <ele>765.236</ele>
        <time>2022-07-10T05:55:50Z</time>
      </trkpt>
      <trkpt lat="38.834806" lon="-0.408094">
        <ele>766.053</ele>
        <time>2022-07-10T05:55:51Z</time>
      </trkpt>
      <trkpt lat="38.834818" lon="-0.408060">
        <ele>767.271</ele>
        <time>2022-07-10T05:55:54Z</time>
      </trkpt>
      <trkpt lat="38.834828" lon="-0.408039">
        <ele>768.280</ele>
        <time>2022-07-10T05:55:57Z</time>
      </trkpt>
      <trkpt lat="38.834825" lon="-0.408033">
        <ele>768.686</ele>
        <time>2022-07-10T05:55:58Z</time>
      </trkpt>
      <trkpt lat="38.834821" lon="-0.408003">
        <ele>769.239</ele>
        <time>2022-07-10T05:56:01Z</time>
      </trkpt>
      <trkpt lat="38.834820" lon="-0.407996">
        <ele>769.626</ele>
        <time>2022-07-10T05:56:02Z</time>
      </trkpt>
      <trkpt lat="38.834816" lon="-0.407975">
        <ele>770.453</ele>
        <time>2022-07-10T05:56:04Z</time>
      </trkpt>
      <trkpt lat="38.834835" lon="-0.407943">
        <ele>770.841</ele>
        <time>2022-07-10T05:56:06Z</time>
      </trkpt>
      <trkpt lat="38.834868" lon="-0.407928">
        <ele>771.281</ele>
        <time>2022-07-10T05:56:08Z</time>
      </trkpt>
      <trkpt lat="38.834876" lon="-0.407884">
        <ele>772.009</ele>
        <time>2022-07-10T05:56:11Z</time>
      </trkpt>
      <trkpt lat="38.834880" lon="-0.407874">
        <ele>772.209</ele>
        <time>2022-07-10T05:56:12Z</time>
      </trkpt>
      <trkpt lat="38.834916" lon="-0.407844">
        <ele>773.065</ele>
        <time>2022-07-10T05:56:16Z</time>
      </trkpt>
      <trkpt lat="38.834943" lon="-0.407810">
        <ele>773.624</ele>
        <time>2022-07-10T05:56:19Z</time>
      </trkpt>
      <trkpt lat="38.834946" lon="-0.407786">
        <ele>774.221</ele>
        <time>2022-07-10T05:56:21Z</time>
      </trkpt>
      <trkpt lat="38.834916" lon="-0.407780">
        <ele>774.879</ele>
        <time>2022-07-10T05:56:24Z</time>
      </trkpt>
      <trkpt lat="38.834896" lon="-0.407786">
        <ele>775.248</ele>
        <time>2022-07-10T05:56:26Z</time>
      </trkpt>
      <trkpt lat="38.834841" lon="-0.407788">
        <ele>776.224</ele>
        <time>2022-07-10T05:56:30Z</time>
      </trkpt>
      <trkpt lat="38.834830" lon="-0.407793">
        <ele>776.457</ele>
        <time>2022-07-10T05:56:31Z</time>
      </trkpt>
      <trkpt lat="38.834823" lon="-0.407800">
        <ele>776.694</ele>
        <time>2022-07-10T05:56:32Z</time>
      </trkpt>
      <trkpt lat="38.834819" lon="-0.407802">
        <ele>776.821</ele>
        <time>2022-07-10T05:56:33Z</time>
      </trkpt>
      <trkpt lat="38.834810" lon="-0.407801">
        <ele>777.083</ele>
        <time>2022-07-10T05:56:34Z</time>
      </trkpt>
      <trkpt lat="38.834789" lon="-0.407805">
        <ele>777.425</ele>
        <time>2022-07-10T05:56:36Z</time>
      </trkpt>
      <trkpt lat="38.834786" lon="-0.407815">
        <ele>777.817</ele>
        <time>2022-07-10T05:56:37Z</time>
      </trkpt>
      <trkpt lat="38.834776" lon="-0.407828">
        <ele>778.009</ele>
        <time>2022-07-10T05:56:38Z</time>
      </trkpt>
      <trkpt lat="38.834730" lon="-0.407851">
        <ele>778.869</ele>
        <time>2022-07-10T05:56:42Z</time>
      </trkpt>
      <trkpt lat="38.834715" lon="-0.407847">
        <ele>779.468</ele>
        <time>2022-07-10T05:56:44Z</time>
      </trkpt>
      <trkpt lat="38.834710" lon="-0.407846">
        <ele>779.695</ele>
        <time>2022-07-10T05:56:45Z</time>
      </trkpt>
      <trkpt lat="38.834697" lon="-0.407838">
        <ele>780.013</ele>
        <time>2022-07-10T05:56:47Z</time>
      </trkpt>
      <trkpt lat="38.834689" lon="-0.407831">
        <ele>780.052</ele>
        <time>2022-07-10T05:56:48Z</time>
      </trkpt>
      <trkpt lat="38.834699" lon="-0.407824">
        <ele>780.698</ele>
        <time>2022-07-10T05:56:50Z</time>
      </trkpt>
      <trkpt lat="38.834712" lon="-0.407819">
        <ele>781.091</ele>
        <time>2022-07-10T05:56:51Z</time>
      </trkpt>
      <trkpt lat="38.834717" lon="-0.407803">
        <ele>781.268</ele>
        <time>2022-07-10T05:56:52Z</time>
      </trkpt>
      <trkpt lat="38.834716" lon="-0.407774">
        <ele>781.835</ele>
        <time>2022-07-10T05:56:55Z</time>
      </trkpt>
      <trkpt lat="38.834704" lon="-0.407756">
        <ele>782.017</ele>
        <time>2022-07-10T05:56:56Z</time>
      </trkpt>
      <trkpt lat="38.834701" lon="-0.407735">
        <ele>782.487</ele>
        <time>2022-07-10T05:56:58Z</time>
      </trkpt>
      <trkpt lat="38.834722" lon="-0.407697">
        <ele>782.815</ele>
        <time>2022-07-10T05:57:01Z</time>
      </trkpt>
      <trkpt lat="38.834731" lon="-0.407692">
        <ele>783.009</ele>
        <time>2022-07-10T05:57:02Z</time>
      </trkpt>
      <trkpt lat="38.834733" lon="-0.407683">
        <ele>783.642</ele>
        <time>2022-07-10T05:57:03Z</time>
      </trkpt>
      <trkpt lat="38.834736" lon="-0.407669">
        <ele>783.831</ele>
        <time>2022-07-10T05:57:05Z</time>
      </trkpt>
      <trkpt lat="38.834751" lon="-0.407656">
        <ele>784.228</ele>
        <time>2022-07-10T05:57:07Z</time>
      </trkpt>
      <trkpt lat="38.834771" lon="-0.407631">
        <ele>785.476</ele>
        <time>2022-07-10T05:57:10Z</time>
      </trkpt>
      <trkpt lat="38.834786" lon="-0.407596">
        <ele>786.445</ele>
        <time>2022-07-10T05:57:13Z</time>
      </trkpt>
      <trkpt lat="38.834792" lon="-0.407586">
        <ele>786.611</ele>
        <time>2022-07-10T05:57:14Z</time>
      </trkpt>
      <trkpt lat="38.834806" lon="-0.407561">
        <ele>787.084</ele>
        <time>2022-07-10T05:57:18Z</time>
      </trkpt>
      <trkpt lat="38.834788" lon="-0.407555">
        <ele>787.621</ele>
        <time>2022-07-10T05:57:21Z</time>
      </trkpt>
      <trkpt lat="38.834768" lon="-0.407552">
        <ele>788.078</ele>
        <time>2022-07-10T05:57:23Z</time>
      </trkpt>
      <trkpt lat="38.834741" lon="-0.407551">
        <ele>788.416</ele>
        <time>2022-07-10T05:57:25Z</time>
      </trkpt>
      <trkpt lat="38.834728" lon="-0.407550">
        <ele>788.876</ele>
        <time>2022-07-10T05:57:26Z</time>
      </trkpt>
      <trkpt lat="38.834685" lon="-0.407573">
        <ele>790.013</ele>
        <time>2022-07-10T05:57:31Z</time>
      </trkpt>
      <trkpt lat="38.834675" lon="-0.407578">
        <ele>790.209</ele>
        <time>2022-07-10T05:57:32Z</time>
      </trkpt>
      <trkpt lat="38.834632" lon="-0.407617">
        <ele>790.812</ele>
        <time>2022-07-10T05:57:37Z</time>
      </trkpt>
      <trkpt lat="38.834626" lon="-0.407626">
        <ele>791.221</ele>
        <time>2022-07-10T05:57:38Z</time>
      </trkpt>
      <trkpt lat="38.834623" lon="-0.407630">
        <ele>791.478</ele>
        <time>2022-07-10T05:57:39Z</time>
      </trkpt>
      <trkpt lat="38.834630" lon="-0.407610">
        <ele>792.286</ele>
        <time>2022-07-10T05:57:42Z</time>
      </trkpt>
      <trkpt lat="38.834636" lon="-0.407593">
        <ele>792.455</ele>
        <time>2022-07-10T05:57:44Z</time>
      </trkpt>
      <trkpt lat="38.834637" lon="-0.407562">
        <ele>793.071</ele>
        <time>2022-07-10T05:57:47Z</time>
      </trkpt>
      <trkpt lat="38.834645" lon="-0.407540">
        <ele>793.274</ele>
        <time>2022-07-10T05:57:49Z</time>
      </trkpt>
      <trkpt lat="38.834666" lon="-0.407488">
        <ele>794.421</ele>
        <time>2022-07-10T05:57:53Z</time>
      </trkpt>
      <trkpt lat="38.834692" lon="-0.407449">
        <ele>795.288</ele>
        <time>2022-07-10T05:57:56Z</time>
      </trkpt>
      <trkpt lat="38.834712" lon="-0.407427">
        <ele>795.665</ele>
        <time>2022-07-10T05:57:58Z</time>
      </trkpt>
      <trkpt lat="38.834728" lon="-0.407403">
        <ele>796.068</ele>
        <time>2022-07-10T05:58:00Z</time>
      </trkpt>
      <trkpt lat="38.834733" lon="-0.407391">
        <ele>796.214</ele>
        <time>2022-07-10T05:58:01Z</time>
      </trkpt>
      <trkpt lat="38.834754" lon="-0.407349">
        <ele>796.609</ele>
        <time>2022-07-10T05:58:06Z</time>
      </trkpt>
      <trkpt lat="38.834756" lon="-0.407339">
        <ele>796.617</ele>
        <time>2022-07-10T05:58:07Z</time>
      </trkpt>
      <trkpt lat="38.834761" lon="-0.407329">
        <ele>796.876</ele>
        <time>2022-07-10T05:58:08Z</time>
      </trkpt>
      <trkpt lat="38.834819" lon="-0.407294">
        <ele>797.843</ele>
        <time>2022-07-10T05:58:14Z</time>
      </trkpt>
      <trkpt lat="38.834830" lon="-0.407293">
        <ele>798.041</ele>
        <time>2022-07-10T05:58:15Z</time>
      </trkpt>
      <trkpt lat="38.834867" lon="-0.407273">
        <ele>798.610</ele>
        <time>2022-07-10T05:58:19Z</time>
      </trkpt>
      <trkpt lat="38.834875" lon="-0.407260">
        <ele>798.876</ele>
        <time>2022-07-10T05:58:20Z</time>
      </trkpt>
      <trkpt lat="38.834881" lon="-0.407252">
        <ele>799.059</ele>
        <time>2022-07-10T05:58:21Z</time>
      </trkpt>
      <trkpt lat="38.834856" lon="-0.407231">
        <ele>800.056</ele>
        <time>2022-07-10T05:58:24Z</time>
      </trkpt>
      <trkpt lat="38.834840" lon="-0.407224">
        <ele>800.293</ele>
        <time>2022-07-10T05:58:26Z</time>
      </trkpt>
      <trkpt lat="38.834801" lon="-0.407202">
        <ele>801.225</ele>
        <time>2022-07-10T05:58:30Z</time>
      </trkpt>
      <trkpt lat="38.834770" lon="-0.407195">
        <ele>801.826</ele>
        <time>2022-07-10T05:58:33Z</time>
      </trkpt>
      <trkpt lat="38.834749" lon="-0.407180">
        <ele>802.208</ele>
        <time>2022-07-10T05:58:35Z</time>
      </trkpt>
      <trkpt lat="38.834697" lon="-0.407193">
        <ele>803.409</ele>
        <time>2022-07-10T05:58:40Z</time>
      </trkpt>
      <trkpt lat="38.834633" lon="-0.407201">
        <ele>804.433</ele>
        <time>2022-07-10T05:58:46Z</time>
      </trkpt>
      <trkpt lat="38.834609" lon="-0.407191">
        <ele>804.682</ele>
        <time>2022-07-10T05:58:47Z</time>
      </trkpt>
      <trkpt lat="38.834592" lon="-0.407181">
        <ele>804.899</ele>
        <time>2022-07-10T05:58:48Z</time>
      </trkpt>
      <trkpt lat="38.834556" lon="-0.407183">
        <ele>805.687</ele>
        <time>2022-07-10T05:58:51Z</time>
      </trkpt>
      <trkpt lat="38.834546" lon="-0.407201">
        <ele>806.076</ele>
        <time>2022-07-10T05:58:53Z</time>
      </trkpt>
      <trkpt lat="38.834535" lon="-0.407225">
        <ele>806.472</ele>
        <time>2022-07-10T05:58:55Z</time>
      </trkpt>
      <trkpt lat="38.834524" lon="-0.407236">
        <ele>806.625</ele>
        <time>2022-07-10T05:58:56Z</time>
      </trkpt>
      <trkpt lat="38.834459" lon="-0.407306">
        <ele>807.862</ele>
        <time>2022-07-10T05:59:02Z</time>
      </trkpt>
      <trkpt lat="38.834427" lon="-0.407375">
        <ele>808.659</ele>
        <time>2022-07-10T05:59:08Z</time>
      </trkpt>
      <trkpt lat="38.834421" lon="-0.407386">
        <ele>808.884</ele>
        <time>2022-07-10T05:59:09Z</time>
      </trkpt>
      <trkpt lat="38.834405" lon="-0.407409">
        <ele>809.407</ele>
        <time>2022-07-10T05:59:11Z</time>
      </trkpt>
      <trkpt lat="38.834392" lon="-0.407417">
        <ele>809.617</ele>
        <time>2022-07-10T05:59:12Z</time>
      </trkpt>
      <trkpt lat="38.834376" lon="-0.407425">
        <ele>810.009</ele>
        <time>2022-07-10T05:59:13Z</time>
      </trkpt>
      <trkpt lat="38.834365" lon="-0.407453">
        <ele>810.459</ele>
        <time>2022-07-10T05:59:15Z</time>
      </trkpt>
      <trkpt lat="38.834364" lon="-0.407467">
        <ele>810.658</ele>
        <time>2022-07-10T05:59:16Z</time>
      </trkpt>
      <trkpt lat="38.834324" lon="-0.407499">
        <ele>811.245</ele>
        <time>2022-07-10T05:59:20Z</time>
      </trkpt>
      <trkpt lat="38.834293" lon="-0.407518">
        <ele>811.423</ele>
        <time>2022-07-10T05:59:23Z</time>
      </trkpt>
      <trkpt lat="38.834270" lon="-0.407553">
        <ele>812.032</ele>
        <time>2022-07-10T05:59:26Z</time>
      </trkpt>
      <trkpt lat="38.834259" lon="-0.407559">
        <ele>812.238</ele>
        <time>2022-07-10T05:59:27Z</time>
      </trkpt>
      <trkpt lat="38.834254" lon="-0.407568">
        <ele>812.411</ele>
        <time>2022-07-10T05:59:28Z</time>
      </trkpt>
      <trkpt lat="38.834244" lon="-0.407572">
        <ele>812.698</ele>
        <time>2022-07-10T05:59:29Z</time>
      </trkpt>
      <trkpt lat="38.834215" lon="-0.407583">
        <ele>812.835</ele>
        <time>2022-07-10T05:59:31Z</time>
      </trkpt>
      <trkpt lat="38.834222" lon="-0.407591">
        <ele>813.491</ele>
        <time>2022-07-10T05:59:34Z</time>
      </trkpt>
      <trkpt lat="38.834257" lon="-0.407599">
        <ele>813.481</ele>
        <time>2022-07-10T05:59:37Z</time>
      </trkpt>
      <trkpt lat="38.834265" lon="-0.407589">
        <ele>813.419</ele>
        <time>2022-07-10T05:59:39Z</time>
      </trkpt>
      <trkpt lat="38.834279" lon="-0.407590">
        <ele>813.409</ele>
        <time>2022-07-10T05:59:40Z</time>
      </trkpt>
      <trkpt lat="38.834287" lon="-0.407589">
        <ele>813.660</ele>
        <time>2022-07-10T05:59:41Z</time>
      </trkpt>
      <trkpt lat="38.834273" lon="-0.407583">
        <ele>813.629</ele>
        <time>2022-07-10T05:59:43Z</time>
      </trkpt>
      <trkpt lat="38.834282" lon="-0.407592">
        <ele>813.216</ele>
        <time>2022-07-10T05:59:47Z</time>
      </trkpt>
      <trkpt lat="38.834282" lon="-0.407592">
        <ele>813.064</ele>
        <time>2022-07-10T05:59:51Z</time>
      </trkpt>
      <trkpt lat="38.834282" lon="-0.407592">
        <ele>813.243</ele>
        <time>2022-07-10T05:59:53Z</time>
      </trkpt>
      <trkpt lat="38.834281" lon="-0.407590">
        <ele>813.279</ele>
        <time>2022-07-10T05:59:55Z</time>
      </trkpt>
      <trkpt lat="38.834266" lon="-0.407568">
        <ele>813.012</ele>
        <time>2022-07-10T06:00:06Z</time>
      </trkpt>
      <trkpt lat="38.834275" lon="-0.407528">
        <ele>815.669</ele>
        <time>2022-07-10T06:00:30Z</time>
      </trkpt>
      <trkpt lat="38.834286" lon="-0.407515">
        <ele>815.656</ele>
        <time>2022-07-10T06:00:31Z</time>
      </trkpt>
      <trkpt lat="38.834326" lon="-0.407458">
        <ele>815.641</ele>
        <time>2022-07-10T06:00:35Z</time>
      </trkpt>
      <trkpt lat="38.834353" lon="-0.407384">
        <ele>816.481</ele>
        <time>2022-07-10T06:00:41Z</time>
      </trkpt>
      <trkpt lat="38.834329" lon="-0.407397">
        <ele>817.209</ele>
        <time>2022-07-10T06:00:42Z</time>
      </trkpt>
      <trkpt lat="38.834281" lon="-0.407441">
        <ele>817.609</ele>
        <time>2022-07-10T06:00:45Z</time>
      </trkpt>
      <trkpt lat="38.834214" lon="-0.407486">
        <ele>818.235</ele>
        <time>2022-07-10T06:00:49Z</time>
      </trkpt>
      <trkpt lat="38.834189" lon="-0.407523">
        <ele>818.854</ele>
        <time>2022-07-10T06:00:52Z</time>
      </trkpt>
      <trkpt lat="38.834123" lon="-0.407538">
        <ele>819.661</ele>
        <time>2022-07-10T06:00:56Z</time>
      </trkpt>
      <trkpt lat="38.834112" lon="-0.407547">
        <ele>819.849</ele>
        <time>2022-07-10T06:00:57Z</time>
      </trkpt>
      <trkpt lat="38.834115" lon="-0.407563">
        <ele>820.098</ele>
        <time>2022-07-10T06:00:58Z</time>
      </trkpt>
      <trkpt lat="38.834114" lon="-0.407582">
        <ele>820.424</ele>
        <time>2022-07-10T06:01:00Z</time>
      </trkpt>
      <trkpt lat="38.834116" lon="-0.407597">
        <ele>820.447</ele>
        <time>2022-07-10T06:01:01Z</time>
      </trkpt>
      <trkpt lat="38.834118" lon="-0.407612">
        <ele>820.614</ele>
        <time>2022-07-10T06:01:02Z</time>
      </trkpt>
      <trkpt lat="38.834101" lon="-0.407639">
        <ele>821.031</ele>
        <time>2022-07-10T06:01:05Z</time>
      </trkpt>
      <trkpt lat="38.834099" lon="-0.407654">
        <ele>821.093</ele>
        <time>2022-07-10T06:01:06Z</time>
      </trkpt>
      <trkpt lat="38.834104" lon="-0.407674">
        <ele>821.265</ele>
        <time>2022-07-10T06:01:07Z</time>
      </trkpt>
      <trkpt lat="38.834094" lon="-0.407693">
        <ele>821.421</ele>
        <time>2022-07-10T06:01:09Z</time>
      </trkpt>
      <trkpt lat="38.834090" lon="-0.407700">
        <ele>821.809</ele>
        <time>2022-07-10T06:01:10Z</time>
      </trkpt>
      <trkpt lat="38.834089" lon="-0.407712">
        <ele>821.870</ele>
        <time>2022-07-10T06:01:11Z</time>
      </trkpt>
      <trkpt lat="38.834073" lon="-0.407745">
        <ele>822.299</ele>
        <time>2022-07-10T06:01:14Z</time>
      </trkpt>
      <trkpt lat="38.834069" lon="-0.407770">
        <ele>822.436</ele>
        <time>2022-07-10T06:01:16Z</time>
      </trkpt>
      <trkpt lat="38.834070" lon="-0.407786">
        <ele>822.874</ele>
        <time>2022-07-10T06:01:17Z</time>
      </trkpt>
      <trkpt lat="38.834061" lon="-0.407844">
        <ele>823.433</ele>
        <time>2022-07-10T06:01:21Z</time>
      </trkpt>
      <trkpt lat="38.834046" lon="-0.407891">
        <ele>823.869</ele>
        <time>2022-07-10T06:01:24Z</time>
      </trkpt>
      <trkpt lat="38.834041" lon="-0.407905">
        <ele>823.882</ele>
        <time>2022-07-10T06:01:25Z</time>
      </trkpt>
      <trkpt lat="38.834017" lon="-0.407943">
        <ele>824.099</ele>
        <time>2022-07-10T06:01:28Z</time>
      </trkpt>
      <trkpt lat="38.833988" lon="-0.408002">
        <ele>824.846</ele>
        <time>2022-07-10T06:01:32Z</time>
      </trkpt>
      <trkpt lat="38.833994" lon="-0.408023">
        <ele>825.037</ele>
        <time>2022-07-10T06:01:33Z</time>
      </trkpt>
      <trkpt lat="38.833962" lon="-0.408061">
        <ele>825.449</ele>
        <time>2022-07-10T06:01:36Z</time>
      </trkpt>
      <trkpt lat="38.833922" lon="-0.408072">
        <ele>825.813</ele>
        <time>2022-07-10T06:01:38Z</time>
      </trkpt>
      <trkpt lat="38.833903" lon="-0.408096">
        <ele>826.209</ele>
        <time>2022-07-10T06:01:40Z</time>
      </trkpt>
      <trkpt lat="38.833890" lon="-0.408122">
        <ele>826.434</ele>
        <time>2022-07-10T06:01:42Z</time>
      </trkpt>
      <trkpt lat="38.833882" lon="-0.408175">
        <ele>826.833</ele>
        <time>2022-07-10T06:01:45Z</time>
      </trkpt>
      <trkpt lat="38.833857" lon="-0.408208">
        <ele>827.260</ele>
        <time>2022-07-10T06:01:48Z</time>
      </trkpt>
      <trkpt lat="38.833863" lon="-0.408245">
        <ele>827.468</ele>
        <time>2022-07-10T06:01:50Z</time>
      </trkpt>
      <trkpt lat="38.833859" lon="-0.408273">
        <ele>827.887</ele>
        <time>2022-07-10T06:01:52Z</time>
      </trkpt>
      <trkpt lat="38.833802" lon="-0.408284">
        <ele>828.273</ele>
        <time>2022-07-10T06:01:55Z</time>
      </trkpt>
      <trkpt lat="38.833802" lon="-0.408299">
        <ele>828.496</ele>
        <time>2022-07-10T06:01:56Z</time>
      </trkpt>
      <trkpt lat="38.833821" lon="-0.408345">
        <ele>828.873</ele>
        <time>2022-07-10T06:01:58Z</time>
      </trkpt>
      <trkpt lat="38.833861" lon="-0.408414">
        <ele>829.090</ele>
        <time>2022-07-10T06:02:02Z</time>
      </trkpt>
      <trkpt lat="38.833888" lon="-0.408446">
        <ele>829.469</ele>
        <time>2022-07-10T06:02:04Z</time>
      </trkpt>
      <trkpt lat="38.833973" lon="-0.408538">
        <ele>830.004</ele>
        <time>2022-07-10T06:02:10Z</time>
      </trkpt>
      <trkpt lat="38.833977" lon="-0.408555">
        <ele>830.224</ele>
        <time>2022-07-10T06:02:11Z</time>
      </trkpt>
      <trkpt lat="38.833980" lon="-0.408585">
        <ele>830.409</ele>
        <time>2022-07-10T06:02:13Z</time>
      </trkpt>
      <trkpt lat="38.833991" lon="-0.408609">
        <ele>830.627</ele>
        <time>2022-07-10T06:02:14Z</time>
      </trkpt>
      <trkpt lat="38.834004" lon="-0.408655">
        <ele>830.886</ele>
        <time>2022-07-10T06:02:16Z</time>
      </trkpt>
      <trkpt lat="38.834001" lon="-0.408700">
        <ele>831.063</ele>
        <time>2022-07-10T06:02:18Z</time>
      </trkpt>
      <trkpt lat="38.834000" lon="-0.408721">
        <ele>831.281</ele>
        <time>2022-07-10T06:02:19Z</time>
      </trkpt>
      <trkpt lat="38.833999" lon="-0.408771">
        <ele>831.450</ele>
        <time>2022-07-10T06:02:21Z</time>
      </trkpt>
      <trkpt lat="38.834005" lon="-0.408803">
        <ele>831.636</ele>
        <time>2022-07-10T06:02:23Z</time>
      </trkpt>
      <trkpt lat="38.834019" lon="-0.408901">
        <ele>832.459</ele>
        <time>2022-07-10T06:02:29Z</time>
      </trkpt>
      <trkpt lat="38.834020" lon="-0.408923">
        <ele>832.866</ele>
        <time>2022-07-10T06:02:31Z</time>
      </trkpt>
      <trkpt lat="38.834032" lon="-0.409013">
        <ele>833.693</ele>
        <time>2022-07-10T06:02:36Z</time>
      </trkpt>
      <trkpt lat="38.834019" lon="-0.409080">
        <ele>833.828</ele>
        <time>2022-07-10T06:02:40Z</time>
      </trkpt>
      <trkpt lat="38.833997" lon="-0.409122">
        <ele>834.689</ele>
        <time>2022-07-10T06:02:45Z</time>
      </trkpt>
      <trkpt lat="38.833993" lon="-0.409133">
        <ele>834.817</ele>
        <time>2022-07-10T06:02:46Z</time>
      </trkpt>
      <trkpt lat="38.833960" lon="-0.409180">
        <ele>834.209</ele>
        <time>2022-07-10T06:02:52Z</time>
      </trkpt>
      <trkpt lat="38.833950" lon="-0.409190">
        <ele>834.233</ele>
        <time>2022-07-10T06:02:53Z</time>
      </trkpt>
      <trkpt lat="38.833939" lon="-0.409219">
        <ele>834.012</ele>
        <time>2022-07-10T06:02:55Z</time>
      </trkpt>
      <trkpt lat="38.833916" lon="-0.409256">
        <ele>833.629</ele>
        <time>2022-07-10T06:02:58Z</time>
      </trkpt>
      <trkpt lat="38.833915" lon="-0.409275">
        <ele>833.697</ele>
        <time>2022-07-10T06:02:59Z</time>
      </trkpt>
      <trkpt lat="38.833912" lon="-0.409288">
        <ele>833.636</ele>
        <time>2022-07-10T06:03:00Z</time>
      </trkpt>
      <trkpt lat="38.833919" lon="-0.409369">
        <ele>833.292</ele>
        <time>2022-07-10T06:03:05Z</time>
      </trkpt>
      <trkpt lat="38.833920" lon="-0.409385">
        <ele>833.245</ele>
        <time>2022-07-10T06:03:06Z</time>
      </trkpt>
      <trkpt lat="38.833886" lon="-0.409479">
        <ele>833.012</ele>
        <time>2022-07-10T06:03:13Z</time>
      </trkpt>
      <trkpt lat="38.833820" lon="-0.409556">
        <ele>833.039</ele>
        <time>2022-07-10T06:03:22Z</time>
      </trkpt>
      <trkpt lat="38.833805" lon="-0.409566">
        <ele>832.444</ele>
        <time>2022-07-10T06:03:23Z</time>
      </trkpt>
      <trkpt lat="38.833840" lon="-0.409565">
        <ele>831.805</ele>
        <time>2022-07-10T06:03:27Z</time>
      </trkpt>
      <trkpt lat="38.833856" lon="-0.409569">
        <ele>831.815</ele>
        <time>2022-07-10T06:03:28Z</time>
      </trkpt>
      <trkpt lat="38.833852" lon="-0.409570">
        <ele>831.809</ele>
        <time>2022-07-10T06:03:31Z</time>
      </trkpt>
      <trkpt lat="38.833850" lon="-0.409563">
        <ele>831.845</ele>
        <time>2022-07-10T06:03:32Z</time>
      </trkpt>
      <trkpt lat="38.833851" lon="-0.409551">
        <ele>831.814</ele>
        <time>2022-07-10T06:03:33Z</time>
      </trkpt>
      <trkpt lat="38.833879" lon="-0.409491">
        <ele>832.821</ele>
        <time>2022-07-10T06:03:39Z</time>
      </trkpt>
      <trkpt lat="38.833892" lon="-0.409400">
        <ele>833.239</ele>
        <time>2022-07-10T06:03:45Z</time>
      </trkpt>
      <trkpt lat="38.833894" lon="-0.409358">
        <ele>833.078</ele>
        <time>2022-07-10T06:03:47Z</time>
      </trkpt>
      <trkpt lat="38.833947" lon="-0.409224">
        <ele>833.224</ele>
        <time>2022-07-10T06:03:55Z</time>
      </trkpt>
      <trkpt lat="38.833953" lon="-0.409179">
        <ele>833.687</ele>
        <time>2022-07-10T06:03:58Z</time>
      </trkpt>
      <trkpt lat="38.833986" lon="-0.409109">
        <ele>833.864</ele>
        <time>2022-07-10T06:04:03Z</time>
      </trkpt>
      <trkpt lat="38.833993" lon="-0.409103">
        <ele>834.091</ele>
        <time>2022-07-10T06:04:04Z</time>
      </trkpt>
      <trkpt lat="38.833994" lon="-0.409091">
        <ele>834.075</ele>
        <time>2022-07-10T06:04:05Z</time>
      </trkpt>
      <trkpt lat="38.833997" lon="-0.409061">
        <ele>834.628</ele>
        <time>2022-07-10T06:04:08Z</time>
      </trkpt>
      <trkpt lat="38.834006" lon="-0.409035">
        <ele>835.020</ele>
        <time>2022-07-10T06:04:11Z</time>
      </trkpt>
      <trkpt lat="38.834020" lon="-0.408938">
        <ele>834.409</ele>
        <time>2022-07-10T06:04:17Z</time>
      </trkpt>
      <trkpt lat="38.833992" lon="-0.408857">
        <ele>833.828</ele>
        <time>2022-07-10T06:04:23Z</time>
      </trkpt>
      <trkpt lat="38.833976" lon="-0.408830">
        <ele>833.857</ele>
        <time>2022-07-10T06:04:25Z</time>
      </trkpt>
      <trkpt lat="38.833937" lon="-0.408733">
        <ele>834.614</ele>
        <time>2022-07-10T06:04:31Z</time>
      </trkpt>
      <trkpt lat="38.833916" lon="-0.408688">
        <ele>835.292</ele>
        <time>2022-07-10T06:04:35Z</time>
      </trkpt>
      <trkpt lat="38.833905" lon="-0.408668">
        <ele>835.841</ele>
        <time>2022-07-10T06:04:37Z</time>
      </trkpt>
      <trkpt lat="38.833875" lon="-0.408629">
        <ele>836.817</ele>
        <time>2022-07-10T06:04:43Z</time>
      </trkpt>
      <trkpt lat="38.833875" lon="-0.408622">
        <ele>837.070</ele>
        <time>2022-07-10T06:04:44Z</time>
      </trkpt>
      <trkpt lat="38.833863" lon="-0.408596">
        <ele>837.467</ele>
        <time>2022-07-10T06:04:46Z</time>
      </trkpt>
      <trkpt lat="38.833871" lon="-0.408573">
        <ele>837.864</ele>
        <time>2022-07-10T06:04:48Z</time>
      </trkpt>
      <trkpt lat="38.833872" lon="-0.408562">
        <ele>838.071</ele>
        <time>2022-07-10T06:04:49Z</time>
      </trkpt>
      <trkpt lat="38.833868" lon="-0.408553">
        <ele>838.241</ele>
        <time>2022-07-10T06:04:50Z</time>
      </trkpt>
      <trkpt lat="38.833872" lon="-0.408539">
        <ele>838.615</ele>
        <time>2022-07-10T06:04:52Z</time>
      </trkpt>
      <trkpt lat="38.833871" lon="-0.408524">
        <ele>838.809</ele>
        <time>2022-07-10T06:04:53Z</time>
      </trkpt>
      <trkpt lat="38.833873" lon="-0.408506">
        <ele>839.078</ele>
        <time>2022-07-10T06:04:54Z</time>
      </trkpt>
      <trkpt lat="38.833871" lon="-0.408479">
        <ele>839.497</ele>
        <time>2022-07-10T06:04:56Z</time>
      </trkpt>
      <trkpt lat="38.833870" lon="-0.408468">
        <ele>840.084</ele>
        <time>2022-07-10T06:04:58Z</time>
      </trkpt>
      <trkpt lat="38.833857" lon="-0.408465">
        <ele>840.292</ele>
        <time>2022-07-10T06:04:59Z</time>
      </trkpt>
      <trkpt lat="38.833823" lon="-0.408437">
        <ele>840.491</ele>
        <time>2022-07-10T06:05:01Z</time>
      </trkpt>
      <trkpt lat="38.833806" lon="-0.408412">
        <ele>841.017</ele>
        <time>2022-07-10T06:05:03Z</time>
      </trkpt>
      <trkpt lat="38.833795" lon="-0.408394">
        <ele>841.290</ele>
        <time>2022-07-10T06:05:04Z</time>
      </trkpt>
      <trkpt lat="38.833794" lon="-0.408377">
        <ele>841.237</ele>
        <time>2022-07-10T06:05:05Z</time>
      </trkpt>
      <trkpt lat="38.833793" lon="-0.408360">
        <ele>841.654</ele>
        <time>2022-07-10T06:05:07Z</time>
      </trkpt>
      <trkpt lat="38.833774" lon="-0.408338">
        <ele>842.018</ele>
        <time>2022-07-10T06:05:09Z</time>
      </trkpt>
      <trkpt lat="38.833770" lon="-0.408327">
        <ele>842.298</ele>
        <time>2022-07-10T06:05:10Z</time>
      </trkpt>
      <trkpt lat="38.833769" lon="-0.408312">
        <ele>842.217</ele>
        <time>2022-07-10T06:05:11Z</time>
      </trkpt>
      <trkpt lat="38.833751" lon="-0.408242">
        <ele>842.809</ele>
        <time>2022-07-10T06:05:15Z</time>
      </trkpt>
      <trkpt lat="38.833740" lon="-0.408206">
        <ele>843.242</ele>
        <time>2022-07-10T06:05:17Z</time>
      </trkpt>
      <trkpt lat="38.833744" lon="-0.408122">
        <ele>843.871</ele>
        <time>2022-07-10T06:05:22Z</time>
      </trkpt>
      <trkpt lat="38.833749" lon="-0.408090">
        <ele>844.048</ele>
        <time>2022-07-10T06:05:24Z</time>
      </trkpt>
      <trkpt lat="38.833751" lon="-0.408030">
        <ele>844.476</ele>
        <time>2022-07-10T06:05:27Z</time>
      </trkpt>
      <trkpt lat="38.833727" lon="-0.407948">
        <ele>845.285</ele>
        <time>2022-07-10T06:05:32Z</time>
      </trkpt>
      <trkpt lat="38.833731" lon="-0.407915">
        <ele>845.421</ele>
        <time>2022-07-10T06:05:34Z</time>
      </trkpt>
      <trkpt lat="38.833707" lon="-0.407880">
        <ele>846.064</ele>
        <time>2022-07-10T06:05:37Z</time>
      </trkpt>
      <trkpt lat="38.833700" lon="-0.407881">
        <ele>846.491</ele>
        <time>2022-07-10T06:05:38Z</time>
      </trkpt>
      <trkpt lat="38.833698" lon="-0.407892">
        <ele>846.488</ele>
        <time>2022-07-10T06:05:39Z</time>
      </trkpt>
      <trkpt lat="38.833684" lon="-0.407968">
        <ele>847.458</ele>
        <time>2022-07-10T06:05:44Z</time>
      </trkpt>
      <trkpt lat="38.833679" lon="-0.407980">
        <ele>847.652</ele>
        <time>2022-07-10T06:05:45Z</time>
      </trkpt>
      <trkpt lat="38.833660" lon="-0.408002">
        <ele>847.817</ele>
        <time>2022-07-10T06:05:47Z</time>
      </trkpt>
      <trkpt lat="38.833637" lon="-0.408041">
        <ele>848.009</ele>
        <time>2022-07-10T06:05:50Z</time>
      </trkpt>
      <trkpt lat="38.833623" lon="-0.408075">
        <ele>848.226</ele>
        <time>2022-07-10T06:05:53Z</time>
      </trkpt>
      <trkpt lat="38.833593" lon="-0.408104">
        <ele>848.615</ele>
        <time>2022-07-10T06:05:56Z</time>
      </trkpt>
      <trkpt lat="38.833564" lon="-0.408126">
        <ele>848.872</ele>
        <time>2022-07-10T06:05:58Z</time>
      </trkpt>
      <trkpt lat="38.833551" lon="-0.408152">
        <ele>849.030</ele>
        <time>2022-07-10T06:06:00Z</time>
      </trkpt>
      <trkpt lat="38.833561" lon="-0.408189">
        <ele>849.659</ele>
        <time>2022-07-10T06:06:02Z</time>
      </trkpt>
      <trkpt lat="38.833557" lon="-0.408211">
        <ele>850.235</ele>
        <time>2022-07-10T06:06:04Z</time>
      </trkpt>
      <trkpt lat="38.833562" lon="-0.408260">
        <ele>850.618</ele>
        <time>2022-07-10T06:06:07Z</time>
      </trkpt>
      <trkpt lat="38.833552" lon="-0.408274">
        <ele>850.875</ele>
        <time>2022-07-10T06:06:08Z</time>
      </trkpt>
      <trkpt lat="38.833547" lon="-0.408306">
        <ele>851.292</ele>
        <time>2022-07-10T06:06:10Z</time>
      </trkpt>
      <trkpt lat="38.833539" lon="-0.408333">
        <ele>851.484</ele>
        <time>2022-07-10T06:06:12Z</time>
      </trkpt>
      <trkpt lat="38.833549" lon="-0.408401">
        <ele>852.007</ele>
        <time>2022-07-10T06:06:15Z</time>
      </trkpt>
      <trkpt lat="38.833543" lon="-0.408419">
        <ele>852.217</ele>
        <time>2022-07-10T06:06:16Z</time>
      </trkpt>
      <trkpt lat="38.833536" lon="-0.408441">
        <ele>853.009</ele>
        <time>2022-07-10T06:06:19Z</time>
      </trkpt>
      <trkpt lat="38.833555" lon="-0.408471">
        <ele>853.499</ele>
        <time>2022-07-10T06:06:21Z</time>
      </trkpt>
      <trkpt lat="38.833561" lon="-0.408523">
        <ele>854.038</ele>
        <time>2022-07-10T06:06:24Z</time>
      </trkpt>
      <trkpt lat="38.833570" lon="-0.408562">
        <ele>854.455</ele>
        <time>2022-07-10T06:06:26Z</time>
      </trkpt>
      <trkpt lat="38.833581" lon="-0.408579">
        <ele>854.833</ele>
        <time>2022-07-10T06:06:27Z</time>
      </trkpt>
      <trkpt lat="38.833604" lon="-0.408601">
        <ele>855.462</ele>
        <time>2022-07-10T06:06:29Z</time>
      </trkpt>
      <trkpt lat="38.833607" lon="-0.408611">
        <ele>855.678</ele>
        <time>2022-07-10T06:06:30Z</time>
      </trkpt>
      <trkpt lat="38.833604" lon="-0.408626">
        <ele>856.051</ele>
        <time>2022-07-10T06:06:32Z</time>
      </trkpt>
      <trkpt lat="38.833607" lon="-0.408641">
        <ele>856.498</ele>
        <time>2022-07-10T06:06:34Z</time>
      </trkpt>
      <trkpt lat="38.833624" lon="-0.408676">
        <ele>857.075</ele>
        <time>2022-07-10T06:06:37Z</time>
      </trkpt>
      <trkpt lat="38.833637" lon="-0.408716">
        <ele>857.448</ele>
        <time>2022-07-10T06:06:40Z</time>
      </trkpt>
      <trkpt lat="38.833637" lon="-0.408727">
        <ele>857.461</ele>
        <time>2022-07-10T06:06:41Z</time>
      </trkpt>
      <trkpt lat="38.833637" lon="-0.408738">
        <ele>857.617</ele>
        <time>2022-07-10T06:06:42Z</time>
      </trkpt>
      <trkpt lat="38.833636" lon="-0.408764">
        <ele>857.609</ele>
        <time>2022-07-10T06:06:44Z</time>
      </trkpt>
      <trkpt lat="38.833631" lon="-0.408800">
        <ele>858.615</ele>
        <time>2022-07-10T06:06:47Z</time>
      </trkpt>
      <trkpt lat="38.833628" lon="-0.408810">
        <ele>858.884</ele>
        <time>2022-07-10T06:06:48Z</time>
      </trkpt>
      <trkpt lat="38.833631" lon="-0.408827">
        <ele>859.681</ele>
        <time>2022-07-10T06:06:51Z</time>
      </trkpt>
      <trkpt lat="38.833652" lon="-0.408853">
        <ele>860.269</ele>
        <time>2022-07-10T06:06:54Z</time>
      </trkpt>
      <trkpt lat="38.833676" lon="-0.408881">
        <ele>860.688</ele>
        <time>2022-07-10T06:06:57Z</time>
      </trkpt>
      <trkpt lat="38.833706" lon="-0.408930">
        <ele>861.094</ele>
        <time>2022-07-10T06:06:59Z</time>
      </trkpt>
      <trkpt lat="38.833704" lon="-0.408941">
        <ele>861.297</ele>
        <time>2022-07-10T06:07:00Z</time>
      </trkpt>
      <trkpt lat="38.833700" lon="-0.408964">
        <ele>861.624</ele>
        <time>2022-07-10T06:07:02Z</time>
      </trkpt>
      <trkpt lat="38.833687" lon="-0.408998">
        <ele>862.671</ele>
        <time>2022-07-10T06:07:05Z</time>
      </trkpt>
      <trkpt lat="38.833681" lon="-0.409009">
        <ele>862.844</ele>
        <time>2022-07-10T06:07:06Z</time>
      </trkpt>
      <trkpt lat="38.833689" lon="-0.409026">
        <ele>863.005</ele>
        <time>2022-07-10T06:07:07Z</time>
      </trkpt>
      <trkpt lat="38.833700" lon="-0.409105">
        <ele>863.615</ele>
        <time>2022-07-10T06:07:12Z</time>
      </trkpt>
      <trkpt lat="38.833674" lon="-0.409166">
        <ele>863.809</ele>
        <time>2022-07-10T06:07:16Z</time>
      </trkpt>
      <trkpt lat="38.833659" lon="-0.409212">
        <ele>864.095</ele>
        <time>2022-07-10T06:07:19Z</time>
      </trkpt>
      <trkpt lat="38.833654" lon="-0.409329">
        <ele>865.014</ele>
        <time>2022-07-10T06:07:26Z</time>
      </trkpt>
      <trkpt lat="38.833655" lon="-0.409350">
        <ele>865.091</ele>
        <time>2022-07-10T06:07:27Z</time>
      </trkpt>
      <trkpt lat="38.833642" lon="-0.409482">
        <ele>865.219</ele>
        <time>2022-07-10T06:07:35Z</time>
      </trkpt>
      <trkpt lat="38.833637" lon="-0.409512">
        <ele>865.088</ele>
        <time>2022-07-10T06:07:37Z</time>
      </trkpt>
      <trkpt lat="38.833623" lon="-0.409597">
        <ele>864.814</ele>
        <time>2022-07-10T06:07:42Z</time>
      </trkpt>
      <trkpt lat="38.833604" lon="-0.409672">
        <ele>864.827</ele>
        <time>2022-07-10T06:07:47Z</time>
      </trkpt>
      <trkpt lat="38.833615" lon="-0.409739">
        <ele>864.444</ele>
        <time>2022-07-10T06:07:50Z</time>
      </trkpt>
      <trkpt lat="38.833605" lon="-0.409835">
        <ele>864.231</ele>
        <time>2022-07-10T06:07:56Z</time>
      </trkpt>
      <trkpt lat="38.833594" lon="-0.409946">
        <ele>864.016</ele>
        <time>2022-07-10T06:08:02Z</time>
      </trkpt>
      <trkpt lat="38.833591" lon="-0.409980">
        <ele>863.876</ele>
        <time>2022-07-10T06:08:04Z</time>
      </trkpt>
      <trkpt lat="38.833570" lon="-0.410052">
        <ele>863.213</ele>
        <time>2022-07-10T06:08:09Z</time>
      </trkpt>
      <trkpt lat="38.833545" lon="-0.410104">
        <ele>862.809</ele>
        <time>2022-07-10T06:08:12Z</time>
      </trkpt>
      <trkpt lat="38.833521" lon="-0.410164">
        <ele>862.292</ele>
        <time>2022-07-10T06:08:16Z</time>
      </trkpt>
      <trkpt lat="38.833469" lon="-0.410250">
        <ele>862.041</ele>
        <time>2022-07-10T06:08:23Z</time>
      </trkpt>
      <trkpt lat="38.833441" lon="-0.410307">
        <ele>862.098</ele>
        <time>2022-07-10T06:08:27Z</time>
      </trkpt>
      <trkpt lat="38.833443" lon="-0.410346">
        <ele>861.866</ele>
        <time>2022-07-10T06:08:29Z</time>
      </trkpt>
      <trkpt lat="38.833438" lon="-0.410365">
        <ele>861.855</ele>
        <time>2022-07-10T06:08:30Z</time>
      </trkpt>
      <trkpt lat="38.833425" lon="-0.410381">
        <ele>861.861</ele>
        <time>2022-07-10T06:08:31Z</time>
      </trkpt>
      <trkpt lat="38.833379" lon="-0.410459">
        <ele>861.234</ele>
        <time>2022-07-10T06:08:37Z</time>
      </trkpt>
      <trkpt lat="38.833335" lon="-0.410540">
        <ele>861.091</ele>
        <time>2022-07-10T06:08:42Z</time>
      </trkpt>
      <trkpt lat="38.833289" lon="-0.410565">
        <ele>861.018</ele>
        <time>2022-07-10T06:08:45Z</time>
      </trkpt>
      <trkpt lat="38.833269" lon="-0.410590">
        <ele>860.817</ele>
        <time>2022-07-10T06:08:47Z</time>
      </trkpt>
      <trkpt lat="38.833261" lon="-0.410624">
        <ele>860.687</ele>
        <time>2022-07-10T06:08:49Z</time>
      </trkpt>
      <trkpt lat="38.833256" lon="-0.410643">
        <ele>860.415</ele>
        <time>2022-07-10T06:08:50Z</time>
      </trkpt>
      <trkpt lat="38.833195" lon="-0.410789">
        <ele>859.809</ele>
        <time>2022-07-10T06:08:58Z</time>
      </trkpt>
      <trkpt lat="38.833133" lon="-0.410854">
        <ele>859.892</ele>
        <time>2022-07-10T06:09:03Z</time>
      </trkpt>
      <trkpt lat="38.833131" lon="-0.410874">
        <ele>859.621</ele>
        <time>2022-07-10T06:09:04Z</time>
      </trkpt>
      <trkpt lat="38.833153" lon="-0.410986">
        <ele>859.488</ele>
        <time>2022-07-10T06:09:10Z</time>
      </trkpt>
      <trkpt lat="38.833173" lon="-0.411071">
        <ele>859.256</ele>
        <time>2022-07-10T06:09:14Z</time>
      </trkpt>
      <trkpt lat="38.833161" lon="-0.411198">
        <ele>858.865</ele>
        <time>2022-07-10T06:09:21Z</time>
      </trkpt>
      <trkpt lat="38.833159" lon="-0.411217">
        <ele>858.861</ele>
        <time>2022-07-10T06:09:22Z</time>
      </trkpt>
      <trkpt lat="38.833153" lon="-0.411236">
        <ele>858.844</ele>
        <time>2022-07-10T06:09:23Z</time>
      </trkpt>
      <trkpt lat="38.833128" lon="-0.411285">
        <ele>858.421</ele>
        <time>2022-07-10T06:09:26Z</time>
      </trkpt>
      <trkpt lat="38.833101" lon="-0.411349">
        <ele>857.658</ele>
        <time>2022-07-10T06:09:30Z</time>
      </trkpt>
      <trkpt lat="38.833096" lon="-0.411367">
        <ele>857.496</ele>
        <time>2022-07-10T06:09:31Z</time>
      </trkpt>
      <trkpt lat="38.833056" lon="-0.411482">
        <ele>856.231</ele>
        <time>2022-07-10T06:09:37Z</time>
      </trkpt>
      <trkpt lat="38.833050" lon="-0.411499">
        <ele>855.824</ele>
        <time>2022-07-10T06:09:38Z</time>
      </trkpt>
      <trkpt lat="38.833047" lon="-0.411557">
        <ele>855.409</ele>
        <time>2022-07-10T06:09:41Z</time>
      </trkpt>
      <trkpt lat="38.833043" lon="-0.411612">
        <ele>855.220</ele>
        <time>2022-07-10T06:09:44Z</time>
      </trkpt>
      <trkpt lat="38.833038" lon="-0.411627">
        <ele>855.299</ele>
        <time>2022-07-10T06:09:45Z</time>
      </trkpt>
      <trkpt lat="38.833017" lon="-0.411702">
        <ele>854.666</ele>
        <time>2022-07-10T06:09:49Z</time>
      </trkpt>
      <trkpt lat="38.833008" lon="-0.411752">
        <ele>854.264</ele>
        <time>2022-07-10T06:09:52Z</time>
      </trkpt>
      <trkpt lat="38.833009" lon="-0.411767">
        <ele>854.093</ele>
        <time>2022-07-10T06:09:53Z</time>
      </trkpt>
      <trkpt lat="38.833045" lon="-0.411869">
        <ele>853.859</ele>
        <time>2022-07-10T06:09:58Z</time>
      </trkpt>
      <trkpt lat="38.833062" lon="-0.411982">
        <ele>854.042</ele>
        <time>2022-07-10T06:10:04Z</time>
      </trkpt>
      <trkpt lat="38.833065" lon="-0.412001">
        <ele>854.069</ele>
        <time>2022-07-10T06:10:05Z</time>
      </trkpt>
      <trkpt lat="38.833112" lon="-0.412164">
        <ele>855.016</ele>
        <time>2022-07-10T06:10:13Z</time>
      </trkpt>
      <trkpt lat="38.833109" lon="-0.412171">
        <ele>855.085</ele>
        <time>2022-07-10T06:10:14Z</time>
      </trkpt>
      <trkpt lat="38.833107" lon="-0.412260">
        <ele>855.689</ele>
        <time>2022-07-10T06:10:19Z</time>
      </trkpt>
      <trkpt lat="38.833104" lon="-0.412281">
        <ele>855.817</ele>
        <time>2022-07-10T06:10:20Z</time>
      </trkpt>
      <trkpt lat="38.833094" lon="-0.412331">
        <ele>856.209</ele>
        <time>2022-07-10T06:10:22Z</time>
      </trkpt>
      <trkpt lat="38.833061" lon="-0.412415">
        <ele>856.629</ele>
        <time>2022-07-10T06:10:28Z</time>
      </trkpt>
      <trkpt lat="38.833041" lon="-0.412500">
        <ele>857.468</ele>
        <time>2022-07-10T06:10:33Z</time>
      </trkpt>
      <trkpt lat="38.833021" lon="-0.412538">
        <ele>858.255</ele>
        <time>2022-07-10T06:10:36Z</time>
      </trkpt>
      <trkpt lat="38.833018" lon="-0.412569">
        <ele>858.433</ele>
        <time>2022-07-10T06:10:38Z</time>
      </trkpt>
      <trkpt lat="38.833027" lon="-0.412621">
        <ele>858.622</ele>
        <time>2022-07-10T06:10:41Z</time>
      </trkpt>
      <trkpt lat="38.833027" lon="-0.412649">
        <ele>858.878</ele>
        <time>2022-07-10T06:10:43Z</time>
      </trkpt>
      <trkpt lat="38.833059" lon="-0.412691">
        <ele>859.261</ele>
        <time>2022-07-10T06:10:46Z</time>
      </trkpt>
      <trkpt lat="38.833061" lon="-0.412705">
        <ele>859.278</ele>
        <time>2022-07-10T06:10:47Z</time>
      </trkpt>
      <trkpt lat="38.833055" lon="-0.412752">
        <ele>859.675</ele>
        <time>2022-07-10T06:10:50Z</time>
      </trkpt>
      <trkpt lat="38.833062" lon="-0.412814">
        <ele>860.247</ele>
        <time>2022-07-10T06:10:53Z</time>
      </trkpt>
      <trkpt lat="38.833066" lon="-0.412854">
        <ele>860.829</ele>
        <time>2022-07-10T06:10:55Z</time>
      </trkpt>
      <trkpt lat="38.833082" lon="-0.412939">
        <ele>861.221</ele>
        <time>2022-07-10T06:10:59Z</time>
      </trkpt>
      <trkpt lat="38.833086" lon="-0.412974">
        <ele>861.409</ele>
        <time>2022-07-10T06:11:01Z</time>
      </trkpt>
      <trkpt lat="38.833087" lon="-0.413014">
        <ele>861.845</ele>
        <time>2022-07-10T06:11:03Z</time>
      </trkpt>
      <trkpt lat="38.833063" lon="-0.413118">
        <ele>862.214</ele>
        <time>2022-07-10T06:11:09Z</time>
      </trkpt>
      <trkpt lat="38.833037" lon="-0.413177">
        <ele>862.621</ele>
        <time>2022-07-10T06:11:13Z</time>
      </trkpt>
      <trkpt lat="38.833042" lon="-0.413211">
        <ele>862.639</ele>
        <time>2022-07-10T06:11:15Z</time>
      </trkpt>
      <trkpt lat="38.833039" lon="-0.413276">
        <ele>862.678</ele>
        <time>2022-07-10T06:11:19Z</time>
      </trkpt>
      <trkpt lat="38.833016" lon="-0.413333">
        <ele>862.834</ele>
        <time>2022-07-10T06:11:22Z</time>
      </trkpt>
      <trkpt lat="38.832988" lon="-0.413444">
        <ele>862.487</ele>
        <time>2022-07-10T06:11:28Z</time>
      </trkpt>
      <trkpt lat="38.832984" lon="-0.413456">
        <ele>862.444</ele>
        <time>2022-07-10T06:11:29Z</time>
      </trkpt>
      <trkpt lat="38.832959" lon="-0.413496">
        <ele>862.231</ele>
        <time>2022-07-10T06:11:32Z</time>
      </trkpt>
      <trkpt lat="38.832920" lon="-0.413571">
        <ele>862.039</ele>
        <time>2022-07-10T06:11:37Z</time>
      </trkpt>
      <trkpt lat="38.832878" lon="-0.413664">
        <ele>862.001</ele>
        <time>2022-07-10T06:11:42Z</time>
      </trkpt>
      <trkpt lat="38.832876" lon="-0.413680">
        <ele>862.021</ele>
        <time>2022-07-10T06:11:43Z</time>
      </trkpt>
      <trkpt lat="38.832870" lon="-0.413698">
        <ele>862.009</ele>
        <time>2022-07-10T06:11:44Z</time>
      </trkpt>
      <trkpt lat="38.832847" lon="-0.413773">
        <ele>862.014</ele>
        <time>2022-07-10T06:11:48Z</time>
      </trkpt>
      <trkpt lat="38.832826" lon="-0.413851">
        <ele>861.873</ele>
        <time>2022-07-10T06:11:52Z</time>
      </trkpt>
      <trkpt lat="38.832824" lon="-0.413910">
        <ele>861.670</ele>
        <time>2022-07-10T06:11:55Z</time>
      </trkpt>
      <trkpt lat="38.832810" lon="-0.414061">
        <ele>861.838</ele>
        <time>2022-07-10T06:12:02Z</time>
      </trkpt>
      <trkpt lat="38.832771" lon="-0.414168">
        <ele>862.667</ele>
        <time>2022-07-10T06:12:08Z</time>
      </trkpt>
      <trkpt lat="38.832771" lon="-0.414186">
        <ele>862.843</ele>
        <time>2022-07-10T06:12:09Z</time>
      </trkpt>
      <trkpt lat="38.832756" lon="-0.414226">
        <ele>863.266</ele>
        <time>2022-07-10T06:12:12Z</time>
      </trkpt>
      <trkpt lat="38.832734" lon="-0.414260">
        <ele>863.863</ele>
        <time>2022-07-10T06:12:15Z</time>
      </trkpt>
      <trkpt lat="38.832724" lon="-0.414272">
        <ele>863.810</ele>
        <time>2022-07-10T06:12:16Z</time>
      </trkpt>
      <trkpt lat="38.832687" lon="-0.414328">
        <ele>864.815</ele>
        <time>2022-07-10T06:12:20Z</time>
      </trkpt>
      <trkpt lat="38.832679" lon="-0.414428">
        <ele>865.865</ele>
        <time>2022-07-10T06:12:25Z</time>
      </trkpt>
      <trkpt lat="38.832685" lon="-0.414454">
        <ele>866.011</ele>
        <time>2022-07-10T06:12:27Z</time>
      </trkpt>
      <trkpt lat="38.832682" lon="-0.414480">
        <ele>866.409</ele>
        <time>2022-07-10T06:12:29Z</time>
      </trkpt>
      <trkpt lat="38.832688" lon="-0.414513">
        <ele>866.842</ele>
        <time>2022-07-10T06:12:31Z</time>
      </trkpt>
      <trkpt lat="38.832692" lon="-0.414528">
        <ele>867.041</ele>
        <time>2022-07-10T06:12:32Z</time>
      </trkpt>
      <trkpt lat="38.832694" lon="-0.414606">
        <ele>867.688</ele>
        <time>2022-07-10T06:12:36Z</time>
      </trkpt>
      <trkpt lat="38.832696" lon="-0.414626">
        <ele>867.616</ele>
        <time>2022-07-10T06:12:37Z</time>
      </trkpt>
      <trkpt lat="38.832698" lon="-0.414666">
        <ele>868.035</ele>
        <time>2022-07-10T06:12:39Z</time>
      </trkpt>
      <trkpt lat="38.832735" lon="-0.414737">
        <ele>869.461</ele>
        <time>2022-07-10T06:12:44Z</time>
      </trkpt>
      <trkpt lat="38.832740" lon="-0.414748">
        <ele>869.674</ele>
        <time>2022-07-10T06:12:45Z</time>
      </trkpt>
      <trkpt lat="38.832770" lon="-0.414840">
        <ele>870.461</ele>
        <time>2022-07-10T06:12:52Z</time>
      </trkpt>
      <trkpt lat="38.832772" lon="-0.414856">
        <ele>870.618</ele>
        <time>2022-07-10T06:12:53Z</time>
      </trkpt>
      <trkpt lat="38.832772" lon="-0.414897">
        <ele>871.273</ele>
        <time>2022-07-10T06:12:56Z</time>
      </trkpt>
      <trkpt lat="38.832774" lon="-0.414934">
        <ele>871.885</ele>
        <time>2022-07-10T06:12:59Z</time>
      </trkpt>
      <trkpt lat="38.832787" lon="-0.414955">
        <ele>872.213</ele>
        <time>2022-07-10T06:13:01Z</time>
      </trkpt>
      <trkpt lat="38.832814" lon="-0.414993">
        <ele>872.609</ele>
        <time>2022-07-10T06:13:04Z</time>
      </trkpt>
      <trkpt lat="38.832820" lon="-0.415012">
        <ele>872.898</ele>
        <time>2022-07-10T06:13:05Z</time>
      </trkpt>
      <trkpt lat="38.832785" lon="-0.415119">
        <ele>873.437</ele>
        <time>2022-07-10T06:13:11Z</time>
      </trkpt>
      <trkpt lat="38.832770" lon="-0.415146">
        <ele>873.634</ele>
        <time>2022-07-10T06:13:13Z</time>
      </trkpt>
      <trkpt lat="38.832760" lon="-0.415176">
        <ele>873.822</ele>
        <time>2022-07-10T06:13:15Z</time>
      </trkpt>
      <trkpt lat="38.832755" lon="-0.415192">
        <ele>873.831</ele>
        <time>2022-07-10T06:13:16Z</time>
      </trkpt>
      <trkpt lat="38.832734" lon="-0.415255">
        <ele>873.877</ele>
        <time>2022-07-10T06:13:20Z</time>
      </trkpt>
      <trkpt lat="38.832707" lon="-0.415324">
        <ele>874.030</ele>
        <time>2022-07-10T06:13:24Z</time>
      </trkpt>
      <trkpt lat="38.832656" lon="-0.415432">
        <ele>874.687</ele>
        <time>2022-07-10T06:13:32Z</time>
      </trkpt>
      <trkpt lat="38.832637" lon="-0.415476">
        <ele>875.054</ele>
        <time>2022-07-10T06:13:35Z</time>
      </trkpt>
      <trkpt lat="38.832625" lon="-0.415508">
        <ele>875.268</ele>
        <time>2022-07-10T06:13:37Z</time>
      </trkpt>
      <trkpt lat="38.832617" lon="-0.415541">
        <ele>875.442</ele>
        <time>2022-07-10T06:13:39Z</time>
      </trkpt>
      <trkpt lat="38.832597" lon="-0.415595">
        <ele>876.026</ele>
        <time>2022-07-10T06:13:42Z</time>
      </trkpt>
      <trkpt lat="38.832598" lon="-0.415617">
        <ele>876.009</ele>
        <time>2022-07-10T06:13:43Z</time>
      </trkpt>
      <trkpt lat="38.832593" lon="-0.415636">
        <ele>876.067</ele>
        <time>2022-07-10T06:13:44Z</time>
      </trkpt>
      <trkpt lat="38.832566" lon="-0.415756">
        <ele>877.296</ele>
        <time>2022-07-10T06:13:52Z</time>
      </trkpt>
      <trkpt lat="38.832549" lon="-0.415817">
        <ele>878.253</ele>
        <time>2022-07-10T06:13:56Z</time>
      </trkpt>
      <trkpt lat="38.832551" lon="-0.415842">
        <ele>878.861</ele>
        <time>2022-07-10T06:13:58Z</time>
      </trkpt>
      <trkpt lat="38.832558" lon="-0.415881">
        <ele>879.210</ele>
        <time>2022-07-10T06:14:01Z</time>
      </trkpt>
      <trkpt lat="38.832554" lon="-0.415903">
        <ele>879.456</ele>
        <time>2022-07-10T06:14:03Z</time>
      </trkpt>
      <trkpt lat="38.832553" lon="-0.415916">
        <ele>879.869</ele>
        <time>2022-07-10T06:14:04Z</time>
      </trkpt>
      <trkpt lat="38.832548" lon="-0.415945">
        <ele>880.246</ele>
        <time>2022-07-10T06:14:06Z</time>
      </trkpt>
      <trkpt lat="38.832552" lon="-0.416007">
        <ele>881.253</ele>
        <time>2022-07-10T06:14:10Z</time>
      </trkpt>
      <trkpt lat="38.832549" lon="-0.416024">
        <ele>881.486</ele>
        <time>2022-07-10T06:14:11Z</time>
      </trkpt>
      <trkpt lat="38.832548" lon="-0.416054">
        <ele>881.660</ele>
        <time>2022-07-10T06:14:13Z</time>
      </trkpt>
      <trkpt lat="38.832550" lon="-0.416088">
        <ele>882.026</ele>
        <time>2022-07-10T06:14:15Z</time>
      </trkpt>
      <trkpt lat="38.832532" lon="-0.416123">
        <ele>882.409</ele>
        <time>2022-07-10T06:14:17Z</time>
      </trkpt>
      <trkpt lat="38.832526" lon="-0.416138">
        <ele>882.689</ele>
        <time>2022-07-10T06:14:18Z</time>
      </trkpt>
      <trkpt lat="38.832519" lon="-0.416156">
        <ele>883.038</ele>
        <time>2022-07-10T06:14:20Z</time>
      </trkpt>
      <trkpt lat="38.832514" lon="-0.416155">
        <ele>883.695</ele>
        <time>2022-07-10T06:14:22Z</time>
      </trkpt>
      <trkpt lat="38.832518" lon="-0.416146">
        <ele>883.633</ele>
        <time>2022-07-10T06:14:23Z</time>
      </trkpt>
      <trkpt lat="38.832521" lon="-0.416132">
        <ele>883.892</ele>
        <time>2022-07-10T06:14:24Z</time>
      </trkpt>
      <trkpt lat="38.832519" lon="-0.416097">
        <ele>884.288</ele>
        <time>2022-07-10T06:14:26Z</time>
      </trkpt>
      <trkpt lat="38.832549" lon="-0.416063">
        <ele>884.851</ele>
        <time>2022-07-10T06:14:29Z</time>
      </trkpt>
      <trkpt lat="38.832549" lon="-0.416045">
        <ele>884.868</ele>
        <time>2022-07-10T06:14:30Z</time>
      </trkpt>
      <trkpt lat="38.832547" lon="-0.416014">
        <ele>885.285</ele>
        <time>2022-07-10T06:14:32Z</time>
      </trkpt>
      <trkpt lat="38.832524" lon="-0.415986">
        <ele>885.691</ele>
        <time>2022-07-10T06:14:34Z</time>
      </trkpt>
      <trkpt lat="38.832515" lon="-0.415985">
        <ele>885.881</ele>
        <time>2022-07-10T06:14:35Z</time>
      </trkpt>
      <trkpt lat="38.832508" lon="-0.415991">
        <ele>885.819</ele>
        <time>2022-07-10T06:14:36Z</time>
      </trkpt>
      <trkpt lat="38.832505" lon="-0.416013">
        <ele>886.209</ele>
        <time>2022-07-10T06:14:38Z</time>
      </trkpt>
      <trkpt lat="38.832509" lon="-0.416063">
        <ele>886.860</ele>
        <time>2022-07-10T06:14:42Z</time>
      </trkpt>
      <trkpt lat="38.832495" lon="-0.416067">
        <ele>886.839</ele>
        <time>2022-07-10T06:14:43Z</time>
      </trkpt>
      <trkpt lat="38.832470" lon="-0.416096">
        <ele>887.616</ele>
        <time>2022-07-10T06:14:46Z</time>
      </trkpt>
      <trkpt lat="38.832460" lon="-0.416121">
        <ele>888.064</ele>
        <time>2022-07-10T06:14:48Z</time>
      </trkpt>
      <trkpt lat="38.832463" lon="-0.416142">
        <ele>888.423</ele>
        <time>2022-07-10T06:14:50Z</time>
      </trkpt>
      <trkpt lat="38.832474" lon="-0.416171">
        <ele>888.659</ele>
        <time>2022-07-10T06:14:52Z</time>
      </trkpt>
      <trkpt lat="38.832476" lon="-0.416191">
        <ele>889.272</ele>
        <time>2022-07-10T06:14:53Z</time>
      </trkpt>
      <trkpt lat="38.832483" lon="-0.416208">
        <ele>889.489</ele>
        <time>2022-07-10T06:14:54Z</time>
      </trkpt>
      <trkpt lat="38.832465" lon="-0.416220">
        <ele>889.846</ele>
        <time>2022-07-10T06:14:56Z</time>
      </trkpt>
      <trkpt lat="38.832445" lon="-0.416209">
        <ele>890.287</ele>
        <time>2022-07-10T06:14:58Z</time>
      </trkpt>
      <trkpt lat="38.832439" lon="-0.416201">
        <ele>890.642</ele>
        <time>2022-07-10T06:14:59Z</time>
      </trkpt>
      <trkpt lat="38.832447" lon="-0.416192">
        <ele>890.826</ele>
        <time>2022-07-10T06:15:01Z</time>
      </trkpt>
      <trkpt lat="38.832433" lon="-0.416173">
        <ele>891.409</ele>
        <time>2022-07-10T06:15:03Z</time>
      </trkpt>
      <trkpt lat="38.832412" lon="-0.416168">
        <ele>892.099</ele>
        <time>2022-07-10T06:15:07Z</time>
      </trkpt>
      <trkpt lat="38.832422" lon="-0.416186">
        <ele>892.438</ele>
        <time>2022-07-10T06:15:09Z</time>
      </trkpt>
      <trkpt lat="38.832421" lon="-0.416207">
        <ele>892.815</ele>
        <time>2022-07-10T06:15:11Z</time>
      </trkpt>
      <trkpt lat="38.832429" lon="-0.416256">
        <ele>893.683</ele>
        <time>2022-07-10T06:15:15Z</time>
      </trkpt>
      <trkpt lat="38.832435" lon="-0.416270">
        <ele>893.622</ele>
        <time>2022-07-10T06:15:16Z</time>
      </trkpt>
      <trkpt lat="38.832445" lon="-0.416283">
        <ele>893.898</ele>
        <time>2022-07-10T06:15:17Z</time>
      </trkpt>
      <trkpt lat="38.832446" lon="-0.416294">
        <ele>894.011</ele>
        <time>2022-07-10T06:15:18Z</time>
      </trkpt>
      <trkpt lat="38.832441" lon="-0.416332">
        <ele>894.888</ele>
        <time>2022-07-10T06:15:21Z</time>
      </trkpt>
      <trkpt lat="38.832434" lon="-0.416339">
        <ele>895.255</ele>
        <time>2022-07-10T06:15:22Z</time>
      </trkpt>
      <trkpt lat="38.832446" lon="-0.416370">
        <ele>896.214</ele>
        <time>2022-07-10T06:15:25Z</time>
      </trkpt>
      <trkpt lat="38.832445" lon="-0.416383">
        <ele>896.454</ele>
        <time>2022-07-10T06:15:26Z</time>
      </trkpt>
      <trkpt lat="38.832430" lon="-0.416419">
        <ele>897.209</ele>
        <time>2022-07-10T06:15:30Z</time>
      </trkpt>
      <trkpt lat="38.832427" lon="-0.416428">
        <ele>897.409</ele>
        <time>2022-07-10T06:15:31Z</time>
      </trkpt>
      <trkpt lat="38.832405" lon="-0.416467">
        <ele>898.412</ele>
        <time>2022-07-10T06:15:35Z</time>
      </trkpt>
      <trkpt lat="38.832387" lon="-0.416494">
        <ele>899.081</ele>
        <time>2022-07-10T06:15:38Z</time>
      </trkpt>
      <trkpt lat="38.832382" lon="-0.416536">
        <ele>899.448</ele>
        <time>2022-07-10T06:15:41Z</time>
      </trkpt>
      <trkpt lat="38.832378" lon="-0.416579">
        <ele>900.496</ele>
        <time>2022-07-10T06:15:46Z</time>
      </trkpt>
      <trkpt lat="38.832378" lon="-0.416584">
        <ele>900.665</ele>
        <time>2022-07-10T06:15:47Z</time>
      </trkpt>
      <trkpt lat="38.832376" lon="-0.416591">
        <ele>900.641</ele>
        <time>2022-07-10T06:15:48Z</time>
      </trkpt>
      <trkpt lat="38.832371" lon="-0.416597">
        <ele>901.044</ele>
        <time>2022-07-10T06:15:54Z</time>
      </trkpt>
      <trkpt lat="38.832364" lon="-0.416588">
        <ele>901.081</ele>
        <time>2022-07-10T06:16:00Z</time>
      </trkpt>
      <trkpt lat="38.832359" lon="-0.416614">
        <ele>901.438</ele>
        <time>2022-07-10T06:16:03Z</time>
      </trkpt>
      <trkpt lat="38.832360" lon="-0.416641">
        <ele>901.679</ele>
        <time>2022-07-10T06:16:05Z</time>
      </trkpt>
      <trkpt lat="38.832361" lon="-0.416654">
        <ele>901.805</ele>
        <time>2022-07-10T06:16:06Z</time>
      </trkpt>
      <trkpt lat="38.832348" lon="-0.416718">
        <ele>902.625</ele>
        <time>2022-07-10T06:16:11Z</time>
      </trkpt>
      <trkpt lat="38.832340" lon="-0.416738">
        <ele>903.209</ele>
        <time>2022-07-10T06:16:13Z</time>
      </trkpt>
      <trkpt lat="38.832337" lon="-0.416763">
        <ele>903.828</ele>
        <time>2022-07-10T06:16:15Z</time>
      </trkpt>
      <trkpt lat="38.832311" lon="-0.416824">
        <ele>904.827</ele>
        <time>2022-07-10T06:16:20Z</time>
      </trkpt>
      <trkpt lat="38.832264" lon="-0.416874">
        <ele>905.824</ele>
        <time>2022-07-10T06:16:26Z</time>
      </trkpt>
      <trkpt lat="38.832253" lon="-0.416903">
        <ele>906.442</ele>
        <time>2022-07-10T06:16:29Z</time>
      </trkpt>
      <trkpt lat="38.832232" lon="-0.416974">
        <ele>907.291</ele>
        <time>2022-07-10T06:16:34Z</time>
      </trkpt>
      <trkpt lat="38.832211" lon="-0.417026">
        <ele>907.817</ele>
        <time>2022-07-10T06:16:38Z</time>
      </trkpt>
      <trkpt lat="38.832203" lon="-0.417051">
        <ele>908.020</ele>
        <time>2022-07-10T06:16:40Z</time>
      </trkpt>
      <trkpt lat="38.832201" lon="-0.417074">
        <ele>908.477</ele>
        <time>2022-07-10T06:16:42Z</time>
      </trkpt>
      <trkpt lat="38.832180" lon="-0.417114">
        <ele>908.864</ele>
        <time>2022-07-10T06:16:45Z</time>
      </trkpt>
      <trkpt lat="38.832171" lon="-0.417140">
        <ele>909.434</ele>
        <time>2022-07-10T06:16:47Z</time>
      </trkpt>
      <trkpt lat="38.832129" lon="-0.417221">
        <ele>910.655</ele>
        <time>2022-07-10T06:16:54Z</time>
      </trkpt>
      <trkpt lat="38.832101" lon="-0.417283">
        <ele>911.610</ele>
        <time>2022-07-10T06:17:00Z</time>
      </trkpt>
      <trkpt lat="38.832091" lon="-0.417287">
        <ele>912.209</ele>
        <time>2022-07-10T06:17:03Z</time>
      </trkpt>
      <trkpt lat="38.832095" lon="-0.417254">
        <ele>912.664</ele>
        <time>2022-07-10T06:17:06Z</time>
      </trkpt>
      <trkpt lat="38.832095" lon="-0.417208">
        <ele>913.663</ele>
        <time>2022-07-10T06:17:09Z</time>
      </trkpt>
      <trkpt lat="38.832095" lon="-0.417161">
        <ele>913.870</ele>
        <time>2022-07-10T06:17:12Z</time>
      </trkpt>
      <trkpt lat="38.832101" lon="-0.417090">
        <ele>914.288</ele>
        <time>2022-07-10T06:17:16Z</time>
      </trkpt>
      <trkpt lat="38.832105" lon="-0.417064">
        <ele>914.417</ele>
        <time>2022-07-10T06:17:18Z</time>
      </trkpt>
      <trkpt lat="38.832127" lon="-0.416985">
        <ele>914.863</ele>
        <time>2022-07-10T06:17:23Z</time>
      </trkpt>
      <trkpt lat="38.832143" lon="-0.416965">
        <ele>915.246</ele>
        <time>2022-07-10T06:17:25Z</time>
      </trkpt>
      <trkpt lat="38.832148" lon="-0.416922">
        <ele>915.673</ele>
        <time>2022-07-10T06:17:29Z</time>
      </trkpt>
      <trkpt lat="38.832139" lon="-0.416931">
        <ele>916.080</ele>
        <time>2022-07-10T06:17:31Z</time>
      </trkpt>
      <trkpt lat="38.832119" lon="-0.416980">
        <ele>917.016</ele>
        <time>2022-07-10T06:17:36Z</time>
      </trkpt>
      <trkpt lat="38.832109" lon="-0.416999">
        <ele>917.476</ele>
        <time>2022-07-10T06:17:38Z</time>
      </trkpt>
      <trkpt lat="38.832100" lon="-0.417007">
        <ele>917.813</ele>
        <time>2022-07-10T06:17:39Z</time>
      </trkpt>
      <trkpt lat="38.832090" lon="-0.417017">
        <ele>918.209</ele>
        <time>2022-07-10T06:17:40Z</time>
      </trkpt>
      <trkpt lat="38.832058" lon="-0.417079">
        <ele>919.082</ele>
        <time>2022-07-10T06:17:45Z</time>
      </trkpt>
      <trkpt lat="38.832048" lon="-0.417089">
        <ele>919.261</ele>
        <time>2022-07-10T06:17:46Z</time>
      </trkpt>
      <trkpt lat="38.832036" lon="-0.417117">
        <ele>920.088</ele>
        <time>2022-07-10T06:17:49Z</time>
      </trkpt>
      <trkpt lat="38.832033" lon="-0.417134">
        <ele>920.656</ele>
        <time>2022-07-10T06:17:51Z</time>
      </trkpt>
      <trkpt lat="38.832023" lon="-0.417140">
        <ele>921.015</ele>
        <time>2022-07-10T06:17:53Z</time>
      </trkpt>
      <trkpt lat="38.832028" lon="-0.417135">
        <ele>921.821</ele>
        <time>2022-07-10T06:17:55Z</time>
      </trkpt>
      <trkpt lat="38.832030" lon="-0.417125">
        <ele>922.064</ele>
        <time>2022-07-10T06:17:56Z</time>
      </trkpt>
      <trkpt lat="38.832032" lon="-0.417101">
        <ele>922.471</ele>
        <time>2022-07-10T06:17:58Z</time>
      </trkpt>
      <trkpt lat="38.832041" lon="-0.417058">
        <ele>922.648</ele>
        <time>2022-07-10T06:18:01Z</time>
      </trkpt>
      <trkpt lat="38.832044" lon="-0.417040">
        <ele>922.867</ele>
        <time>2022-07-10T06:18:02Z</time>
      </trkpt>
      <trkpt lat="38.832053" lon="-0.417003">
        <ele>923.281</ele>
        <time>2022-07-10T06:18:05Z</time>
      </trkpt>
      <trkpt lat="38.832066" lon="-0.416959">
        <ele>923.419</ele>
        <time>2022-07-10T06:18:08Z</time>
      </trkpt>
      <trkpt lat="38.832080" lon="-0.416916">
        <ele>924.009</ele>
        <time>2022-07-10T06:18:11Z</time>
      </trkpt>
      <trkpt lat="38.832090" lon="-0.416883">
        <ele>924.667</ele>
        <time>2022-07-10T06:18:14Z</time>
      </trkpt>
      <trkpt lat="38.832102" lon="-0.416861">
        <ele>925.096</ele>
        <time>2022-07-10T06:18:16Z</time>
      </trkpt>
      <trkpt lat="38.832153" lon="-0.416761">
        <ele>926.013</ele>
        <time>2022-07-10T06:18:23Z</time>
      </trkpt>
      <trkpt lat="38.832158" lon="-0.416746">
        <ele>926.261</ele>
        <time>2022-07-10T06:18:24Z</time>
      </trkpt>
      <trkpt lat="38.832171" lon="-0.416617">
        <ele>926.490</ele>
        <time>2022-07-10T06:18:31Z</time>
      </trkpt>
      <trkpt lat="38.832185" lon="-0.416486">
        <ele>925.846</ele>
        <time>2022-07-10T06:18:38Z</time>
      </trkpt>
      <trkpt lat="38.832197" lon="-0.416372">
        <ele>926.049</ele>
        <time>2022-07-10T06:18:44Z</time>
      </trkpt>
      <trkpt lat="38.832218" lon="-0.416303">
        <ele>926.446</ele>
        <time>2022-07-10T06:18:48Z</time>
      </trkpt>
      <trkpt lat="38.832234" lon="-0.416209">
        <ele>927.053</ele>
        <time>2022-07-10T06:18:53Z</time>
      </trkpt>
      <trkpt lat="38.832222" lon="-0.416170">
        <ele>927.249</ele>
        <time>2022-07-10T06:18:55Z</time>
      </trkpt>
      <trkpt lat="38.832215" lon="-0.416151">
        <ele>927.402</ele>
        <time>2022-07-10T06:18:56Z</time>
      </trkpt>
      <trkpt lat="38.832215" lon="-0.416104">
        <ele>928.022</ele>
        <time>2022-07-10T06:18:59Z</time>
      </trkpt>
      <trkpt lat="38.832217" lon="-0.416078">
        <ele>928.409</ele>
        <time>2022-07-10T06:19:01Z</time>
      </trkpt>
      <trkpt lat="38.832219" lon="-0.416071">
        <ele>928.635</ele>
        <time>2022-07-10T06:19:02Z</time>
      </trkpt>
      <trkpt lat="38.832235" lon="-0.416027">
        <ele>929.444</ele>
        <time>2022-07-10T06:19:06Z</time>
      </trkpt>
      <trkpt lat="38.832234" lon="-0.416013">
        <ele>929.491</ele>
        <time>2022-07-10T06:19:07Z</time>
      </trkpt>
      <trkpt lat="38.832233" lon="-0.415997">
        <ele>929.439</ele>
        <time>2022-07-10T06:19:08Z</time>
      </trkpt>
      <trkpt lat="38.832226" lon="-0.415855">
        <ele>930.468</ele>
        <time>2022-07-10T06:19:15Z</time>
      </trkpt>
      <trkpt lat="38.832226" lon="-0.415835">
        <ele>930.614</ele>
        <time>2022-07-10T06:19:16Z</time>
      </trkpt>
      <trkpt lat="38.832203" lon="-0.415719">
        <ele>931.277</ele>
        <time>2022-07-10T06:19:22Z</time>
      </trkpt>
      <trkpt lat="38.832225" lon="-0.415605">
        <ele>931.814</ele>
        <time>2022-07-10T06:19:28Z</time>
      </trkpt>
      <trkpt lat="38.832229" lon="-0.415587">
        <ele>931.861</ele>
        <time>2022-07-10T06:19:29Z</time>
      </trkpt>
      <trkpt lat="38.832229" lon="-0.415474">
        <ele>932.833</ele>
        <time>2022-07-10T06:19:36Z</time>
      </trkpt>
      <trkpt lat="38.832224" lon="-0.415456">
        <ele>933.023</ele>
        <time>2022-07-10T06:19:37Z</time>
      </trkpt>
      <trkpt lat="38.832251" lon="-0.415334">
        <ele>933.615</ele>
        <time>2022-07-10T06:19:44Z</time>
      </trkpt>
      <trkpt lat="38.832245" lon="-0.415291">
        <ele>933.809</ele>
        <time>2022-07-10T06:19:47Z</time>
      </trkpt>
      <trkpt lat="38.832232" lon="-0.415214">
        <ele>934.494</ele>
        <time>2022-07-10T06:19:52Z</time>
      </trkpt>
      <trkpt lat="38.832208" lon="-0.415165">
        <ele>934.813</ele>
        <time>2022-07-10T06:19:55Z</time>
      </trkpt>
      <trkpt lat="38.832204" lon="-0.415134">
        <ele>934.890</ele>
        <time>2022-07-10T06:19:57Z</time>
      </trkpt>
      <trkpt lat="38.832197" lon="-0.415118">
        <ele>935.058</ele>
        <time>2022-07-10T06:19:58Z</time>
      </trkpt>
      <trkpt lat="38.832146" lon="-0.414941">
        <ele>935.817</ele>
        <time>2022-07-10T06:20:07Z</time>
      </trkpt>
      <trkpt lat="38.832118" lon="-0.414794">
        <ele>936.263</ele>
        <time>2022-07-10T06:20:14Z</time>
      </trkpt>
      <trkpt lat="38.832138" lon="-0.414640">
        <ele>935.676</ele>
        <time>2022-07-10T06:20:21Z</time>
      </trkpt>
      <trkpt lat="38.832134" lon="-0.414618">
        <ele>935.423</ele>
        <time>2022-07-10T06:20:22Z</time>
      </trkpt>
      <trkpt lat="38.832126" lon="-0.414579">
        <ele>935.430</ele>
        <time>2022-07-10T06:20:24Z</time>
      </trkpt>
      <trkpt lat="38.832124" lon="-0.414539">
        <ele>935.428</ele>
        <time>2022-07-10T06:20:26Z</time>
      </trkpt>
      <trkpt lat="38.832124" lon="-0.414445">
        <ele>935.289</ele>
        <time>2022-07-10T06:20:31Z</time>
      </trkpt>
      <trkpt lat="38.832126" lon="-0.414429">
        <ele>935.217</ele>
        <time>2022-07-10T06:20:32Z</time>
      </trkpt>
      <trkpt lat="38.832131" lon="-0.414412">
        <ele>935.009</ele>
        <time>2022-07-10T06:20:33Z</time>
      </trkpt>
      <trkpt lat="38.832123" lon="-0.414392">
        <ele>935.093</ele>
        <time>2022-07-10T06:20:34Z</time>
      </trkpt>
      <trkpt lat="38.832102" lon="-0.414349">
        <ele>935.092</ele>
        <time>2022-07-10T06:20:36Z</time>
      </trkpt>
      <trkpt lat="38.832093" lon="-0.414322">
        <ele>935.099</ele>
        <time>2022-07-10T06:20:38Z</time>
      </trkpt>
      <trkpt lat="38.832113" lon="-0.414244">
        <ele>934.867</ele>
        <time>2022-07-10T06:20:43Z</time>
      </trkpt>
      <trkpt lat="38.832124" lon="-0.414206">
        <ele>934.826</ele>
        <time>2022-07-10T06:20:45Z</time>
      </trkpt>
      <trkpt lat="38.832132" lon="-0.414136">
        <ele>934.652</ele>
        <time>2022-07-10T06:20:48Z</time>
      </trkpt>
      <trkpt lat="38.832145" lon="-0.414094">
        <ele>934.475</ele>
        <time>2022-07-10T06:20:50Z</time>
      </trkpt>
      <trkpt lat="38.832154" lon="-0.414039">
        <ele>934.472</ele>
        <time>2022-07-10T06:20:53Z</time>
      </trkpt>
      <trkpt lat="38.832181" lon="-0.413960">
        <ele>934.619</ele>
        <time>2022-07-10T06:20:57Z</time>
      </trkpt>
      <trkpt lat="38.832224" lon="-0.413811">
        <ele>934.635</ele>
        <time>2022-07-10T06:21:05Z</time>
      </trkpt>
      <trkpt lat="38.832232" lon="-0.413729">
        <ele>935.286</ele>
        <time>2022-07-10T06:21:10Z</time>
      </trkpt>
      <trkpt lat="38.832223" lon="-0.413712">
        <ele>935.414</ele>
        <time>2022-07-10T06:21:11Z</time>
      </trkpt>
      <trkpt lat="38.832221" lon="-0.413695">
        <ele>935.809</ele>
        <time>2022-07-10T06:21:12Z</time>
      </trkpt>
      <trkpt lat="38.832223" lon="-0.413677">
        <ele>936.254</ele>
        <time>2022-07-10T06:21:13Z</time>
      </trkpt>
      <trkpt lat="38.832230" lon="-0.413664">
        <ele>936.473</ele>
        <time>2022-07-10T06:21:14Z</time>
      </trkpt>
      <trkpt lat="38.832264" lon="-0.413621">
        <ele>937.430</ele>
        <time>2022-07-10T06:21:17Z</time>
      </trkpt>
      <trkpt lat="38.832274" lon="-0.413609">
        <ele>937.618</ele>
        <time>2022-07-10T06:21:18Z</time>
      </trkpt>
      <trkpt lat="38.832279" lon="-0.413597">
        <ele>938.047</ele>
        <time>2022-07-10T06:21:19Z</time>
      </trkpt>
      <trkpt lat="38.832284" lon="-0.413544">
        <ele>938.823</ele>
        <time>2022-07-10T06:21:22Z</time>
      </trkpt>
      <trkpt lat="38.832290" lon="-0.413509">
        <ele>939.276</ele>
        <time>2022-07-10T06:21:24Z</time>
      </trkpt>
      <trkpt lat="38.832299" lon="-0.413457">
        <ele>940.063</ele>
        <time>2022-07-10T06:21:27Z</time>
      </trkpt>
      <trkpt lat="38.832311" lon="-0.413398">
        <ele>941.240</ele>
        <time>2022-07-10T06:21:31Z</time>
      </trkpt>
      <trkpt lat="38.832306" lon="-0.413356">
        <ele>942.024</ele>
        <time>2022-07-10T06:21:34Z</time>
      </trkpt>
      <trkpt lat="38.832315" lon="-0.413326">
        <ele>942.404</ele>
        <time>2022-07-10T06:21:36Z</time>
      </trkpt>
      <trkpt lat="38.832322" lon="-0.413311">
        <ele>942.614</ele>
        <time>2022-07-10T06:21:37Z</time>
      </trkpt>
      <trkpt lat="38.832335" lon="-0.413254">
        <ele>943.609</ele>
        <time>2022-07-10T06:21:41Z</time>
      </trkpt>
      <trkpt lat="38.832346" lon="-0.413193">
        <ele>944.693</ele>
        <time>2022-07-10T06:21:46Z</time>
      </trkpt>
      <trkpt lat="38.832342" lon="-0.413155">
        <ele>945.472</ele>
        <time>2022-07-10T06:21:49Z</time>
      </trkpt>
      <trkpt lat="38.832341" lon="-0.413140">
        <ele>945.659</ele>
        <time>2022-07-10T06:21:50Z</time>
      </trkpt>
      <trkpt lat="38.832331" lon="-0.413100">
        <ele>946.487</ele>
        <time>2022-07-10T06:21:53Z</time>
      </trkpt>
      <trkpt lat="38.832332" lon="-0.413079">
        <ele>946.816</ele>
        <time>2022-07-10T06:21:55Z</time>
      </trkpt>
      <trkpt lat="38.832331" lon="-0.413029">
        <ele>947.612</ele>
        <time>2022-07-10T06:21:59Z</time>
      </trkpt>
      <trkpt lat="38.832338" lon="-0.413002">
        <ele>948.025</ele>
        <time>2022-07-10T06:22:01Z</time>
      </trkpt>
      <trkpt lat="38.832336" lon="-0.412985">
        <ele>948.422</ele>
        <time>2022-07-10T06:22:03Z</time>
      </trkpt>
      <trkpt lat="38.832323" lon="-0.412967">
        <ele>949.069</ele>
        <time>2022-07-10T06:22:05Z</time>
      </trkpt>
      <trkpt lat="38.832324" lon="-0.412955">
        <ele>949.246</ele>
        <time>2022-07-10T06:22:06Z</time>
      </trkpt>
      <trkpt lat="38.832324" lon="-0.412942">
        <ele>949.288</ele>
        <time>2022-07-10T06:22:07Z</time>
      </trkpt>
      <trkpt lat="38.832311" lon="-0.412878">
        <ele>950.016</ele>
        <time>2022-07-10T06:22:11Z</time>
      </trkpt>
      <trkpt lat="38.832300" lon="-0.412853">
        <ele>950.409</ele>
        <time>2022-07-10T06:22:13Z</time>
      </trkpt>
      <trkpt lat="38.832298" lon="-0.412799">
        <ele>951.485</ele>
        <time>2022-07-10T06:22:17Z</time>
      </trkpt>
      <trkpt lat="38.832283" lon="-0.412779">
        <ele>952.014</ele>
        <time>2022-07-10T06:22:19Z</time>
      </trkpt>
      <trkpt lat="38.832272" lon="-0.412778">
        <ele>952.291</ele>
        <time>2022-07-10T06:22:20Z</time>
      </trkpt>
      <trkpt lat="38.832259" lon="-0.412780">
        <ele>952.439</ele>
        <time>2022-07-10T06:22:21Z</time>
      </trkpt>
      <trkpt lat="38.832250" lon="-0.412786">
        <ele>952.668</ele>
        <time>2022-07-10T06:22:22Z</time>
      </trkpt>
      <trkpt lat="38.832230" lon="-0.412820">
        <ele>953.244</ele>
        <time>2022-07-10T06:22:25Z</time>
      </trkpt>
      <trkpt lat="38.832220" lon="-0.412850">
        <ele>953.667</ele>
        <time>2022-07-10T06:22:27Z</time>
      </trkpt>
      <trkpt lat="38.832194" lon="-0.412930">
        <ele>954.424</ele>
        <time>2022-07-10T06:22:33Z</time>
      </trkpt>
      <trkpt lat="38.832176" lon="-0.412935">
        <ele>954.691</ele>
        <time>2022-07-10T06:22:34Z</time>
      </trkpt>
      <trkpt lat="38.832092" lon="-0.412999">
        <ele>955.661</ele>
        <time>2022-07-10T06:22:42Z</time>
      </trkpt>
      <trkpt lat="38.832083" lon="-0.413011">
        <ele>955.821</ele>
        <time>2022-07-10T06:22:43Z</time>
      </trkpt>
      <trkpt lat="38.832043" lon="-0.413053">
        <ele>956.613</ele>
        <time>2022-07-10T06:22:47Z</time>
      </trkpt>
      <trkpt lat="38.832032" lon="-0.413061">
        <ele>956.809</ele>
        <time>2022-07-10T06:22:48Z</time>
      </trkpt>
      <trkpt lat="38.831999" lon="-0.413098">
        <ele>957.647</ele>
        <time>2022-07-10T06:22:52Z</time>
      </trkpt>
      <trkpt lat="38.831995" lon="-0.413122">
        <ele>958.066</ele>
        <time>2022-07-10T06:22:54Z</time>
      </trkpt>
      <trkpt lat="38.831985" lon="-0.413128">
        <ele>958.243</ele>
        <time>2022-07-10T06:22:56Z</time>
      </trkpt>
      <trkpt lat="38.831959" lon="-0.413151">
        <ele>959.291</ele>
        <time>2022-07-10T06:23:00Z</time>
      </trkpt>
      <trkpt lat="38.831955" lon="-0.413171">
        <ele>959.610</ele>
        <time>2022-07-10T06:23:02Z</time>
      </trkpt>
      <trkpt lat="38.831936" lon="-0.413186">
        <ele>960.016</ele>
        <time>2022-07-10T06:23:04Z</time>
      </trkpt>
      <trkpt lat="38.831926" lon="-0.413192">
        <ele>960.059</ele>
        <time>2022-07-10T06:23:05Z</time>
      </trkpt>
      <trkpt lat="38.831912" lon="-0.413199">
        <ele>960.466</ele>
        <time>2022-07-10T06:23:06Z</time>
      </trkpt>
      <trkpt lat="38.831904" lon="-0.413210">
        <ele>960.663</ele>
        <time>2022-07-10T06:23:07Z</time>
      </trkpt>
      <trkpt lat="38.831892" lon="-0.413228">
        <ele>960.881</ele>
        <time>2022-07-10T06:23:09Z</time>
      </trkpt>
      <trkpt lat="38.831870" lon="-0.413263">
        <ele>961.461</ele>
        <time>2022-07-10T06:23:12Z</time>
      </trkpt>
      <trkpt lat="38.831852" lon="-0.413271">
        <ele>962.217</ele>
        <time>2022-07-10T06:23:15Z</time>
      </trkpt>
      <trkpt lat="38.831831" lon="-0.413279">
        <ele>962.609</ele>
        <time>2022-07-10T06:23:17Z</time>
      </trkpt>
      <trkpt lat="38.831816" lon="-0.413323">
        <ele>963.479</ele>
        <time>2022-07-10T06:23:21Z</time>
      </trkpt>
      <trkpt lat="38.831804" lon="-0.413327">
        <ele>963.668</ele>
        <time>2022-07-10T06:23:22Z</time>
      </trkpt>
      <trkpt lat="38.831789" lon="-0.413329">
        <ele>964.295</ele>
        <time>2022-07-10T06:23:24Z</time>
      </trkpt>
      <trkpt lat="38.831782" lon="-0.413321">
        <ele>964.633</ele>
        <time>2022-07-10T06:23:26Z</time>
      </trkpt>
      <trkpt lat="38.831797" lon="-0.413300">
        <ele>965.022</ele>
        <time>2022-07-10T06:23:28Z</time>
      </trkpt>
      <trkpt lat="38.831828" lon="-0.413251">
        <ele>965.448</ele>
        <time>2022-07-10T06:23:32Z</time>
      </trkpt>
      <trkpt lat="38.831876" lon="-0.413148">
        <ele>965.671</ele>
        <time>2022-07-10T06:23:39Z</time>
      </trkpt>
      <trkpt lat="38.831904" lon="-0.413042">
        <ele>965.828</ele>
        <time>2022-07-10T06:23:45Z</time>
      </trkpt>
      <trkpt lat="38.831941" lon="-0.412926">
        <ele>966.665</ele>
        <time>2022-07-10T06:23:52Z</time>
      </trkpt>
      <trkpt lat="38.831942" lon="-0.412878">
        <ele>966.812</ele>
        <time>2022-07-10T06:23:55Z</time>
      </trkpt>
      <trkpt lat="38.831936" lon="-0.412824">
        <ele>967.432</ele>
        <time>2022-07-10T06:23:58Z</time>
      </trkpt>
      <trkpt lat="38.831952" lon="-0.412751">
        <ele>967.805</ele>
        <time>2022-07-10T06:24:02Z</time>
      </trkpt>
      <trkpt lat="38.831962" lon="-0.412670">
        <ele>968.409</ele>
        <time>2022-07-10T06:24:07Z</time>
      </trkpt>
      <trkpt lat="38.831963" lon="-0.412654">
        <ele>968.662</ele>
        <time>2022-07-10T06:24:08Z</time>
      </trkpt>
      <trkpt lat="38.831975" lon="-0.412625">
        <ele>968.841</ele>
        <time>2022-07-10T06:24:10Z</time>
      </trkpt>
      <trkpt lat="38.831979" lon="-0.412610">
        <ele>969.058</ele>
        <time>2022-07-10T06:24:11Z</time>
      </trkpt>
      <trkpt lat="38.831980" lon="-0.412597">
        <ele>969.266</ele>
        <time>2022-07-10T06:24:12Z</time>
      </trkpt>
      <trkpt lat="38.831993" lon="-0.412508">
        <ele>970.085</ele>
        <time>2022-07-10T06:24:18Z</time>
      </trkpt>
      <trkpt lat="38.831995" lon="-0.412494">
        <ele>970.051</ele>
        <time>2022-07-10T06:24:19Z</time>
      </trkpt>
      <trkpt lat="38.832006" lon="-0.412466">
        <ele>970.414</ele>
        <time>2022-07-10T06:24:21Z</time>
      </trkpt>
      <trkpt lat="38.832016" lon="-0.412437">
        <ele>971.041</ele>
        <time>2022-07-10T06:24:23Z</time>
      </trkpt>
      <trkpt lat="38.832034" lon="-0.412387">
        <ele>971.878</ele>
        <time>2022-07-10T06:24:27Z</time>
      </trkpt>
      <trkpt lat="38.832038" lon="-0.412371">
        <ele>972.093</ele>
        <time>2022-07-10T06:24:28Z</time>
      </trkpt>
      <trkpt lat="38.832040" lon="-0.412356">
        <ele>972.065</ele>
        <time>2022-07-10T06:24:29Z</time>
      </trkpt>
      <trkpt lat="38.832046" lon="-0.412268">
        <ele>972.821</ele>
        <time>2022-07-10T06:24:36Z</time>
      </trkpt>
      <trkpt lat="38.832052" lon="-0.412243">
        <ele>973.209</ele>
        <time>2022-07-10T06:24:38Z</time>
      </trkpt>
      <trkpt lat="38.832055" lon="-0.412197">
        <ele>973.850</ele>
        <time>2022-07-10T06:24:41Z</time>
      </trkpt>
      <trkpt lat="38.832052" lon="-0.412185">
        <ele>974.019</ele>
        <time>2022-07-10T06:24:42Z</time>
      </trkpt>
      <trkpt lat="38.832052" lon="-0.412173">
        <ele>974.216</ele>
        <time>2022-07-10T06:24:43Z</time>
      </trkpt>
      <trkpt lat="38.832075" lon="-0.412122">
        <ele>974.624</ele>
        <time>2022-07-10T06:24:47Z</time>
      </trkpt>
      <trkpt lat="38.832077" lon="-0.411977">
        <ele>975.083</ele>
        <time>2022-07-10T06:24:55Z</time>
      </trkpt>
      <trkpt lat="38.832075" lon="-0.411866">
        <ele>975.249</ele>
        <time>2022-07-10T06:25:01Z</time>
      </trkpt>
      <trkpt lat="38.832066" lon="-0.411845">
        <ele>975.272</ele>
        <time>2022-07-10T06:25:02Z</time>
      </trkpt>
      <trkpt lat="38.832063" lon="-0.411828">
        <ele>975.289</ele>
        <time>2022-07-10T06:25:03Z</time>
      </trkpt>
      <trkpt lat="38.832068" lon="-0.411762">
        <ele>975.246</ele>
        <time>2022-07-10T06:25:06Z</time>
      </trkpt>
      <trkpt lat="38.832070" lon="-0.411718">
        <ele>975.686</ele>
        <time>2022-07-10T06:25:08Z</time>
      </trkpt>
      <trkpt lat="38.832080" lon="-0.411619">
        <ele>976.260</ele>
        <time>2022-07-10T06:25:14Z</time>
      </trkpt>
      <trkpt lat="38.832085" lon="-0.411603">
        <ele>976.426</ele>
        <time>2022-07-10T06:25:15Z</time>
      </trkpt>
      <trkpt lat="38.832112" lon="-0.411526">
        <ele>977.209</ele>
        <time>2022-07-10T06:25:20Z</time>
      </trkpt>
      <trkpt lat="38.832123" lon="-0.411513">
        <ele>977.449</ele>
        <time>2022-07-10T06:25:21Z</time>
      </trkpt>
      <trkpt lat="38.832191" lon="-0.411462">
        <ele>978.448</ele>
        <time>2022-07-10T06:25:27Z</time>
      </trkpt>
      <trkpt lat="38.832204" lon="-0.411460">
        <ele>978.865</ele>
        <time>2022-07-10T06:25:29Z</time>
      </trkpt>
      <trkpt lat="38.832215" lon="-0.411461">
        <ele>978.873</ele>
        <time>2022-07-10T06:25:30Z</time>
      </trkpt>
      <trkpt lat="38.832214" lon="-0.411463">
        <ele>978.822</ele>
        <time>2022-07-10T06:25:33Z</time>
      </trkpt>
      <trkpt lat="38.832212" lon="-0.411473">
        <ele>979.028</ele>
        <time>2022-07-10T06:25:37Z</time>
      </trkpt>
      <trkpt lat="38.832216" lon="-0.411472">
        <ele>979.011</ele>
        <time>2022-07-10T06:25:44Z</time>
      </trkpt>
      <trkpt lat="38.832220" lon="-0.411479">
        <ele>978.688</ele>
        <time>2022-07-10T06:25:53Z</time>
      </trkpt>
      <trkpt lat="38.832220" lon="-0.411478">
        <ele>978.475</ele>
        <time>2022-07-10T06:26:01Z</time>
      </trkpt>
      <trkpt lat="38.832220" lon="-0.411478">
        <ele>978.822</ele>
        <time>2022-07-10T06:26:07Z</time>
      </trkpt>
      <trkpt lat="38.832214" lon="-0.411449">
        <ele>978.662</ele>
        <time>2022-07-10T06:26:16Z</time>
      </trkpt>
      <trkpt lat="38.832228" lon="-0.411338">
        <ele>978.008</ele>
        <time>2022-07-10T06:26:21Z</time>
      </trkpt>
      <trkpt lat="38.832226" lon="-0.411258">
        <ele>977.409</ele>
        <time>2022-07-10T06:26:25Z</time>
      </trkpt>
      <trkpt lat="38.832225" lon="-0.411245">
        <ele>977.473</ele>
        <time>2022-07-10T06:26:26Z</time>
      </trkpt>
      <trkpt lat="38.832217" lon="-0.411207">
        <ele>976.692</ele>
        <time>2022-07-10T06:26:29Z</time>
      </trkpt>
      <trkpt lat="38.832217" lon="-0.411197">
        <ele>976.469</ele>
        <time>2022-07-10T06:26:30Z</time>
      </trkpt>
      <trkpt lat="38.832214" lon="-0.411183">
        <ele>976.077</ele>
        <time>2022-07-10T06:26:31Z</time>
      </trkpt>
      <trkpt lat="38.832218" lon="-0.411150">
        <ele>975.486</ele>
        <time>2022-07-10T06:26:33Z</time>
      </trkpt>
      <trkpt lat="38.832215" lon="-0.411121">
        <ele>974.892</ele>
        <time>2022-07-10T06:26:35Z</time>
      </trkpt>
      <trkpt lat="38.832222" lon="-0.411085">
        <ele>973.875</ele>
        <time>2022-07-10T06:26:38Z</time>
      </trkpt>
      <trkpt lat="38.832221" lon="-0.411042">
        <ele>973.262</ele>
        <time>2022-07-10T06:26:41Z</time>
      </trkpt>
      <trkpt lat="38.832226" lon="-0.411015">
        <ele>972.619</ele>
        <time>2022-07-10T06:26:43Z</time>
      </trkpt>
      <trkpt lat="38.832251" lon="-0.410956">
        <ele>971.631</ele>
        <time>2022-07-10T06:26:47Z</time>
      </trkpt>
      <trkpt lat="38.832282" lon="-0.410915">
        <ele>971.061</ele>
        <time>2022-07-10T06:26:50Z</time>
      </trkpt>
      <trkpt lat="38.832338" lon="-0.410806">
        <ele>970.807</ele>
        <time>2022-07-10T06:26:57Z</time>
      </trkpt>
      <trkpt lat="38.832402" lon="-0.410659">
        <ele>972.409</ele>
        <time>2022-07-10T06:27:06Z</time>
      </trkpt>
      <trkpt lat="38.832407" lon="-0.410645">
        <ele>972.624</ele>
        <time>2022-07-10T06:27:07Z</time>
      </trkpt>
      <trkpt lat="38.832421" lon="-0.410619">
        <ele>972.833</ele>
        <time>2022-07-10T06:27:09Z</time>
      </trkpt>
      <trkpt lat="38.832470" lon="-0.410568">
        <ele>973.860</ele>
        <time>2022-07-10T06:27:14Z</time>
      </trkpt>
      <trkpt lat="38.832499" lon="-0.410547">
        <ele>974.698</ele>
        <time>2022-07-10T06:27:17Z</time>
      </trkpt>
      <trkpt lat="38.832516" lon="-0.410527">
        <ele>975.047</ele>
        <time>2022-07-10T06:27:19Z</time>
      </trkpt>
      <trkpt lat="38.832521" lon="-0.410498">
        <ele>975.423</ele>
        <time>2022-07-10T06:27:21Z</time>
      </trkpt>
      <trkpt lat="38.832518" lon="-0.410487">
        <ele>975.896</ele>
        <time>2022-07-10T06:27:22Z</time>
      </trkpt>
      <trkpt lat="38.832509" lon="-0.410478">
        <ele>976.293</ele>
        <time>2022-07-10T06:27:23Z</time>
      </trkpt>
      <trkpt lat="38.832477" lon="-0.410485">
        <ele>976.640</ele>
        <time>2022-07-10T06:27:26Z</time>
      </trkpt>
      <trkpt lat="38.832446" lon="-0.410495">
        <ele>976.888</ele>
        <time>2022-07-10T06:27:29Z</time>
      </trkpt>
      <trkpt lat="38.832429" lon="-0.410499">
        <ele>977.224</ele>
        <time>2022-07-10T06:27:31Z</time>
      </trkpt>
      <trkpt lat="38.832375" lon="-0.410488">
        <ele>978.226</ele>
        <time>2022-07-10T06:27:36Z</time>
      </trkpt>
      <trkpt lat="38.832380" lon="-0.410472">
        <ele>978.609</ele>
        <time>2022-07-10T06:27:38Z</time>
      </trkpt>
      <trkpt lat="38.832390" lon="-0.410457">
        <ele>979.279</ele>
        <time>2022-07-10T06:27:40Z</time>
      </trkpt>
      <trkpt lat="38.832395" lon="-0.410447">
        <ele>979.468</ele>
        <time>2022-07-10T06:27:41Z</time>
      </trkpt>
      <trkpt lat="38.832423" lon="-0.410396">
        <ele>980.415</ele>
        <time>2022-07-10T06:27:46Z</time>
      </trkpt>
      <trkpt lat="38.832418" lon="-0.410383">
        <ele>980.443</ele>
        <time>2022-07-10T06:27:47Z</time>
      </trkpt>
      <trkpt lat="38.832410" lon="-0.410359">
        <ele>981.242</ele>
        <time>2022-07-10T06:27:51Z</time>
      </trkpt>
      <trkpt lat="38.832410" lon="-0.410353">
        <ele>981.628</ele>
        <time>2022-07-10T06:27:52Z</time>
      </trkpt>
      <trkpt lat="38.832414" lon="-0.410348">
        <ele>981.851</ele>
        <time>2022-07-10T06:27:53Z</time>
      </trkpt>
      <trkpt lat="38.832421" lon="-0.410333">
        <ele>982.248</ele>
        <time>2022-07-10T06:27:55Z</time>
      </trkpt>
      <trkpt lat="38.832428" lon="-0.410317">
        <ele>982.845</ele>
        <time>2022-07-10T06:27:57Z</time>
      </trkpt>
      <trkpt lat="38.832431" lon="-0.410304">
        <ele>983.065</ele>
        <time>2022-07-10T06:27:58Z</time>
      </trkpt>
      <trkpt lat="38.832423" lon="-0.410269">
        <ele>983.868</ele>
        <time>2022-07-10T06:28:01Z</time>
      </trkpt>
      <trkpt lat="38.832406" lon="-0.410224">
        <ele>984.614</ele>
        <time>2022-07-10T06:28:05Z</time>
      </trkpt>
      <trkpt lat="38.832416" lon="-0.410196">
        <ele>985.009</ele>
        <time>2022-07-10T06:28:08Z</time>
      </trkpt>
      <trkpt lat="38.832423" lon="-0.410188">
        <ele>985.027</ele>
        <time>2022-07-10T06:28:09Z</time>
      </trkpt>
      <trkpt lat="38.832467" lon="-0.410093">
        <ele>986.226</ele>
        <time>2022-07-10T06:28:17Z</time>
      </trkpt>
      <trkpt lat="38.832474" lon="-0.410079">
        <ele>986.413</ele>
        <time>2022-07-10T06:28:18Z</time>
      </trkpt>
      <trkpt lat="38.832493" lon="-0.410038">
        <ele>986.811</ele>
        <time>2022-07-10T06:28:21Z</time>
      </trkpt>
      <trkpt lat="38.832503" lon="-0.410010">
        <ele>987.280</ele>
        <time>2022-07-10T06:28:23Z</time>
      </trkpt>
      <trkpt lat="38.832499" lon="-0.409983">
        <ele>987.696</ele>
        <time>2022-07-10T06:28:25Z</time>
      </trkpt>
      <trkpt lat="38.832509" lon="-0.409954">
        <ele>988.299</ele>
        <time>2022-07-10T06:28:28Z</time>
      </trkpt>
      <trkpt lat="38.832517" lon="-0.409918">
        <ele>988.626</ele>
        <time>2022-07-10T06:28:31Z</time>
      </trkpt>
      <trkpt lat="38.832522" lon="-0.409907">
        <ele>988.843</ele>
        <time>2022-07-10T06:28:32Z</time>
      </trkpt>
      <trkpt lat="38.832515" lon="-0.409875">
        <ele>989.052</ele>
        <time>2022-07-10T06:28:34Z</time>
      </trkpt>
      <trkpt lat="38.832525" lon="-0.409859">
        <ele>989.453</ele>
        <time>2022-07-10T06:28:36Z</time>
      </trkpt>
      <trkpt lat="38.832527" lon="-0.409854">
        <ele>989.408</ele>
        <time>2022-07-10T06:28:37Z</time>
      </trkpt>
      <trkpt lat="38.832539" lon="-0.409776">
        <ele>990.209</ele>
        <time>2022-07-10T06:28:43Z</time>
      </trkpt>
      <trkpt lat="38.832533" lon="-0.409763">
        <ele>990.486</ele>
        <time>2022-07-10T06:28:44Z</time>
      </trkpt>
      <trkpt lat="38.832531" lon="-0.409736">
        <ele>990.625</ele>
        <time>2022-07-10T06:28:46Z</time>
      </trkpt>
      <trkpt lat="38.832523" lon="-0.409693">
        <ele>991.672</ele>
        <time>2022-07-10T06:28:50Z</time>
      </trkpt>
      <trkpt lat="38.832516" lon="-0.409683">
        <ele>991.620</ele>
        <time>2022-07-10T06:28:51Z</time>
      </trkpt>
      <trkpt lat="38.832513" lon="-0.409672">
        <ele>991.879</ele>
        <time>2022-07-10T06:28:52Z</time>
      </trkpt>
      <trkpt lat="38.832512" lon="-0.409619">
        <ele>992.665</ele>
        <time>2022-07-10T06:28:56Z</time>
      </trkpt>
      <trkpt lat="38.832509" lon="-0.409576">
        <ele>993.268</ele>
        <time>2022-07-10T06:28:59Z</time>
      </trkpt>
      <trkpt lat="38.832500" lon="-0.409561">
        <ele>993.285</ele>
        <time>2022-07-10T06:29:00Z</time>
      </trkpt>
      <trkpt lat="38.832491" lon="-0.409534">
        <ele>993.662</ele>
        <time>2022-07-10T06:29:02Z</time>
      </trkpt>
      <trkpt lat="38.832494" lon="-0.409508">
        <ele>994.283</ele>
        <time>2022-07-10T06:29:04Z</time>
      </trkpt>
      <trkpt lat="38.832495" lon="-0.409494">
        <ele>994.425</ele>
        <time>2022-07-10T06:29:05Z</time>
      </trkpt>
      <trkpt lat="38.832491" lon="-0.409471">
        <ele>994.817</ele>
        <time>2022-07-10T06:29:07Z</time>
      </trkpt>
      <trkpt lat="38.832487" lon="-0.409467">
        <ele>995.009</ele>
        <time>2022-07-10T06:29:08Z</time>
      </trkpt>
      <trkpt lat="38.832478" lon="-0.409454">
        <ele>995.479</ele>
        <time>2022-07-10T06:29:10Z</time>
      </trkpt>
      <trkpt lat="38.832469" lon="-0.409425">
        <ele>995.838</ele>
        <time>2022-07-10T06:29:13Z</time>
      </trkpt>
      <trkpt lat="38.832449" lon="-0.409399">
        <ele>996.495</ele>
        <time>2022-07-10T06:29:16Z</time>
      </trkpt>
      <trkpt lat="38.832449" lon="-0.409399">
        <ele>996.473</ele>
        <time>2022-07-10T06:29:17Z</time>
      </trkpt>
      <trkpt lat="38.832448" lon="-0.409380">
        <ele>996.872</ele>
        <time>2022-07-10T06:29:19Z</time>
      </trkpt>
      <trkpt lat="38.832440" lon="-0.409371">
        <ele>997.268</ele>
        <time>2022-07-10T06:29:21Z</time>
      </trkpt>
      <trkpt lat="38.832446" lon="-0.409368">
        <ele>997.441</ele>
        <time>2022-07-10T06:29:22Z</time>
      </trkpt>
      <trkpt lat="38.832462" lon="-0.409338">
        <ele>998.018</ele>
        <time>2022-07-10T06:29:25Z</time>
      </trkpt>
      <trkpt lat="38.832450" lon="-0.409310">
        <ele>998.425</ele>
        <time>2022-07-10T06:29:28Z</time>
      </trkpt>
      <trkpt lat="38.832440" lon="-0.409288">
        <ele>999.075</ele>
        <time>2022-07-10T06:29:30Z</time>
      </trkpt>
      <trkpt lat="38.832437" lon="-0.409274">
        <ele>999.228</ele>
        <time>2022-07-10T06:29:31Z</time>
      </trkpt>
      <trkpt lat="38.832426" lon="-0.409246">
        <ele>999.820</ele>
        <time>2022-07-10T06:29:35Z</time>
      </trkpt>
      <trkpt lat="38.832421" lon="-0.409246">
        <ele>999.809</ele>
        <time>2022-07-10T06:29:36Z</time>
      </trkpt>
      <trkpt lat="38.832412" lon="-0.409201">
        <ele>1000.048</ele>
        <time>2022-07-10T06:29:40Z</time>
      </trkpt>
      <trkpt lat="38.832408" lon="-0.409190">
        <ele>1000.217</ele>
        <time>2022-07-10T06:29:41Z</time>
      </trkpt>
      <trkpt lat="38.832393" lon="-0.409141">
        <ele>1001.294</ele>
        <time>2022-07-10T06:29:46Z</time>
      </trkpt>
      <trkpt lat="38.832390" lon="-0.409109">
        <ele>1001.642</ele>
        <time>2022-07-10T06:29:49Z</time>
      </trkpt>
      <trkpt lat="38.832384" lon="-0.409065">
        <ele>1002.451</ele>
        <time>2022-07-10T06:29:53Z</time>
      </trkpt>
      <trkpt lat="38.832373" lon="-0.409037">
        <ele>1002.877</ele>
        <time>2022-07-10T06:29:56Z</time>
      </trkpt>
      <trkpt lat="38.832376" lon="-0.409023">
        <ele>1003.080</ele>
        <time>2022-07-10T06:29:57Z</time>
      </trkpt>
      <trkpt lat="38.832373" lon="-0.409007">
        <ele>1003.477</ele>
        <time>2022-07-10T06:29:59Z</time>
      </trkpt>
      <trkpt lat="38.832371" lon="-0.408997">
        <ele>1003.624</ele>
        <time>2022-07-10T06:30:00Z</time>
      </trkpt>
      <trkpt lat="38.832373" lon="-0.408990">
        <ele>1004.078</ele>
        <time>2022-07-10T06:30:02Z</time>
      </trkpt>
      <trkpt lat="38.832359" lon="-0.408998">
        <ele>1004.033</ele>
        <time>2022-07-10T06:30:09Z</time>
      </trkpt>
      <trkpt lat="38.832336" lon="-0.408927">
        <ele>1004.426</ele>
        <time>2022-07-10T06:30:15Z</time>
      </trkpt>
      <trkpt lat="38.832339" lon="-0.408881">
        <ele>1005.409</ele>
        <time>2022-07-10T06:30:19Z</time>
      </trkpt>
      <trkpt lat="38.832339" lon="-0.408874">
        <ele>1005.478</ele>
        <time>2022-07-10T06:30:20Z</time>
      </trkpt>
      <trkpt lat="38.832343" lon="-0.408864">
        <ele>1005.627</ele>
        <time>2022-07-10T06:30:21Z</time>
      </trkpt>
      <trkpt lat="38.832342" lon="-0.408819">
        <ele>1006.664</ele>
        <time>2022-07-10T06:30:27Z</time>
      </trkpt>
      <trkpt lat="38.832336" lon="-0.408775">
        <ele>1007.642</ele>
        <time>2022-07-10T06:30:31Z</time>
      </trkpt>
      <trkpt lat="38.832322" lon="-0.408751">
        <ele>1008.061</ele>
        <time>2022-07-10T06:30:35Z</time>
      </trkpt>
      <trkpt lat="38.832299" lon="-0.408709">
        <ele>1008.837</ele>
        <time>2022-07-10T06:30:40Z</time>
      </trkpt>
      <trkpt lat="38.832299" lon="-0.408699">
        <ele>1008.850</ele>
        <time>2022-07-10T06:30:41Z</time>
      </trkpt>
      <trkpt lat="38.832288" lon="-0.408654">
        <ele>1009.827</ele>
        <time>2022-07-10T06:30:45Z</time>
      </trkpt>
      <trkpt lat="38.832267" lon="-0.408618">
        <ele>1010.654</ele>
        <time>2022-07-10T06:30:49Z</time>
      </trkpt>
      <trkpt lat="38.832263" lon="-0.408600">
        <ele>1011.074</ele>
        <time>2022-07-10T06:30:51Z</time>
      </trkpt>
      <trkpt lat="38.832239" lon="-0.408517">
        <ele>1012.056</ele>
        <time>2022-07-10T06:30:56Z</time>
      </trkpt>
      <trkpt lat="38.832228" lon="-0.408518">
        <ele>1012.021</ele>
        <time>2022-07-10T06:30:57Z</time>
      </trkpt>
      <trkpt lat="38.832206" lon="-0.408496">
        <ele>1012.209</ele>
        <time>2022-07-10T06:30:59Z</time>
      </trkpt>
      <trkpt lat="38.832200" lon="-0.408495">
        <ele>1012.638</ele>
        <time>2022-07-10T06:31:00Z</time>
      </trkpt>
      <trkpt lat="38.832192" lon="-0.408493">
        <ele>1012.887</ele>
        <time>2022-07-10T06:31:01Z</time>
      </trkpt>
      <trkpt lat="38.832178" lon="-0.408480">
        <ele>1013.094</ele>
        <time>2022-07-10T06:31:03Z</time>
      </trkpt>
      <trkpt lat="38.832168" lon="-0.408463">
        <ele>1013.452</ele>
        <time>2022-07-10T06:31:05Z</time>
      </trkpt>
      <trkpt lat="38.832157" lon="-0.408467">
        <ele>1014.071</ele>
        <time>2022-07-10T06:31:08Z</time>
      </trkpt>
      <trkpt lat="38.832145" lon="-0.408474">
        <ele>1014.477</ele>
        <time>2022-07-10T06:31:10Z</time>
      </trkpt>
      <trkpt lat="38.832115" lon="-0.408464">
        <ele>1014.840</ele>
        <time>2022-07-10T06:31:13Z</time>
      </trkpt>
      <trkpt lat="38.832109" lon="-0.408449">
        <ele>1015.277</ele>
        <time>2022-07-10T06:31:15Z</time>
      </trkpt>
      <trkpt lat="38.832111" lon="-0.408443">
        <ele>1015.474</ele>
        <time>2022-07-10T06:31:16Z</time>
      </trkpt>
      <trkpt lat="38.832155" lon="-0.408409">
        <ele>1016.252</ele>
        <time>2022-07-10T06:31:22Z</time>
      </trkpt>
      <trkpt lat="38.832156" lon="-0.408408">
        <ele>1016.453</ele>
        <time>2022-07-10T06:31:23Z</time>
      </trkpt>
      <trkpt lat="38.832156" lon="-0.408409">
        <ele>1016.608</ele>
        <time>2022-07-10T06:31:24Z</time>
      </trkpt>
      <trkpt lat="38.832160" lon="-0.408410">
        <ele>1017.009</ele>
        <time>2022-07-10T06:31:26Z</time>
      </trkpt>
      <trkpt lat="38.832193" lon="-0.408398">
        <ele>1017.246</ele>
        <time>2022-07-10T06:31:32Z</time>
      </trkpt>
      <trkpt lat="38.832210" lon="-0.408401">
        <ele>1017.415</ele>
        <time>2022-07-10T06:31:34Z</time>
      </trkpt>
      <trkpt lat="38.832239" lon="-0.408399">
        <ele>1018.062</ele>
        <time>2022-07-10T06:31:38Z</time>
      </trkpt>
      <trkpt lat="38.832254" lon="-0.408399">
        <ele>1018.620</ele>
        <time>2022-07-10T06:31:40Z</time>
      </trkpt>
      <trkpt lat="38.832288" lon="-0.408408">
        <ele>1019.479</ele>
        <time>2022-07-10T06:31:44Z</time>
      </trkpt>
      <trkpt lat="38.832308" lon="-0.408415">
        <ele>1019.835</ele>
        <time>2022-07-10T06:31:46Z</time>
      </trkpt>
      <trkpt lat="38.832353" lon="-0.408441">
        <ele>1020.628</ele>
        <time>2022-07-10T06:31:51Z</time>
      </trkpt>
      <trkpt lat="38.832364" lon="-0.408453">
        <ele>1021.095</ele>
        <time>2022-07-10T06:31:53Z</time>
      </trkpt>
      <trkpt lat="38.832421" lon="-0.408472">
        <ele>1022.062</ele>
        <time>2022-07-10T06:31:59Z</time>
      </trkpt>
      <trkpt lat="38.832424" lon="-0.408464">
        <ele>1022.033</ele>
        <time>2022-07-10T06:32:00Z</time>
      </trkpt>
      <trkpt lat="38.832426" lon="-0.408451">
        <ele>1022.223</ele>
        <time>2022-07-10T06:32:01Z</time>
      </trkpt>
      <trkpt lat="38.832434" lon="-0.408437">
        <ele>1022.615</ele>
        <time>2022-07-10T06:32:03Z</time>
      </trkpt>
      <trkpt lat="38.832437" lon="-0.408440">
        <ele>1022.609</ele>
        <time>2022-07-10T06:32:04Z</time>
      </trkpt>
      <trkpt lat="38.832435" lon="-0.408445">
        <ele>1022.814</ele>
        <time>2022-07-10T06:32:05Z</time>
      </trkpt>
      <trkpt lat="38.832451" lon="-0.408436">
        <ele>1023.063</ele>
        <time>2022-07-10T06:32:10Z</time>
      </trkpt>
      <trkpt lat="38.832448" lon="-0.408423">
        <ele>1023.240</ele>
        <time>2022-07-10T06:32:11Z</time>
      </trkpt>
      <trkpt lat="38.832436" lon="-0.408364">
        <ele>1024.278</ele>
        <time>2022-07-10T06:32:15Z</time>
      </trkpt>
      <trkpt lat="38.832429" lon="-0.408355">
        <ele>1024.437</ele>
        <time>2022-07-10T06:32:16Z</time>
      </trkpt>
      <trkpt lat="38.832410" lon="-0.408301">
        <ele>1025.283</ele>
        <time>2022-07-10T06:32:21Z</time>
      </trkpt>
      <trkpt lat="38.832400" lon="-0.408278">
        <ele>1025.656</ele>
        <time>2022-07-10T06:32:23Z</time>
      </trkpt>
      <trkpt lat="38.832362" lon="-0.408230">
        <ele>1026.413</ele>
        <time>2022-07-10T06:32:28Z</time>
      </trkpt>
      <trkpt lat="38.832354" lon="-0.408220">
        <ele>1026.420</ele>
        <time>2022-07-10T06:32:29Z</time>
      </trkpt>
      <trkpt lat="38.832347" lon="-0.408201">
        <ele>1026.634</ele>
        <time>2022-07-10T06:32:31Z</time>
      </trkpt>
      <trkpt lat="38.832341" lon="-0.408183">
        <ele>1027.055</ele>
        <time>2022-07-10T06:32:33Z</time>
      </trkpt>
      <trkpt lat="38.832341" lon="-0.408173">
        <ele>1027.410</ele>
        <time>2022-07-10T06:32:34Z</time>
      </trkpt>
      <trkpt lat="38.832340" lon="-0.408166">
        <ele>1027.609</ele>
        <time>2022-07-10T06:32:35Z</time>
      </trkpt>
      <trkpt lat="38.832322" lon="-0.408148">
        <ele>1027.834</ele>
        <time>2022-07-10T06:32:37Z</time>
      </trkpt>
      <trkpt lat="38.832307" lon="-0.408128">
        <ele>1028.253</ele>
        <time>2022-07-10T06:32:39Z</time>
      </trkpt>
      <trkpt lat="38.832286" lon="-0.408107">
        <ele>1028.630</ele>
        <time>2022-07-10T06:32:42Z</time>
      </trkpt>
      <trkpt lat="38.832259" lon="-0.408086">
        <ele>1029.298</ele>
        <time>2022-07-10T06:32:45Z</time>
      </trkpt>
      <trkpt lat="38.832251" lon="-0.408081">
        <ele>1029.437</ele>
        <time>2022-07-10T06:32:46Z</time>
      </trkpt>
      <trkpt lat="38.832240" lon="-0.408068">
        <ele>1029.843</ele>
        <time>2022-07-10T06:32:48Z</time>
      </trkpt>
      <trkpt lat="38.832228" lon="-0.408050">
        <ele>1030.076</ele>
        <time>2022-07-10T06:32:50Z</time>
      </trkpt>
      <trkpt lat="38.832200" lon="-0.408022">
        <ele>1030.683</ele>
        <time>2022-07-10T06:32:54Z</time>
      </trkpt>
      <trkpt lat="38.832196" lon="-0.408022">
        <ele>1031.070</ele>
        <time>2022-07-10T06:32:55Z</time>
      </trkpt>
      <trkpt lat="38.832198" lon="-0.408019">
        <ele>1031.265</ele>
        <time>2022-07-10T06:32:56Z</time>
      </trkpt>
      <trkpt lat="38.832216" lon="-0.407992">
        <ele>1031.468</ele>
        <time>2022-07-10T06:32:59Z</time>
      </trkpt>
      <trkpt lat="38.832224" lon="-0.407974">
        <ele>1032.014</ele>
        <time>2022-07-10T06:33:01Z</time>
      </trkpt>
      <trkpt lat="38.832237" lon="-0.407972">
        <ele>1032.609</ele>
        <time>2022-07-10T06:33:03Z</time>
      </trkpt>
      <trkpt lat="38.832256" lon="-0.407967">
        <ele>1033.087</ele>
        <time>2022-07-10T06:33:05Z</time>
      </trkpt>
      <trkpt lat="38.832279" lon="-0.407966">
        <ele>1033.466</ele>
        <time>2022-07-10T06:33:07Z</time>
      </trkpt>
      <trkpt lat="38.832295" lon="-0.407960">
        <ele>1033.673</ele>
        <time>2022-07-10T06:33:09Z</time>
      </trkpt>
      <trkpt lat="38.832311" lon="-0.407958">
        <ele>1033.841</ele>
        <time>2022-07-10T06:33:11Z</time>
      </trkpt>
      <trkpt lat="38.832327" lon="-0.407955">
        <ele>1034.210</ele>
        <time>2022-07-10T06:33:13Z</time>
      </trkpt>
      <trkpt lat="38.832366" lon="-0.407961">
        <ele>1034.636</ele>
        <time>2022-07-10T06:33:16Z</time>
      </trkpt>
      <trkpt lat="38.832402" lon="-0.407964">
        <ele>1035.219</ele>
        <time>2022-07-10T06:33:20Z</time>
      </trkpt>
      <trkpt lat="38.832421" lon="-0.407948">
        <ele>1035.856</ele>
        <time>2022-07-10T06:33:23Z</time>
      </trkpt>
      <trkpt lat="38.832422" lon="-0.407928">
        <ele>1036.053</ele>
        <time>2022-07-10T06:33:25Z</time>
      </trkpt>
      <trkpt lat="38.832415" lon="-0.407912">
        <ele>1036.468</ele>
        <time>2022-07-10T06:33:27Z</time>
      </trkpt>
      <trkpt lat="38.832395" lon="-0.407904">
        <ele>1037.442</ele>
        <time>2022-07-10T06:33:31Z</time>
      </trkpt>
      <trkpt lat="38.832390" lon="-0.407898">
        <ele>1037.626</ele>
        <time>2022-07-10T06:33:32Z</time>
      </trkpt>
      <trkpt lat="38.832364" lon="-0.407876">
        <ele>1038.209</ele>
        <time>2022-07-10T06:33:35Z</time>
      </trkpt>
      <trkpt lat="38.832347" lon="-0.407851">
        <ele>1038.427</ele>
        <time>2022-07-10T06:33:37Z</time>
      </trkpt>
      <trkpt lat="38.832338" lon="-0.407840">
        <ele>1038.626</ele>
        <time>2022-07-10T06:33:38Z</time>
      </trkpt>
      <trkpt lat="38.832330" lon="-0.407839">
        <ele>1038.623</ele>
        <time>2022-07-10T06:33:39Z</time>
      </trkpt>
      <trkpt lat="38.832312" lon="-0.407822">
        <ele>1039.091</ele>
        <time>2022-07-10T06:33:42Z</time>
      </trkpt>
      <trkpt lat="38.832297" lon="-0.407806">
        <ele>1039.440</ele>
        <time>2022-07-10T06:33:45Z</time>
      </trkpt>
      <trkpt lat="38.832239" lon="-0.407752">
        <ele>1040.636</ele>
        <time>2022-07-10T06:33:50Z</time>
      </trkpt>
      <trkpt lat="38.832229" lon="-0.407743">
        <ele>1040.899</ele>
        <time>2022-07-10T06:33:52Z</time>
      </trkpt>
      <trkpt lat="38.832217" lon="-0.407721">
        <ele>1041.266</ele>
        <time>2022-07-10T06:33:54Z</time>
      </trkpt>
      <trkpt lat="38.832204" lon="-0.407711">
        <ele>1041.843</ele>
        <time>2022-07-10T06:33:56Z</time>
      </trkpt>
      <trkpt lat="38.832179" lon="-0.407692">
        <ele>1042.453</ele>
        <time>2022-07-10T06:34:00Z</time>
      </trkpt>
      <trkpt lat="38.832165" lon="-0.407681">
        <ele>1042.804</ele>
        <time>2022-07-10T06:34:02Z</time>
      </trkpt>
      <trkpt lat="38.832130" lon="-0.407652">
        <ele>1044.014</ele>
        <time>2022-07-10T06:34:06Z</time>
      </trkpt>
      <trkpt lat="38.832107" lon="-0.407642">
        <ele>1044.409</ele>
        <time>2022-07-10T06:34:08Z</time>
      </trkpt>
      <trkpt lat="38.832084" lon="-0.407622">
        <ele>1044.836</ele>
        <time>2022-07-10T06:34:11Z</time>
      </trkpt>
      <trkpt lat="38.832089" lon="-0.407602">
        <ele>1045.045</ele>
        <time>2022-07-10T06:34:13Z</time>
      </trkpt>
      <trkpt lat="38.832092" lon="-0.407591">
        <ele>1045.492</ele>
        <time>2022-07-10T06:34:14Z</time>
      </trkpt>
      <trkpt lat="38.832101" lon="-0.407571">
        <ele>1045.870</ele>
        <time>2022-07-10T06:34:16Z</time>
      </trkpt>
      <trkpt lat="38.832092" lon="-0.407550">
        <ele>1046.099</ele>
        <time>2022-07-10T06:34:18Z</time>
      </trkpt>
      <trkpt lat="38.832092" lon="-0.407539">
        <ele>1046.245</ele>
        <time>2022-07-10T06:34:19Z</time>
      </trkpt>
      <trkpt lat="38.832095" lon="-0.407534">
        <ele>1046.468</ele>
        <time>2022-07-10T06:34:20Z</time>
      </trkpt>
      <trkpt lat="38.832092" lon="-0.407515">
        <ele>1046.625</ele>
        <time>2022-07-10T06:34:23Z</time>
      </trkpt>
      <trkpt lat="38.832113" lon="-0.407490">
        <ele>1047.062</ele>
        <time>2022-07-10T06:34:27Z</time>
      </trkpt>
      <trkpt lat="38.832113" lon="-0.407486">
        <ele>1047.288</ele>
        <time>2022-07-10T06:34:28Z</time>
      </trkpt>
      <trkpt lat="38.832094" lon="-0.407403">
        <ele>1047.824</ele>
        <time>2022-07-10T06:34:34Z</time>
      </trkpt>
      <trkpt lat="38.832096" lon="-0.407364">
        <ele>1048.426</ele>
        <time>2022-07-10T06:34:37Z</time>
      </trkpt>
      <trkpt lat="38.832104" lon="-0.407323">
        <ele>1049.609</ele>
        <time>2022-07-10T06:34:42Z</time>
      </trkpt>
      <trkpt lat="38.832100" lon="-0.407322">
        <ele>1049.669</ele>
        <time>2022-07-10T06:34:43Z</time>
      </trkpt>
      <trkpt lat="38.832099" lon="-0.407320">
        <ele>1049.848</ele>
        <time>2022-07-10T06:34:46Z</time>
      </trkpt>
      <trkpt lat="38.832131" lon="-0.407335">
        <ele>1050.025</ele>
        <time>2022-07-10T06:34:49Z</time>
      </trkpt>
      <trkpt lat="38.832165" lon="-0.407391">
        <ele>1050.483</ele>
        <time>2022-07-10T06:34:55Z</time>
      </trkpt>
      <trkpt lat="38.832172" lon="-0.407400">
        <ele>1050.672</ele>
        <time>2022-07-10T06:34:56Z</time>
      </trkpt>
      <trkpt lat="38.832182" lon="-0.407424">
        <ele>1051.018</ele>
        <time>2022-07-10T06:34:59Z</time>
      </trkpt>
      <trkpt lat="38.832208" lon="-0.407446">
        <ele>1051.491</ele>
        <time>2022-07-10T06:35:02Z</time>
      </trkpt>
      <trkpt lat="38.832221" lon="-0.407451">
        <ele>1051.838</ele>
        <time>2022-07-10T06:35:03Z</time>
      </trkpt>
      <trkpt lat="38.832256" lon="-0.407443">
        <ele>1052.665</ele>
        <time>2022-07-10T06:35:07Z</time>
      </trkpt>
      <trkpt lat="38.832269" lon="-0.407421">
        <ele>1052.812</ele>
        <time>2022-07-10T06:35:09Z</time>
      </trkpt>
      <trkpt lat="38.832269" lon="-0.407412">
        <ele>1053.232</ele>
        <time>2022-07-10T06:35:10Z</time>
      </trkpt>
      <trkpt lat="38.832278" lon="-0.407371">
        <ele>1053.805</ele>
        <time>2022-07-10T06:35:14Z</time>
      </trkpt>
      <trkpt lat="38.832285" lon="-0.407366">
        <ele>1054.209</ele>
        <time>2022-07-10T06:35:15Z</time>
      </trkpt>
      <trkpt lat="38.832323" lon="-0.407367">
        <ele>1055.232</ele>
        <time>2022-07-10T06:35:20Z</time>
      </trkpt>
      <trkpt lat="38.832334" lon="-0.407362">
        <ele>1056.241</ele>
        <time>2022-07-10T06:35:23Z</time>
      </trkpt>
      <trkpt lat="38.832334" lon="-0.407361">
        <ele>1056.468</ele>
        <time>2022-07-10T06:35:24Z</time>
      </trkpt>
      <trkpt lat="38.832328" lon="-0.407364">
        <ele>1056.646</ele>
        <time>2022-07-10T06:35:26Z</time>
      </trkpt>
      <trkpt lat="38.832359" lon="-0.407380">
        <ele>1056.885</ele>
        <time>2022-07-10T06:35:33Z</time>
      </trkpt>
      <trkpt lat="38.832404" lon="-0.407377">
        <ele>1057.411</ele>
        <time>2022-07-10T06:35:37Z</time>
      </trkpt>
      <trkpt lat="38.832415" lon="-0.407360">
        <ele>1057.644</ele>
        <time>2022-07-10T06:35:39Z</time>
      </trkpt>
      <trkpt lat="38.832404" lon="-0.407334">
        <ele>1058.441</ele>
        <time>2022-07-10T06:35:42Z</time>
      </trkpt>
      <trkpt lat="38.832408" lon="-0.407333">
        <ele>1059.058</ele>
        <time>2022-07-10T06:35:44Z</time>
      </trkpt>
      <trkpt lat="38.832411" lon="-0.407319">
        <ele>1059.664</ele>
        <time>2022-07-10T06:35:47Z</time>
      </trkpt>
      <trkpt lat="38.832432" lon="-0.407318">
        <ele>1060.006</ele>
        <time>2022-07-10T06:35:50Z</time>
      </trkpt>
      <trkpt lat="38.832440" lon="-0.407318">
        <ele>1060.616</ele>
        <time>2022-07-10T06:35:52Z</time>
      </trkpt>
      <trkpt lat="38.832448" lon="-0.407307">
        <ele>1061.209</ele>
        <time>2022-07-10T06:35:55Z</time>
      </trkpt>
      <trkpt lat="38.832446" lon="-0.407292">
        <ele>1061.647</ele>
        <time>2022-07-10T06:35:58Z</time>
      </trkpt>
      <trkpt lat="38.832454" lon="-0.407292">
        <ele>1062.036</ele>
        <time>2022-07-10T06:36:02Z</time>
      </trkpt>
      <trkpt lat="38.832469" lon="-0.407275">
        <ele>1062.813</ele>
        <time>2022-07-10T06:36:07Z</time>
      </trkpt>
      <trkpt lat="38.832467" lon="-0.407218">
        <ele>1064.041</ele>
        <time>2022-07-10T06:36:15Z</time>
      </trkpt>
      <trkpt lat="38.832447" lon="-0.407205">
        <ele>1064.840</ele>
        <time>2022-07-10T06:36:21Z</time>
      </trkpt>
      <trkpt lat="38.832447" lon="-0.407197">
        <ele>1065.086</ele>
        <time>2022-07-10T06:36:22Z</time>
      </trkpt>
      <trkpt lat="38.832460" lon="-0.407186">
        <ele>1066.229</ele>
        <time>2022-07-10T06:36:27Z</time>
      </trkpt>
      <trkpt lat="38.832475" lon="-0.407185">
        <ele>1067.246</ele>
        <time>2022-07-10T06:36:35Z</time>
      </trkpt>
      <trkpt lat="38.832477" lon="-0.407184">
        <ele>1067.273</ele>
        <time>2022-07-10T06:36:36Z</time>
      </trkpt>
      <trkpt lat="38.832505" lon="-0.407180">
        <ele>1068.278</ele>
        <time>2022-07-10T06:36:40Z</time>
      </trkpt>
      <trkpt lat="38.832509" lon="-0.407176">
        <ele>1068.433</ele>
        <time>2022-07-10T06:36:41Z</time>
      </trkpt>
      <trkpt lat="38.832520" lon="-0.407136">
        <ele>1069.626</ele>
        <time>2022-07-10T06:36:47Z</time>
      </trkpt>
      <trkpt lat="38.832525" lon="-0.407130">
        <ele>1070.009</ele>
        <time>2022-07-10T06:36:48Z</time>
      </trkpt>
      <trkpt lat="38.832540" lon="-0.407106">
        <ele>1070.878</ele>
        <time>2022-07-10T06:36:52Z</time>
      </trkpt>
      <trkpt lat="38.832547" lon="-0.407070">
        <ele>1072.047</ele>
        <time>2022-07-10T06:36:56Z</time>
      </trkpt>
      <trkpt lat="38.832551" lon="-0.407023">
        <ele>1072.644</ele>
        <time>2022-07-10T06:37:03Z</time>
      </trkpt>
      <trkpt lat="38.832548" lon="-0.406985">
        <ele>1073.022</ele>
        <time>2022-07-10T06:37:08Z</time>
      </trkpt>
      <trkpt lat="38.832543" lon="-0.406990">
        <ele>1073.411</ele>
        <time>2022-07-10T06:37:12Z</time>
      </trkpt>
      <trkpt lat="38.832543" lon="-0.406989">
        <ele>1073.467</ele>
        <time>2022-07-10T06:37:14Z</time>
      </trkpt>
      <trkpt lat="38.832560" lon="-0.406961">
        <ele>1073.650</ele>
        <time>2022-07-10T06:37:17Z</time>
      </trkpt>
      <trkpt lat="38.832564" lon="-0.406949">
        <ele>1073.667</ele>
        <time>2022-07-10T06:37:19Z</time>
      </trkpt>
      <trkpt lat="38.832567" lon="-0.406931">
        <ele>1074.254</ele>
        <time>2022-07-10T06:37:21Z</time>
      </trkpt>
      <trkpt lat="38.832542" lon="-0.406868">
        <ele>1075.213</ele>
        <time>2022-07-10T06:37:27Z</time>
      </trkpt>
      <trkpt lat="38.832510" lon="-0.406825">
        <ele>1076.043</ele>
        <time>2022-07-10T06:37:35Z</time>
      </trkpt>
      <trkpt lat="38.832518" lon="-0.406803">
        <ele>1076.007</ele>
        <time>2022-07-10T06:37:39Z</time>
      </trkpt>
      <trkpt lat="38.832520" lon="-0.406787">
        <ele>1075.809</ele>
        <time>2022-07-10T06:37:41Z</time>
      </trkpt>
      <trkpt lat="38.832528" lon="-0.406764">
        <ele>1075.862</ele>
        <time>2022-07-10T06:37:44Z</time>
      </trkpt>
      <trkpt lat="38.832527" lon="-0.406744">
        <ele>1076.241</ele>
        <time>2022-07-10T06:37:47Z</time>
      </trkpt>
      <trkpt lat="38.832525" lon="-0.406737">
        <ele>1076.498</ele>
        <time>2022-07-10T06:37:48Z</time>
      </trkpt>
      <trkpt lat="38.832525" lon="-0.406712">
        <ele>1077.296</ele>
        <time>2022-07-10T06:37:52Z</time>
      </trkpt>
      <trkpt lat="38.832531" lon="-0.406682">
        <ele>1077.495</ele>
        <time>2022-07-10T06:37:55Z</time>
      </trkpt>
      <trkpt lat="38.832527" lon="-0.406642">
        <ele>1077.461</ele>
        <time>2022-07-10T06:37:59Z</time>
      </trkpt>
      <trkpt lat="38.832527" lon="-0.406641">
        <ele>1077.244</ele>
        <time>2022-07-10T06:38:05Z</time>
      </trkpt>
      <trkpt lat="38.832542" lon="-0.406624">
        <ele>1076.611</ele>
        <time>2022-07-10T06:38:10Z</time>
      </trkpt>
      <trkpt lat="38.832549" lon="-0.406623">
        <ele>1076.228</ele>
        <time>2022-07-10T06:38:11Z</time>
      </trkpt>
      <trkpt lat="38.832561" lon="-0.406618">
        <ele>1075.837</ele>
        <time>2022-07-10T06:38:14Z</time>
      </trkpt>
      <trkpt lat="38.832561" lon="-0.406615">
        <ele>1075.849</ele>
        <time>2022-07-10T06:38:15Z</time>
      </trkpt>
      <trkpt lat="38.832580" lon="-0.406572">
        <ele>1075.613</ele>
        <time>2022-07-10T06:38:21Z</time>
      </trkpt>
      <trkpt lat="38.832579" lon="-0.406543">
        <ele>1076.209</ele>
        <time>2022-07-10T06:38:25Z</time>
      </trkpt>
      <trkpt lat="38.832577" lon="-0.406530">
        <ele>1076.254</ele>
        <time>2022-07-10T06:38:26Z</time>
      </trkpt>
      <trkpt lat="38.832571" lon="-0.406515">
        <ele>1077.423</ele>
        <time>2022-07-10T06:38:29Z</time>
      </trkpt>
      <trkpt lat="38.832574" lon="-0.406514">
        <ele>1077.670</ele>
        <time>2022-07-10T06:38:31Z</time>
      </trkpt>
      <trkpt lat="38.832574" lon="-0.406505">
        <ele>1078.048</ele>
        <time>2022-07-10T06:38:33Z</time>
      </trkpt>
      <trkpt lat="38.832574" lon="-0.406500">
        <ele>1078.237</ele>
        <time>2022-07-10T06:38:34Z</time>
      </trkpt>
      <trkpt lat="38.832583" lon="-0.406503">
        <ele>1078.473</ele>
        <time>2022-07-10T06:38:36Z</time>
      </trkpt>
      <trkpt lat="38.832583" lon="-0.406502">
        <ele>1078.426</ele>
        <time>2022-07-10T06:38:37Z</time>
      </trkpt>
      <trkpt lat="38.832592" lon="-0.406491">
        <ele>1079.283</ele>
        <time>2022-07-10T06:38:41Z</time>
      </trkpt>
      <trkpt lat="38.832589" lon="-0.406478">
        <ele>1079.420</ele>
        <time>2022-07-10T06:38:42Z</time>
      </trkpt>
      <trkpt lat="38.832589" lon="-0.406467">
        <ele>1079.494</ele>
        <time>2022-07-10T06:38:43Z</time>
      </trkpt>
      <trkpt lat="38.832590" lon="-0.406456">
        <ele>1079.657</ele>
        <time>2022-07-10T06:38:44Z</time>
      </trkpt>
      <trkpt lat="38.832590" lon="-0.406421">
        <ele>1079.422</ele>
        <time>2022-07-10T06:38:48Z</time>
      </trkpt>
      <trkpt lat="38.832589" lon="-0.406416">
        <ele>1079.409</ele>
        <time>2022-07-10T06:38:49Z</time>
      </trkpt>
      <trkpt lat="38.832577" lon="-0.406403">
        <ele>1079.830</ele>
        <time>2022-07-10T06:38:52Z</time>
      </trkpt>
      <trkpt lat="38.832571" lon="-0.406391">
        <ele>1080.029</ele>
        <time>2022-07-10T06:38:55Z</time>
      </trkpt>
      <trkpt lat="38.832574" lon="-0.406362">
        <ele>1080.686</ele>
        <time>2022-07-10T06:38:59Z</time>
      </trkpt>
      <trkpt lat="38.832596" lon="-0.406370">
        <ele>1081.664</ele>
        <time>2022-07-10T06:39:03Z</time>
      </trkpt>
      <trkpt lat="38.832588" lon="-0.406351">
        <ele>1082.663</ele>
        <time>2022-07-10T06:39:10Z</time>
      </trkpt>
      <trkpt lat="38.832586" lon="-0.406351">
        <ele>1082.299</ele>
        <time>2022-07-10T06:39:18Z</time>
      </trkpt>
      <trkpt lat="38.832586" lon="-0.406351">
        <ele>1082.282</ele>
        <time>2022-07-10T06:39:21Z</time>
      </trkpt>
      <trkpt lat="38.832586" lon="-0.406351">
        <ele>1082.279</ele>
        <time>2022-07-10T06:39:25Z</time>
      </trkpt>
      <trkpt lat="38.832587" lon="-0.406351">
        <ele>1082.026</ele>
        <time>2022-07-10T06:39:28Z</time>
      </trkpt>
      <trkpt lat="38.832580" lon="-0.406342">
        <ele>1100.621</ele>
        <time>2022-07-10T07:31:32Z</time>
      </trkpt>
      <trkpt lat="38.832577" lon="-0.406352">
        <ele>1100.641</ele>
        <time>2022-07-10T07:31:47Z</time>
      </trkpt>
      <trkpt lat="38.832574" lon="-0.406405">
        <ele>1100.605</ele>
        <time>2022-07-10T07:31:52Z</time>
      </trkpt>
      <trkpt lat="38.832575" lon="-0.406439">
        <ele>1100.609</ele>
        <time>2022-07-10T07:31:54Z</time>
      </trkpt>
      <trkpt lat="38.832549" lon="-0.406521">
        <ele>1100.663</ele>
        <time>2022-07-10T07:32:43Z</time>
      </trkpt>
      <trkpt lat="38.832549" lon="-0.406521">
        <ele>1100.672</ele>
        <time>2022-07-10T07:32:45Z</time>
      </trkpt>
      <trkpt lat="38.832553" lon="-0.406531">
        <ele>1100.649</ele>
        <time>2022-07-10T07:32:59Z</time>
      </trkpt>
      <trkpt lat="38.832559" lon="-0.406575">
        <ele>1100.647</ele>
        <time>2022-07-10T07:33:05Z</time>
      </trkpt>
      <trkpt lat="38.832540" lon="-0.406596">
        <ele>1100.686</ele>
        <time>2022-07-10T07:33:11Z</time>
      </trkpt>
      <trkpt lat="38.832508" lon="-0.406611">
        <ele>1100.642</ele>
        <time>2022-07-10T07:33:18Z</time>
      </trkpt>
      <trkpt lat="38.832479" lon="-0.406662">
        <ele>1100.695</ele>
        <time>2022-07-10T07:33:25Z</time>
      </trkpt>
      <trkpt lat="38.832479" lon="-0.406691">
        <ele>1100.689</ele>
        <time>2022-07-10T07:33:27Z</time>
      </trkpt>
      <trkpt lat="38.832479" lon="-0.406699">
        <ele>1100.615</ele>
        <time>2022-07-10T07:33:28Z</time>
      </trkpt>
      <trkpt lat="38.832476" lon="-0.406705">
        <ele>1100.647</ele>
        <time>2022-07-10T07:33:30Z</time>
      </trkpt>
      <trkpt lat="38.832482" lon="-0.406731">
        <ele>1096.429</ele>
        <time>2022-07-10T07:33:35Z</time>
      </trkpt>
      <trkpt lat="38.832485" lon="-0.406738">
        <ele>1096.421</ele>
        <time>2022-07-10T07:33:36Z</time>
      </trkpt>
      <trkpt lat="38.832495" lon="-0.406766">
        <ele>1096.209</ele>
        <time>2022-07-10T07:33:39Z</time>
      </trkpt>
      <trkpt lat="38.832511" lon="-0.406802">
        <ele>1095.635</ele>
        <time>2022-07-10T07:33:42Z</time>
      </trkpt>
      <trkpt lat="38.832502" lon="-0.406836">
        <ele>1095.284</ele>
        <time>2022-07-10T07:33:46Z</time>
      </trkpt>
      <trkpt lat="38.832507" lon="-0.406847">
        <ele>1095.291</ele>
        <time>2022-07-10T07:33:48Z</time>
      </trkpt>
      <trkpt lat="38.832530" lon="-0.406887">
        <ele>1094.869</ele>
        <time>2022-07-10T07:33:54Z</time>
      </trkpt>
      <trkpt lat="38.832540" lon="-0.406903">
        <ele>1094.628</ele>
        <time>2022-07-10T07:33:57Z</time>
      </trkpt>
      <trkpt lat="38.832547" lon="-0.406933">
        <ele>1094.484</ele>
        <time>2022-07-10T07:34:00Z</time>
      </trkpt>
      <trkpt lat="38.832543" lon="-0.406941">
        <ele>1094.217</ele>
        <time>2022-07-10T07:34:01Z</time>
      </trkpt>
      <trkpt lat="38.832545" lon="-0.406945">
        <ele>1094.231</ele>
        <time>2022-07-10T07:34:02Z</time>
      </trkpt>
      <trkpt lat="38.832537" lon="-0.406956">
        <ele>1094.057</ele>
        <time>2022-07-10T07:34:04Z</time>
      </trkpt>
      <trkpt lat="38.832533" lon="-0.406944">
        <ele>1093.644</ele>
        <time>2022-07-10T07:34:07Z</time>
      </trkpt>
      <trkpt lat="38.832535" lon="-0.406943">
        <ele>1093.605</ele>
        <time>2022-07-10T07:34:08Z</time>
      </trkpt>
      <trkpt lat="38.832530" lon="-0.406984">
        <ele>1093.415</ele>
        <time>2022-07-10T07:34:13Z</time>
      </trkpt>
      <trkpt lat="38.832535" lon="-0.406987">
        <ele>1093.009</ele>
        <time>2022-07-10T07:34:14Z</time>
      </trkpt>
      <trkpt lat="38.832543" lon="-0.407029">
        <ele>1092.215</ele>
        <time>2022-07-10T07:34:19Z</time>
      </trkpt>
      <trkpt lat="38.832511" lon="-0.407084">
        <ele>1092.054</ele>
        <time>2022-07-10T07:34:28Z</time>
      </trkpt>
      <trkpt lat="38.832522" lon="-0.407127">
        <ele>1091.631</ele>
        <time>2022-07-10T07:34:35Z</time>
      </trkpt>
      <trkpt lat="38.832518" lon="-0.407145">
        <ele>1090.819</ele>
        <time>2022-07-10T07:34:42Z</time>
      </trkpt>
      <trkpt lat="38.832513" lon="-0.407152">
        <ele>1090.868</ele>
        <time>2022-07-10T07:34:43Z</time>
      </trkpt>
      <trkpt lat="38.832474" lon="-0.407143">
        <ele>1089.844</ele>
        <time>2022-07-10T07:34:49Z</time>
      </trkpt>
      <trkpt lat="38.832449" lon="-0.407157">
        <ele>1089.077</ele>
        <time>2022-07-10T07:34:52Z</time>
      </trkpt>
      <trkpt lat="38.832441" lon="-0.407155">
        <ele>1088.691</ele>
        <time>2022-07-10T07:34:54Z</time>
      </trkpt>
      <trkpt lat="38.832432" lon="-0.407146">
        <ele>1088.297</ele>
        <time>2022-07-10T07:34:58Z</time>
      </trkpt>
      <trkpt lat="38.832431" lon="-0.407145">
        <ele>1088.071</ele>
        <time>2022-07-10T07:34:59Z</time>
      </trkpt>
      <trkpt lat="38.832436" lon="-0.407149">
        <ele>1087.641</ele>
        <time>2022-07-10T07:35:01Z</time>
      </trkpt>
      <trkpt lat="38.832431" lon="-0.407187">
        <ele>1086.615</ele>
        <time>2022-07-10T07:35:10Z</time>
      </trkpt>
      <trkpt lat="38.832433" lon="-0.407205">
        <ele>1086.209</ele>
        <time>2022-07-10T07:35:12Z</time>
      </trkpt>
      <trkpt lat="38.832423" lon="-0.407210">
        <ele>1085.848</ele>
        <time>2022-07-10T07:35:17Z</time>
      </trkpt>
      <trkpt lat="38.832417" lon="-0.407227">
        <ele>1085.417</ele>
        <time>2022-07-10T07:35:20Z</time>
      </trkpt>
      <trkpt lat="38.832430" lon="-0.407232">
        <ele>1084.884</ele>
        <time>2022-07-10T07:35:24Z</time>
      </trkpt>
      <trkpt lat="38.832439" lon="-0.407226">
        <ele>1084.452</ele>
        <time>2022-07-10T07:35:27Z</time>
      </trkpt>
      <trkpt lat="38.832434" lon="-0.407212">
        <ele>1085.411</ele>
        <time>2022-07-10T07:35:32Z</time>
      </trkpt>
      <trkpt lat="38.832444" lon="-0.407211">
        <ele>1086.217</ele>
        <time>2022-07-10T07:35:34Z</time>
      </trkpt>
      <trkpt lat="38.832449" lon="-0.407219">
        <ele>1086.250</ele>
        <time>2022-07-10T07:35:36Z</time>
      </trkpt>
      <trkpt lat="38.832447" lon="-0.407255">
        <ele>1084.084</ele>
        <time>2022-07-10T07:35:42Z</time>
      </trkpt>
      <trkpt lat="38.832421" lon="-0.407274">
        <ele>1083.610</ele>
        <time>2022-07-10T07:35:46Z</time>
      </trkpt>
      <trkpt lat="38.832410" lon="-0.407294">
        <ele>1082.851</ele>
        <time>2022-07-10T07:35:49Z</time>
      </trkpt>
      <trkpt lat="38.832389" lon="-0.407309">
        <ele>1082.001</ele>
        <time>2022-07-10T07:35:53Z</time>
      </trkpt>
      <trkpt lat="38.832386" lon="-0.407314">
        <ele>1081.811</ele>
        <time>2022-07-10T07:35:54Z</time>
      </trkpt>
      <trkpt lat="38.832349" lon="-0.407332">
        <ele>1080.809</ele>
        <time>2022-07-10T07:35:59Z</time>
      </trkpt>
      <trkpt lat="38.832329" lon="-0.407332">
        <ele>1080.616</ele>
        <time>2022-07-10T07:36:01Z</time>
      </trkpt>
      <trkpt lat="38.832320" lon="-0.407335">
        <ele>1079.885</ele>
        <time>2022-07-10T07:36:06Z</time>
      </trkpt>
      <trkpt lat="38.832320" lon="-0.407341">
        <ele>1079.662</ele>
        <time>2022-07-10T07:36:07Z</time>
      </trkpt>
      <trkpt lat="38.832318" lon="-0.407369">
        <ele>1078.460</ele>
        <time>2022-07-10T07:36:12Z</time>
      </trkpt>
      <trkpt lat="38.832317" lon="-0.407371">
        <ele>1078.499</ele>
        <time>2022-07-10T07:36:13Z</time>
      </trkpt>
      <trkpt lat="38.832299" lon="-0.407372">
        <ele>1077.475</ele>
        <time>2022-07-10T07:36:18Z</time>
      </trkpt>
      <trkpt lat="38.832280" lon="-0.407370">
        <ele>1077.258</ele>
        <time>2022-07-10T07:36:20Z</time>
      </trkpt>
      <trkpt lat="38.832261" lon="-0.407374">
        <ele>1076.232</ele>
        <time>2022-07-10T07:36:23Z</time>
      </trkpt>
      <trkpt lat="38.832226" lon="-0.407391">
        <ele>1075.648</ele>
        <time>2022-07-10T07:36:27Z</time>
      </trkpt>
      <trkpt lat="38.832221" lon="-0.407401">
        <ele>1075.238</ele>
        <time>2022-07-10T07:36:28Z</time>
      </trkpt>
      <trkpt lat="38.832212" lon="-0.407435">
        <ele>1074.270</ele>
        <time>2022-07-10T07:36:33Z</time>
      </trkpt>
      <trkpt lat="38.832209" lon="-0.407432">
        <ele>1074.017</ele>
        <time>2022-07-10T07:36:34Z</time>
      </trkpt>
      <trkpt lat="38.832187" lon="-0.407431">
        <ele>1073.009</ele>
        <time>2022-07-10T07:36:39Z</time>
      </trkpt>
      <trkpt lat="38.832154" lon="-0.407448">
        <ele>1072.064</ele>
        <time>2022-07-10T07:36:45Z</time>
      </trkpt>
      <trkpt lat="38.832155" lon="-0.407469">
        <ele>1071.423</ele>
        <time>2022-07-10T07:36:47Z</time>
      </trkpt>
      <trkpt lat="38.832148" lon="-0.407482">
        <ele>1070.860</ele>
        <time>2022-07-10T07:36:49Z</time>
      </trkpt>
      <trkpt lat="38.832140" lon="-0.407524">
        <ele>1070.228</ele>
        <time>2022-07-10T07:36:54Z</time>
      </trkpt>
      <trkpt lat="38.832149" lon="-0.407541">
        <ele>1069.827</ele>
        <time>2022-07-10T07:36:56Z</time>
      </trkpt>
      <trkpt lat="38.832131" lon="-0.407559">
        <ele>1069.253</ele>
        <time>2022-07-10T07:37:01Z</time>
      </trkpt>
      <trkpt lat="38.832091" lon="-0.407560">
        <ele>1068.046</ele>
        <time>2022-07-10T07:38:03Z</time>
      </trkpt>
      <trkpt lat="38.832091" lon="-0.407560">
        <ele>1067.870</ele>
        <time>2022-07-10T07:38:04Z</time>
      </trkpt>
      <trkpt lat="38.832086" lon="-0.407603">
        <ele>1067.246</ele>
        <time>2022-07-10T07:38:09Z</time>
      </trkpt>
      <trkpt lat="38.832092" lon="-0.407678">
        <ele>1066.819</ele>
        <time>2022-07-10T07:38:13Z</time>
      </trkpt>
      <trkpt lat="38.832101" lon="-0.407706">
        <ele>1066.809</ele>
        <time>2022-07-10T07:38:15Z</time>
      </trkpt>
      <trkpt lat="38.832118" lon="-0.407715">
        <ele>1066.219</ele>
        <time>2022-07-10T07:38:17Z</time>
      </trkpt>
      <trkpt lat="38.832128" lon="-0.407727">
        <ele>1065.809</ele>
        <time>2022-07-10T07:38:19Z</time>
      </trkpt>
      <trkpt lat="38.832145" lon="-0.407744">
        <ele>1065.222</ele>
        <time>2022-07-10T07:38:23Z</time>
      </trkpt>
      <trkpt lat="38.832158" lon="-0.407745">
        <ele>1064.841</ele>
        <time>2022-07-10T07:38:25Z</time>
      </trkpt>
      <trkpt lat="38.832184" lon="-0.407752">
        <ele>1064.018</ele>
        <time>2022-07-10T07:38:29Z</time>
      </trkpt>
      <trkpt lat="38.832199" lon="-0.407781">
        <ele>1063.626</ele>
        <time>2022-07-10T07:38:32Z</time>
      </trkpt>
      <trkpt lat="38.832222" lon="-0.407816">
        <ele>1062.885</ele>
        <time>2022-07-10T07:38:37Z</time>
      </trkpt>
      <trkpt lat="38.832230" lon="-0.407822">
        <ele>1062.251</ele>
        <time>2022-07-10T07:38:39Z</time>
      </trkpt>
      <trkpt lat="38.832268" lon="-0.407864">
        <ele>1061.234</ele>
        <time>2022-07-10T07:38:45Z</time>
      </trkpt>
      <trkpt lat="38.832284" lon="-0.407874">
        <ele>1060.828</ele>
        <time>2022-07-10T07:38:47Z</time>
      </trkpt>
      <trkpt lat="38.832315" lon="-0.407904">
        <ele>1060.214</ele>
        <time>2022-07-10T07:38:51Z</time>
      </trkpt>
      <trkpt lat="38.832341" lon="-0.407934">
        <ele>1059.643</ele>
        <time>2022-07-10T07:38:55Z</time>
      </trkpt>
      <trkpt lat="38.832363" lon="-0.407959">
        <ele>1059.264</ele>
        <time>2022-07-10T07:38:58Z</time>
      </trkpt>
      <trkpt lat="38.832373" lon="-0.407986">
        <ele>1058.410</ele>
        <time>2022-07-10T07:39:01Z</time>
      </trkpt>
      <trkpt lat="38.832363" lon="-0.407999">
        <ele>1058.009</ele>
        <time>2022-07-10T07:39:03Z</time>
      </trkpt>
      <trkpt lat="38.832335" lon="-0.408001">
        <ele>1057.215</ele>
        <time>2022-07-10T07:39:07Z</time>
      </trkpt>
      <trkpt lat="38.832325" lon="-0.408000">
        <ele>1057.254</ele>
        <time>2022-07-10T07:39:08Z</time>
      </trkpt>
      <trkpt lat="38.832302" lon="-0.407993">
        <ele>1057.031</ele>
        <time>2022-07-10T07:39:10Z</time>
      </trkpt>
      <trkpt lat="38.832231" lon="-0.407985">
        <ele>1056.029</ele>
        <time>2022-07-10T07:39:16Z</time>
      </trkpt>
      <trkpt lat="38.832165" lon="-0.407988">
        <ele>1054.848</ele>
        <time>2022-07-10T07:39:22Z</time>
      </trkpt>
      <trkpt lat="38.832159" lon="-0.407991">
        <ele>1054.624</ele>
        <time>2022-07-10T07:39:23Z</time>
      </trkpt>
      <trkpt lat="38.832154" lon="-0.408000">
        <ele>1054.677</ele>
        <time>2022-07-10T07:39:24Z</time>
      </trkpt>
      <trkpt lat="38.832154" lon="-0.408009">
        <ele>1054.431</ele>
        <time>2022-07-10T07:39:25Z</time>
      </trkpt>
      <trkpt lat="38.832153" lon="-0.408030">
        <ele>1053.637</ele>
        <time>2022-07-10T07:39:28Z</time>
      </trkpt>
      <trkpt lat="38.832161" lon="-0.408046">
        <ele>1053.264</ele>
        <time>2022-07-10T07:39:30Z</time>
      </trkpt>
      <trkpt lat="38.832173" lon="-0.408052">
        <ele>1053.006</ele>
        <time>2022-07-10T07:39:31Z</time>
      </trkpt>
      <trkpt lat="38.832203" lon="-0.408063">
        <ele>1052.616</ele>
        <time>2022-07-10T07:39:34Z</time>
      </trkpt>
      <trkpt lat="38.832215" lon="-0.408071">
        <ele>1052.009</ele>
        <time>2022-07-10T07:39:36Z</time>
      </trkpt>
      <trkpt lat="38.832223" lon="-0.408076">
        <ele>1051.897</ele>
        <time>2022-07-10T07:39:37Z</time>
      </trkpt>
      <trkpt lat="38.832231" lon="-0.408083">
        <ele>1051.446</ele>
        <time>2022-07-10T07:39:38Z</time>
      </trkpt>
      <trkpt lat="38.832243" lon="-0.408099">
        <ele>1051.213</ele>
        <time>2022-07-10T07:39:40Z</time>
      </trkpt>
      <trkpt lat="38.832276" lon="-0.408121">
        <ele>1050.681</ele>
        <time>2022-07-10T07:39:43Z</time>
      </trkpt>
      <trkpt lat="38.832287" lon="-0.408127">
        <ele>1050.420</ele>
        <time>2022-07-10T07:39:44Z</time>
      </trkpt>
      <trkpt lat="38.832333" lon="-0.408201">
        <ele>1049.286</ele>
        <time>2022-07-10T07:39:50Z</time>
      </trkpt>
      <trkpt lat="38.832356" lon="-0.408245">
        <ele>1048.239</ele>
        <time>2022-07-10T07:39:55Z</time>
      </trkpt>
      <trkpt lat="38.832365" lon="-0.408284">
        <ele>1047.883</ele>
        <time>2022-07-10T07:39:58Z</time>
      </trkpt>
      <trkpt lat="38.832384" lon="-0.408319">
        <ele>1047.229</ele>
        <time>2022-07-10T07:40:01Z</time>
      </trkpt>
      <trkpt lat="38.832388" lon="-0.408335">
        <ele>1047.026</ele>
        <time>2022-07-10T07:40:02Z</time>
      </trkpt>
      <trkpt lat="38.832397" lon="-0.408372">
        <ele>1046.447</ele>
        <time>2022-07-10T07:40:05Z</time>
      </trkpt>
      <trkpt lat="38.832394" lon="-0.408393">
        <ele>1046.011</ele>
        <time>2022-07-10T07:40:07Z</time>
      </trkpt>
      <trkpt lat="38.832403" lon="-0.408419">
        <ele>1045.409</ele>
        <time>2022-07-10T07:40:10Z</time>
      </trkpt>
      <trkpt lat="38.832413" lon="-0.408434">
        <ele>1045.083</ele>
        <time>2022-07-10T07:40:12Z</time>
      </trkpt>
      <trkpt lat="38.832408" lon="-0.408477">
        <ele>1043.812</ele>
        <time>2022-07-10T07:40:17Z</time>
      </trkpt>
      <trkpt lat="38.832403" lon="-0.408471">
        <ele>1043.629</ele>
        <time>2022-07-10T07:40:18Z</time>
      </trkpt>
      <trkpt lat="38.832396" lon="-0.408467">
        <ele>1043.477</ele>
        <time>2022-07-10T07:40:19Z</time>
      </trkpt>
      <trkpt lat="38.832368" lon="-0.408437">
        <ele>1043.016</ele>
        <time>2022-07-10T07:40:22Z</time>
      </trkpt>
      <trkpt lat="38.832358" lon="-0.408429">
        <ele>1042.892</ele>
        <time>2022-07-10T07:40:23Z</time>
      </trkpt>
      <trkpt lat="38.832293" lon="-0.408421">
        <ele>1041.885</ele>
        <time>2022-07-10T07:40:29Z</time>
      </trkpt>
      <trkpt lat="38.832271" lon="-0.408416">
        <ele>1041.419</ele>
        <time>2022-07-10T07:40:31Z</time>
      </trkpt>
      <trkpt lat="38.832260" lon="-0.408395">
        <ele>1041.055</ele>
        <time>2022-07-10T07:40:33Z</time>
      </trkpt>
      <trkpt lat="38.832256" lon="-0.408374">
        <ele>1040.617</ele>
        <time>2022-07-10T07:40:35Z</time>
      </trkpt>
      <trkpt lat="38.832231" lon="-0.408374">
        <ele>1040.087</ele>
        <time>2022-07-10T07:40:38Z</time>
      </trkpt>
      <trkpt lat="38.832223" lon="-0.408376">
        <ele>1039.815</ele>
        <time>2022-07-10T07:40:39Z</time>
      </trkpt>
      <trkpt lat="38.832214" lon="-0.408379">
        <ele>1039.609</ele>
        <time>2022-07-10T07:40:40Z</time>
      </trkpt>
      <trkpt lat="38.832178" lon="-0.408399">
        <ele>1038.842</ele>
        <time>2022-07-10T07:40:45Z</time>
      </trkpt>
      <trkpt lat="38.832174" lon="-0.408408">
        <ele>1038.411</ele>
        <time>2022-07-10T07:40:46Z</time>
      </trkpt>
      <trkpt lat="38.832138" lon="-0.408449">
        <ele>1037.658</ele>
        <time>2022-07-10T07:40:51Z</time>
      </trkpt>
      <trkpt lat="38.832134" lon="-0.408469">
        <ele>1037.426</ele>
        <time>2022-07-10T07:40:53Z</time>
      </trkpt>
      <trkpt lat="38.832145" lon="-0.408477">
        <ele>1037.025</ele>
        <time>2022-07-10T07:40:56Z</time>
      </trkpt>
      <trkpt lat="38.832168" lon="-0.408475">
        <ele>1036.231</ele>
        <time>2022-07-10T07:41:00Z</time>
      </trkpt>
      <trkpt lat="38.832181" lon="-0.408483">
        <ele>1036.024</ele>
        <time>2022-07-10T07:41:02Z</time>
      </trkpt>
      <trkpt lat="38.832179" lon="-0.408494">
        <ele>1035.818</ele>
        <time>2022-07-10T07:41:03Z</time>
      </trkpt>
      <trkpt lat="38.832188" lon="-0.408515">
        <ele>1035.024</ele>
        <time>2022-07-10T07:41:05Z</time>
      </trkpt>
      <trkpt lat="38.832206" lon="-0.408550">
        <ele>1034.647</ele>
        <time>2022-07-10T07:41:08Z</time>
      </trkpt>
      <trkpt lat="38.832207" lon="-0.408564">
        <ele>1034.229</ele>
        <time>2022-07-10T07:41:09Z</time>
      </trkpt>
      <trkpt lat="38.832210" lon="-0.408574">
        <ele>1034.021</ele>
        <time>2022-07-10T07:41:10Z</time>
      </trkpt>
      <trkpt lat="38.832225" lon="-0.408639">
        <ele>1033.009</ele>
        <time>2022-07-10T07:41:15Z</time>
      </trkpt>
      <trkpt lat="38.832230" lon="-0.408664">
        <ele>1032.675</ele>
        <time>2022-07-10T07:41:17Z</time>
      </trkpt>
      <trkpt lat="38.832239" lon="-0.408718">
        <ele>1031.874</ele>
        <time>2022-07-10T07:41:21Z</time>
      </trkpt>
      <trkpt lat="38.832261" lon="-0.408767">
        <ele>1030.891</ele>
        <time>2022-07-10T07:41:25Z</time>
      </trkpt>
      <trkpt lat="38.832269" lon="-0.408775">
        <ele>1030.659</ele>
        <time>2022-07-10T07:41:26Z</time>
      </trkpt>
      <trkpt lat="38.832285" lon="-0.408806">
        <ele>1030.248</ele>
        <time>2022-07-10T07:41:29Z</time>
      </trkpt>
      <trkpt lat="38.832295" lon="-0.408852">
        <ele>1029.644</ele>
        <time>2022-07-10T07:41:32Z</time>
      </trkpt>
      <trkpt lat="38.832295" lon="-0.408861">
        <ele>1029.237</ele>
        <time>2022-07-10T07:41:33Z</time>
      </trkpt>
      <trkpt lat="38.832294" lon="-0.408873">
        <ele>1028.831</ele>
        <time>2022-07-10T07:41:34Z</time>
      </trkpt>
      <trkpt lat="38.832288" lon="-0.408895">
        <ele>1028.447</ele>
        <time>2022-07-10T07:41:36Z</time>
      </trkpt>
      <trkpt lat="38.832290" lon="-0.408961">
        <ele>1027.428</ele>
        <time>2022-07-10T07:41:41Z</time>
      </trkpt>
      <trkpt lat="38.832295" lon="-0.408971">
        <ele>1027.289</ele>
        <time>2022-07-10T07:41:42Z</time>
      </trkpt>
      <trkpt lat="38.832315" lon="-0.409013">
        <ele>1026.217</ele>
        <time>2022-07-10T07:41:46Z</time>
      </trkpt>
      <trkpt lat="38.832323" lon="-0.409042">
        <ele>1025.409</ele>
        <time>2022-07-10T07:41:49Z</time>
      </trkpt>
      <trkpt lat="38.832330" lon="-0.409062">
        <ele>1025.063</ele>
        <time>2022-07-10T07:41:51Z</time>
      </trkpt>
      <trkpt lat="38.832355" lon="-0.409114">
        <ele>1024.092</ele>
        <time>2022-07-10T07:41:56Z</time>
      </trkpt>
      <trkpt lat="38.832361" lon="-0.409136">
        <ele>1023.479</ele>
        <time>2022-07-10T07:41:58Z</time>
      </trkpt>
      <trkpt lat="38.832376" lon="-0.409179">
        <ele>1023.067</ele>
        <time>2022-07-10T07:42:01Z</time>
      </trkpt>
      <trkpt lat="38.832396" lon="-0.409246">
        <ele>1021.836</ele>
        <time>2022-07-10T07:42:06Z</time>
      </trkpt>
      <trkpt lat="38.832399" lon="-0.409257">
        <ele>1021.892</ele>
        <time>2022-07-10T07:42:07Z</time>
      </trkpt>
      <trkpt lat="38.832419" lon="-0.409315">
        <ele>1021.035</ele>
        <time>2022-07-10T07:42:11Z</time>
      </trkpt>
      <trkpt lat="38.832423" lon="-0.409334">
        <ele>1020.669</ele>
        <time>2022-07-10T07:42:13Z</time>
      </trkpt>
      <trkpt lat="38.832430" lon="-0.409358">
        <ele>1020.035</ele>
        <time>2022-07-10T07:42:15Z</time>
      </trkpt>
      <trkpt lat="38.832438" lon="-0.409380">
        <ele>1019.689</ele>
        <time>2022-07-10T07:42:17Z</time>
      </trkpt>
      <trkpt lat="38.832449" lon="-0.409392">
        <ele>1019.206</ele>
        <time>2022-07-10T07:42:18Z</time>
      </trkpt>
      <trkpt lat="38.832464" lon="-0.409408">
        <ele>1018.626</ele>
        <time>2022-07-10T07:42:20Z</time>
      </trkpt>
      <trkpt lat="38.832478" lon="-0.409414">
        <ele>1018.409</ele>
        <time>2022-07-10T07:42:21Z</time>
      </trkpt>
      <trkpt lat="38.832487" lon="-0.409420">
        <ele>1018.299</ele>
        <time>2022-07-10T07:42:22Z</time>
      </trkpt>
      <trkpt lat="38.832495" lon="-0.409432">
        <ele>1018.088</ele>
        <time>2022-07-10T07:42:23Z</time>
      </trkpt>
      <trkpt lat="38.832510" lon="-0.409475">
        <ele>1017.235</ele>
        <time>2022-07-10T07:42:26Z</time>
      </trkpt>
      <trkpt lat="38.832510" lon="-0.409487">
        <ele>1017.263</ele>
        <time>2022-07-10T07:42:27Z</time>
      </trkpt>
      <trkpt lat="38.832509" lon="-0.409561">
        <ele>1016.222</ele>
        <time>2022-07-10T07:42:32Z</time>
      </trkpt>
      <trkpt lat="38.832513" lon="-0.409624">
        <ele>1015.038</ele>
        <time>2022-07-10T07:42:36Z</time>
      </trkpt>
      <trkpt lat="38.832523" lon="-0.409654">
        <ele>1014.451</ele>
        <time>2022-07-10T07:42:39Z</time>
      </trkpt>
      <trkpt lat="38.832520" lon="-0.409683">
        <ele>1014.015</ele>
        <time>2022-07-10T07:42:41Z</time>
      </trkpt>
      <trkpt lat="38.832516" lon="-0.409698">
        <ele>1013.811</ele>
        <time>2022-07-10T07:42:42Z</time>
      </trkpt>
      <trkpt lat="38.832509" lon="-0.409731">
        <ele>1013.288</ele>
        <time>2022-07-10T07:42:45Z</time>
      </trkpt>
      <trkpt lat="38.832512" lon="-0.409759">
        <ele>1012.824</ele>
        <time>2022-07-10T07:42:47Z</time>
      </trkpt>
      <trkpt lat="38.832509" lon="-0.409774">
        <ele>1012.826</ele>
        <time>2022-07-10T07:42:48Z</time>
      </trkpt>
      <trkpt lat="38.832500" lon="-0.409802">
        <ele>1012.409</ele>
        <time>2022-07-10T07:42:50Z</time>
      </trkpt>
      <trkpt lat="38.832497" lon="-0.409812">
        <ele>1012.269</ele>
        <time>2022-07-10T07:42:51Z</time>
      </trkpt>
      <trkpt lat="38.832493" lon="-0.409846">
        <ele>1011.868</ele>
        <time>2022-07-10T07:42:54Z</time>
      </trkpt>
      <trkpt lat="38.832470" lon="-0.409903">
        <ele>1010.825</ele>
        <time>2022-07-10T07:42:59Z</time>
      </trkpt>
      <trkpt lat="38.832467" lon="-0.409918">
        <ele>1010.613</ele>
        <time>2022-07-10T07:43:00Z</time>
      </trkpt>
      <trkpt lat="38.832445" lon="-0.409962">
        <ele>1010.292</ele>
        <time>2022-07-10T07:43:04Z</time>
      </trkpt>
      <trkpt lat="38.832432" lon="-0.410003">
        <ele>1009.638</ele>
        <time>2022-07-10T07:43:07Z</time>
      </trkpt>
      <trkpt lat="38.832426" lon="-0.410020">
        <ele>1009.491</ele>
        <time>2022-07-10T07:43:08Z</time>
      </trkpt>
      <trkpt lat="38.832400" lon="-0.410079">
        <ele>1008.465</ele>
        <time>2022-07-10T07:43:13Z</time>
      </trkpt>
      <trkpt lat="38.832378" lon="-0.410130">
        <ele>1008.081</ele>
        <time>2022-07-10T07:43:16Z</time>
      </trkpt>
      <trkpt lat="38.832352" lon="-0.410188">
        <ele>1007.442</ele>
        <time>2022-07-10T07:43:20Z</time>
      </trkpt>
      <trkpt lat="38.832347" lon="-0.410217">
        <ele>1007.022</ele>
        <time>2022-07-10T07:43:22Z</time>
      </trkpt>
      <trkpt lat="38.832361" lon="-0.410283">
        <ele>1006.214</ele>
        <time>2022-07-10T07:43:28Z</time>
      </trkpt>
      <trkpt lat="38.832386" lon="-0.410334">
        <ele>1005.809</ele>
        <time>2022-07-10T07:43:32Z</time>
      </trkpt>
      <trkpt lat="38.832384" lon="-0.410351">
        <ele>1005.075</ele>
        <time>2022-07-10T07:43:35Z</time>
      </trkpt>
      <trkpt lat="38.832380" lon="-0.410391">
        <ele>1004.014</ele>
        <time>2022-07-10T07:43:40Z</time>
      </trkpt>
      <trkpt lat="38.832382" lon="-0.410411">
        <ele>1003.651</ele>
        <time>2022-07-10T07:43:42Z</time>
      </trkpt>
      <trkpt lat="38.832392" lon="-0.410424">
        <ele>1003.069</ele>
        <time>2022-07-10T07:43:44Z</time>
      </trkpt>
      <trkpt lat="38.832394" lon="-0.410442">
        <ele>1002.648</ele>
        <time>2022-07-10T07:43:46Z</time>
      </trkpt>
      <trkpt lat="38.832385" lon="-0.410465">
        <ele>1001.864</ele>
        <time>2022-07-10T07:43:49Z</time>
      </trkpt>
      <trkpt lat="38.832380" lon="-0.410516">
        <ele>1001.077</ele>
        <time>2022-07-10T07:43:54Z</time>
      </trkpt>
      <trkpt lat="38.832384" lon="-0.410523">
        <ele>1000.631</ele>
        <time>2022-07-10T07:43:55Z</time>
      </trkpt>
      <trkpt lat="38.832393" lon="-0.410525">
        <ele>1000.227</ele>
        <time>2022-07-10T07:43:57Z</time>
      </trkpt>
      <trkpt lat="38.832412" lon="-0.410515">
        <ele>999.647</ele>
        <time>2022-07-10T07:44:00Z</time>
      </trkpt>
      <trkpt lat="38.832419" lon="-0.410513">
        <ele>999.429</ele>
        <time>2022-07-10T07:44:01Z</time>
      </trkpt>
      <trkpt lat="38.832440" lon="-0.410516">
        <ele>998.621</ele>
        <time>2022-07-10T07:44:05Z</time>
      </trkpt>
      <trkpt lat="38.832449" lon="-0.410515">
        <ele>998.609</ele>
        <time>2022-07-10T07:44:06Z</time>
      </trkpt>
      <trkpt lat="38.832458" lon="-0.410514">
        <ele>998.225</ele>
        <time>2022-07-10T07:44:07Z</time>
      </trkpt>
      <trkpt lat="38.832505" lon="-0.410516">
        <ele>997.684</ele>
        <time>2022-07-10T07:44:11Z</time>
      </trkpt>
      <trkpt lat="38.832504" lon="-0.410525">
        <ele>997.461</ele>
        <time>2022-07-10T07:44:12Z</time>
      </trkpt>
      <trkpt lat="38.832499" lon="-0.410534">
        <ele>997.289</ele>
        <time>2022-07-10T07:44:13Z</time>
      </trkpt>
      <trkpt lat="38.832462" lon="-0.410565">
        <ele>996.268</ele>
        <time>2022-07-10T07:44:18Z</time>
      </trkpt>
      <trkpt lat="38.832407" lon="-0.410616">
        <ele>995.234</ele>
        <time>2022-07-10T07:44:23Z</time>
      </trkpt>
      <trkpt lat="38.832399" lon="-0.410628">
        <ele>994.897</ele>
        <time>2022-07-10T07:44:24Z</time>
      </trkpt>
      <trkpt lat="38.832396" lon="-0.410638">
        <ele>994.661</ele>
        <time>2022-07-10T07:44:25Z</time>
      </trkpt>
      <trkpt lat="38.832373" lon="-0.410694">
        <ele>994.037</ele>
        <time>2022-07-10T07:44:29Z</time>
      </trkpt>
      <trkpt lat="38.832346" lon="-0.410726">
        <ele>993.617</ele>
        <time>2022-07-10T07:44:32Z</time>
      </trkpt>
      <trkpt lat="38.832306" lon="-0.410778">
        <ele>993.087</ele>
        <time>2022-07-10T07:44:36Z</time>
      </trkpt>
      <trkpt lat="38.832300" lon="-0.410795">
        <ele>992.815</ele>
        <time>2022-07-10T07:44:37Z</time>
      </trkpt>
      <trkpt lat="38.832295" lon="-0.410810">
        <ele>992.609</ele>
        <time>2022-07-10T07:44:38Z</time>
      </trkpt>
      <trkpt lat="38.832281" lon="-0.410846">
        <ele>992.282</ele>
        <time>2022-07-10T07:44:41Z</time>
      </trkpt>
      <trkpt lat="38.832269" lon="-0.410877">
        <ele>992.021</ele>
        <time>2022-07-10T07:44:43Z</time>
      </trkpt>
      <trkpt lat="38.832197" lon="-0.410961">
        <ele>992.058</ele>
        <time>2022-07-10T07:44:50Z</time>
      </trkpt>
      <trkpt lat="38.832143" lon="-0.411006">
        <ele>992.476</ele>
        <time>2022-07-10T07:44:54Z</time>
      </trkpt>
      <trkpt lat="38.832114" lon="-0.411062">
        <ele>993.295</ele>
        <time>2022-07-10T07:44:58Z</time>
      </trkpt>
      <trkpt lat="38.832109" lon="-0.411075">
        <ele>993.631</ele>
        <time>2022-07-10T07:44:59Z</time>
      </trkpt>
      <trkpt lat="38.832047" lon="-0.411133">
        <ele>994.434</ele>
        <time>2022-07-10T07:45:03Z</time>
      </trkpt>
      <trkpt lat="38.832048" lon="-0.411145">
        <ele>994.638</ele>
        <time>2022-07-10T07:45:04Z</time>
      </trkpt>
      <trkpt lat="38.832062" lon="-0.411169">
        <ele>995.084</ele>
        <time>2022-07-10T07:45:06Z</time>
      </trkpt>
      <trkpt lat="38.832074" lon="-0.411179">
        <ele>995.288</ele>
        <time>2022-07-10T07:45:07Z</time>
      </trkpt>
      <trkpt lat="38.832074" lon="-0.411189">
        <ele>995.424</ele>
        <time>2022-07-10T07:45:08Z</time>
      </trkpt>
      <trkpt lat="38.832089" lon="-0.411205">
        <ele>996.026</ele>
        <time>2022-07-10T07:45:10Z</time>
      </trkpt>
      <trkpt lat="38.832109" lon="-0.411230">
        <ele>996.609</ele>
        <time>2022-07-10T07:45:12Z</time>
      </trkpt>
      <trkpt lat="38.832114" lon="-0.411288">
        <ele>997.689</ele>
        <time>2022-07-10T07:45:15Z</time>
      </trkpt>
      <trkpt lat="38.832110" lon="-0.411303">
        <ele>997.828</ele>
        <time>2022-07-10T07:45:16Z</time>
      </trkpt>
      <trkpt lat="38.832104" lon="-0.411330">
        <ele>998.085</ele>
        <time>2022-07-10T07:45:18Z</time>
      </trkpt>
      <trkpt lat="38.832106" lon="-0.411344">
        <ele>998.263</ele>
        <time>2022-07-10T07:45:19Z</time>
      </trkpt>
      <trkpt lat="38.832118" lon="-0.411368">
        <ele>998.492</ele>
        <time>2022-07-10T07:45:21Z</time>
      </trkpt>
      <trkpt lat="38.832128" lon="-0.411411">
        <ele>998.638</ele>
        <time>2022-07-10T07:45:24Z</time>
      </trkpt>
      <trkpt lat="38.832128" lon="-0.411429">
        <ele>998.881</ele>
        <time>2022-07-10T07:45:25Z</time>
      </trkpt>
      <trkpt lat="38.832150" lon="-0.411479">
        <ele>999.875</ele>
        <time>2022-07-10T07:45:30Z</time>
      </trkpt>
      <trkpt lat="38.832143" lon="-0.411494">
        <ele>999.841</ele>
        <time>2022-07-10T07:45:32Z</time>
      </trkpt>
      <trkpt lat="38.832077" lon="-0.411559">
        <ele>999.685</ele>
        <time>2022-07-10T07:45:39Z</time>
      </trkpt>
      <trkpt lat="38.832060" lon="-0.411612">
        <ele>998.889</ele>
        <time>2022-07-10T07:45:43Z</time>
      </trkpt>
      <trkpt lat="38.832031" lon="-0.411676">
        <ele>998.017</ele>
        <time>2022-07-10T07:45:47Z</time>
      </trkpt>
      <trkpt lat="38.832016" lon="-0.411707">
        <ele>997.809</ele>
        <time>2022-07-10T07:45:49Z</time>
      </trkpt>
      <trkpt lat="38.832016" lon="-0.411765">
        <ele>997.289</ele>
        <time>2022-07-10T07:45:53Z</time>
      </trkpt>
      <trkpt lat="38.832009" lon="-0.411819">
        <ele>997.018</ele>
        <time>2022-07-10T07:45:56Z</time>
      </trkpt>
      <trkpt lat="38.832017" lon="-0.411837">
        <ele>996.845</ele>
        <time>2022-07-10T07:45:57Z</time>
      </trkpt>
      <trkpt lat="38.832039" lon="-0.411866">
        <ele>996.683</ele>
        <time>2022-07-10T07:45:59Z</time>
      </trkpt>
      <trkpt lat="38.832062" lon="-0.411915">
        <ele>996.422</ele>
        <time>2022-07-10T07:46:02Z</time>
      </trkpt>
      <trkpt lat="38.832075" lon="-0.411930">
        <ele>996.248</ele>
        <time>2022-07-10T07:46:03Z</time>
      </trkpt>
      <trkpt lat="38.832104" lon="-0.411968">
        <ele>996.221</ele>
        <time>2022-07-10T07:46:05Z</time>
      </trkpt>
      <trkpt lat="38.832099" lon="-0.412004">
        <ele>996.245</ele>
        <time>2022-07-10T07:46:07Z</time>
      </trkpt>
      <trkpt lat="38.832114" lon="-0.412034">
        <ele>996.211</ele>
        <time>2022-07-10T07:46:09Z</time>
      </trkpt>
      <trkpt lat="38.832144" lon="-0.412060">
        <ele>996.097</ele>
        <time>2022-07-10T07:46:11Z</time>
      </trkpt>
      <trkpt lat="38.832164" lon="-0.412087">
        <ele>996.023</ele>
        <time>2022-07-10T07:46:13Z</time>
      </trkpt>
      <trkpt lat="38.832163" lon="-0.412125">
        <ele>996.025</ele>
        <time>2022-07-10T07:46:16Z</time>
      </trkpt>
      <trkpt lat="38.832157" lon="-0.412136">
        <ele>996.009</ele>
        <time>2022-07-10T07:46:17Z</time>
      </trkpt>
      <trkpt lat="38.832130" lon="-0.412180">
        <ele>995.890</ele>
        <time>2022-07-10T07:46:21Z</time>
      </trkpt>
      <trkpt lat="38.832114" lon="-0.412212">
        <ele>995.639</ele>
        <time>2022-07-10T07:46:23Z</time>
      </trkpt>
      <trkpt lat="38.832073" lon="-0.412267">
        <ele>994.876</ele>
        <time>2022-07-10T07:46:29Z</time>
      </trkpt>
      <trkpt lat="38.832070" lon="-0.412280">
        <ele>994.654</ele>
        <time>2022-07-10T07:46:30Z</time>
      </trkpt>
      <trkpt lat="38.832051" lon="-0.412351">
        <ele>993.673</ele>
        <time>2022-07-10T07:46:35Z</time>
      </trkpt>
      <trkpt lat="38.832047" lon="-0.412361">
        <ele>993.469</ele>
        <time>2022-07-10T07:46:36Z</time>
      </trkpt>
      <trkpt lat="38.832040" lon="-0.412387">
        <ele>993.092</ele>
        <time>2022-07-10T07:46:38Z</time>
      </trkpt>
      <trkpt lat="38.832013" lon="-0.412424">
        <ele>992.876</ele>
        <time>2022-07-10T07:46:41Z</time>
      </trkpt>
      <trkpt lat="38.832004" lon="-0.412434">
        <ele>992.892</ele>
        <time>2022-07-10T07:46:42Z</time>
      </trkpt>
      <trkpt lat="38.831998" lon="-0.412445">
        <ele>992.614</ele>
        <time>2022-07-10T07:46:43Z</time>
      </trkpt>
      <trkpt lat="38.831993" lon="-0.412455">
        <ele>992.454</ele>
        <time>2022-07-10T07:46:44Z</time>
      </trkpt>
      <trkpt lat="38.831993" lon="-0.412466">
        <ele>992.409</ele>
        <time>2022-07-10T07:46:45Z</time>
      </trkpt>
      <trkpt lat="38.831991" lon="-0.412495">
        <ele>991.809</ele>
        <time>2022-07-10T07:46:48Z</time>
      </trkpt>
      <trkpt lat="38.831980" lon="-0.412541">
        <ele>991.482</ele>
        <time>2022-07-10T07:46:51Z</time>
      </trkpt>
      <trkpt lat="38.831956" lon="-0.412655">
        <ele>990.441</ele>
        <time>2022-07-10T07:46:58Z</time>
      </trkpt>
      <trkpt lat="38.831953" lon="-0.412673">
        <ele>990.228</ele>
        <time>2022-07-10T07:46:59Z</time>
      </trkpt>
      <trkpt lat="38.831939" lon="-0.412716">
        <ele>989.656</ele>
        <time>2022-07-10T07:47:02Z</time>
      </trkpt>
      <trkpt lat="38.831920" lon="-0.412765">
        <ele>989.435</ele>
        <time>2022-07-10T07:47:05Z</time>
      </trkpt>
      <trkpt lat="38.831914" lon="-0.412902">
        <ele>988.461</ele>
        <time>2022-07-10T07:47:13Z</time>
      </trkpt>
      <trkpt lat="38.831911" lon="-0.412925">
        <ele>988.254</ele>
        <time>2022-07-10T07:47:14Z</time>
      </trkpt>
      <trkpt lat="38.831892" lon="-0.412982">
        <ele>987.858</ele>
        <time>2022-07-10T07:47:17Z</time>
      </trkpt>
      <trkpt lat="38.831874" lon="-0.413010">
        <ele>987.864</ele>
        <time>2022-07-10T07:47:19Z</time>
      </trkpt>
      <trkpt lat="38.831872" lon="-0.413082">
        <ele>987.633</ele>
        <time>2022-07-10T07:47:23Z</time>
      </trkpt>
      <trkpt lat="38.831890" lon="-0.413112">
        <ele>987.223</ele>
        <time>2022-07-10T07:47:25Z</time>
      </trkpt>
      <trkpt lat="38.831891" lon="-0.413125">
        <ele>987.215</ele>
        <time>2022-07-10T07:47:26Z</time>
      </trkpt>
      <trkpt lat="38.831885" lon="-0.413155">
        <ele>987.009</ele>
        <time>2022-07-10T07:47:28Z</time>
      </trkpt>
      <trkpt lat="38.831845" lon="-0.413203">
        <ele>986.894</ele>
        <time>2022-07-10T07:47:31Z</time>
      </trkpt>
      <trkpt lat="38.831842" lon="-0.413217">
        <ele>986.873</ele>
        <time>2022-07-10T07:47:32Z</time>
      </trkpt>
      <trkpt lat="38.831839" lon="-0.413252">
        <ele>986.880</ele>
        <time>2022-07-10T07:47:35Z</time>
      </trkpt>
      <trkpt lat="38.831831" lon="-0.413279">
        <ele>986.858</ele>
        <time>2022-07-10T07:47:37Z</time>
      </trkpt>
      <trkpt lat="38.831820" lon="-0.413290">
        <ele>986.627</ele>
        <time>2022-07-10T07:47:38Z</time>
      </trkpt>
      <trkpt lat="38.831784" lon="-0.413313">
        <ele>986.443</ele>
        <time>2022-07-10T07:47:40Z</time>
      </trkpt>
      <trkpt lat="38.831782" lon="-0.413324">
        <ele>986.486</ele>
        <time>2022-07-10T07:47:41Z</time>
      </trkpt>
      <trkpt lat="38.831787" lon="-0.413360">
        <ele>986.220</ele>
        <time>2022-07-10T07:47:45Z</time>
      </trkpt>
      <trkpt lat="38.831802" lon="-0.413368">
        <ele>986.236</ele>
        <time>2022-07-10T07:47:46Z</time>
      </trkpt>
      <trkpt lat="38.831804" lon="-0.413375">
        <ele>986.035</ele>
        <time>2022-07-10T07:47:47Z</time>
      </trkpt>
      <trkpt lat="38.831815" lon="-0.413374">
        <ele>985.686</ele>
        <time>2022-07-10T07:47:49Z</time>
      </trkpt>
      <trkpt lat="38.831824" lon="-0.413359">
        <ele>985.014</ele>
        <time>2022-07-10T07:47:51Z</time>
      </trkpt>
      <trkpt lat="38.831846" lon="-0.413327">
        <ele>984.609</ele>
        <time>2022-07-10T07:47:54Z</time>
      </trkpt>
      <trkpt lat="38.831867" lon="-0.413296">
        <ele>984.094</ele>
        <time>2022-07-10T07:47:57Z</time>
      </trkpt>
      <trkpt lat="38.831913" lon="-0.413254">
        <ele>982.823</ele>
        <time>2022-07-10T07:48:02Z</time>
      </trkpt>
      <trkpt lat="38.831929" lon="-0.413228">
        <ele>982.240</ele>
        <time>2022-07-10T07:48:04Z</time>
      </trkpt>
      <trkpt lat="38.831957" lon="-0.413207">
        <ele>981.898</ele>
        <time>2022-07-10T07:48:07Z</time>
      </trkpt>
      <trkpt lat="38.831999" lon="-0.413196">
        <ele>981.287</ele>
        <time>2022-07-10T07:48:10Z</time>
      </trkpt>
      <trkpt lat="38.832014" lon="-0.413179">
        <ele>980.453</ele>
        <time>2022-07-10T07:48:12Z</time>
      </trkpt>
      <trkpt lat="38.832028" lon="-0.413171">
        <ele>980.026</ele>
        <time>2022-07-10T07:48:14Z</time>
      </trkpt>
      <trkpt lat="38.832041" lon="-0.413158">
        <ele>980.030</ele>
        <time>2022-07-10T07:48:16Z</time>
      </trkpt>
      <trkpt lat="38.832060" lon="-0.413133">
        <ele>979.486</ele>
        <time>2022-07-10T07:48:19Z</time>
      </trkpt>
      <trkpt lat="38.832069" lon="-0.413122">
        <ele>979.098</ele>
        <time>2022-07-10T07:48:20Z</time>
      </trkpt>
      <trkpt lat="38.832078" lon="-0.413111">
        <ele>979.015</ele>
        <time>2022-07-10T07:48:21Z</time>
      </trkpt>
      <trkpt lat="38.832097" lon="-0.413083">
        <ele>978.426</ele>
        <time>2022-07-10T07:48:24Z</time>
      </trkpt>
      <trkpt lat="38.832106" lon="-0.413077">
        <ele>978.009</ele>
        <time>2022-07-10T07:48:25Z</time>
      </trkpt>
      <trkpt lat="38.832123" lon="-0.413061">
        <ele>977.810</ele>
        <time>2022-07-10T07:48:27Z</time>
      </trkpt>
      <trkpt lat="38.832128" lon="-0.413052">
        <ele>977.679</ele>
        <time>2022-07-10T07:48:28Z</time>
      </trkpt>
      <trkpt lat="38.832150" lon="-0.413003">
        <ele>976.886</ele>
        <time>2022-07-10T07:48:32Z</time>
      </trkpt>
      <trkpt lat="38.832162" lon="-0.412984">
        <ele>976.624</ele>
        <time>2022-07-10T07:48:34Z</time>
      </trkpt>
      <trkpt lat="38.832183" lon="-0.412955">
        <ele>976.013</ele>
        <time>2022-07-10T07:48:37Z</time>
      </trkpt>
      <trkpt lat="38.832200" lon="-0.412936">
        <ele>975.669</ele>
        <time>2022-07-10T07:48:39Z</time>
      </trkpt>
      <trkpt lat="38.832201" lon="-0.412918">
        <ele>975.452</ele>
        <time>2022-07-10T07:48:41Z</time>
      </trkpt>
      <trkpt lat="38.832209" lon="-0.412894">
        <ele>975.286</ele>
        <time>2022-07-10T07:48:43Z</time>
      </trkpt>
      <trkpt lat="38.832223" lon="-0.412855">
        <ele>974.672</ele>
        <time>2022-07-10T07:48:46Z</time>
      </trkpt>
      <trkpt lat="38.832244" lon="-0.412830">
        <ele>974.242</ele>
        <time>2022-07-10T07:48:48Z</time>
      </trkpt>
      <trkpt lat="38.832264" lon="-0.412834">
        <ele>974.022</ele>
        <time>2022-07-10T07:48:50Z</time>
      </trkpt>
      <trkpt lat="38.832269" lon="-0.412858">
        <ele>973.614</ele>
        <time>2022-07-10T07:48:52Z</time>
      </trkpt>
      <trkpt lat="38.832269" lon="-0.412868">
        <ele>973.209</ele>
        <time>2022-07-10T07:48:53Z</time>
      </trkpt>
      <trkpt lat="38.832272" lon="-0.412882">
        <ele>973.055</ele>
        <time>2022-07-10T07:48:54Z</time>
      </trkpt>
      <trkpt lat="38.832280" lon="-0.412895">
        <ele>972.844</ele>
        <time>2022-07-10T07:48:55Z</time>
      </trkpt>
      <trkpt lat="38.832284" lon="-0.412901">
        <ele>972.421</ele>
        <time>2022-07-10T07:48:56Z</time>
      </trkpt>
      <trkpt lat="38.832271" lon="-0.412962">
        <ele>971.299</ele>
        <time>2022-07-10T07:49:01Z</time>
      </trkpt>
      <trkpt lat="38.832274" lon="-0.413014">
        <ele>970.428</ele>
        <time>2022-07-10T07:49:05Z</time>
      </trkpt>
      <trkpt lat="38.832277" lon="-0.413026">
        <ele>970.244</ele>
        <time>2022-07-10T07:49:06Z</time>
      </trkpt>
      <trkpt lat="38.832272" lon="-0.413051">
        <ele>969.897</ele>
        <time>2022-07-10T07:49:08Z</time>
      </trkpt>
      <trkpt lat="38.832273" lon="-0.413089">
        <ele>969.071</ele>
        <time>2022-07-10T07:49:11Z</time>
      </trkpt>
      <trkpt lat="38.832289" lon="-0.413138">
        <ele>968.237</ele>
        <time>2022-07-10T07:49:15Z</time>
      </trkpt>
      <trkpt lat="38.832297" lon="-0.413148">
        <ele>968.049</ele>
        <time>2022-07-10T07:49:16Z</time>
      </trkpt>
      <trkpt lat="38.832292" lon="-0.413207">
        <ele>967.002</ele>
        <time>2022-07-10T07:49:21Z</time>
      </trkpt>
      <trkpt lat="38.832290" lon="-0.413228">
        <ele>966.622</ele>
        <time>2022-07-10T07:49:23Z</time>
      </trkpt>
      <trkpt lat="38.832298" lon="-0.413253">
        <ele>965.809</ele>
        <time>2022-07-10T07:49:27Z</time>
      </trkpt>
      <trkpt lat="38.832297" lon="-0.413265">
        <ele>965.425</ele>
        <time>2022-07-10T07:49:28Z</time>
      </trkpt>
      <trkpt lat="38.832292" lon="-0.413275">
        <ele>965.254</ele>
        <time>2022-07-10T07:49:29Z</time>
      </trkpt>
      <trkpt lat="38.832266" lon="-0.413308">
        <ele>964.691</ele>
        <time>2022-07-10T07:49:32Z</time>
      </trkpt>
      <trkpt lat="38.832260" lon="-0.413322">
        <ele>964.499</ele>
        <time>2022-07-10T07:49:33Z</time>
      </trkpt>
      <trkpt lat="38.832257" lon="-0.413338">
        <ele>964.248</ele>
        <time>2022-07-10T07:49:34Z</time>
      </trkpt>
      <trkpt lat="38.832256" lon="-0.413353">
        <ele>964.044</ele>
        <time>2022-07-10T07:49:35Z</time>
      </trkpt>
      <trkpt lat="38.832256" lon="-0.413390">
        <ele>963.467</ele>
        <time>2022-07-10T07:49:38Z</time>
      </trkpt>
      <trkpt lat="38.832248" lon="-0.413428">
        <ele>962.821</ele>
        <time>2022-07-10T07:49:41Z</time>
      </trkpt>
      <trkpt lat="38.832238" lon="-0.413448">
        <ele>962.287</ele>
        <time>2022-07-10T07:49:44Z</time>
      </trkpt>
      <trkpt lat="38.832219" lon="-0.413486">
        <ele>961.496</ele>
        <time>2022-07-10T07:49:47Z</time>
      </trkpt>
      <trkpt lat="38.832211" lon="-0.413500">
        <ele>961.231</ele>
        <time>2022-07-10T07:49:49Z</time>
      </trkpt>
      <trkpt lat="38.832209" lon="-0.413543">
        <ele>960.224</ele>
        <time>2022-07-10T07:49:53Z</time>
      </trkpt>
      <trkpt lat="38.832207" lon="-0.413567">
        <ele>959.609</ele>
        <time>2022-07-10T07:49:55Z</time>
      </trkpt>
      <trkpt lat="38.832196" lon="-0.413597">
        <ele>959.090</ele>
        <time>2022-07-10T07:49:57Z</time>
      </trkpt>
      <trkpt lat="38.832198" lon="-0.413610">
        <ele>959.099</ele>
        <time>2022-07-10T07:49:58Z</time>
      </trkpt>
      <trkpt lat="38.832197" lon="-0.413645">
        <ele>958.456</ele>
        <time>2022-07-10T07:50:00Z</time>
      </trkpt>
      <trkpt lat="38.832216" lon="-0.413666">
        <ele>958.264</ele>
        <time>2022-07-10T07:50:02Z</time>
      </trkpt>
      <trkpt lat="38.832230" lon="-0.413678">
        <ele>958.013</ele>
        <time>2022-07-10T07:50:03Z</time>
      </trkpt>
      <trkpt lat="38.832243" lon="-0.413712">
        <ele>957.449</ele>
        <time>2022-07-10T07:50:05Z</time>
      </trkpt>
      <trkpt lat="38.832241" lon="-0.413721">
        <ele>957.242</ele>
        <time>2022-07-10T07:50:06Z</time>
      </trkpt>
      <trkpt lat="38.832244" lon="-0.413730">
        <ele>956.886</ele>
        <time>2022-07-10T07:50:08Z</time>
      </trkpt>
      <trkpt lat="38.832247" lon="-0.413733">
        <ele>956.612</ele>
        <time>2022-07-10T07:50:09Z</time>
      </trkpt>
      <trkpt lat="38.832221" lon="-0.413767">
        <ele>956.228</ele>
        <time>2022-07-10T07:50:11Z</time>
      </trkpt>
      <trkpt lat="38.832210" lon="-0.413798">
        <ele>955.889</ele>
        <time>2022-07-10T07:50:13Z</time>
      </trkpt>
      <trkpt lat="38.832184" lon="-0.413838">
        <ele>955.617</ele>
        <time>2022-07-10T07:50:15Z</time>
      </trkpt>
      <trkpt lat="38.832162" lon="-0.413884">
        <ele>955.409</ele>
        <time>2022-07-10T07:50:18Z</time>
      </trkpt>
      <trkpt lat="38.832166" lon="-0.413931">
        <ele>955.233</ele>
        <time>2022-07-10T07:50:21Z</time>
      </trkpt>
      <trkpt lat="38.832145" lon="-0.413980">
        <ele>955.222</ele>
        <time>2022-07-10T07:50:24Z</time>
      </trkpt>
      <trkpt lat="38.832142" lon="-0.413995">
        <ele>955.299</ele>
        <time>2022-07-10T07:50:25Z</time>
      </trkpt>
      <trkpt lat="38.832149" lon="-0.414024">
        <ele>955.287</ele>
        <time>2022-07-10T07:50:27Z</time>
      </trkpt>
      <trkpt lat="38.832149" lon="-0.414049">
        <ele>955.026</ele>
        <time>2022-07-10T07:50:29Z</time>
      </trkpt>
      <trkpt lat="38.832158" lon="-0.414096">
        <ele>955.042</ele>
        <time>2022-07-10T07:50:32Z</time>
      </trkpt>
      <trkpt lat="38.832117" lon="-0.414167">
        <ele>955.085</ele>
        <time>2022-07-10T07:50:36Z</time>
      </trkpt>
      <trkpt lat="38.832115" lon="-0.414176">
        <ele>955.249</ele>
        <time>2022-07-10T07:50:37Z</time>
      </trkpt>
      <trkpt lat="38.832123" lon="-0.414220">
        <ele>955.295</ele>
        <time>2022-07-10T07:50:40Z</time>
      </trkpt>
      <trkpt lat="38.832133" lon="-0.414245">
        <ele>955.252</ele>
        <time>2022-07-10T07:50:42Z</time>
      </trkpt>
      <trkpt lat="38.832103" lon="-0.414295">
        <ele>955.453</ele>
        <time>2022-07-10T07:50:45Z</time>
      </trkpt>
      <trkpt lat="38.832103" lon="-0.414323">
        <ele>955.408</ele>
        <time>2022-07-10T07:50:46Z</time>
      </trkpt>
      <trkpt lat="38.832126" lon="-0.414385">
        <ele>955.409</ele>
        <time>2022-07-10T07:50:49Z</time>
      </trkpt>
      <trkpt lat="38.832133" lon="-0.414406">
        <ele>955.496</ele>
        <time>2022-07-10T07:50:51Z</time>
      </trkpt>
      <trkpt lat="38.832127" lon="-0.414418">
        <ele>955.465</ele>
        <time>2022-07-10T07:50:52Z</time>
      </trkpt>
      <trkpt lat="38.832143" lon="-0.414460">
        <ele>955.662</ele>
        <time>2022-07-10T07:50:55Z</time>
      </trkpt>
      <trkpt lat="38.832164" lon="-0.414481">
        <ele>955.630</ele>
        <time>2022-07-10T07:50:57Z</time>
      </trkpt>
      <trkpt lat="38.832185" lon="-0.414511">
        <ele>955.859</ele>
        <time>2022-07-10T07:50:59Z</time>
      </trkpt>
      <trkpt lat="38.832185" lon="-0.414543">
        <ele>955.895</ele>
        <time>2022-07-10T07:51:01Z</time>
      </trkpt>
      <trkpt lat="38.832171" lon="-0.414592">
        <ele>956.058</ele>
        <time>2022-07-10T07:51:04Z</time>
      </trkpt>
      <trkpt lat="38.832153" lon="-0.414630">
        <ele>956.292</ele>
        <time>2022-07-10T07:51:07Z</time>
      </trkpt>
      <trkpt lat="38.832147" lon="-0.414648">
        <ele>956.218</ele>
        <time>2022-07-10T07:51:08Z</time>
      </trkpt>
      <trkpt lat="38.832129" lon="-0.414686">
        <ele>956.286</ele>
        <time>2022-07-10T07:51:11Z</time>
      </trkpt>
      <trkpt lat="38.832125" lon="-0.414718">
        <ele>956.260</ele>
        <time>2022-07-10T07:51:13Z</time>
      </trkpt>
      <trkpt lat="38.832159" lon="-0.414749">
        <ele>956.426</ele>
        <time>2022-07-10T07:51:15Z</time>
      </trkpt>
      <trkpt lat="38.832177" lon="-0.414767">
        <ele>956.609</ele>
        <time>2022-07-10T07:51:16Z</time>
      </trkpt>
      <trkpt lat="38.832148" lon="-0.414818">
        <ele>956.629</ele>
        <time>2022-07-10T07:51:18Z</time>
      </trkpt>
      <trkpt lat="38.832157" lon="-0.414834">
        <ele>956.698</ele>
        <time>2022-07-10T07:51:19Z</time>
      </trkpt>
      <trkpt lat="38.832180" lon="-0.414877">
        <ele>956.625</ele>
        <time>2022-07-10T07:51:21Z</time>
      </trkpt>
      <trkpt lat="38.832168" lon="-0.414915">
        <ele>956.683</ele>
        <time>2022-07-10T07:51:23Z</time>
      </trkpt>
      <trkpt lat="38.832176" lon="-0.414946">
        <ele>956.612</ele>
        <time>2022-07-10T07:51:25Z</time>
      </trkpt>
      <trkpt lat="38.832193" lon="-0.414986">
        <ele>956.448</ele>
        <time>2022-07-10T07:51:27Z</time>
      </trkpt>
      <trkpt lat="38.832202" lon="-0.415001">
        <ele>956.481</ele>
        <time>2022-07-10T07:51:28Z</time>
      </trkpt>
      <trkpt lat="38.832233" lon="-0.415063">
        <ele>956.425</ele>
        <time>2022-07-10T07:51:32Z</time>
      </trkpt>
      <trkpt lat="38.832321" lon="-0.415181">
        <ele>955.691</ele>
        <time>2022-07-10T07:51:39Z</time>
      </trkpt>
      <trkpt lat="38.832355" lon="-0.415243">
        <ele>955.251</ele>
        <time>2022-07-10T07:51:44Z</time>
      </trkpt>
      <trkpt lat="38.832326" lon="-0.415273">
        <ele>955.001</ele>
        <time>2022-07-10T07:51:45Z</time>
      </trkpt>
      <trkpt lat="38.832329" lon="-0.415313">
        <ele>955.011</ele>
        <time>2022-07-10T07:51:47Z</time>
      </trkpt>
      <trkpt lat="38.832334" lon="-0.415342">
        <ele>954.609</ele>
        <time>2022-07-10T07:51:49Z</time>
      </trkpt>
      <trkpt lat="38.832333" lon="-0.415355">
        <ele>954.426</ele>
        <time>2022-07-10T07:51:50Z</time>
      </trkpt>
      <trkpt lat="38.832331" lon="-0.415402">
        <ele>954.275</ele>
        <time>2022-07-10T07:51:53Z</time>
      </trkpt>
      <trkpt lat="38.832294" lon="-0.415465">
        <ele>953.812</ele>
        <time>2022-07-10T07:51:57Z</time>
      </trkpt>
      <trkpt lat="38.832286" lon="-0.415485">
        <ele>953.830</ele>
        <time>2022-07-10T07:51:58Z</time>
      </trkpt>
      <trkpt lat="38.832278" lon="-0.415492">
        <ele>953.869</ele>
        <time>2022-07-10T07:51:59Z</time>
      </trkpt>
      <trkpt lat="38.832279" lon="-0.415519">
        <ele>953.685</ele>
        <time>2022-07-10T07:52:01Z</time>
      </trkpt>
      <trkpt lat="38.832270" lon="-0.415529">
        <ele>953.498</ele>
        <time>2022-07-10T07:52:02Z</time>
      </trkpt>
      <trkpt lat="38.832261" lon="-0.415560">
        <ele>953.032</ele>
        <time>2022-07-10T07:52:04Z</time>
      </trkpt>
      <trkpt lat="38.832254" lon="-0.415579">
        <ele>952.828</ele>
        <time>2022-07-10T07:52:06Z</time>
      </trkpt>
      <trkpt lat="38.832250" lon="-0.415589">
        <ele>952.632</ele>
        <time>2022-07-10T07:52:07Z</time>
      </trkpt>
      <trkpt lat="38.832229" lon="-0.415697">
        <ele>952.092</ele>
        <time>2022-07-10T07:52:12Z</time>
      </trkpt>
      <trkpt lat="38.832245" lon="-0.415736">
        <ele>952.011</ele>
        <time>2022-07-10T07:52:14Z</time>
      </trkpt>
      <trkpt lat="38.832248" lon="-0.415775">
        <ele>951.809</ele>
        <time>2022-07-10T07:52:16Z</time>
      </trkpt>
      <trkpt lat="38.832248" lon="-0.415793">
        <ele>951.854</ele>
        <time>2022-07-10T07:52:17Z</time>
      </trkpt>
      <trkpt lat="38.832239" lon="-0.415813">
        <ele>951.813</ele>
        <time>2022-07-10T07:52:18Z</time>
      </trkpt>
      <trkpt lat="38.832203" lon="-0.415857">
        <ele>951.670</ele>
        <time>2022-07-10T07:52:20Z</time>
      </trkpt>
      <trkpt lat="38.832172" lon="-0.415902">
        <ele>951.458</ele>
        <time>2022-07-10T07:52:22Z</time>
      </trkpt>
      <trkpt lat="38.832169" lon="-0.415998">
        <ele>950.817</ele>
        <time>2022-07-10T07:52:27Z</time>
      </trkpt>
      <trkpt lat="38.832184" lon="-0.416033">
        <ele>950.483</ele>
        <time>2022-07-10T07:52:29Z</time>
      </trkpt>
      <trkpt lat="38.832199" lon="-0.416120">
        <ele>949.866</ele>
        <time>2022-07-10T07:52:35Z</time>
      </trkpt>
      <trkpt lat="38.832198" lon="-0.416156">
        <ele>949.230</ele>
        <time>2022-07-10T07:52:37Z</time>
      </trkpt>
      <trkpt lat="38.832193" lon="-0.416195">
        <ele>948.626</ele>
        <time>2022-07-10T07:52:40Z</time>
      </trkpt>
      <trkpt lat="38.832190" lon="-0.416223">
        <ele>948.474</ele>
        <time>2022-07-10T07:52:42Z</time>
      </trkpt>
      <trkpt lat="38.832186" lon="-0.416237">
        <ele>948.256</ele>
        <time>2022-07-10T07:52:43Z</time>
      </trkpt>
      <trkpt lat="38.832181" lon="-0.416253">
        <ele>948.021</ele>
        <time>2022-07-10T07:52:44Z</time>
      </trkpt>
      <trkpt lat="38.832165" lon="-0.416313">
        <ele>947.609</ele>
        <time>2022-07-10T07:52:48Z</time>
      </trkpt>
      <trkpt lat="38.832139" lon="-0.416378">
        <ele>947.228</ele>
        <time>2022-07-10T07:52:52Z</time>
      </trkpt>
      <trkpt lat="38.832105" lon="-0.416417">
        <ele>946.897</ele>
        <time>2022-07-10T07:52:55Z</time>
      </trkpt>
      <trkpt lat="38.832092" lon="-0.416466">
        <ele>946.654</ele>
        <time>2022-07-10T07:52:58Z</time>
      </trkpt>
      <trkpt lat="38.832096" lon="-0.416513">
        <ele>946.692</ele>
        <time>2022-07-10T07:53:01Z</time>
      </trkpt>
      <trkpt lat="38.832090" lon="-0.416578">
        <ele>946.481</ele>
        <time>2022-07-10T07:53:05Z</time>
      </trkpt>
      <trkpt lat="38.832091" lon="-0.416639">
        <ele>946.637</ele>
        <time>2022-07-10T07:53:08Z</time>
      </trkpt>
      <trkpt lat="38.832081" lon="-0.416691">
        <ele>946.820</ele>
        <time>2022-07-10T07:53:11Z</time>
      </trkpt>
      <trkpt lat="38.832082" lon="-0.416704">
        <ele>947.084</ele>
        <time>2022-07-10T07:53:12Z</time>
      </trkpt>
      <trkpt lat="38.832081" lon="-0.416730">
        <ele>947.240</ele>
        <time>2022-07-10T07:53:14Z</time>
      </trkpt>
      <trkpt lat="38.832062" lon="-0.416750">
        <ele>947.437</ele>
        <time>2022-07-10T07:53:16Z</time>
      </trkpt>
      <trkpt lat="38.832051" lon="-0.416777">
        <ele>947.249</ele>
        <time>2022-07-10T07:53:18Z</time>
      </trkpt>
      <trkpt lat="38.832012" lon="-0.416861">
        <ele>946.613</ele>
        <time>2022-07-10T07:53:23Z</time>
      </trkpt>
      <trkpt lat="38.832010" lon="-0.416879">
        <ele>946.409</ele>
        <time>2022-07-10T07:53:24Z</time>
      </trkpt>
      <trkpt lat="38.832009" lon="-0.416917">
        <ele>946.044</ele>
        <time>2022-07-10T07:53:27Z</time>
      </trkpt>
      <trkpt lat="38.832008" lon="-0.416932">
        <ele>945.873</ele>
        <time>2022-07-10T07:53:28Z</time>
      </trkpt>
      <trkpt lat="38.831984" lon="-0.416959">
        <ele>945.460</ele>
        <time>2022-07-10T07:53:30Z</time>
      </trkpt>
      <trkpt lat="38.831966" lon="-0.416974">
        <ele>945.248</ele>
        <time>2022-07-10T07:53:31Z</time>
      </trkpt>
      <trkpt lat="38.831958" lon="-0.416989">
        <ele>945.077</ele>
        <time>2022-07-10T07:53:32Z</time>
      </trkpt>
      <trkpt lat="38.831959" lon="-0.417002">
        <ele>944.823</ele>
        <time>2022-07-10T07:53:33Z</time>
      </trkpt>
      <trkpt lat="38.831956" lon="-0.417036">
        <ele>944.476</ele>
        <time>2022-07-10T07:53:35Z</time>
      </trkpt>
      <trkpt lat="38.831949" lon="-0.417096">
        <ele>944.080</ele>
        <time>2022-07-10T07:53:38Z</time>
      </trkpt>
      <trkpt lat="38.831954" lon="-0.417123">
        <ele>943.846</ele>
        <time>2022-07-10T07:53:40Z</time>
      </trkpt>
      <trkpt lat="38.831962" lon="-0.417139">
        <ele>943.643</ele>
        <time>2022-07-10T07:53:41Z</time>
      </trkpt>
      <trkpt lat="38.832003" lon="-0.417170">
        <ele>942.864</ele>
        <time>2022-07-10T07:53:44Z</time>
      </trkpt>
      <trkpt lat="38.832016" lon="-0.417170">
        <ele>942.610</ele>
        <time>2022-07-10T07:53:45Z</time>
      </trkpt>
      <trkpt lat="38.832024" lon="-0.417157">
        <ele>942.209</ele>
        <time>2022-07-10T07:53:46Z</time>
      </trkpt>
      <trkpt lat="38.832031" lon="-0.417120">
        <ele>941.695</ele>
        <time>2022-07-10T07:53:49Z</time>
      </trkpt>
      <trkpt lat="38.832035" lon="-0.417114">
        <ele>941.474</ele>
        <time>2022-07-10T07:53:50Z</time>
      </trkpt>
      <trkpt lat="38.832067" lon="-0.417082">
        <ele>940.691</ele>
        <time>2022-07-10T07:53:53Z</time>
      </trkpt>
      <trkpt lat="38.832081" lon="-0.417072">
        <ele>940.299</ele>
        <time>2022-07-10T07:53:54Z</time>
      </trkpt>
      <trkpt lat="38.832113" lon="-0.417028">
        <ele>939.088</ele>
        <time>2022-07-10T07:53:59Z</time>
      </trkpt>
      <trkpt lat="38.832142" lon="-0.417007">
        <ele>938.634</ele>
        <time>2022-07-10T07:54:01Z</time>
      </trkpt>
      <trkpt lat="38.832147" lon="-0.417000">
        <ele>938.297</ele>
        <time>2022-07-10T07:54:02Z</time>
      </trkpt>
      <trkpt lat="38.832153" lon="-0.416979">
        <ele>937.841</ele>
        <time>2022-07-10T07:54:04Z</time>
      </trkpt>
      <trkpt lat="38.832160" lon="-0.416966">
        <ele>937.887</ele>
        <time>2022-07-10T07:54:05Z</time>
      </trkpt>
      <trkpt lat="38.832177" lon="-0.416958">
        <ele>937.441</ele>
        <time>2022-07-10T07:54:06Z</time>
      </trkpt>
      <trkpt lat="38.832193" lon="-0.416951">
        <ele>937.281</ele>
        <time>2022-07-10T07:54:08Z</time>
      </trkpt>
      <trkpt lat="38.832196" lon="-0.416985">
        <ele>936.809</ele>
        <time>2022-07-10T07:54:11Z</time>
      </trkpt>
      <trkpt lat="38.832175" lon="-0.417083">
        <ele>935.609</ele>
        <time>2022-07-10T07:54:19Z</time>
      </trkpt>
      <trkpt lat="38.832169" lon="-0.417093">
        <ele>935.425</ele>
        <time>2022-07-10T07:54:20Z</time>
      </trkpt>
      <trkpt lat="38.832131" lon="-0.417194">
        <ele>934.844</ele>
        <time>2022-07-10T07:54:27Z</time>
      </trkpt>
      <trkpt lat="38.832131" lon="-0.417209">
        <ele>934.641</ele>
        <time>2022-07-10T07:54:28Z</time>
      </trkpt>
      <trkpt lat="38.832125" lon="-0.417225">
        <ele>934.469</ele>
        <time>2022-07-10T07:54:29Z</time>
      </trkpt>
      <trkpt lat="38.832097" lon="-0.417274">
        <ele>934.228</ele>
        <time>2022-07-10T07:54:32Z</time>
      </trkpt>
      <trkpt lat="38.832105" lon="-0.417308">
        <ele>934.024</ele>
        <time>2022-07-10T07:54:34Z</time>
      </trkpt>
      <trkpt lat="38.832124" lon="-0.417332">
        <ele>933.667</ele>
        <time>2022-07-10T07:54:37Z</time>
      </trkpt>
      <trkpt lat="38.832130" lon="-0.417317">
        <ele>933.411</ele>
        <time>2022-07-10T07:54:38Z</time>
      </trkpt>
      <trkpt lat="38.832133" lon="-0.417305">
        <ele>933.237</ele>
        <time>2022-07-10T07:54:39Z</time>
      </trkpt>
      <trkpt lat="38.832144" lon="-0.417250">
        <ele>932.431</ele>
        <time>2022-07-10T07:54:43Z</time>
      </trkpt>
      <trkpt lat="38.832155" lon="-0.417230">
        <ele>932.261</ele>
        <time>2022-07-10T07:54:45Z</time>
      </trkpt>
      <trkpt lat="38.832182" lon="-0.417173">
        <ele>931.407</ele>
        <time>2022-07-10T07:54:49Z</time>
      </trkpt>
      <trkpt lat="38.832225" lon="-0.417125">
        <ele>930.409</ele>
        <time>2022-07-10T07:54:54Z</time>
      </trkpt>
      <trkpt lat="38.832230" lon="-0.417113">
        <ele>930.484</ele>
        <time>2022-07-10T07:54:55Z</time>
      </trkpt>
      <trkpt lat="38.832271" lon="-0.417031">
        <ele>929.293</ele>
        <time>2022-07-10T07:55:01Z</time>
      </trkpt>
      <trkpt lat="38.832276" lon="-0.417001">
        <ele>929.090</ele>
        <time>2022-07-10T07:55:03Z</time>
      </trkpt>
      <trkpt lat="38.832276" lon="-0.416943">
        <ele>928.268</ele>
        <time>2022-07-10T07:55:08Z</time>
      </trkpt>
      <trkpt lat="38.832288" lon="-0.416931">
        <ele>928.237</ele>
        <time>2022-07-10T07:55:09Z</time>
      </trkpt>
      <trkpt lat="38.832295" lon="-0.416919">
        <ele>928.083</ele>
        <time>2022-07-10T07:55:10Z</time>
      </trkpt>
      <trkpt lat="38.832302" lon="-0.416894">
        <ele>927.696</ele>
        <time>2022-07-10T07:55:12Z</time>
      </trkpt>
      <trkpt lat="38.832333" lon="-0.416850">
        <ele>927.080</ele>
        <time>2022-07-10T07:55:16Z</time>
      </trkpt>
      <trkpt lat="38.832342" lon="-0.416845">
        <ele>926.676</ele>
        <time>2022-07-10T07:55:17Z</time>
      </trkpt>
      <trkpt lat="38.832390" lon="-0.416821">
        <ele>926.242</ele>
        <time>2022-07-10T07:55:20Z</time>
      </trkpt>
      <trkpt lat="38.832405" lon="-0.416813">
        <ele>926.022</ele>
        <time>2022-07-10T07:55:21Z</time>
      </trkpt>
      <trkpt lat="38.832418" lon="-0.416804">
        <ele>925.814</ele>
        <time>2022-07-10T07:55:22Z</time>
      </trkpt>
      <trkpt lat="38.832427" lon="-0.416792">
        <ele>925.609</ele>
        <time>2022-07-10T07:55:23Z</time>
      </trkpt>
      <trkpt lat="38.832419" lon="-0.416768">
        <ele>925.275</ele>
        <time>2022-07-10T07:55:25Z</time>
      </trkpt>
      <trkpt lat="38.832425" lon="-0.416759">
        <ele>924.884</ele>
        <time>2022-07-10T07:55:26Z</time>
      </trkpt>
      <trkpt lat="38.832424" lon="-0.416744">
        <ele>924.891</ele>
        <time>2022-07-10T07:55:27Z</time>
      </trkpt>
      <trkpt lat="38.832426" lon="-0.416713">
        <ele>924.449</ele>
        <time>2022-07-10T07:55:29Z</time>
      </trkpt>
      <trkpt lat="38.832449" lon="-0.416668">
        <ele>923.428</ele>
        <time>2022-07-10T07:55:32Z</time>
      </trkpt>
      <trkpt lat="38.832455" lon="-0.416615">
        <ele>922.844</ele>
        <time>2022-07-10T07:55:36Z</time>
      </trkpt>
      <trkpt lat="38.832477" lon="-0.416594">
        <ele>922.417</ele>
        <time>2022-07-10T07:55:38Z</time>
      </trkpt>
      <trkpt lat="38.832479" lon="-0.416533">
        <ele>921.221</ele>
        <time>2022-07-10T07:55:43Z</time>
      </trkpt>
      <trkpt lat="38.832481" lon="-0.416496">
        <ele>920.297</ele>
        <time>2022-07-10T07:55:46Z</time>
      </trkpt>
      <trkpt lat="38.832489" lon="-0.416484">
        <ele>920.278</ele>
        <time>2022-07-10T07:55:47Z</time>
      </trkpt>
      <trkpt lat="38.832501" lon="-0.416470">
        <ele>920.033</ele>
        <time>2022-07-10T07:55:48Z</time>
      </trkpt>
      <trkpt lat="38.832518" lon="-0.416424">
        <ele>919.026</ele>
        <time>2022-07-10T07:55:52Z</time>
      </trkpt>
      <trkpt lat="38.832535" lon="-0.416366">
        <ele>917.809</ele>
        <time>2022-07-10T07:55:57Z</time>
      </trkpt>
      <trkpt lat="38.832521" lon="-0.416338">
        <ele>917.018</ele>
        <time>2022-07-10T07:56:00Z</time>
      </trkpt>
      <trkpt lat="38.832521" lon="-0.416332">
        <ele>917.037</ele>
        <time>2022-07-10T07:56:01Z</time>
      </trkpt>
      <trkpt lat="38.832521" lon="-0.416324">
        <ele>916.614</ele>
        <time>2022-07-10T07:56:02Z</time>
      </trkpt>
      <trkpt lat="38.832509" lon="-0.416291">
        <ele>916.252</ele>
        <time>2022-07-10T07:56:05Z</time>
      </trkpt>
      <trkpt lat="38.832492" lon="-0.416267">
        <ele>915.611</ele>
        <time>2022-07-10T07:56:07Z</time>
      </trkpt>
      <trkpt lat="38.832492" lon="-0.416262">
        <ele>915.087</ele>
        <time>2022-07-10T07:56:09Z</time>
      </trkpt>
      <trkpt lat="38.832503" lon="-0.416260">
        <ele>914.840</ele>
        <time>2022-07-10T07:56:10Z</time>
      </trkpt>
      <trkpt lat="38.832504" lon="-0.416259">
        <ele>914.654</ele>
        <time>2022-07-10T07:56:11Z</time>
      </trkpt>
      <trkpt lat="38.832503" lon="-0.416231">
        <ele>913.810</ele>
        <time>2022-07-10T07:56:14Z</time>
      </trkpt>
      <trkpt lat="38.832512" lon="-0.416217">
        <ele>913.677</ele>
        <time>2022-07-10T07:56:15Z</time>
      </trkpt>
      <trkpt lat="38.832524" lon="-0.416200">
        <ele>913.461</ele>
        <time>2022-07-10T07:56:16Z</time>
      </trkpt>
      <trkpt lat="38.832533" lon="-0.416191">
        <ele>912.427</ele>
        <time>2022-07-10T07:56:21Z</time>
      </trkpt>
      <trkpt lat="38.832537" lon="-0.416198">
        <ele>912.209</ele>
        <time>2022-07-10T07:56:22Z</time>
      </trkpt>
      <trkpt lat="38.832551" lon="-0.416223">
        <ele>911.678</ele>
        <time>2022-07-10T07:56:24Z</time>
      </trkpt>
      <trkpt lat="38.832574" lon="-0.416252">
        <ele>911.417</ele>
        <time>2022-07-10T07:56:26Z</time>
      </trkpt>
      <trkpt lat="38.832582" lon="-0.416255">
        <ele>911.094</ele>
        <time>2022-07-10T07:56:27Z</time>
      </trkpt>
      <trkpt lat="38.832594" lon="-0.416237">
        <ele>910.692</ele>
        <time>2022-07-10T07:56:29Z</time>
      </trkpt>
      <trkpt lat="38.832594" lon="-0.416212">
        <ele>910.431</ele>
        <time>2022-07-10T07:56:31Z</time>
      </trkpt>
      <trkpt lat="38.832597" lon="-0.416197">
        <ele>910.067</ele>
        <time>2022-07-10T07:56:32Z</time>
      </trkpt>
      <trkpt lat="38.832589" lon="-0.416188">
        <ele>909.870</ele>
        <time>2022-07-10T07:56:33Z</time>
      </trkpt>
      <trkpt lat="38.832577" lon="-0.416158">
        <ele>909.074</ele>
        <time>2022-07-10T07:56:36Z</time>
      </trkpt>
      <trkpt lat="38.832568" lon="-0.416147">
        <ele>908.820</ele>
        <time>2022-07-10T07:56:37Z</time>
      </trkpt>
      <trkpt lat="38.832551" lon="-0.416124">
        <ele>908.467</ele>
        <time>2022-07-10T07:56:39Z</time>
      </trkpt>
      <trkpt lat="38.832557" lon="-0.416078">
        <ele>907.681</ele>
        <time>2022-07-10T07:56:42Z</time>
      </trkpt>
      <trkpt lat="38.832557" lon="-0.416059">
        <ele>907.619</ele>
        <time>2022-07-10T07:56:43Z</time>
      </trkpt>
      <trkpt lat="38.832544" lon="-0.416028">
        <ele>907.209</ele>
        <time>2022-07-10T07:56:45Z</time>
      </trkpt>
      <trkpt lat="38.832534" lon="-0.416000">
        <ele>906.647</ele>
        <time>2022-07-10T07:56:47Z</time>
      </trkpt>
      <trkpt lat="38.832542" lon="-0.415993">
        <ele>906.436</ele>
        <time>2022-07-10T07:56:48Z</time>
      </trkpt>
      <trkpt lat="38.832564" lon="-0.416003">
        <ele>905.673</ele>
        <time>2022-07-10T07:56:52Z</time>
      </trkpt>
      <trkpt lat="38.832573" lon="-0.416017">
        <ele>905.441</ele>
        <time>2022-07-10T07:56:53Z</time>
      </trkpt>
      <trkpt lat="38.832577" lon="-0.416029">
        <ele>905.460</ele>
        <time>2022-07-10T07:56:54Z</time>
      </trkpt>
      <trkpt lat="38.832594" lon="-0.416052">
        <ele>905.016</ele>
        <time>2022-07-10T07:56:56Z</time>
      </trkpt>
      <trkpt lat="38.832582" lon="-0.416083">
        <ele>904.679</ele>
        <time>2022-07-10T07:56:58Z</time>
      </trkpt>
      <trkpt lat="38.832586" lon="-0.416095">
        <ele>904.683</ele>
        <time>2022-07-10T07:56:59Z</time>
      </trkpt>
      <trkpt lat="38.832598" lon="-0.416104">
        <ele>904.479</ele>
        <time>2022-07-10T07:57:00Z</time>
      </trkpt>
      <trkpt lat="38.832596" lon="-0.416142">
        <ele>904.014</ele>
        <time>2022-07-10T07:57:03Z</time>
      </trkpt>
      <trkpt lat="38.832622" lon="-0.416150">
        <ele>903.854</ele>
        <time>2022-07-10T07:57:05Z</time>
      </trkpt>
      <trkpt lat="38.832635" lon="-0.416156">
        <ele>903.409</ele>
        <time>2022-07-10T07:57:07Z</time>
      </trkpt>
      <trkpt lat="38.832635" lon="-0.416140">
        <ele>903.009</ele>
        <time>2022-07-10T07:57:09Z</time>
      </trkpt>
      <trkpt lat="38.832650" lon="-0.416093">
        <ele>902.232</ele>
        <time>2022-07-10T07:57:13Z</time>
      </trkpt>
      <trkpt lat="38.832654" lon="-0.416070">
        <ele>901.851</ele>
        <time>2022-07-10T07:57:15Z</time>
      </trkpt>
      <trkpt lat="38.832658" lon="-0.416058">
        <ele>901.668</ele>
        <time>2022-07-10T07:57:16Z</time>
      </trkpt>
      <trkpt lat="38.832665" lon="-0.416042">
        <ele>901.426</ele>
        <time>2022-07-10T07:57:17Z</time>
      </trkpt>
      <trkpt lat="38.832668" lon="-0.416018">
        <ele>901.215</ele>
        <time>2022-07-10T07:57:19Z</time>
      </trkpt>
      <trkpt lat="38.832666" lon="-0.415951">
        <ele>900.621</ele>
        <time>2022-07-10T07:57:24Z</time>
      </trkpt>
      <trkpt lat="38.832674" lon="-0.415903">
        <ele>900.054</ele>
        <time>2022-07-10T07:57:27Z</time>
      </trkpt>
      <trkpt lat="38.832664" lon="-0.415871">
        <ele>899.458</ele>
        <time>2022-07-10T07:57:30Z</time>
      </trkpt>
      <trkpt lat="38.832661" lon="-0.415833">
        <ele>898.894</ele>
        <time>2022-07-10T07:57:33Z</time>
      </trkpt>
      <trkpt lat="38.832660" lon="-0.415797">
        <ele>898.454</ele>
        <time>2022-07-10T07:57:35Z</time>
      </trkpt>
      <trkpt lat="38.832667" lon="-0.415740">
        <ele>897.856</ele>
        <time>2022-07-10T07:57:38Z</time>
      </trkpt>
      <trkpt lat="38.832668" lon="-0.415725">
        <ele>897.611</ele>
        <time>2022-07-10T07:57:39Z</time>
      </trkpt>
      <trkpt lat="38.832671" lon="-0.415691">
        <ele>897.409</ele>
        <time>2022-07-10T07:57:41Z</time>
      </trkpt>
      <trkpt lat="38.832677" lon="-0.415679">
        <ele>897.296</ele>
        <time>2022-07-10T07:57:42Z</time>
      </trkpt>
      <trkpt lat="38.832714" lon="-0.415641">
        <ele>896.665</ele>
        <time>2022-07-10T07:57:44Z</time>
      </trkpt>
      <trkpt lat="38.832719" lon="-0.415626">
        <ele>896.472</ele>
        <time>2022-07-10T07:57:45Z</time>
      </trkpt>
      <trkpt lat="38.832720" lon="-0.415614">
        <ele>896.450</ele>
        <time>2022-07-10T07:57:46Z</time>
      </trkpt>
      <trkpt lat="38.832713" lon="-0.415539">
        <ele>895.679</ele>
        <time>2022-07-10T07:57:51Z</time>
      </trkpt>
      <trkpt lat="38.832710" lon="-0.415520">
        <ele>895.675</ele>
        <time>2022-07-10T07:57:52Z</time>
      </trkpt>
      <trkpt lat="38.832738" lon="-0.415486">
        <ele>895.278</ele>
        <time>2022-07-10T07:57:54Z</time>
      </trkpt>
      <trkpt lat="38.832760" lon="-0.415460">
        <ele>894.852</ele>
        <time>2022-07-10T07:57:56Z</time>
      </trkpt>
      <trkpt lat="38.832761" lon="-0.415446">
        <ele>894.868</ele>
        <time>2022-07-10T07:57:57Z</time>
      </trkpt>
      <trkpt lat="38.832760" lon="-0.415425">
        <ele>894.828</ele>
        <time>2022-07-10T07:57:58Z</time>
      </trkpt>
      <trkpt lat="38.832759" lon="-0.415398">
        <ele>894.689</ele>
        <time>2022-07-10T07:58:00Z</time>
      </trkpt>
      <trkpt lat="38.832774" lon="-0.415377">
        <ele>894.417</ele>
        <time>2022-07-10T07:58:02Z</time>
      </trkpt>
      <trkpt lat="38.832806" lon="-0.415340">
        <ele>894.009</ele>
        <time>2022-07-10T07:58:06Z</time>
      </trkpt>
      <trkpt lat="38.832823" lon="-0.415318">
        <ele>893.833</ele>
        <time>2022-07-10T07:58:08Z</time>
      </trkpt>
      <trkpt lat="38.832828" lon="-0.415302">
        <ele>893.612</ele>
        <time>2022-07-10T07:58:09Z</time>
      </trkpt>
      <trkpt lat="38.832829" lon="-0.415290">
        <ele>893.639</ele>
        <time>2022-07-10T07:58:10Z</time>
      </trkpt>
      <trkpt lat="38.832847" lon="-0.415217">
        <ele>893.657</ele>
        <time>2022-07-10T07:58:14Z</time>
      </trkpt>
      <trkpt lat="38.832852" lon="-0.415201">
        <ele>893.466</ele>
        <time>2022-07-10T07:58:15Z</time>
      </trkpt>
      <trkpt lat="38.832864" lon="-0.415186">
        <ele>893.432</ele>
        <time>2022-07-10T07:58:16Z</time>
      </trkpt>
      <trkpt lat="38.832893" lon="-0.415161">
        <ele>893.475</ele>
        <time>2022-07-10T07:58:18Z</time>
      </trkpt>
      <trkpt lat="38.832930" lon="-0.415128">
        <ele>893.459</ele>
        <time>2022-07-10T07:58:21Z</time>
      </trkpt>
      <trkpt lat="38.832945" lon="-0.415113">
        <ele>893.295</ele>
        <time>2022-07-10T07:58:23Z</time>
      </trkpt>
      <trkpt lat="38.832934" lon="-0.415086">
        <ele>893.286</ele>
        <time>2022-07-10T07:58:25Z</time>
      </trkpt>
      <trkpt lat="38.832913" lon="-0.415053">
        <ele>893.060</ele>
        <time>2022-07-10T07:58:27Z</time>
      </trkpt>
      <trkpt lat="38.832906" lon="-0.415023">
        <ele>893.026</ele>
        <time>2022-07-10T07:58:29Z</time>
      </trkpt>
      <trkpt lat="38.832905" lon="-0.414988">
        <ele>892.609</ele>
        <time>2022-07-10T07:58:31Z</time>
      </trkpt>
      <trkpt lat="38.832908" lon="-0.414974">
        <ele>892.469</ele>
        <time>2022-07-10T07:58:32Z</time>
      </trkpt>
      <trkpt lat="38.832913" lon="-0.414948">
        <ele>892.068</ele>
        <time>2022-07-10T07:58:34Z</time>
      </trkpt>
      <trkpt lat="38.832928" lon="-0.414919">
        <ele>891.845</ele>
        <time>2022-07-10T07:58:36Z</time>
      </trkpt>
      <trkpt lat="38.832920" lon="-0.414896">
        <ele>891.893</ele>
        <time>2022-07-10T07:58:38Z</time>
      </trkpt>
      <trkpt lat="38.832911" lon="-0.414877">
        <ele>891.492</ele>
        <time>2022-07-10T07:58:39Z</time>
      </trkpt>
      <trkpt lat="38.832916" lon="-0.414860">
        <ele>891.278</ele>
        <time>2022-07-10T07:58:40Z</time>
      </trkpt>
      <trkpt lat="38.832937" lon="-0.414817">
        <ele>890.881</ele>
        <time>2022-07-10T07:58:43Z</time>
      </trkpt>
      <trkpt lat="38.832938" lon="-0.414789">
        <ele>890.685</ele>
        <time>2022-07-10T07:58:45Z</time>
      </trkpt>
      <trkpt lat="38.832925" lon="-0.414780">
        <ele>890.421</ele>
        <time>2022-07-10T07:58:46Z</time>
      </trkpt>
      <trkpt lat="38.832898" lon="-0.414764">
        <ele>889.843</ele>
        <time>2022-07-10T07:58:48Z</time>
      </trkpt>
      <trkpt lat="38.832874" lon="-0.414741">
        <ele>889.664</ele>
        <time>2022-07-10T07:58:50Z</time>
      </trkpt>
      <trkpt lat="38.832871" lon="-0.414731">
        <ele>889.410</ele>
        <time>2022-07-10T07:58:51Z</time>
      </trkpt>
      <trkpt lat="38.832874" lon="-0.414708">
        <ele>889.209</ele>
        <time>2022-07-10T07:58:53Z</time>
      </trkpt>
      <trkpt lat="38.832876" lon="-0.414672">
        <ele>888.615</ele>
        <time>2022-07-10T07:58:56Z</time>
      </trkpt>
      <trkpt lat="38.832871" lon="-0.414663">
        <ele>888.284</ele>
        <time>2022-07-10T07:58:57Z</time>
      </trkpt>
      <trkpt lat="38.832864" lon="-0.414649">
        <ele>888.211</ele>
        <time>2022-07-10T07:58:58Z</time>
      </trkpt>
      <trkpt lat="38.832841" lon="-0.414570">
        <ele>887.619</ele>
        <time>2022-07-10T07:59:03Z</time>
      </trkpt>
      <trkpt lat="38.832823" lon="-0.414525">
        <ele>887.248</ele>
        <time>2022-07-10T07:59:06Z</time>
      </trkpt>
      <trkpt lat="38.832820" lon="-0.414504">
        <ele>887.094</ele>
        <time>2022-07-10T07:59:07Z</time>
      </trkpt>
      <trkpt lat="38.832816" lon="-0.414483">
        <ele>886.867</ele>
        <time>2022-07-10T07:59:08Z</time>
      </trkpt>
      <trkpt lat="38.832786" lon="-0.414405">
        <ele>885.881</ele>
        <time>2022-07-10T07:59:14Z</time>
      </trkpt>
      <trkpt lat="38.832777" lon="-0.414376">
        <ele>885.487</ele>
        <time>2022-07-10T07:59:16Z</time>
      </trkpt>
      <trkpt lat="38.832775" lon="-0.414362">
        <ele>885.499</ele>
        <time>2022-07-10T07:59:17Z</time>
      </trkpt>
      <trkpt lat="38.832773" lon="-0.414329">
        <ele>884.807</ele>
        <time>2022-07-10T07:59:20Z</time>
      </trkpt>
      <trkpt lat="38.832775" lon="-0.414324">
        <ele>884.627</ele>
        <time>2022-07-10T07:59:21Z</time>
      </trkpt>
      <trkpt lat="38.832787" lon="-0.414314">
        <ele>884.209</ele>
        <time>2022-07-10T07:59:24Z</time>
      </trkpt>
      <trkpt lat="38.832815" lon="-0.414277">
        <ele>883.820</ele>
        <time>2022-07-10T07:59:27Z</time>
      </trkpt>
      <trkpt lat="38.832836" lon="-0.414257">
        <ele>883.849</ele>
        <time>2022-07-10T07:59:28Z</time>
      </trkpt>
      <trkpt lat="38.832850" lon="-0.414227">
        <ele>883.626</ele>
        <time>2022-07-10T07:59:30Z</time>
      </trkpt>
      <trkpt lat="38.832859" lon="-0.414203">
        <ele>883.494</ele>
        <time>2022-07-10T07:59:32Z</time>
      </trkpt>
      <trkpt lat="38.832873" lon="-0.414190">
        <ele>883.413</ele>
        <time>2022-07-10T07:59:33Z</time>
      </trkpt>
      <trkpt lat="38.832883" lon="-0.414138">
        <ele>883.049</ele>
        <time>2022-07-10T07:59:36Z</time>
      </trkpt>
      <trkpt lat="38.832893" lon="-0.414104">
        <ele>882.612</ele>
        <time>2022-07-10T07:59:38Z</time>
      </trkpt>
      <trkpt lat="38.832901" lon="-0.414054">
        <ele>882.236</ele>
        <time>2022-07-10T07:59:41Z</time>
      </trkpt>
      <trkpt lat="38.832898" lon="-0.414029">
        <ele>881.842</ele>
        <time>2022-07-10T07:59:43Z</time>
      </trkpt>
      <trkpt lat="38.832898" lon="-0.414001">
        <ele>881.447</ele>
        <time>2022-07-10T07:59:45Z</time>
      </trkpt>
      <trkpt lat="38.832895" lon="-0.413970">
        <ele>881.229</ele>
        <time>2022-07-10T07:59:47Z</time>
      </trkpt>
      <trkpt lat="38.832883" lon="-0.413940">
        <ele>881.021</ele>
        <time>2022-07-10T07:59:49Z</time>
      </trkpt>
      <trkpt lat="38.832879" lon="-0.413912">
        <ele>880.809</ele>
        <time>2022-07-10T07:59:51Z</time>
      </trkpt>
      <trkpt lat="38.832891" lon="-0.413837">
        <ele>880.835</ele>
        <time>2022-07-10T07:59:56Z</time>
      </trkpt>
      <trkpt lat="38.832913" lon="-0.413796">
        <ele>881.014</ele>
        <time>2022-07-10T07:59:59Z</time>
      </trkpt>
      <trkpt lat="38.832962" lon="-0.413755">
        <ele>881.051</ele>
        <time>2022-07-10T08:00:02Z</time>
      </trkpt>
      <trkpt lat="38.832962" lon="-0.413729">
        <ele>881.049</ele>
        <time>2022-07-10T08:00:03Z</time>
      </trkpt>
      <trkpt lat="38.832957" lon="-0.413691">
        <ele>881.078</ele>
        <time>2022-07-10T08:00:05Z</time>
      </trkpt>
      <trkpt lat="38.832971" lon="-0.413631">
        <ele>881.244</ele>
        <time>2022-07-10T08:00:08Z</time>
      </trkpt>
      <trkpt lat="38.832976" lon="-0.413598">
        <ele>881.237</ele>
        <time>2022-07-10T08:00:10Z</time>
      </trkpt>
      <trkpt lat="38.833018" lon="-0.413538">
        <ele>881.461</ele>
        <time>2022-07-10T08:00:14Z</time>
      </trkpt>
      <trkpt lat="38.833066" lon="-0.413491">
        <ele>881.437</ele>
        <time>2022-07-10T08:00:18Z</time>
      </trkpt>
      <trkpt lat="38.833080" lon="-0.413454">
        <ele>881.496</ele>
        <time>2022-07-10T08:00:20Z</time>
      </trkpt>
      <trkpt lat="38.833141" lon="-0.413375">
        <ele>881.631</ele>
        <time>2022-07-10T08:00:25Z</time>
      </trkpt>
      <trkpt lat="38.833153" lon="-0.413359">
        <ele>881.624</ele>
        <time>2022-07-10T08:00:26Z</time>
      </trkpt>
      <trkpt lat="38.833200" lon="-0.413305">
        <ele>881.809</ele>
        <time>2022-07-10T08:00:30Z</time>
      </trkpt>
      <trkpt lat="38.833213" lon="-0.413279">
        <ele>881.830</ele>
        <time>2022-07-10T08:00:32Z</time>
      </trkpt>
      <trkpt lat="38.833230" lon="-0.413184">
        <ele>881.829</ele>
        <time>2022-07-10T08:00:38Z</time>
      </trkpt>
      <trkpt lat="38.833224" lon="-0.413169">
        <ele>881.896</ele>
        <time>2022-07-10T08:00:39Z</time>
      </trkpt>
      <trkpt lat="38.833227" lon="-0.413159">
        <ele>881.864</ele>
        <time>2022-07-10T08:00:40Z</time>
      </trkpt>
      <trkpt lat="38.833243" lon="-0.413123">
        <ele>881.833</ele>
        <time>2022-07-10T08:00:43Z</time>
      </trkpt>
      <trkpt lat="38.833275" lon="-0.413093">
        <ele>881.829</ele>
        <time>2022-07-10T08:00:46Z</time>
      </trkpt>
      <trkpt lat="38.833293" lon="-0.412979">
        <ele>881.442</ele>
        <time>2022-07-10T08:00:53Z</time>
      </trkpt>
      <trkpt lat="38.833279" lon="-0.412908">
        <ele>881.036</ele>
        <time>2022-07-10T08:00:57Z</time>
      </trkpt>
      <trkpt lat="38.833260" lon="-0.412874">
        <ele>880.622</ele>
        <time>2022-07-10T08:00:59Z</time>
      </trkpt>
      <trkpt lat="38.833261" lon="-0.412857">
        <ele>880.616</ele>
        <time>2022-07-10T08:01:00Z</time>
      </trkpt>
      <trkpt lat="38.833260" lon="-0.412801">
        <ele>880.276</ele>
        <time>2022-07-10T08:01:03Z</time>
      </trkpt>
      <trkpt lat="38.833257" lon="-0.412785">
        <ele>880.213</ele>
        <time>2022-07-10T08:01:04Z</time>
      </trkpt>
      <trkpt lat="38.833242" lon="-0.412758">
        <ele>879.809</ele>
        <time>2022-07-10T08:01:06Z</time>
      </trkpt>
      <trkpt lat="38.833240" lon="-0.412712">
        <ele>879.442</ele>
        <time>2022-07-10T08:01:09Z</time>
      </trkpt>
      <trkpt lat="38.833241" lon="-0.412698">
        <ele>879.471</ele>
        <time>2022-07-10T08:01:10Z</time>
      </trkpt>
      <trkpt lat="38.833243" lon="-0.412684">
        <ele>879.288</ele>
        <time>2022-07-10T08:01:11Z</time>
      </trkpt>
      <trkpt lat="38.833229" lon="-0.412657">
        <ele>878.856</ele>
        <time>2022-07-10T08:01:13Z</time>
      </trkpt>
      <trkpt lat="38.833222" lon="-0.412641">
        <ele>878.865</ele>
        <time>2022-07-10T08:01:14Z</time>
      </trkpt>
      <trkpt lat="38.833222" lon="-0.412627">
        <ele>878.631</ele>
        <time>2022-07-10T08:01:15Z</time>
      </trkpt>
      <trkpt lat="38.833225" lon="-0.412572">
        <ele>878.274</ele>
        <time>2022-07-10T08:01:19Z</time>
      </trkpt>
      <trkpt lat="38.833249" lon="-0.412451">
        <ele>877.448</ele>
        <time>2022-07-10T08:01:27Z</time>
      </trkpt>
      <trkpt lat="38.833247" lon="-0.412417">
        <ele>877.094</ele>
        <time>2022-07-10T08:01:29Z</time>
      </trkpt>
      <trkpt lat="38.833256" lon="-0.412400">
        <ele>876.855</ele>
        <time>2022-07-10T08:01:30Z</time>
      </trkpt>
      <trkpt lat="38.833267" lon="-0.412378">
        <ele>876.807</ele>
        <time>2022-07-10T08:01:31Z</time>
      </trkpt>
      <trkpt lat="38.833290" lon="-0.412309">
        <ele>876.217</ele>
        <time>2022-07-10T08:01:35Z</time>
      </trkpt>
      <trkpt lat="38.833293" lon="-0.412272">
        <ele>876.009</ele>
        <time>2022-07-10T08:01:37Z</time>
      </trkpt>
      <trkpt lat="38.833305" lon="-0.412250">
        <ele>876.026</ele>
        <time>2022-07-10T08:01:38Z</time>
      </trkpt>
      <trkpt lat="38.833320" lon="-0.412214">
        <ele>875.635</ele>
        <time>2022-07-10T08:01:40Z</time>
      </trkpt>
      <trkpt lat="38.833323" lon="-0.412137">
        <ele>875.252</ele>
        <time>2022-07-10T08:01:44Z</time>
      </trkpt>
      <trkpt lat="38.833320" lon="-0.412121">
        <ele>875.280</ele>
        <time>2022-07-10T08:01:45Z</time>
      </trkpt>
      <trkpt lat="38.833321" lon="-0.412089">
        <ele>875.269</ele>
        <time>2022-07-10T08:01:47Z</time>
      </trkpt>
      <trkpt lat="38.833321" lon="-0.412040">
        <ele>874.895</ele>
        <time>2022-07-10T08:01:50Z</time>
      </trkpt>
      <trkpt lat="38.833321" lon="-0.412019">
        <ele>874.678</ele>
        <time>2022-07-10T08:01:51Z</time>
      </trkpt>
      <trkpt lat="38.833285" lon="-0.411893">
        <ele>873.822</ele>
        <time>2022-07-10T08:01:58Z</time>
      </trkpt>
      <trkpt lat="38.833279" lon="-0.411878">
        <ele>873.888</ele>
        <time>2022-07-10T08:01:59Z</time>
      </trkpt>
      <trkpt lat="38.833271" lon="-0.411862">
        <ele>873.623</ele>
        <time>2022-07-10T08:02:00Z</time>
      </trkpt>
      <trkpt lat="38.833263" lon="-0.411847">
        <ele>873.683</ele>
        <time>2022-07-10T08:02:01Z</time>
      </trkpt>
      <trkpt lat="38.833254" lon="-0.411810">
        <ele>873.411</ele>
        <time>2022-07-10T08:02:04Z</time>
      </trkpt>
      <trkpt lat="38.833236" lon="-0.411752">
        <ele>873.209</ele>
        <time>2022-07-10T08:02:08Z</time>
      </trkpt>
      <trkpt lat="38.833231" lon="-0.411712">
        <ele>873.053</ele>
        <time>2022-07-10T08:02:12Z</time>
      </trkpt>
      <trkpt lat="38.833244" lon="-0.411684">
        <ele>873.082</ele>
        <time>2022-07-10T08:02:14Z</time>
      </trkpt>
      <trkpt lat="38.833256" lon="-0.411637">
        <ele>873.099</ele>
        <time>2022-07-10T08:02:17Z</time>
      </trkpt>
      <trkpt lat="38.833260" lon="-0.411612">
        <ele>873.287</ele>
        <time>2022-07-10T08:02:19Z</time>
      </trkpt>
      <trkpt lat="38.833266" lon="-0.411557">
        <ele>873.626</ele>
        <time>2022-07-10T08:02:22Z</time>
      </trkpt>
      <trkpt lat="38.833273" lon="-0.411528">
        <ele>874.032</ele>
        <time>2022-07-10T08:02:24Z</time>
      </trkpt>
      <trkpt lat="38.833277" lon="-0.411505">
        <ele>874.435</ele>
        <time>2022-07-10T08:02:26Z</time>
      </trkpt>
      <trkpt lat="38.833281" lon="-0.411472">
        <ele>874.679</ele>
        <time>2022-07-10T08:02:29Z</time>
      </trkpt>
      <trkpt lat="38.833299" lon="-0.411441">
        <ele>874.855</ele>
        <time>2022-07-10T08:02:32Z</time>
      </trkpt>
      <trkpt lat="38.833309" lon="-0.411429">
        <ele>875.071</ele>
        <time>2022-07-10T08:02:33Z</time>
      </trkpt>
      <trkpt lat="38.833311" lon="-0.411417">
        <ele>875.241</ele>
        <time>2022-07-10T08:02:34Z</time>
      </trkpt>
      <trkpt lat="38.833304" lon="-0.411367">
        <ele>875.415</ele>
        <time>2022-07-10T08:02:37Z</time>
      </trkpt>
      <trkpt lat="38.833302" lon="-0.411349">
        <ele>875.609</ele>
        <time>2022-07-10T08:02:38Z</time>
      </trkpt>
      <trkpt lat="38.833305" lon="-0.411332">
        <ele>875.858</ele>
        <time>2022-07-10T08:02:39Z</time>
      </trkpt>
      <trkpt lat="38.833317" lon="-0.411295">
        <ele>876.087</ele>
        <time>2022-07-10T08:02:41Z</time>
      </trkpt>
      <trkpt lat="38.833326" lon="-0.411256">
        <ele>876.464</ele>
        <time>2022-07-10T08:02:43Z</time>
      </trkpt>
      <trkpt lat="38.833350" lon="-0.411230">
        <ele>877.072</ele>
        <time>2022-07-10T08:02:45Z</time>
      </trkpt>
      <trkpt lat="38.833359" lon="-0.411217">
        <ele>877.281</ele>
        <time>2022-07-10T08:02:46Z</time>
      </trkpt>
      <trkpt lat="38.833363" lon="-0.411164">
        <ele>877.617</ele>
        <time>2022-07-10T08:02:49Z</time>
      </trkpt>
      <trkpt lat="38.833365" lon="-0.411152">
        <ele>877.620</ele>
        <time>2022-07-10T08:02:50Z</time>
      </trkpt>
      <trkpt lat="38.833377" lon="-0.411135">
        <ele>877.874</ele>
        <time>2022-07-10T08:02:51Z</time>
      </trkpt>
      <trkpt lat="38.833387" lon="-0.411083">
        <ele>878.090</ele>
        <time>2022-07-10T08:02:54Z</time>
      </trkpt>
      <trkpt lat="38.833374" lon="-0.411070">
        <ele>878.052</ele>
        <time>2022-07-10T08:02:55Z</time>
      </trkpt>
      <trkpt lat="38.833354" lon="-0.411036">
        <ele>878.253</ele>
        <time>2022-07-10T08:02:57Z</time>
      </trkpt>
      <trkpt lat="38.833315" lon="-0.410894">
        <ele>878.608</ele>
        <time>2022-07-10T08:03:05Z</time>
      </trkpt>
      <trkpt lat="38.833316" lon="-0.410836">
        <ele>878.809</ele>
        <time>2022-07-10T08:03:08Z</time>
      </trkpt>
      <trkpt lat="38.833348" lon="-0.410802">
        <ele>879.036</ele>
        <time>2022-07-10T08:03:11Z</time>
      </trkpt>
      <trkpt lat="38.833423" lon="-0.410677">
        <ele>879.085</ele>
        <time>2022-07-10T08:03:20Z</time>
      </trkpt>
      <trkpt lat="38.833430" lon="-0.410665">
        <ele>879.232</ele>
        <time>2022-07-10T08:03:21Z</time>
      </trkpt>
      <trkpt lat="38.833426" lon="-0.410620">
        <ele>879.420</ele>
        <time>2022-07-10T08:03:24Z</time>
      </trkpt>
      <trkpt lat="38.833440" lon="-0.410610">
        <ele>879.419</ele>
        <time>2022-07-10T08:03:25Z</time>
      </trkpt>
      <trkpt lat="38.833450" lon="-0.410567">
        <ele>879.665</ele>
        <time>2022-07-10T08:03:29Z</time>
      </trkpt>
      <trkpt lat="38.833452" lon="-0.410532">
        <ele>879.828</ele>
        <time>2022-07-10T08:03:31Z</time>
      </trkpt>
      <trkpt lat="38.833449" lon="-0.410515">
        <ele>879.882</ele>
        <time>2022-07-10T08:03:32Z</time>
      </trkpt>
      <trkpt lat="38.833471" lon="-0.410498">
        <ele>880.098</ele>
        <time>2022-07-10T08:03:34Z</time>
      </trkpt>
      <trkpt lat="38.833506" lon="-0.410488">
        <ele>880.042</ele>
        <time>2022-07-10T08:03:35Z</time>
      </trkpt>
      <trkpt lat="38.833528" lon="-0.410476">
        <ele>880.222</ele>
        <time>2022-07-10T08:03:36Z</time>
      </trkpt>
      <trkpt lat="38.833535" lon="-0.410463">
        <ele>880.214</ele>
        <time>2022-07-10T08:03:37Z</time>
      </trkpt>
      <trkpt lat="38.833530" lon="-0.410448">
        <ele>880.209</ele>
        <time>2022-07-10T08:03:38Z</time>
      </trkpt>
      <trkpt lat="38.833539" lon="-0.410411">
        <ele>880.495</ele>
        <time>2022-07-10T08:03:40Z</time>
      </trkpt>
      <trkpt lat="38.833538" lon="-0.410394">
        <ele>880.484</ele>
        <time>2022-07-10T08:03:41Z</time>
      </trkpt>
      <trkpt lat="38.833545" lon="-0.410357">
        <ele>880.691</ele>
        <time>2022-07-10T08:03:43Z</time>
      </trkpt>
      <trkpt lat="38.833592" lon="-0.410266">
        <ele>881.049</ele>
        <time>2022-07-10T08:03:50Z</time>
      </trkpt>
      <trkpt lat="38.833630" lon="-0.410215">
        <ele>881.268</ele>
        <time>2022-07-10T08:03:53Z</time>
      </trkpt>
      <trkpt lat="38.833643" lon="-0.410196">
        <ele>881.284</ele>
        <time>2022-07-10T08:03:55Z</time>
      </trkpt>
      <trkpt lat="38.833652" lon="-0.410178">
        <ele>881.467</ele>
        <time>2022-07-10T08:03:57Z</time>
      </trkpt>
      <trkpt lat="38.833658" lon="-0.410170">
        <ele>881.491</ele>
        <time>2022-07-10T08:03:58Z</time>
      </trkpt>
      <trkpt lat="38.833725" lon="-0.410089">
        <ele>881.677</ele>
        <time>2022-07-10T08:04:05Z</time>
      </trkpt>
      <trkpt lat="38.833798" lon="-0.410013">
        <ele>882.277</ele>
        <time>2022-07-10T08:04:12Z</time>
      </trkpt>
      <trkpt lat="38.833800" lon="-0.409999">
        <ele>882.461</ele>
        <time>2022-07-10T08:04:13Z</time>
      </trkpt>
      <trkpt lat="38.833789" lon="-0.409935">
        <ele>883.027</ele>
        <time>2022-07-10T08:04:17Z</time>
      </trkpt>
      <trkpt lat="38.833782" lon="-0.409928">
        <ele>883.209</ele>
        <time>2022-07-10T08:04:18Z</time>
      </trkpt>
      <trkpt lat="38.833757" lon="-0.409896">
        <ele>883.278</ele>
        <time>2022-07-10T08:04:20Z</time>
      </trkpt>
      <trkpt lat="38.833752" lon="-0.409840">
        <ele>883.447</ele>
        <time>2022-07-10T08:04:23Z</time>
      </trkpt>
      <trkpt lat="38.833751" lon="-0.409809">
        <ele>883.624</ele>
        <time>2022-07-10T08:04:25Z</time>
      </trkpt>
      <trkpt lat="38.833758" lon="-0.409773">
        <ele>883.862</ele>
        <time>2022-07-10T08:04:27Z</time>
      </trkpt>
      <trkpt lat="38.833782" lon="-0.409660">
        <ele>883.811</ele>
        <time>2022-07-10T08:04:33Z</time>
      </trkpt>
      <trkpt lat="38.833778" lon="-0.409649">
        <ele>883.867</ele>
        <time>2022-07-10T08:04:35Z</time>
      </trkpt>
      <trkpt lat="38.833764" lon="-0.409632">
        <ele>883.880</ele>
        <time>2022-07-10T08:04:38Z</time>
      </trkpt>
      <trkpt lat="38.833797" lon="-0.409555">
        <ele>884.074</ele>
        <time>2022-07-10T08:04:44Z</time>
      </trkpt>
      <trkpt lat="38.833816" lon="-0.409454">
        <ele>884.250</ele>
        <time>2022-07-10T08:04:50Z</time>
      </trkpt>
      <trkpt lat="38.833824" lon="-0.409429">
        <ele>884.444</ele>
        <time>2022-07-10T08:04:51Z</time>
      </trkpt>
      <trkpt lat="38.833836" lon="-0.409404">
        <ele>884.405</ele>
        <time>2022-07-10T08:04:52Z</time>
      </trkpt>
      <trkpt lat="38.833849" lon="-0.409348">
        <ele>884.215</ele>
        <time>2022-07-10T08:04:56Z</time>
      </trkpt>
      <trkpt lat="38.833855" lon="-0.409275">
        <ele>884.409</ele>
        <time>2022-07-10T08:05:01Z</time>
      </trkpt>
      <trkpt lat="38.833857" lon="-0.409217">
        <ele>884.495</ele>
        <time>2022-07-10T08:05:04Z</time>
      </trkpt>
      <trkpt lat="38.833854" lon="-0.409199">
        <ele>884.414</ele>
        <time>2022-07-10T08:05:05Z</time>
      </trkpt>
      <trkpt lat="38.833837" lon="-0.409162">
        <ele>884.021</ele>
        <time>2022-07-10T08:05:08Z</time>
      </trkpt>
      <trkpt lat="38.833837" lon="-0.409146">
        <ele>884.039</ele>
        <time>2022-07-10T08:05:09Z</time>
      </trkpt>
      <trkpt lat="38.833832" lon="-0.409113">
        <ele>883.698</ele>
        <time>2022-07-10T08:05:11Z</time>
      </trkpt>
      <trkpt lat="38.833843" lon="-0.409076">
        <ele>883.424</ele>
        <time>2022-07-10T08:05:14Z</time>
      </trkpt>
      <trkpt lat="38.833837" lon="-0.409061">
        <ele>883.277</ele>
        <time>2022-07-10T08:05:15Z</time>
      </trkpt>
      <trkpt lat="38.833862" lon="-0.408977">
        <ele>882.631</ele>
        <time>2022-07-10T08:05:20Z</time>
      </trkpt>
      <trkpt lat="38.833847" lon="-0.408923">
        <ele>882.217</ele>
        <time>2022-07-10T08:05:25Z</time>
      </trkpt>
      <trkpt lat="38.833841" lon="-0.408910">
        <ele>882.269</ele>
        <time>2022-07-10T08:05:26Z</time>
      </trkpt>
      <trkpt lat="38.833835" lon="-0.408901">
        <ele>882.004</ele>
        <time>2022-07-10T08:05:27Z</time>
      </trkpt>
      <trkpt lat="38.833828" lon="-0.408863">
        <ele>881.024</ele>
        <time>2022-07-10T08:05:31Z</time>
      </trkpt>
      <trkpt lat="38.833826" lon="-0.408852">
        <ele>880.809</ele>
        <time>2022-07-10T08:05:32Z</time>
      </trkpt>
      <trkpt lat="38.833812" lon="-0.408833">
        <ele>880.427</ele>
        <time>2022-07-10T08:05:34Z</time>
      </trkpt>
      <trkpt lat="38.833812" lon="-0.408823">
        <ele>880.016</ele>
        <time>2022-07-10T08:05:35Z</time>
      </trkpt>
      <trkpt lat="38.833819" lon="-0.408801">
        <ele>879.493</ele>
        <time>2022-07-10T08:05:37Z</time>
      </trkpt>
      <trkpt lat="38.833818" lon="-0.408789">
        <ele>879.231</ele>
        <time>2022-07-10T08:05:38Z</time>
      </trkpt>
      <trkpt lat="38.833811" lon="-0.408760">
        <ele>878.810</ele>
        <time>2022-07-10T08:05:40Z</time>
      </trkpt>
      <trkpt lat="38.833820" lon="-0.408729">
        <ele>878.066</ele>
        <time>2022-07-10T08:05:43Z</time>
      </trkpt>
      <trkpt lat="38.833824" lon="-0.408716">
        <ele>877.869</ele>
        <time>2022-07-10T08:05:44Z</time>
      </trkpt>
      <trkpt lat="38.833796" lon="-0.408665">
        <ele>877.053</ele>
        <time>2022-07-10T08:05:48Z</time>
      </trkpt>
      <trkpt lat="38.833790" lon="-0.408644">
        <ele>876.649</ele>
        <time>2022-07-10T08:05:50Z</time>
      </trkpt>
      <trkpt lat="38.833781" lon="-0.408595">
        <ele>875.817</ele>
        <time>2022-07-10T08:05:54Z</time>
      </trkpt>
      <trkpt lat="38.833787" lon="-0.408577">
        <ele>875.887</ele>
        <time>2022-07-10T08:05:55Z</time>
      </trkpt>
      <trkpt lat="38.833785" lon="-0.408560">
        <ele>875.615</ele>
        <time>2022-07-10T08:05:56Z</time>
      </trkpt>
      <trkpt lat="38.833760" lon="-0.408527">
        <ele>874.809</ele>
        <time>2022-07-10T08:06:00Z</time>
      </trkpt>
      <trkpt lat="38.833746" lon="-0.408522">
        <ele>874.482</ele>
        <time>2022-07-10T08:06:01Z</time>
      </trkpt>
      <trkpt lat="38.833733" lon="-0.408485">
        <ele>873.671</ele>
        <time>2022-07-10T08:06:05Z</time>
      </trkpt>
      <trkpt lat="38.833738" lon="-0.408462">
        <ele>873.258</ele>
        <time>2022-07-10T08:06:07Z</time>
      </trkpt>
      <trkpt lat="38.833734" lon="-0.408422">
        <ele>872.416</ele>
        <time>2022-07-10T08:06:11Z</time>
      </trkpt>
      <trkpt lat="38.833738" lon="-0.408415">
        <ele>872.075</ele>
        <time>2022-07-10T08:06:12Z</time>
      </trkpt>
      <trkpt lat="38.833741" lon="-0.408402">
        <ele>871.861</ele>
        <time>2022-07-10T08:06:13Z</time>
      </trkpt>
      <trkpt lat="38.833732" lon="-0.408365">
        <ele>871.084</ele>
        <time>2022-07-10T08:06:16Z</time>
      </trkpt>
      <trkpt lat="38.833724" lon="-0.408353">
        <ele>871.098</ele>
        <time>2022-07-10T08:06:17Z</time>
      </trkpt>
      <trkpt lat="38.833726" lon="-0.408321">
        <ele>870.624</ele>
        <time>2022-07-10T08:06:18Z</time>
      </trkpt>
      <trkpt lat="38.833732" lon="-0.408278">
        <ele>870.448</ele>
        <time>2022-07-10T08:06:20Z</time>
      </trkpt>
      <trkpt lat="38.833722" lon="-0.408246">
        <ele>870.061</ele>
        <time>2022-07-10T08:06:22Z</time>
      </trkpt>
      <trkpt lat="38.833720" lon="-0.408232">
        <ele>869.817</ele>
        <time>2022-07-10T08:06:23Z</time>
      </trkpt>
      <trkpt lat="38.833729" lon="-0.408178">
        <ele>869.209</ele>
        <time>2022-07-10T08:06:27Z</time>
      </trkpt>
      <trkpt lat="38.833730" lon="-0.408166">
        <ele>869.085</ele>
        <time>2022-07-10T08:06:28Z</time>
      </trkpt>
      <trkpt lat="38.833751" lon="-0.408139">
        <ele>868.634</ele>
        <time>2022-07-10T08:06:30Z</time>
      </trkpt>
      <trkpt lat="38.833774" lon="-0.408087">
        <ele>867.821</ele>
        <time>2022-07-10T08:06:33Z</time>
      </trkpt>
      <trkpt lat="38.833782" lon="-0.408072">
        <ele>867.659</ele>
        <time>2022-07-10T08:06:34Z</time>
      </trkpt>
      <trkpt lat="38.833787" lon="-0.408056">
        <ele>867.688</ele>
        <time>2022-07-10T08:06:35Z</time>
      </trkpt>
      <trkpt lat="38.833789" lon="-0.408042">
        <ele>867.614</ele>
        <time>2022-07-10T08:06:36Z</time>
      </trkpt>
      <trkpt lat="38.833796" lon="-0.407984">
        <ele>867.297</ele>
        <time>2022-07-10T08:06:40Z</time>
      </trkpt>
      <trkpt lat="38.833826" lon="-0.407955">
        <ele>867.041</ele>
        <time>2022-07-10T08:06:42Z</time>
      </trkpt>
      <trkpt lat="38.833873" lon="-0.407925">
        <ele>866.617</ele>
        <time>2022-07-10T08:06:45Z</time>
      </trkpt>
      <trkpt lat="38.833873" lon="-0.407910">
        <ele>866.421</ele>
        <time>2022-07-10T08:06:46Z</time>
      </trkpt>
      <trkpt lat="38.833868" lon="-0.407874">
        <ele>866.041</ele>
        <time>2022-07-10T08:06:50Z</time>
      </trkpt>
      <trkpt lat="38.833849" lon="-0.407888">
        <ele>865.605</ele>
        <time>2022-07-10T08:06:52Z</time>
      </trkpt>
      <trkpt lat="38.833850" lon="-0.407899">
        <ele>865.209</ele>
        <time>2022-07-10T08:06:53Z</time>
      </trkpt>
      <trkpt lat="38.833855" lon="-0.407912">
        <ele>865.293</ele>
        <time>2022-07-10T08:06:54Z</time>
      </trkpt>
      <trkpt lat="38.833863" lon="-0.407921">
        <ele>865.022</ele>
        <time>2022-07-10T08:06:55Z</time>
      </trkpt>
      <trkpt lat="38.833873" lon="-0.407931">
        <ele>864.699</ele>
        <time>2022-07-10T08:06:56Z</time>
      </trkpt>
      <trkpt lat="38.833877" lon="-0.407944">
        <ele>864.467</ele>
        <time>2022-07-10T08:06:57Z</time>
      </trkpt>
      <trkpt lat="38.833874" lon="-0.407957">
        <ele>864.216</ele>
        <time>2022-07-10T08:06:58Z</time>
      </trkpt>
      <trkpt lat="38.833872" lon="-0.407967">
        <ele>864.272</ele>
        <time>2022-07-10T08:06:59Z</time>
      </trkpt>
      <trkpt lat="38.833879" lon="-0.407987">
        <ele>864.035</ele>
        <time>2022-07-10T08:07:01Z</time>
      </trkpt>
      <trkpt lat="38.833876" lon="-0.408001">
        <ele>863.839</ele>
        <time>2022-07-10T08:07:02Z</time>
      </trkpt>
      <trkpt lat="38.833868" lon="-0.408045">
        <ele>863.465</ele>
        <time>2022-07-10T08:07:05Z</time>
      </trkpt>
      <trkpt lat="38.833861" lon="-0.408054">
        <ele>863.216</ele>
        <time>2022-07-10T08:07:06Z</time>
      </trkpt>
      <trkpt lat="38.833853" lon="-0.408097">
        <ele>862.876</ele>
        <time>2022-07-10T08:07:09Z</time>
      </trkpt>
      <trkpt lat="38.833823" lon="-0.408127">
        <ele>862.613</ele>
        <time>2022-07-10T08:07:11Z</time>
      </trkpt>
      <trkpt lat="38.833783" lon="-0.408182">
        <ele>862.209</ele>
        <time>2022-07-10T08:07:14Z</time>
      </trkpt>
      <trkpt lat="38.833774" lon="-0.408221">
        <ele>862.062</ele>
        <time>2022-07-10T08:07:16Z</time>
      </trkpt>
      <trkpt lat="38.833782" lon="-0.408261">
        <ele>861.671</ele>
        <time>2022-07-10T08:07:18Z</time>
      </trkpt>
      <trkpt lat="38.833785" lon="-0.408301">
        <ele>861.278</ele>
        <time>2022-07-10T08:07:20Z</time>
      </trkpt>
      <trkpt lat="38.833783" lon="-0.408322">
        <ele>861.226</ele>
        <time>2022-07-10T08:07:21Z</time>
      </trkpt>
      <trkpt lat="38.833781" lon="-0.408344">
        <ele>861.095</ele>
        <time>2022-07-10T08:07:22Z</time>
      </trkpt>
      <trkpt lat="38.833790" lon="-0.408377">
        <ele>860.621</ele>
        <time>2022-07-10T08:07:24Z</time>
      </trkpt>
      <trkpt lat="38.833800" lon="-0.408385">
        <ele>860.434</ele>
        <time>2022-07-10T08:07:25Z</time>
      </trkpt>
      <trkpt lat="38.833806" lon="-0.408389">
        <ele>860.068</ele>
        <time>2022-07-10T08:07:27Z</time>
      </trkpt>
      <trkpt lat="38.833806" lon="-0.408399">
        <ele>859.864</ele>
        <time>2022-07-10T08:07:29Z</time>
      </trkpt>
      <trkpt lat="38.833817" lon="-0.408407">
        <ele>859.466</ele>
        <time>2022-07-10T08:07:31Z</time>
      </trkpt>
      <trkpt lat="38.833845" lon="-0.408422">
        <ele>858.829</ele>
        <time>2022-07-10T08:07:33Z</time>
      </trkpt>
      <trkpt lat="38.833854" lon="-0.408429">
        <ele>858.621</ele>
        <time>2022-07-10T08:07:34Z</time>
      </trkpt>
      <trkpt lat="38.833867" lon="-0.408447">
        <ele>858.209</ele>
        <time>2022-07-10T08:07:36Z</time>
      </trkpt>
      <trkpt lat="38.833865" lon="-0.408480">
        <ele>857.847</ele>
        <time>2022-07-10T08:07:38Z</time>
      </trkpt>
      <trkpt lat="38.833867" lon="-0.408496">
        <ele>857.676</ele>
        <time>2022-07-10T08:07:39Z</time>
      </trkpt>
      <trkpt lat="38.833873" lon="-0.408506">
        <ele>857.463</ele>
        <time>2022-07-10T08:07:40Z</time>
      </trkpt>
      <trkpt lat="38.833892" lon="-0.408549">
        <ele>856.861</ele>
        <time>2022-07-10T08:07:43Z</time>
      </trkpt>
      <trkpt lat="38.833913" lon="-0.408560">
        <ele>856.670</ele>
        <time>2022-07-10T08:07:44Z</time>
      </trkpt>
      <trkpt lat="38.833954" lon="-0.408592">
        <ele>856.076</ele>
        <time>2022-07-10T08:07:47Z</time>
      </trkpt>
      <trkpt lat="38.833952" lon="-0.408614">
        <ele>855.439</ele>
        <time>2022-07-10T08:07:49Z</time>
      </trkpt>
      <trkpt lat="38.833955" lon="-0.408640">
        <ele>855.233</ele>
        <time>2022-07-10T08:07:51Z</time>
      </trkpt>
      <trkpt lat="38.833988" lon="-0.408671">
        <ele>854.639</ele>
        <time>2022-07-10T08:07:54Z</time>
      </trkpt>
      <trkpt lat="38.833997" lon="-0.408680">
        <ele>854.486</ele>
        <time>2022-07-10T08:07:55Z</time>
      </trkpt>
      <trkpt lat="38.834016" lon="-0.408713">
        <ele>853.860</ele>
        <time>2022-07-10T08:07:58Z</time>
      </trkpt>
      <trkpt lat="38.834013" lon="-0.408729">
        <ele>853.826</ele>
        <time>2022-07-10T08:07:59Z</time>
      </trkpt>
      <trkpt lat="38.834024" lon="-0.408778">
        <ele>853.409</ele>
        <time>2022-07-10T08:08:02Z</time>
      </trkpt>
      <trkpt lat="38.834039" lon="-0.408788">
        <ele>853.239</ele>
        <time>2022-07-10T08:08:03Z</time>
      </trkpt>
      <trkpt lat="38.834063" lon="-0.408778">
        <ele>853.048</ele>
        <time>2022-07-10T08:08:05Z</time>
      </trkpt>
      <trkpt lat="38.834070" lon="-0.408749">
        <ele>852.235</ele>
        <time>2022-07-10T08:08:07Z</time>
      </trkpt>
      <trkpt lat="38.834067" lon="-0.408677">
        <ele>851.693</ele>
        <time>2022-07-10T08:08:11Z</time>
      </trkpt>
      <trkpt lat="38.834068" lon="-0.408642">
        <ele>851.282</ele>
        <time>2022-07-10T08:08:13Z</time>
      </trkpt>
      <trkpt lat="38.834071" lon="-0.408613">
        <ele>850.868</ele>
        <time>2022-07-10T08:08:15Z</time>
      </trkpt>
      <trkpt lat="38.834076" lon="-0.408596">
        <ele>850.811</ele>
        <time>2022-07-10T08:08:16Z</time>
      </trkpt>
      <trkpt lat="38.834085" lon="-0.408568">
        <ele>850.435</ele>
        <time>2022-07-10T08:08:18Z</time>
      </trkpt>
      <trkpt lat="38.834100" lon="-0.408527">
        <ele>850.071</ele>
        <time>2022-07-10T08:08:20Z</time>
      </trkpt>
      <trkpt lat="38.834138" lon="-0.408471">
        <ele>849.861</ele>
        <time>2022-07-10T08:08:22Z</time>
      </trkpt>
      <trkpt lat="38.834144" lon="-0.408450">
        <ele>849.621</ele>
        <time>2022-07-10T08:08:24Z</time>
      </trkpt>
      <trkpt lat="38.834090" lon="-0.408439">
        <ele>849.213</ele>
        <time>2022-07-10T08:08:26Z</time>
      </trkpt>
      <trkpt lat="38.834074" lon="-0.408428">
        <ele>849.209</ele>
        <time>2022-07-10T08:08:27Z</time>
      </trkpt>
      <trkpt lat="38.834065" lon="-0.408412">
        <ele>848.857</ele>
        <time>2022-07-10T08:08:29Z</time>
      </trkpt>
      <trkpt lat="38.834064" lon="-0.408402">
        <ele>848.836</ele>
        <time>2022-07-10T08:08:30Z</time>
      </trkpt>
      <trkpt lat="38.834054" lon="-0.408396">
        <ele>848.653</ele>
        <time>2022-07-10T08:08:31Z</time>
      </trkpt>
      <trkpt lat="38.834038" lon="-0.408370">
        <ele>848.261</ele>
        <time>2022-07-10T08:08:34Z</time>
      </trkpt>
      <trkpt lat="38.834036" lon="-0.408358">
        <ele>848.240</ele>
        <time>2022-07-10T08:08:35Z</time>
      </trkpt>
      <trkpt lat="38.834038" lon="-0.408333">
        <ele>848.026</ele>
        <time>2022-07-10T08:08:37Z</time>
      </trkpt>
      <trkpt lat="38.834054" lon="-0.408317">
        <ele>847.649</ele>
        <time>2022-07-10T08:08:39Z</time>
      </trkpt>
      <trkpt lat="38.834062" lon="-0.408308">
        <ele>847.673</ele>
        <time>2022-07-10T08:08:40Z</time>
      </trkpt>
      <trkpt lat="38.834081" lon="-0.408290">
        <ele>847.099</ele>
        <time>2022-07-10T08:08:43Z</time>
      </trkpt>
      <trkpt lat="38.834123" lon="-0.408221">
        <ele>846.668</ele>
        <time>2022-07-10T08:08:47Z</time>
      </trkpt>
      <trkpt lat="38.834130" lon="-0.408199">
        <ele>846.442</ele>
        <time>2022-07-10T08:08:48Z</time>
      </trkpt>
      <trkpt lat="38.834147" lon="-0.408151">
        <ele>846.226</ele>
        <time>2022-07-10T08:08:51Z</time>
      </trkpt>
      <trkpt lat="38.834154" lon="-0.408137">
        <ele>846.009</ele>
        <time>2022-07-10T08:08:52Z</time>
      </trkpt>
      <trkpt lat="38.834176" lon="-0.408113">
        <ele>845.687</ele>
        <time>2022-07-10T08:08:54Z</time>
      </trkpt>
      <trkpt lat="38.834169" lon="-0.408104">
        <ele>845.486</ele>
        <time>2022-07-10T08:08:55Z</time>
      </trkpt>
      <trkpt lat="38.834171" lon="-0.408090">
        <ele>845.253</ele>
        <time>2022-07-10T08:08:56Z</time>
      </trkpt>
      <trkpt lat="38.834177" lon="-0.408073">
        <ele>845.041</ele>
        <time>2022-07-10T08:08:57Z</time>
      </trkpt>
      <trkpt lat="38.834176" lon="-0.408038">
        <ele>844.860</ele>
        <time>2022-07-10T08:08:59Z</time>
      </trkpt>
      <trkpt lat="38.834176" lon="-0.407999">
        <ele>844.476</ele>
        <time>2022-07-10T08:09:01Z</time>
      </trkpt>
      <trkpt lat="38.834183" lon="-0.407980">
        <ele>844.459</ele>
        <time>2022-07-10T08:09:02Z</time>
      </trkpt>
      <trkpt lat="38.834196" lon="-0.407961">
        <ele>844.283</ele>
        <time>2022-07-10T08:09:03Z</time>
      </trkpt>
      <trkpt lat="38.834201" lon="-0.407923">
        <ele>843.829</ele>
        <time>2022-07-10T08:09:05Z</time>
      </trkpt>
      <trkpt lat="38.834184" lon="-0.407859">
        <ele>843.489</ele>
        <time>2022-07-10T08:09:08Z</time>
      </trkpt>
      <trkpt lat="38.834206" lon="-0.407756">
        <ele>842.406</ele>
        <time>2022-07-10T08:09:14Z</time>
      </trkpt>
      <trkpt lat="38.834210" lon="-0.407723">
        <ele>842.426</ele>
        <time>2022-07-10T08:09:16Z</time>
      </trkpt>
      <trkpt lat="38.834234" lon="-0.407666">
        <ele>841.609</ele>
        <time>2022-07-10T08:09:21Z</time>
      </trkpt>
      <trkpt lat="38.834263" lon="-0.407636">
        <ele>841.269</ele>
        <time>2022-07-10T08:09:22Z</time>
      </trkpt>
      <trkpt lat="38.834275" lon="-0.407621">
        <ele>841.088</ele>
        <time>2022-07-10T08:09:24Z</time>
      </trkpt>
      <trkpt lat="38.834291" lon="-0.407596">
        <ele>840.845</ele>
        <time>2022-07-10T08:09:26Z</time>
      </trkpt>
      <trkpt lat="38.834295" lon="-0.407581">
        <ele>840.663</ele>
        <time>2022-07-10T08:09:27Z</time>
      </trkpt>
      <trkpt lat="38.834293" lon="-0.407562">
        <ele>840.292</ele>
        <time>2022-07-10T08:09:29Z</time>
      </trkpt>
      <trkpt lat="38.834291" lon="-0.407551">
        <ele>840.028</ele>
        <time>2022-07-10T08:09:30Z</time>
      </trkpt>
      <trkpt lat="38.834301" lon="-0.407534">
        <ele>839.691</ele>
        <time>2022-07-10T08:09:32Z</time>
      </trkpt>
      <trkpt lat="38.834336" lon="-0.407519">
        <ele>839.445</ele>
        <time>2022-07-10T08:09:34Z</time>
      </trkpt>
      <trkpt lat="38.834358" lon="-0.407513">
        <ele>839.211</ele>
        <time>2022-07-10T08:09:35Z</time>
      </trkpt>
      <trkpt lat="38.834401" lon="-0.407484">
        <ele>838.428</ele>
        <time>2022-07-10T08:09:39Z</time>
      </trkpt>
      <trkpt lat="38.834416" lon="-0.407472">
        <ele>838.089</ele>
        <time>2022-07-10T08:09:41Z</time>
      </trkpt>
      <trkpt lat="38.834424" lon="-0.407459">
        <ele>837.617</ele>
        <time>2022-07-10T08:09:43Z</time>
      </trkpt>
      <trkpt lat="38.834437" lon="-0.407440">
        <ele>837.409</ele>
        <time>2022-07-10T08:09:45Z</time>
      </trkpt>
      <trkpt lat="38.834476" lon="-0.407404">
        <ele>836.813</ele>
        <time>2022-07-10T08:09:49Z</time>
      </trkpt>
      <trkpt lat="38.834487" lon="-0.407394">
        <ele>836.672</ele>
        <time>2022-07-10T08:09:50Z</time>
      </trkpt>
      <trkpt lat="38.834499" lon="-0.407390">
        <ele>836.649</ele>
        <time>2022-07-10T08:09:51Z</time>
      </trkpt>
      <trkpt lat="38.834504" lon="-0.407389">
        <ele>836.487</ele>
        <time>2022-07-10T08:09:52Z</time>
      </trkpt>
      <trkpt lat="38.834517" lon="-0.407402">
        <ele>836.086</ele>
        <time>2022-07-10T08:09:54Z</time>
      </trkpt>
      <trkpt lat="38.834512" lon="-0.407417">
        <ele>835.662</ele>
        <time>2022-07-10T08:09:56Z</time>
      </trkpt>
      <trkpt lat="38.834501" lon="-0.407429">
        <ele>835.475</ele>
        <time>2022-07-10T08:09:57Z</time>
      </trkpt>
      <trkpt lat="38.834410" lon="-0.407482">
        <ele>834.619</ele>
        <time>2022-07-10T08:10:03Z</time>
      </trkpt>
      <trkpt lat="38.834385" lon="-0.407493">
        <ele>834.415</ele>
        <time>2022-07-10T08:10:04Z</time>
      </trkpt>
      <trkpt lat="38.834349" lon="-0.407514">
        <ele>834.265</ele>
        <time>2022-07-10T08:10:06Z</time>
      </trkpt>
      <trkpt lat="38.834351" lon="-0.407542">
        <ele>834.068</ele>
        <time>2022-07-10T08:10:09Z</time>
      </trkpt>
      <trkpt lat="38.834369" lon="-0.407557">
        <ele>833.414</ele>
        <time>2022-07-10T08:10:11Z</time>
      </trkpt>
      <trkpt lat="38.834384" lon="-0.407541">
        <ele>833.209</ele>
        <time>2022-07-10T08:10:13Z</time>
      </trkpt>
      <trkpt lat="38.834422" lon="-0.407505">
        <ele>832.277</ele>
        <time>2022-07-10T08:10:18Z</time>
      </trkpt>
      <trkpt lat="38.834461" lon="-0.407486">
        <ele>831.426</ele>
        <time>2022-07-10T08:10:22Z</time>
      </trkpt>
      <trkpt lat="38.834471" lon="-0.407480">
        <ele>831.243</ele>
        <time>2022-07-10T08:10:23Z</time>
      </trkpt>
      <trkpt lat="38.834551" lon="-0.407418">
        <ele>830.041</ele>
        <time>2022-07-10T08:10:30Z</time>
      </trkpt>
      <trkpt lat="38.834562" lon="-0.407408">
        <ele>830.050</ele>
        <time>2022-07-10T08:10:31Z</time>
      </trkpt>
      <trkpt lat="38.834581" lon="-0.407394">
        <ele>829.686</ele>
        <time>2022-07-10T08:10:33Z</time>
      </trkpt>
      <trkpt lat="38.834602" lon="-0.407355">
        <ele>829.089</ele>
        <time>2022-07-10T08:10:36Z</time>
      </trkpt>
      <trkpt lat="38.834611" lon="-0.407343">
        <ele>828.863</ele>
        <time>2022-07-10T08:10:37Z</time>
      </trkpt>
      <trkpt lat="38.834632" lon="-0.407301">
        <ele>827.899</ele>
        <time>2022-07-10T08:10:42Z</time>
      </trkpt>
      <trkpt lat="38.834633" lon="-0.407288">
        <ele>827.659</ele>
        <time>2022-07-10T08:10:43Z</time>
      </trkpt>
      <trkpt lat="38.834630" lon="-0.407226">
        <ele>826.603</ele>
        <time>2022-07-10T08:10:49Z</time>
      </trkpt>
      <trkpt lat="38.834689" lon="-0.407196">
        <ele>825.623</ele>
        <time>2022-07-10T08:10:55Z</time>
      </trkpt>
      <trkpt lat="38.834709" lon="-0.407194">
        <ele>825.209</ele>
        <time>2022-07-10T08:10:58Z</time>
      </trkpt>
      <trkpt lat="38.834763" lon="-0.407217">
        <ele>824.446</ele>
        <time>2022-07-10T08:11:01Z</time>
      </trkpt>
      <trkpt lat="38.834787" lon="-0.407213">
        <ele>823.815</ele>
        <time>2022-07-10T08:11:04Z</time>
      </trkpt>
      <trkpt lat="38.834793" lon="-0.407203">
        <ele>823.292</ele>
        <time>2022-07-10T08:11:06Z</time>
      </trkpt>
      <trkpt lat="38.834807" lon="-0.407202">
        <ele>823.270</ele>
        <time>2022-07-10T08:11:07Z</time>
      </trkpt>
      <trkpt lat="38.834876" lon="-0.407221">
        <ele>822.419</ele>
        <time>2022-07-10T08:11:11Z</time>
      </trkpt>
      <trkpt lat="38.834888" lon="-0.407227">
        <ele>822.255</ele>
        <time>2022-07-10T08:11:12Z</time>
      </trkpt>
      <trkpt lat="38.834915" lon="-0.407219">
        <ele>821.048</ele>
        <time>2022-07-10T08:11:17Z</time>
      </trkpt>
      <trkpt lat="38.834912" lon="-0.407231">
        <ele>820.812</ele>
        <time>2022-07-10T08:11:19Z</time>
      </trkpt>
      <trkpt lat="38.834930" lon="-0.407248">
        <ele>820.058</ele>
        <time>2022-07-10T08:11:23Z</time>
      </trkpt>
      <trkpt lat="38.834928" lon="-0.407277">
        <ele>819.294</ele>
        <time>2022-07-10T08:11:28Z</time>
      </trkpt>
      <trkpt lat="38.834920" lon="-0.407281">
        <ele>818.857</ele>
        <time>2022-07-10T08:11:29Z</time>
      </trkpt>
      <trkpt lat="38.834913" lon="-0.407283">
        <ele>818.622</ele>
        <time>2022-07-10T08:11:30Z</time>
      </trkpt>
      <trkpt lat="38.834887" lon="-0.407289">
        <ele>817.809</ele>
        <time>2022-07-10T08:11:34Z</time>
      </trkpt>
      <trkpt lat="38.834878" lon="-0.407285">
        <ele>817.860</ele>
        <time>2022-07-10T08:11:35Z</time>
      </trkpt>
      <trkpt lat="38.834865" lon="-0.407286">
        <ele>817.699</ele>
        <time>2022-07-10T08:11:36Z</time>
      </trkpt>
      <trkpt lat="38.834821" lon="-0.407310">
        <ele>816.826</ele>
        <time>2022-07-10T08:11:40Z</time>
      </trkpt>
      <trkpt lat="38.834813" lon="-0.407322">
        <ele>816.684</ele>
        <time>2022-07-10T08:11:41Z</time>
      </trkpt>
      <trkpt lat="38.834791" lon="-0.407361">
        <ele>816.033</ele>
        <time>2022-07-10T08:11:45Z</time>
      </trkpt>
      <trkpt lat="38.834799" lon="-0.407370">
        <ele>815.889</ele>
        <time>2022-07-10T08:11:47Z</time>
      </trkpt>
      <trkpt lat="38.834793" lon="-0.407381">
        <ele>815.622</ele>
        <time>2022-07-10T08:11:49Z</time>
      </trkpt>
      <trkpt lat="38.834791" lon="-0.407389">
        <ele>815.486</ele>
        <time>2022-07-10T08:11:50Z</time>
      </trkpt>
      <trkpt lat="38.834769" lon="-0.407411">
        <ele>815.012</ele>
        <time>2022-07-10T08:11:52Z</time>
      </trkpt>
      <trkpt lat="38.834766" lon="-0.407444">
        <ele>814.675</ele>
        <time>2022-07-10T08:11:54Z</time>
      </trkpt>
      <trkpt lat="38.834725" lon="-0.407509">
        <ele>813.828</ele>
        <time>2022-07-10T08:11:59Z</time>
      </trkpt>
      <trkpt lat="38.834708" lon="-0.407543">
        <ele>813.420</ele>
        <time>2022-07-10T08:12:01Z</time>
      </trkpt>
      <trkpt lat="38.834683" lon="-0.407606">
        <ele>812.609</ele>
        <time>2022-07-10T08:12:06Z</time>
      </trkpt>
      <trkpt lat="38.834692" lon="-0.407615">
        <ele>812.288</ele>
        <time>2022-07-10T08:12:07Z</time>
      </trkpt>
      <trkpt lat="38.834706" lon="-0.407620">
        <ele>811.837</ele>
        <time>2022-07-10T08:12:09Z</time>
      </trkpt>
      <trkpt lat="38.834724" lon="-0.407608">
        <ele>811.444</ele>
        <time>2022-07-10T08:12:11Z</time>
      </trkpt>
      <trkpt lat="38.834736" lon="-0.407599">
        <ele>811.252</ele>
        <time>2022-07-10T08:12:12Z</time>
      </trkpt>
      <trkpt lat="38.834767" lon="-0.407574">
        <ele>810.661</ele>
        <time>2022-07-10T08:12:15Z</time>
      </trkpt>
      <trkpt lat="38.834782" lon="-0.407556">
        <ele>810.297</ele>
        <time>2022-07-10T08:12:17Z</time>
      </trkpt>
      <trkpt lat="38.834795" lon="-0.407546">
        <ele>810.080</ele>
        <time>2022-07-10T08:12:18Z</time>
      </trkpt>
      <trkpt lat="38.834875" lon="-0.407513">
        <ele>809.064</ele>
        <time>2022-07-10T08:12:23Z</time>
      </trkpt>
      <trkpt lat="38.834939" lon="-0.407503">
        <ele>808.080</ele>
        <time>2022-07-10T08:12:29Z</time>
      </trkpt>
      <trkpt lat="38.834932" lon="-0.407518">
        <ele>807.412</ele>
        <time>2022-07-10T08:12:31Z</time>
      </trkpt>
      <trkpt lat="38.834923" lon="-0.407528">
        <ele>807.232</ele>
        <time>2022-07-10T08:12:32Z</time>
      </trkpt>
      <trkpt lat="38.834912" lon="-0.407535">
        <ele>807.005</ele>
        <time>2022-07-10T08:12:33Z</time>
      </trkpt>
      <trkpt lat="38.834904" lon="-0.407544">
        <ele>806.809</ele>
        <time>2022-07-10T08:12:34Z</time>
      </trkpt>
      <trkpt lat="38.834905" lon="-0.407551">
        <ele>806.412</ele>
        <time>2022-07-10T08:12:35Z</time>
      </trkpt>
      <trkpt lat="38.834887" lon="-0.407561">
        <ele>806.061</ele>
        <time>2022-07-10T08:12:37Z</time>
      </trkpt>
      <trkpt lat="38.834873" lon="-0.407574">
        <ele>805.868</ele>
        <time>2022-07-10T08:12:38Z</time>
      </trkpt>
      <trkpt lat="38.834833" lon="-0.407628">
        <ele>804.616</ele>
        <time>2022-07-10T08:12:43Z</time>
      </trkpt>
      <trkpt lat="38.834813" lon="-0.407655">
        <ele>804.015</ele>
        <time>2022-07-10T08:12:46Z</time>
      </trkpt>
      <trkpt lat="38.834805" lon="-0.407678">
        <ele>803.211</ele>
        <time>2022-07-10T08:12:48Z</time>
      </trkpt>
      <trkpt lat="38.834801" lon="-0.407709">
        <ele>802.894</ele>
        <time>2022-07-10T08:12:50Z</time>
      </trkpt>
      <trkpt lat="38.834817" lon="-0.407733">
        <ele>802.668</ele>
        <time>2022-07-10T08:12:52Z</time>
      </trkpt>
      <trkpt lat="38.834823" lon="-0.407764">
        <ele>802.044</ele>
        <time>2022-07-10T08:12:54Z</time>
      </trkpt>
      <trkpt lat="38.834798" lon="-0.407822">
        <ele>801.242</ele>
        <time>2022-07-10T08:12:58Z</time>
      </trkpt>
      <trkpt lat="38.834809" lon="-0.407829">
        <ele>801.022</ele>
        <time>2022-07-10T08:12:59Z</time>
      </trkpt>
      <trkpt lat="38.834819" lon="-0.407828">
        <ele>800.814</ele>
        <time>2022-07-10T08:13:00Z</time>
      </trkpt>
      <trkpt lat="38.834859" lon="-0.407809">
        <ele>799.809</ele>
        <time>2022-07-10T08:13:04Z</time>
      </trkpt>
      <trkpt lat="38.834900" lon="-0.407795">
        <ele>798.845</ele>
        <time>2022-07-10T08:13:09Z</time>
      </trkpt>
      <trkpt lat="38.834932" lon="-0.407775">
        <ele>798.234</ele>
        <time>2022-07-10T08:13:12Z</time>
      </trkpt>
      <trkpt lat="38.834962" lon="-0.407765">
        <ele>797.621</ele>
        <time>2022-07-10T08:13:15Z</time>
      </trkpt>
      <trkpt lat="38.834977" lon="-0.407753">
        <ele>796.869</ele>
        <time>2022-07-10T08:13:17Z</time>
      </trkpt>
      <trkpt lat="38.834988" lon="-0.407747">
        <ele>796.458</ele>
        <time>2022-07-10T08:13:19Z</time>
      </trkpt>
      <trkpt lat="38.834991" lon="-0.407747">
        <ele>796.234</ele>
        <time>2022-07-10T08:13:20Z</time>
      </trkpt>
      <trkpt lat="38.834993" lon="-0.407743">
        <ele>796.287</ele>
        <time>2022-07-10T08:13:21Z</time>
      </trkpt>
      <trkpt lat="38.835008" lon="-0.407728">
        <ele>795.431</ele>
        <time>2022-07-10T08:13:24Z</time>
      </trkpt>
      <trkpt lat="38.835006" lon="-0.407730">
        <ele>795.027</ele>
        <time>2022-07-10T08:13:26Z</time>
      </trkpt>
      <trkpt lat="38.834988" lon="-0.407757">
        <ele>794.664</ele>
        <time>2022-07-10T08:13:28Z</time>
      </trkpt>
      <trkpt lat="38.834979" lon="-0.407766">
        <ele>794.406</ele>
        <time>2022-07-10T08:13:29Z</time>
      </trkpt>
      <trkpt lat="38.834974" lon="-0.407773">
        <ele>794.216</ele>
        <time>2022-07-10T08:13:30Z</time>
      </trkpt>
      <trkpt lat="38.834962" lon="-0.407792">
        <ele>793.809</ele>
        <time>2022-07-10T08:13:32Z</time>
      </trkpt>
      <trkpt lat="38.834940" lon="-0.407811">
        <ele>793.427</ele>
        <time>2022-07-10T08:13:34Z</time>
      </trkpt>
      <trkpt lat="38.834924" lon="-0.407830">
        <ele>793.086</ele>
        <time>2022-07-10T08:13:36Z</time>
      </trkpt>
      <trkpt lat="38.834909" lon="-0.407885">
        <ele>792.023</ele>
        <time>2022-07-10T08:13:41Z</time>
      </trkpt>
      <trkpt lat="38.834894" lon="-0.407919">
        <ele>791.211</ele>
        <time>2022-07-10T08:13:45Z</time>
      </trkpt>
      <trkpt lat="38.834892" lon="-0.407926">
        <ele>791.030</ele>
        <time>2022-07-10T08:13:46Z</time>
      </trkpt>
      <trkpt lat="38.834896" lon="-0.407945">
        <ele>790.436</ele>
        <time>2022-07-10T08:13:48Z</time>
      </trkpt>
      <trkpt lat="38.834875" lon="-0.408001">
        <ele>789.869</ele>
        <time>2022-07-10T08:13:51Z</time>
      </trkpt>
      <trkpt lat="38.834872" lon="-0.408014">
        <ele>789.673</ele>
        <time>2022-07-10T08:13:52Z</time>
      </trkpt>
      <trkpt lat="38.834872" lon="-0.408026">
        <ele>789.069</ele>
        <time>2022-07-10T08:13:53Z</time>
      </trkpt>
      <trkpt lat="38.834874" lon="-0.408033">
        <ele>788.822</ele>
        <time>2022-07-10T08:13:54Z</time>
      </trkpt>
      <trkpt lat="38.834873" lon="-0.408061">
        <ele>788.062</ele>
        <time>2022-07-10T08:13:57Z</time>
      </trkpt>
      <trkpt lat="38.834869" lon="-0.408077">
        <ele>787.408</ele>
        <time>2022-07-10T08:13:59Z</time>
      </trkpt>
      <trkpt lat="38.834864" lon="-0.408127">
        <ele>786.209</ele>
        <time>2022-07-10T08:14:04Z</time>
      </trkpt>
      <trkpt lat="38.834871" lon="-0.408132">
        <ele>786.083</ele>
        <time>2022-07-10T08:14:05Z</time>
      </trkpt>
      <trkpt lat="38.834892" lon="-0.408137">
        <ele>785.822</ele>
        <time>2022-07-10T08:14:07Z</time>
      </trkpt>
      <trkpt lat="38.834926" lon="-0.408128">
        <ele>785.289</ele>
        <time>2022-07-10T08:14:09Z</time>
      </trkpt>
      <trkpt lat="38.834946" lon="-0.408111">
        <ele>785.277</ele>
        <time>2022-07-10T08:14:11Z</time>
      </trkpt>
      <trkpt lat="38.834977" lon="-0.408059">
        <ele>785.496</ele>
        <time>2022-07-10T08:14:15Z</time>
      </trkpt>
      <trkpt lat="38.835007" lon="-0.408023">
        <ele>785.452</ele>
        <time>2022-07-10T08:14:18Z</time>
      </trkpt>
      <trkpt lat="38.835082" lon="-0.407962">
        <ele>785.465</ele>
        <time>2022-07-10T08:14:25Z</time>
      </trkpt>
      <trkpt lat="38.835093" lon="-0.407956">
        <ele>785.429</ele>
        <time>2022-07-10T08:14:26Z</time>
      </trkpt>
      <trkpt lat="38.835156" lon="-0.407954">
        <ele>785.695</ele>
        <time>2022-07-10T08:14:31Z</time>
      </trkpt>
      <trkpt lat="38.835176" lon="-0.407953">
        <ele>785.882</ele>
        <time>2022-07-10T08:14:33Z</time>
      </trkpt>
      <trkpt lat="38.835229" lon="-0.407919">
        <ele>786.043</ele>
        <time>2022-07-10T08:14:36Z</time>
      </trkpt>
      <trkpt lat="38.835251" lon="-0.407922">
        <ele>786.217</ele>
        <time>2022-07-10T08:14:37Z</time>
      </trkpt>
      <trkpt lat="38.835280" lon="-0.407907">
        <ele>786.209</ele>
        <time>2022-07-10T08:14:39Z</time>
      </trkpt>
      <trkpt lat="38.835307" lon="-0.407886">
        <ele>786.429</ele>
        <time>2022-07-10T08:14:42Z</time>
      </trkpt>
      <trkpt lat="38.835325" lon="-0.407863">
        <ele>786.698</ele>
        <time>2022-07-10T08:14:45Z</time>
      </trkpt>
      <trkpt lat="38.835399" lon="-0.407807">
        <ele>786.855</ele>
        <time>2022-07-10T08:14:51Z</time>
      </trkpt>
      <trkpt lat="38.835444" lon="-0.407719">
        <ele>786.643</ele>
        <time>2022-07-10T08:14:57Z</time>
      </trkpt>
      <trkpt lat="38.835443" lon="-0.407700">
        <ele>786.492</ele>
        <time>2022-07-10T08:14:58Z</time>
      </trkpt>
      <trkpt lat="38.835440" lon="-0.407561">
        <ele>786.628</ele>
        <time>2022-07-10T08:15:05Z</time>
      </trkpt>
      <trkpt lat="38.835449" lon="-0.407372">
        <ele>786.681</ele>
        <time>2022-07-10T08:15:16Z</time>
      </trkpt>
      <trkpt lat="38.835418" lon="-0.407275">
        <ele>786.865</ele>
        <time>2022-07-10T08:15:24Z</time>
      </trkpt>
      <trkpt lat="38.835412" lon="-0.407275">
        <ele>787.051</ele>
        <time>2022-07-10T08:15:27Z</time>
      </trkpt>
      <trkpt lat="38.835412" lon="-0.407274">
        <ele>786.812</ele>
        <time>2022-07-10T08:15:28Z</time>
      </trkpt>
      <trkpt lat="38.835438" lon="-0.407248">
        <ele>786.832</ele>
        <time>2022-07-10T08:15:31Z</time>
      </trkpt>
      <trkpt lat="38.835434" lon="-0.407236">
        <ele>786.805</ele>
        <time>2022-07-10T08:15:33Z</time>
      </trkpt>
      <trkpt lat="38.835436" lon="-0.407208">
        <ele>786.809</ele>
        <time>2022-07-10T08:15:36Z</time>
      </trkpt>
      <trkpt lat="38.835428" lon="-0.407188">
        <ele>786.822</ele>
        <time>2022-07-10T08:15:40Z</time>
      </trkpt>
      <trkpt lat="38.835428" lon="-0.407175">
        <ele>786.831</ele>
        <time>2022-07-10T08:15:43Z</time>
      </trkpt>
      <trkpt lat="38.835427" lon="-0.407165">
        <ele>786.838</ele>
        <time>2022-07-10T08:15:45Z</time>
      </trkpt>
      <trkpt lat="38.835429" lon="-0.407155">
        <ele>786.866</ele>
        <time>2022-07-10T08:15:46Z</time>
      </trkpt>
      <trkpt lat="38.835431" lon="-0.407140">
        <ele>787.095</ele>
        <time>2022-07-10T08:15:47Z</time>
      </trkpt>
      <trkpt lat="38.835447" lon="-0.407045">
        <ele>787.411</ele>
        <time>2022-07-10T08:15:52Z</time>
      </trkpt>
      <trkpt lat="38.835444" lon="-0.407031">
        <ele>787.454</ele>
        <time>2022-07-10T08:15:53Z</time>
      </trkpt>
      <trkpt lat="38.835414" lon="-0.406907">
        <ele>788.288</ele>
        <time>2022-07-10T08:16:01Z</time>
      </trkpt>
      <trkpt lat="38.835416" lon="-0.406882">
        <ele>788.484</ele>
        <time>2022-07-10T08:16:03Z</time>
      </trkpt>
      <trkpt lat="38.835437" lon="-0.406860">
        <ele>789.029</ele>
        <time>2022-07-10T08:16:05Z</time>
      </trkpt>
      <trkpt lat="38.835445" lon="-0.406832">
        <ele>789.200</ele>
        <time>2022-07-10T08:16:07Z</time>
      </trkpt>
      <trkpt lat="38.835469" lon="-0.406755">
        <ele>789.220</ele>
        <time>2022-07-10T08:16:11Z</time>
      </trkpt>
      <trkpt lat="38.835486" lon="-0.406724">
        <ele>789.209</ele>
        <time>2022-07-10T08:16:13Z</time>
      </trkpt>
      <trkpt lat="38.835519" lon="-0.406633">
        <ele>789.453</ele>
        <time>2022-07-10T08:16:20Z</time>
      </trkpt>
      <trkpt lat="38.835534" lon="-0.406541">
        <ele>790.092</ele>
        <time>2022-07-10T08:16:26Z</time>
      </trkpt>
      <trkpt lat="38.835523" lon="-0.406501">
        <ele>790.469</ele>
        <time>2022-07-10T08:16:28Z</time>
      </trkpt>
      <trkpt lat="38.835522" lon="-0.406433">
        <ele>790.697</ele>
        <time>2022-07-10T08:16:31Z</time>
      </trkpt>
      <trkpt lat="38.835523" lon="-0.406376">
        <ele>791.016</ele>
        <time>2022-07-10T08:16:35Z</time>
      </trkpt>
      <trkpt lat="38.835532" lon="-0.406348">
        <ele>791.032</ele>
        <time>2022-07-10T08:16:37Z</time>
      </trkpt>
      <trkpt lat="38.835567" lon="-0.406275">
        <ele>791.255</ele>
        <time>2022-07-10T08:16:42Z</time>
      </trkpt>
      <trkpt lat="38.835571" lon="-0.406245">
        <ele>791.419</ele>
        <time>2022-07-10T08:16:44Z</time>
      </trkpt>
      <trkpt lat="38.835570" lon="-0.406195">
        <ele>791.675</ele>
        <time>2022-07-10T08:16:48Z</time>
      </trkpt>
      <trkpt lat="38.835577" lon="-0.406184">
        <ele>791.832</ele>
        <time>2022-07-10T08:16:49Z</time>
      </trkpt>
      <trkpt lat="38.835606" lon="-0.406145">
        <ele>791.892</ele>
        <time>2022-07-10T08:16:54Z</time>
      </trkpt>
      <trkpt lat="38.835605" lon="-0.406133">
        <ele>792.011</ele>
        <time>2022-07-10T08:16:55Z</time>
      </trkpt>
      <trkpt lat="38.835607" lon="-0.406118">
        <ele>792.009</ele>
        <time>2022-07-10T08:16:56Z</time>
      </trkpt>
      <trkpt lat="38.835629" lon="-0.406091">
        <ele>792.634</ele>
        <time>2022-07-10T08:16:59Z</time>
      </trkpt>
      <trkpt lat="38.835658" lon="-0.406108">
        <ele>793.263</ele>
        <time>2022-07-10T08:17:02Z</time>
      </trkpt>
      <trkpt lat="38.835694" lon="-0.406117">
        <ele>793.670</ele>
        <time>2022-07-10T08:17:05Z</time>
      </trkpt>
      <trkpt lat="38.835716" lon="-0.406156">
        <ele>793.898</ele>
        <time>2022-07-10T08:17:08Z</time>
      </trkpt>
      <trkpt lat="38.835728" lon="-0.406165">
        <ele>793.857</ele>
        <time>2022-07-10T08:17:09Z</time>
      </trkpt>
      <trkpt lat="38.835736" lon="-0.406184">
        <ele>794.073</ele>
        <time>2022-07-10T08:17:10Z</time>
      </trkpt>
      <trkpt lat="38.835778" lon="-0.406195">
        <ele>794.046</ele>
        <time>2022-07-10T08:17:13Z</time>
      </trkpt>
      <trkpt lat="38.835787" lon="-0.406196">
        <ele>794.280</ele>
        <time>2022-07-10T08:17:15Z</time>
      </trkpt>
      <trkpt lat="38.835813" lon="-0.406239">
        <ele>794.466</ele>
        <time>2022-07-10T08:17:18Z</time>
      </trkpt>
      <trkpt lat="38.835831" lon="-0.406252">
        <ele>794.625</ele>
        <time>2022-07-10T08:17:20Z</time>
      </trkpt>
      <trkpt lat="38.835853" lon="-0.406260">
        <ele>794.626</ele>
        <time>2022-07-10T08:17:22Z</time>
      </trkpt>
      <trkpt lat="38.835867" lon="-0.406276">
        <ele>794.808</ele>
        <time>2022-07-10T08:17:24Z</time>
      </trkpt>
      <trkpt lat="38.835922" lon="-0.406289">
        <ele>795.009</ele>
        <time>2022-07-10T08:17:29Z</time>
      </trkpt>
      <trkpt lat="38.835943" lon="-0.406270">
        <ele>795.093</ele>
        <time>2022-07-10T08:17:31Z</time>
      </trkpt>
      <trkpt lat="38.835977" lon="-0.406253">
        <ele>795.022</ele>
        <time>2022-07-10T08:17:34Z</time>
      </trkpt>
      <trkpt lat="38.835997" lon="-0.406229">
        <ele>795.219</ele>
        <time>2022-07-10T08:17:36Z</time>
      </trkpt>
      <trkpt lat="38.836020" lon="-0.406143">
        <ele>794.077</ele>
        <time>2022-07-10T08:17:42Z</time>
      </trkpt>
      <trkpt lat="38.836025" lon="-0.406133">
        <ele>794.096</ele>
        <time>2022-07-10T08:17:43Z</time>
      </trkpt>
      <trkpt lat="38.836041" lon="-0.406094">
        <ele>793.612</ele>
        <time>2022-07-10T08:17:47Z</time>
      </trkpt>
      <trkpt lat="38.836047" lon="-0.406082">
        <ele>793.685</ele>
        <time>2022-07-10T08:17:48Z</time>
      </trkpt>
      <trkpt lat="38.836077" lon="-0.405956">
        <ele>793.089</ele>
        <time>2022-07-10T08:17:56Z</time>
      </trkpt>
      <trkpt lat="38.836082" lon="-0.405936">
        <ele>793.065</ele>
        <time>2022-07-10T08:17:57Z</time>
      </trkpt>
      <trkpt lat="38.836096" lon="-0.405875">
        <ele>792.683</ele>
        <time>2022-07-10T08:18:01Z</time>
      </trkpt>
      <trkpt lat="38.836098" lon="-0.405832">
        <ele>792.225</ele>
        <time>2022-07-10T08:18:04Z</time>
      </trkpt>
      <trkpt lat="38.836095" lon="-0.405703">
        <ele>791.417</ele>
        <time>2022-07-10T08:18:12Z</time>
      </trkpt>
      <trkpt lat="38.836093" lon="-0.405681">
        <ele>791.209</ele>
        <time>2022-07-10T08:18:14Z</time>
      </trkpt>
      <trkpt lat="38.836105" lon="-0.405578">
        <ele>790.419</ele>
        <time>2022-07-10T08:18:22Z</time>
      </trkpt>
      <trkpt lat="38.836106" lon="-0.405566">
        <ele>790.248</ele>
        <time>2022-07-10T08:18:23Z</time>
      </trkpt>
      <trkpt lat="38.836127" lon="-0.405434">
        <ele>789.635</ele>
        <time>2022-07-10T08:18:31Z</time>
      </trkpt>
      <trkpt lat="38.836133" lon="-0.405419">
        <ele>789.213</ele>
        <time>2022-07-10T08:18:32Z</time>
      </trkpt>
      <trkpt lat="38.836197" lon="-0.405343">
        <ele>788.072</ele>
        <time>2022-07-10T08:18:39Z</time>
      </trkpt>
      <trkpt lat="38.836229" lon="-0.405294">
        <ele>787.658</ele>
        <time>2022-07-10T08:18:43Z</time>
      </trkpt>
      <trkpt lat="38.836246" lon="-0.405241">
        <ele>787.261</ele>
        <time>2022-07-10T08:18:47Z</time>
      </trkpt>
      <trkpt lat="38.836273" lon="-0.405229">
        <ele>787.095</ele>
        <time>2022-07-10T08:18:49Z</time>
      </trkpt>
      <trkpt lat="38.836359" lon="-0.405195">
        <ele>786.251</ele>
        <time>2022-07-10T08:18:55Z</time>
      </trkpt>
      <trkpt lat="38.836412" lon="-0.405180">
        <ele>786.049</ele>
        <time>2022-07-10T08:18:59Z</time>
      </trkpt>
      <trkpt lat="38.836508" lon="-0.405158">
        <ele>785.402</ele>
        <time>2022-07-10T08:19:05Z</time>
      </trkpt>
      <trkpt lat="38.836607" lon="-0.405114">
        <ele>784.822</ele>
        <time>2022-07-10T08:19:12Z</time>
      </trkpt>
      <trkpt lat="38.836622" lon="-0.405104">
        <ele>784.809</ele>
        <time>2022-07-10T08:19:13Z</time>
      </trkpt>
      <trkpt lat="38.836642" lon="-0.405091">
        <ele>784.675</ele>
        <time>2022-07-10T08:19:15Z</time>
      </trkpt>
      <trkpt lat="38.836720" lon="-0.405023">
        <ele>784.014</ele>
        <time>2022-07-10T08:19:24Z</time>
      </trkpt>
      <trkpt lat="38.836731" lon="-0.405016">
        <ele>783.831</ele>
        <time>2022-07-10T08:19:25Z</time>
      </trkpt>
      <trkpt lat="38.836811" lon="-0.404951">
        <ele>782.839</ele>
        <time>2022-07-10T08:19:31Z</time>
      </trkpt>
      <trkpt lat="38.836821" lon="-0.404946">
        <ele>782.648</ele>
        <time>2022-07-10T08:19:32Z</time>
      </trkpt>
      <trkpt lat="38.836849" lon="-0.404921">
        <ele>782.264</ele>
        <time>2022-07-10T08:19:36Z</time>
      </trkpt>
      <trkpt lat="38.836857" lon="-0.404919">
        <ele>782.227</ele>
        <time>2022-07-10T08:19:37Z</time>
      </trkpt>
      <trkpt lat="38.836886" lon="-0.404909">
        <ele>781.611</ele>
        <time>2022-07-10T08:19:42Z</time>
      </trkpt>
      <trkpt lat="38.836979" lon="-0.404905">
        <ele>781.297</ele>
        <time>2022-07-10T08:19:47Z</time>
      </trkpt>
      <trkpt lat="38.836992" lon="-0.404908">
        <ele>781.033</ele>
        <time>2022-07-10T08:19:48Z</time>
      </trkpt>
      <trkpt lat="38.837043" lon="-0.404895">
        <ele>780.623</ele>
        <time>2022-07-10T08:19:52Z</time>
      </trkpt>
      <trkpt lat="38.837071" lon="-0.404887">
        <ele>780.415</ele>
        <time>2022-07-10T08:19:55Z</time>
      </trkpt>
      <trkpt lat="38.837129" lon="-0.404898">
        <ele>780.409</ele>
        <time>2022-07-10T08:20:00Z</time>
      </trkpt>
      <trkpt lat="38.837160" lon="-0.404905">
        <ele>780.414</ele>
        <time>2022-07-10T08:20:02Z</time>
      </trkpt>
      <trkpt lat="38.837216" lon="-0.404911">
        <ele>779.643</ele>
        <time>2022-07-10T08:20:07Z</time>
      </trkpt>
      <trkpt lat="38.837249" lon="-0.404901">
        <ele>779.430</ele>
        <time>2022-07-10T08:20:09Z</time>
      </trkpt>
      <trkpt lat="38.837266" lon="-0.404895">
        <ele>779.298</ele>
        <time>2022-07-10T08:20:11Z</time>
      </trkpt>
      <trkpt lat="38.837321" lon="-0.404859">
        <ele>778.827</ele>
        <time>2022-07-10T08:20:15Z</time>
      </trkpt>
      <trkpt lat="38.837334" lon="-0.404815">
        <ele>778.443</ele>
        <time>2022-07-10T08:20:18Z</time>
      </trkpt>
      <trkpt lat="38.837370" lon="-0.404823">
        <ele>778.016</ele>
        <time>2022-07-10T08:20:21Z</time>
      </trkpt>
      <trkpt lat="38.837397" lon="-0.404818">
        <ele>777.860</ele>
        <time>2022-07-10T08:20:23Z</time>
      </trkpt>
      <trkpt lat="38.837450" lon="-0.404819">
        <ele>777.626</ele>
        <time>2022-07-10T08:20:27Z</time>
      </trkpt>
      <trkpt lat="38.837461" lon="-0.404825">
        <ele>777.611</ele>
        <time>2022-07-10T08:20:28Z</time>
      </trkpt>
      <trkpt lat="38.837487" lon="-0.404839">
        <ele>777.221</ele>
        <time>2022-07-10T08:20:30Z</time>
      </trkpt>
      <trkpt lat="38.837553" lon="-0.404844">
        <ele>777.003</ele>
        <time>2022-07-10T08:20:34Z</time>
      </trkpt>
      <trkpt lat="38.837582" lon="-0.404840">
        <ele>776.809</ele>
        <time>2022-07-10T08:20:36Z</time>
      </trkpt>
      <trkpt lat="38.837605" lon="-0.404824">
        <ele>776.422</ele>
        <time>2022-07-10T08:20:38Z</time>
      </trkpt>
      <trkpt lat="38.837622" lon="-0.404825">
        <ele>776.241</ele>
        <time>2022-07-10T08:20:39Z</time>
      </trkpt>
      <trkpt lat="38.837679" lon="-0.404832">
        <ele>775.648</ele>
        <time>2022-07-10T08:20:44Z</time>
      </trkpt>
      <trkpt lat="38.837689" lon="-0.404837">
        <ele>775.466</ele>
        <time>2022-07-10T08:20:45Z</time>
      </trkpt>
      <trkpt lat="38.837700" lon="-0.404842">
        <ele>775.235</ele>
        <time>2022-07-10T08:20:46Z</time>
      </trkpt>
      <trkpt lat="38.837713" lon="-0.404852">
        <ele>775.281</ele>
        <time>2022-07-10T08:20:47Z</time>
      </trkpt>
      <trkpt lat="38.837756" lon="-0.404858">
        <ele>775.024</ele>
        <time>2022-07-10T08:20:49Z</time>
      </trkpt>
      <trkpt lat="38.837784" lon="-0.404848">
        <ele>775.098</ele>
        <time>2022-07-10T08:20:50Z</time>
      </trkpt>
      <trkpt lat="38.837799" lon="-0.404843">
        <ele>774.814</ele>
        <time>2022-07-10T08:20:51Z</time>
      </trkpt>
      <trkpt lat="38.837824" lon="-0.404863">
        <ele>774.485</ele>
        <time>2022-07-10T08:20:54Z</time>
      </trkpt>
      <trkpt lat="38.837833" lon="-0.404893">
        <ele>774.289</ele>
        <time>2022-07-10T08:20:56Z</time>
      </trkpt>
      <trkpt lat="38.837855" lon="-0.404925">
        <ele>773.817</ele>
        <time>2022-07-10T08:20:59Z</time>
      </trkpt>
      <trkpt lat="38.837884" lon="-0.404928">
        <ele>773.409</ele>
        <time>2022-07-10T08:21:01Z</time>
      </trkpt>
      <trkpt lat="38.837905" lon="-0.404944">
        <ele>773.289</ele>
        <time>2022-07-10T08:21:03Z</time>
      </trkpt>
      <trkpt lat="38.837937" lon="-0.404997">
        <ele>772.448</ele>
        <time>2022-07-10T08:21:07Z</time>
      </trkpt>
      <trkpt lat="38.837947" lon="-0.405029">
        <ele>771.865</ele>
        <time>2022-07-10T08:21:09Z</time>
      </trkpt>
      <trkpt lat="38.837995" lon="-0.405080">
        <ele>770.673</ele>
        <time>2022-07-10T08:21:14Z</time>
      </trkpt>
      <trkpt lat="38.838001" lon="-0.405094">
        <ele>770.652</ele>
        <time>2022-07-10T08:21:15Z</time>
      </trkpt>
      <trkpt lat="38.838020" lon="-0.405136">
        <ele>770.078</ele>
        <time>2022-07-10T08:21:18Z</time>
      </trkpt>
      <trkpt lat="38.838036" lon="-0.405161">
        <ele>769.681</ele>
        <time>2022-07-10T08:21:20Z</time>
      </trkpt>
      <trkpt lat="38.838043" lon="-0.405174">
        <ele>769.695</ele>
        <time>2022-07-10T08:21:21Z</time>
      </trkpt>
      <trkpt lat="38.838055" lon="-0.405208">
        <ele>769.281</ele>
        <time>2022-07-10T08:21:23Z</time>
      </trkpt>
      <trkpt lat="38.838083" lon="-0.405251">
        <ele>769.096</ele>
        <time>2022-07-10T08:21:26Z</time>
      </trkpt>
      <trkpt lat="38.838096" lon="-0.405298">
        <ele>768.631</ele>
        <time>2022-07-10T08:21:29Z</time>
      </trkpt>
      <trkpt lat="38.838104" lon="-0.405313">
        <ele>768.224</ele>
        <time>2022-07-10T08:21:30Z</time>
      </trkpt>
      <trkpt lat="38.838132" lon="-0.405341">
        <ele>767.809</ele>
        <time>2022-07-10T08:21:32Z</time>
      </trkpt>
      <trkpt lat="38.838147" lon="-0.405384">
        <ele>767.420</ele>
        <time>2022-07-10T08:21:34Z</time>
      </trkpt>
      <trkpt lat="38.838168" lon="-0.405425">
        <ele>767.249</ele>
        <time>2022-07-10T08:21:36Z</time>
      </trkpt>
      <trkpt lat="38.838181" lon="-0.405457">
        <ele>766.896</ele>
        <time>2022-07-10T08:21:38Z</time>
      </trkpt>
      <trkpt lat="38.838183" lon="-0.405498">
        <ele>766.484</ele>
        <time>2022-07-10T08:21:41Z</time>
      </trkpt>
      <trkpt lat="38.838187" lon="-0.405514">
        <ele>766.283</ele>
        <time>2022-07-10T08:21:42Z</time>
      </trkpt>
      <trkpt lat="38.838231" lon="-0.405607">
        <ele>765.479</ele>
        <time>2022-07-10T08:21:48Z</time>
      </trkpt>
      <trkpt lat="38.838229" lon="-0.405636">
        <ele>765.432</ele>
        <time>2022-07-10T08:21:49Z</time>
      </trkpt>
      <trkpt lat="38.838231" lon="-0.405651">
        <ele>765.256</ele>
        <time>2022-07-10T08:21:50Z</time>
      </trkpt>
      <trkpt lat="38.838238" lon="-0.405659">
        <ele>765.492</ele>
        <time>2022-07-10T08:21:51Z</time>
      </trkpt>
      <trkpt lat="38.838265" lon="-0.405662">
        <ele>765.076</ele>
        <time>2022-07-10T08:21:53Z</time>
      </trkpt>
      <trkpt lat="38.838314" lon="-0.405735">
        <ele>764.490</ele>
        <time>2022-07-10T08:21:58Z</time>
      </trkpt>
      <trkpt lat="38.838321" lon="-0.405748">
        <ele>764.019</ele>
        <time>2022-07-10T08:21:59Z</time>
      </trkpt>
      <trkpt lat="38.838329" lon="-0.405761">
        <ele>764.009</ele>
        <time>2022-07-10T08:22:00Z</time>
      </trkpt>
      <trkpt lat="38.838356" lon="-0.405774">
        <ele>763.848</ele>
        <time>2022-07-10T08:22:02Z</time>
      </trkpt>
      <trkpt lat="38.838390" lon="-0.405806">
        <ele>763.687</ele>
        <time>2022-07-10T08:22:05Z</time>
      </trkpt>
      <trkpt lat="38.838416" lon="-0.405886">
        <ele>763.054</ele>
        <time>2022-07-10T08:22:10Z</time>
      </trkpt>
      <trkpt lat="38.838430" lon="-0.405900">
        <ele>762.832</ele>
        <time>2022-07-10T08:22:11Z</time>
      </trkpt>
      <trkpt lat="38.838466" lon="-0.405958">
        <ele>762.271</ele>
        <time>2022-07-10T08:22:15Z</time>
      </trkpt>
      <trkpt lat="38.838486" lon="-0.406007">
        <ele>762.017</ele>
        <time>2022-07-10T08:22:18Z</time>
      </trkpt>
      <trkpt lat="38.838493" lon="-0.406036">
        <ele>761.820</ele>
        <time>2022-07-10T08:22:20Z</time>
      </trkpt>
      <trkpt lat="38.838505" lon="-0.406049">
        <ele>761.634</ele>
        <time>2022-07-10T08:22:21Z</time>
      </trkpt>
      <trkpt lat="38.838540" lon="-0.406115">
        <ele>761.050</ele>
        <time>2022-07-10T08:22:26Z</time>
      </trkpt>
      <trkpt lat="38.838563" lon="-0.406167">
        <ele>760.642</ele>
        <time>2022-07-10T08:22:29Z</time>
      </trkpt>
      <trkpt lat="38.838591" lon="-0.406201">
        <ele>760.222</ele>
        <time>2022-07-10T08:22:32Z</time>
      </trkpt>
      <trkpt lat="38.838602" lon="-0.406269">
        <ele>760.014</ele>
        <time>2022-07-10T08:22:36Z</time>
      </trkpt>
      <trkpt lat="38.838609" lon="-0.406325">
        <ele>759.609</ele>
        <time>2022-07-10T08:22:39Z</time>
      </trkpt>
      <trkpt lat="38.838615" lon="-0.406375">
        <ele>759.275</ele>
        <time>2022-07-10T08:22:42Z</time>
      </trkpt>
      <trkpt lat="38.838612" lon="-0.406406">
        <ele>759.094</ele>
        <time>2022-07-10T08:22:44Z</time>
      </trkpt>
      <trkpt lat="38.838614" lon="-0.406492">
        <ele>758.681</ele>
        <time>2022-07-10T08:22:48Z</time>
      </trkpt>
      <trkpt lat="38.838616" lon="-0.406539">
        <ele>758.679</ele>
        <time>2022-07-10T08:22:50Z</time>
      </trkpt>
      <trkpt lat="38.838644" lon="-0.406567">
        <ele>758.298</ele>
        <time>2022-07-10T08:22:52Z</time>
      </trkpt>
      <trkpt lat="38.838655" lon="-0.406600">
        <ele>758.064</ele>
        <time>2022-07-10T08:22:54Z</time>
      </trkpt>
      <trkpt lat="38.838662" lon="-0.406666">
        <ele>757.677</ele>
        <time>2022-07-10T08:22:58Z</time>
      </trkpt>
      <trkpt lat="38.838666" lon="-0.406680">
        <ele>757.421</ele>
        <time>2022-07-10T08:22:59Z</time>
      </trkpt>
      <trkpt lat="38.838680" lon="-0.406701">
        <ele>757.217</ele>
        <time>2022-07-10T08:23:01Z</time>
      </trkpt>
      <trkpt lat="38.838704" lon="-0.406743">
        <ele>756.876</ele>
        <time>2022-07-10T08:23:04Z</time>
      </trkpt>
      <trkpt lat="38.838713" lon="-0.406792">
        <ele>756.690</ele>
        <time>2022-07-10T08:23:06Z</time>
      </trkpt>
      <trkpt lat="38.838710" lon="-0.406822">
        <ele>756.419</ele>
        <time>2022-07-10T08:23:07Z</time>
      </trkpt>
      <trkpt lat="38.838712" lon="-0.406842">
        <ele>756.409</ele>
        <time>2022-07-10T08:23:08Z</time>
      </trkpt>
      <trkpt lat="38.838714" lon="-0.406860">
        <ele>756.238</ele>
        <time>2022-07-10T08:23:09Z</time>
      </trkpt>
      <trkpt lat="38.838707" lon="-0.406908">
        <ele>755.687</ele>
        <time>2022-07-10T08:23:12Z</time>
      </trkpt>
      <trkpt lat="38.838713" lon="-0.406923">
        <ele>755.694</ele>
        <time>2022-07-10T08:23:13Z</time>
      </trkpt>
      <trkpt lat="38.838721" lon="-0.406939">
        <ele>755.452</ele>
        <time>2022-07-10T08:23:14Z</time>
      </trkpt>
      <trkpt lat="38.838729" lon="-0.406959">
        <ele>755.481</ele>
        <time>2022-07-10T08:23:15Z</time>
      </trkpt>
      <trkpt lat="38.838802" lon="-0.407074">
        <ele>754.637</ele>
        <time>2022-07-10T08:23:23Z</time>
      </trkpt>
      <trkpt lat="38.838826" lon="-0.407123">
        <ele>754.460</ele>
        <time>2022-07-10T08:23:26Z</time>
      </trkpt>
      <trkpt lat="38.838847" lon="-0.407155">
        <ele>754.064</ele>
        <time>2022-07-10T08:23:28Z</time>
      </trkpt>
      <trkpt lat="38.838857" lon="-0.407164">
        <ele>753.870</ele>
        <time>2022-07-10T08:23:29Z</time>
      </trkpt>
      <trkpt lat="38.838896" lon="-0.407191">
        <ele>753.237</ele>
        <time>2022-07-10T08:23:32Z</time>
      </trkpt>
      <trkpt lat="38.838953" lon="-0.407184">
        <ele>752.649</ele>
        <time>2022-07-10T08:23:36Z</time>
      </trkpt>
      <trkpt lat="38.838973" lon="-0.407180">
        <ele>752.213</ele>
        <time>2022-07-10T08:23:38Z</time>
      </trkpt>
      <trkpt lat="38.838988" lon="-0.407182">
        <ele>752.009</ele>
        <time>2022-07-10T08:23:39Z</time>
      </trkpt>
      <trkpt lat="38.839029" lon="-0.407189">
        <ele>751.614</ele>
        <time>2022-07-10T08:23:42Z</time>
      </trkpt>
      <trkpt lat="38.839051" lon="-0.407186">
        <ele>751.273</ele>
        <time>2022-07-10T08:23:44Z</time>
      </trkpt>
      <trkpt lat="38.839144" lon="-0.407188">
        <ele>750.230</ele>
        <time>2022-07-10T08:23:50Z</time>
      </trkpt>
      <trkpt lat="38.839156" lon="-0.407194">
        <ele>750.018</ele>
        <time>2022-07-10T08:23:51Z</time>
      </trkpt>
      <trkpt lat="38.839181" lon="-0.407204">
        <ele>749.837</ele>
        <time>2022-07-10T08:23:53Z</time>
      </trkpt>
      <trkpt lat="38.839249" lon="-0.407211">
        <ele>749.243</ele>
        <time>2022-07-10T08:23:57Z</time>
      </trkpt>
      <trkpt lat="38.839267" lon="-0.407216">
        <ele>749.086</ele>
        <time>2022-07-10T08:23:58Z</time>
      </trkpt>
      <trkpt lat="38.839282" lon="-0.407219">
        <ele>749.030</ele>
        <time>2022-07-10T08:23:59Z</time>
      </trkpt>
      <trkpt lat="38.839319" lon="-0.407248">
        <ele>748.626</ele>
        <time>2022-07-10T08:24:02Z</time>
      </trkpt>
      <trkpt lat="38.839333" lon="-0.407314">
        <ele>748.285</ele>
        <time>2022-07-10T08:24:05Z</time>
      </trkpt>
      <trkpt lat="38.839357" lon="-0.407322">
        <ele>747.889</ele>
        <time>2022-07-10T08:24:07Z</time>
      </trkpt>
      <trkpt lat="38.839404" lon="-0.407327">
        <ele>747.417</ele>
        <time>2022-07-10T08:24:10Z</time>
      </trkpt>
      <trkpt lat="38.839417" lon="-0.407330">
        <ele>747.009</ele>
        <time>2022-07-10T08:24:11Z</time>
      </trkpt>
      <trkpt lat="38.839427" lon="-0.407338">
        <ele>746.819</ele>
        <time>2022-07-10T08:24:12Z</time>
      </trkpt>
      <trkpt lat="38.839449" lon="-0.407402">
        <ele>745.868</ele>
        <time>2022-07-10T08:24:16Z</time>
      </trkpt>
      <trkpt lat="38.839457" lon="-0.407415">
        <ele>745.815</ele>
        <time>2022-07-10T08:24:17Z</time>
      </trkpt>
      <trkpt lat="38.839485" lon="-0.407449">
        <ele>745.223</ele>
        <time>2022-07-10T08:24:20Z</time>
      </trkpt>
      <trkpt lat="38.839496" lon="-0.407481">
        <ele>744.832</ele>
        <time>2022-07-10T08:24:23Z</time>
      </trkpt>
      <trkpt lat="38.839502" lon="-0.407496">
        <ele>744.628</ele>
        <time>2022-07-10T08:24:24Z</time>
      </trkpt>
      <trkpt lat="38.839520" lon="-0.407520">
        <ele>744.461</ele>
        <time>2022-07-10T08:24:26Z</time>
      </trkpt>
      <trkpt lat="38.839535" lon="-0.407547">
        <ele>743.875</ele>
        <time>2022-07-10T08:24:29Z</time>
      </trkpt>
      <trkpt lat="38.839538" lon="-0.407554">
        <ele>743.831</ele>
        <time>2022-07-10T08:24:30Z</time>
      </trkpt>
      <trkpt lat="38.839610" lon="-0.407600">
        <ele>743.096</ele>
        <time>2022-07-10T08:24:35Z</time>
      </trkpt>
      <trkpt lat="38.839639" lon="-0.407619">
        <ele>742.831</ele>
        <time>2022-07-10T08:24:37Z</time>
      </trkpt>
      <trkpt lat="38.839673" lon="-0.407652">
        <ele>742.424</ele>
        <time>2022-07-10T08:24:40Z</time>
      </trkpt>
      <trkpt lat="38.839685" lon="-0.407657">
        <ele>742.409</ele>
        <time>2022-07-10T08:24:41Z</time>
      </trkpt>
      <trkpt lat="38.839706" lon="-0.407690">
        <ele>741.630</ele>
        <time>2022-07-10T08:24:44Z</time>
      </trkpt>
      <trkpt lat="38.839717" lon="-0.407710">
        <ele>741.429</ele>
        <time>2022-07-10T08:24:45Z</time>
      </trkpt>
      <trkpt lat="38.839722" lon="-0.407732">
        <ele>741.466</ele>
        <time>2022-07-10T08:24:46Z</time>
      </trkpt>
      <trkpt lat="38.839726" lon="-0.407774">
        <ele>741.444</ele>
        <time>2022-07-10T08:24:48Z</time>
      </trkpt>
      <trkpt lat="38.839727" lon="-0.407797">
        <ele>741.433</ele>
        <time>2022-07-10T08:24:49Z</time>
      </trkpt>
      <trkpt lat="38.839778" lon="-0.407894">
        <ele>740.839</ele>
        <time>2022-07-10T08:24:55Z</time>
      </trkpt>
      <trkpt lat="38.839790" lon="-0.407917">
        <ele>740.262</ele>
        <time>2022-07-10T08:24:57Z</time>
      </trkpt>
      <trkpt lat="38.839788" lon="-0.407950">
        <ele>739.826</ele>
        <time>2022-07-10T08:24:59Z</time>
      </trkpt>
      <trkpt lat="38.839799" lon="-0.407965">
        <ele>739.862</ele>
        <time>2022-07-10T08:25:00Z</time>
      </trkpt>
      <trkpt lat="38.839850" lon="-0.408019">
        <ele>739.284</ele>
        <time>2022-07-10T08:25:04Z</time>
      </trkpt>
      <trkpt lat="38.839877" lon="-0.408049">
        <ele>738.207</ele>
        <time>2022-07-10T08:25:07Z</time>
      </trkpt>
      <trkpt lat="38.839885" lon="-0.408052">
        <ele>738.217</ele>
        <time>2022-07-10T08:25:08Z</time>
      </trkpt>
      <trkpt lat="38.839948" lon="-0.408071">
        <ele>737.609</ele>
        <time>2022-07-10T08:25:13Z</time>
      </trkpt>
      <trkpt lat="38.840008" lon="-0.408108">
        <ele>737.269</ele>
        <time>2022-07-10T08:25:17Z</time>
      </trkpt>
      <trkpt lat="38.840034" lon="-0.408136">
        <ele>736.618</ele>
        <time>2022-07-10T08:25:20Z</time>
      </trkpt>
      <trkpt lat="38.840051" lon="-0.408146">
        <ele>736.265</ele>
        <time>2022-07-10T08:25:22Z</time>
      </trkpt>
      <trkpt lat="38.840064" lon="-0.408156">
        <ele>736.093</ele>
        <time>2022-07-10T08:25:23Z</time>
      </trkpt>
      <trkpt lat="38.840077" lon="-0.408163">
        <ele>735.812</ele>
        <time>2022-07-10T08:25:24Z</time>
      </trkpt>
      <trkpt lat="38.840084" lon="-0.408174">
        <ele>735.818</ele>
        <time>2022-07-10T08:25:25Z</time>
      </trkpt>
      <trkpt lat="38.840095" lon="-0.408202">
        <ele>735.471</ele>
        <time>2022-07-10T08:25:27Z</time>
      </trkpt>
      <trkpt lat="38.840107" lon="-0.408213">
        <ele>735.295</ele>
        <time>2022-07-10T08:25:29Z</time>
      </trkpt>
      <trkpt lat="38.840119" lon="-0.408212">
        <ele>735.291</ele>
        <time>2022-07-10T08:25:30Z</time>
      </trkpt>
      <trkpt lat="38.840143" lon="-0.408215">
        <ele>735.018</ele>
        <time>2022-07-10T08:25:32Z</time>
      </trkpt>
      <trkpt lat="38.840161" lon="-0.408238">
        <ele>734.898</ele>
        <time>2022-07-10T08:25:34Z</time>
      </trkpt>
      <trkpt lat="38.840177" lon="-0.408266">
        <ele>734.417</ele>
        <time>2022-07-10T08:25:36Z</time>
      </trkpt>
      <trkpt lat="38.840202" lon="-0.408271">
        <ele>734.009</ele>
        <time>2022-07-10T08:25:38Z</time>
      </trkpt>
      <trkpt lat="38.840216" lon="-0.408266">
        <ele>733.842</ele>
        <time>2022-07-10T08:25:39Z</time>
      </trkpt>
      <trkpt lat="38.840253" lon="-0.408283">
        <ele>733.241</ele>
        <time>2022-07-10T08:25:42Z</time>
      </trkpt>
      <trkpt lat="38.840295" lon="-0.408309">
        <ele>732.898</ele>
        <time>2022-07-10T08:25:46Z</time>
      </trkpt>
      <trkpt lat="38.840305" lon="-0.408337">
        <ele>732.426</ele>
        <time>2022-07-10T08:25:48Z</time>
      </trkpt>
      <trkpt lat="38.840318" lon="-0.408346">
        <ele>732.055</ele>
        <time>2022-07-10T08:25:50Z</time>
      </trkpt>
      <trkpt lat="38.840340" lon="-0.408350">
        <ele>732.041</ele>
        <time>2022-07-10T08:25:52Z</time>
      </trkpt>
      <trkpt lat="38.840352" lon="-0.408356">
        <ele>731.854</ele>
        <time>2022-07-10T08:25:53Z</time>
      </trkpt>
      <trkpt lat="38.840421" lon="-0.408359">
        <ele>731.258</ele>
        <time>2022-07-10T08:25:58Z</time>
      </trkpt>
      <trkpt lat="38.840474" lon="-0.408379">
        <ele>731.254</ele>
        <time>2022-07-10T08:26:01Z</time>
      </trkpt>
      <trkpt lat="38.840503" lon="-0.408403">
        <ele>730.662</ele>
        <time>2022-07-10T08:26:04Z</time>
      </trkpt>
      <trkpt lat="38.840525" lon="-0.408420">
        <ele>730.283</ele>
        <time>2022-07-10T08:26:06Z</time>
      </trkpt>
      <trkpt lat="38.840588" lon="-0.408439">
        <ele>729.811</ele>
        <time>2022-07-10T08:26:10Z</time>
      </trkpt>
      <trkpt lat="38.840601" lon="-0.408461">
        <ele>729.609</ele>
        <time>2022-07-10T08:26:12Z</time>
      </trkpt>
      <trkpt lat="38.840632" lon="-0.408491">
        <ele>729.267</ele>
        <time>2022-07-10T08:26:15Z</time>
      </trkpt>
      <trkpt lat="38.840638" lon="-0.408503">
        <ele>729.276</ele>
        <time>2022-07-10T08:26:16Z</time>
      </trkpt>
      <trkpt lat="38.840670" lon="-0.408526">
        <ele>729.063</ele>
        <time>2022-07-10T08:26:19Z</time>
      </trkpt>
      <trkpt lat="38.840785" lon="-0.408537">
        <ele>728.661</ele>
        <time>2022-07-10T08:26:25Z</time>
      </trkpt>
      <trkpt lat="38.840821" lon="-0.408548">
        <ele>728.410</ele>
        <time>2022-07-10T08:26:28Z</time>
      </trkpt>
      <trkpt lat="38.840821" lon="-0.408554">
        <ele>728.216</ele>
        <time>2022-07-10T08:26:30Z</time>
      </trkpt>
      <trkpt lat="38.840841" lon="-0.408669">
        <ele>728.069</ele>
        <time>2022-07-10T08:26:36Z</time>
      </trkpt>
      <trkpt lat="38.840841" lon="-0.408686">
        <ele>728.033</ele>
        <time>2022-07-10T08:26:37Z</time>
      </trkpt>
      <trkpt lat="38.840846" lon="-0.408730">
        <ele>727.619</ele>
        <time>2022-07-10T08:26:40Z</time>
      </trkpt>
      <trkpt lat="38.840855" lon="-0.408744">
        <ele>727.685</ele>
        <time>2022-07-10T08:26:42Z</time>
      </trkpt>
      <trkpt lat="38.840861" lon="-0.408753">
        <ele>727.489</ele>
        <time>2022-07-10T08:26:43Z</time>
      </trkpt>
      <trkpt lat="38.840868" lon="-0.408786">
        <ele>727.417</ele>
        <time>2022-07-10T08:26:45Z</time>
      </trkpt>
      <trkpt lat="38.840876" lon="-0.408806">
        <ele>727.009</ele>
        <time>2022-07-10T08:26:47Z</time>
      </trkpt>
      <trkpt lat="38.840885" lon="-0.408809">
        <ele>726.859</ele>
        <time>2022-07-10T08:26:48Z</time>
      </trkpt>
      <trkpt lat="38.840884" lon="-0.408815">
        <ele>726.828</ele>
        <time>2022-07-10T08:26:49Z</time>
      </trkpt>
      <trkpt lat="38.840897" lon="-0.408822">
        <ele>726.455</ele>
        <time>2022-07-10T08:26:51Z</time>
      </trkpt>
      <trkpt lat="38.840906" lon="-0.408822">
        <ele>726.073</ele>
        <time>2022-07-10T08:26:52Z</time>
      </trkpt>
      <trkpt lat="38.840942" lon="-0.408800">
        <ele>725.432</ele>
        <time>2022-07-10T08:26:56Z</time>
      </trkpt>
      <trkpt lat="38.840947" lon="-0.408780">
        <ele>725.228</ele>
        <time>2022-07-10T08:26:57Z</time>
      </trkpt>
      <trkpt lat="38.840954" lon="-0.408767">
        <ele>724.681</ele>
        <time>2022-07-10T08:26:59Z</time>
      </trkpt>
      <trkpt lat="38.840979" lon="-0.408786">
        <ele>724.075</ele>
        <time>2022-07-10T08:27:02Z</time>
      </trkpt>
      <trkpt lat="38.841000" lon="-0.408800">
        <ele>723.841</ele>
        <time>2022-07-10T08:27:04Z</time>
      </trkpt>
      <trkpt lat="38.841012" lon="-0.408805">
        <ele>723.625</ele>
        <time>2022-07-10T08:27:05Z</time>
      </trkpt>
      <trkpt lat="38.841025" lon="-0.408802">
        <ele>723.026</ele>
        <time>2022-07-10T08:27:07Z</time>
      </trkpt>
      <trkpt lat="38.841018" lon="-0.408770">
        <ele>722.208</ele>
        <time>2022-07-10T08:27:10Z</time>
      </trkpt>
      <trkpt lat="38.841014" lon="-0.408754">
        <ele>722.009</ele>
        <time>2022-07-10T08:27:11Z</time>
      </trkpt>
      <trkpt lat="38.841005" lon="-0.408732">
        <ele>721.623</ele>
        <time>2022-07-10T08:27:13Z</time>
      </trkpt>
      <trkpt lat="38.840994" lon="-0.408704">
        <ele>721.432</ele>
        <time>2022-07-10T08:27:15Z</time>
      </trkpt>
      <trkpt lat="38.840999" lon="-0.408676">
        <ele>721.019</ele>
        <time>2022-07-10T08:27:17Z</time>
      </trkpt>
      <trkpt lat="38.841010" lon="-0.408673">
        <ele>720.837</ele>
        <time>2022-07-10T08:27:18Z</time>
      </trkpt>
      <trkpt lat="38.841021" lon="-0.408680">
        <ele>720.456</ele>
        <time>2022-07-10T08:27:20Z</time>
      </trkpt>
      <trkpt lat="38.841043" lon="-0.408692">
        <ele>719.882</ele>
        <time>2022-07-10T08:27:22Z</time>
      </trkpt>
      <trkpt lat="38.841050" lon="-0.408695">
        <ele>719.695</ele>
        <time>2022-07-10T08:27:23Z</time>
      </trkpt>
      <trkpt lat="38.841054" lon="-0.408704">
        <ele>719.429</ele>
        <time>2022-07-10T08:27:25Z</time>
      </trkpt>
      <trkpt lat="38.841057" lon="-0.408713">
        <ele>719.255</ele>
        <time>2022-07-10T08:27:27Z</time>
      </trkpt>
      <trkpt lat="38.841099" lon="-0.408764">
        <ele>718.653</ele>
        <time>2022-07-10T08:27:31Z</time>
      </trkpt>
      <trkpt lat="38.841110" lon="-0.408816">
        <ele>717.804</ele>
        <time>2022-07-10T08:27:35Z</time>
      </trkpt>
      <trkpt lat="38.841135" lon="-0.408840">
        <ele>717.614</ele>
        <time>2022-07-10T08:27:38Z</time>
      </trkpt>
      <trkpt lat="38.841151" lon="-0.408866">
        <ele>717.209</ele>
        <time>2022-07-10T08:27:40Z</time>
      </trkpt>
      <trkpt lat="38.841156" lon="-0.408883">
        <ele>717.066</ele>
        <time>2022-07-10T08:27:41Z</time>
      </trkpt>
      <trkpt lat="38.841175" lon="-0.408917">
        <ele>716.895</ele>
        <time>2022-07-10T08:27:44Z</time>
      </trkpt>
      <trkpt lat="38.841202" lon="-0.408944">
        <ele>716.652</ele>
        <time>2022-07-10T08:27:47Z</time>
      </trkpt>
      <trkpt lat="38.841198" lon="-0.408994">
        <ele>716.290</ele>
        <time>2022-07-10T08:27:50Z</time>
      </trkpt>
      <trkpt lat="38.841208" lon="-0.409012">
        <ele>715.659</ele>
        <time>2022-07-10T08:27:52Z</time>
      </trkpt>
      <trkpt lat="38.841218" lon="-0.409016">
        <ele>715.625</ele>
        <time>2022-07-10T08:27:53Z</time>
      </trkpt>
      <trkpt lat="38.841228" lon="-0.409026">
        <ele>715.418</ele>
        <time>2022-07-10T08:27:54Z</time>
      </trkpt>
      <trkpt lat="38.841242" lon="-0.409046">
        <ele>715.252</ele>
        <time>2022-07-10T08:27:56Z</time>
      </trkpt>
      <trkpt lat="38.841264" lon="-0.409062">
        <ele>714.838</ele>
        <time>2022-07-10T08:27:58Z</time>
      </trkpt>
      <trkpt lat="38.841292" lon="-0.409108">
        <ele>714.646</ele>
        <time>2022-07-10T08:28:02Z</time>
      </trkpt>
      <trkpt lat="38.841300" lon="-0.409117">
        <ele>714.488</ele>
        <time>2022-07-10T08:28:03Z</time>
      </trkpt>
      <trkpt lat="38.841321" lon="-0.409137">
        <ele>714.016</ele>
        <time>2022-07-10T08:28:05Z</time>
      </trkpt>
      <trkpt lat="38.841347" lon="-0.409164">
        <ele>713.409</ele>
        <time>2022-07-10T08:28:08Z</time>
      </trkpt>
      <trkpt lat="38.841354" lon="-0.409171">
        <ele>713.225</ele>
        <time>2022-07-10T08:28:09Z</time>
      </trkpt>
      <trkpt lat="38.841355" lon="-0.409177">
        <ele>713.224</ele>
        <time>2022-07-10T08:28:10Z</time>
      </trkpt>
      <trkpt lat="38.841302" lon="-0.409248">
        <ele>712.461</ele>
        <time>2022-07-10T08:28:16Z</time>
      </trkpt>
      <trkpt lat="38.841293" lon="-0.409251">
        <ele>712.049</ele>
        <time>2022-07-10T08:28:17Z</time>
      </trkpt>
      <trkpt lat="38.841271" lon="-0.409254">
        <ele>711.878</ele>
        <time>2022-07-10T08:28:19Z</time>
      </trkpt>
      <trkpt lat="38.841252" lon="-0.409263">
        <ele>711.464</ele>
        <time>2022-07-10T08:28:21Z</time>
      </trkpt>
      <trkpt lat="38.841241" lon="-0.409264">
        <ele>711.267</ele>
        <time>2022-07-10T08:28:22Z</time>
      </trkpt>
      <trkpt lat="38.841232" lon="-0.409263">
        <ele>711.021</ele>
        <time>2022-07-10T08:28:23Z</time>
      </trkpt>
      <trkpt lat="38.841197" lon="-0.409258">
        <ele>710.897</ele>
        <time>2022-07-10T08:28:26Z</time>
      </trkpt>
      <trkpt lat="38.841188" lon="-0.409268">
        <ele>710.628</ele>
        <time>2022-07-10T08:28:27Z</time>
      </trkpt>
      <trkpt lat="38.841179" lon="-0.409274">
        <ele>710.489</ele>
        <time>2022-07-10T08:28:28Z</time>
      </trkpt>
      <trkpt lat="38.841168" lon="-0.409276">
        <ele>710.217</ele>
        <time>2022-07-10T08:28:30Z</time>
      </trkpt>
      <trkpt lat="38.841166" lon="-0.409266">
        <ele>710.009</ele>
        <time>2022-07-10T08:28:31Z</time>
      </trkpt>
      <trkpt lat="38.841141" lon="-0.409267">
        <ele>709.853</ele>
        <time>2022-07-10T08:28:33Z</time>
      </trkpt>
      <trkpt lat="38.841054" lon="-0.409272">
        <ele>709.032</ele>
        <time>2022-07-10T08:28:38Z</time>
      </trkpt>
      <trkpt lat="38.841043" lon="-0.409275">
        <ele>708.689</ele>
        <time>2022-07-10T08:28:40Z</time>
      </trkpt>
      <trkpt lat="38.841024" lon="-0.409295">
        <ele>707.897</ele>
        <time>2022-07-10T08:28:44Z</time>
      </trkpt>
      <trkpt lat="38.841014" lon="-0.409305">
        <ele>707.646</ele>
        <time>2022-07-10T08:28:46Z</time>
      </trkpt>
      <trkpt lat="38.841008" lon="-0.409307">
        <ele>707.492</ele>
        <time>2022-07-10T08:28:47Z</time>
      </trkpt>
      <trkpt lat="38.840999" lon="-0.409303">
        <ele>707.275</ele>
        <time>2022-07-10T08:28:48Z</time>
      </trkpt>
      <trkpt lat="38.840991" lon="-0.409298">
        <ele>707.049</ele>
        <time>2022-07-10T08:28:49Z</time>
      </trkpt>
      <trkpt lat="38.840969" lon="-0.409284">
        <ele>706.665</ele>
        <time>2022-07-10T08:28:51Z</time>
      </trkpt>
      <trkpt lat="38.840948" lon="-0.409277">
        <ele>706.238</ele>
        <time>2022-07-10T08:28:53Z</time>
      </trkpt>
      <trkpt lat="38.840935" lon="-0.409271">
        <ele>706.070</ele>
        <time>2022-07-10T08:28:54Z</time>
      </trkpt>
      <trkpt lat="38.840850" lon="-0.409243">
        <ele>705.417</ele>
        <time>2022-07-10T08:29:00Z</time>
      </trkpt>
      <trkpt lat="38.840837" lon="-0.409225">
        <ele>705.009</ele>
        <time>2022-07-10T08:29:02Z</time>
      </trkpt>
      <trkpt lat="38.840822" lon="-0.409212">
        <ele>704.614</ele>
        <time>2022-07-10T08:29:04Z</time>
      </trkpt>
      <trkpt lat="38.840807" lon="-0.409211">
        <ele>704.483</ele>
        <time>2022-07-10T08:29:05Z</time>
      </trkpt>
      <trkpt lat="38.840788" lon="-0.409216">
        <ele>704.240</ele>
        <time>2022-07-10T08:29:06Z</time>
      </trkpt>
      <trkpt lat="38.840775" lon="-0.409220">
        <ele>704.018</ele>
        <time>2022-07-10T08:29:07Z</time>
      </trkpt>
      <trkpt lat="38.840769" lon="-0.409216">
        <ele>704.047</ele>
        <time>2022-07-10T08:29:08Z</time>
      </trkpt>
      <trkpt lat="38.840748" lon="-0.409197">
        <ele>703.833</ele>
        <time>2022-07-10T08:29:10Z</time>
      </trkpt>
      <trkpt lat="38.840716" lon="-0.409175">
        <ele>703.226</ele>
        <time>2022-07-10T08:29:13Z</time>
      </trkpt>
      <trkpt lat="38.840680" lon="-0.409162">
        <ele>702.490</ele>
        <time>2022-07-10T08:29:17Z</time>
      </trkpt>
      <trkpt lat="38.840670" lon="-0.409153">
        <ele>702.056</ele>
        <time>2022-07-10T08:29:19Z</time>
      </trkpt>
      <trkpt lat="38.840655" lon="-0.409126">
        <ele>701.818</ele>
        <time>2022-07-10T08:29:22Z</time>
      </trkpt>
      <trkpt lat="38.840641" lon="-0.409115">
        <ele>701.698</ele>
        <time>2022-07-10T08:29:24Z</time>
      </trkpt>
      <trkpt lat="38.840623" lon="-0.409116">
        <ele>701.417</ele>
        <time>2022-07-10T08:29:26Z</time>
      </trkpt>
      <trkpt lat="38.840622" lon="-0.409113">
        <ele>701.409</ele>
        <time>2022-07-10T08:29:27Z</time>
      </trkpt>
      <trkpt lat="38.840603" lon="-0.409102">
        <ele>701.262</ele>
        <time>2022-07-10T08:29:34Z</time>
      </trkpt>
      <trkpt lat="38.840574" lon="-0.409112">
        <ele>701.221</ele>
        <time>2022-07-10T08:29:42Z</time>
      </trkpt>
      <trkpt lat="38.840553" lon="-0.409102">
        <ele>700.858</ele>
        <time>2022-07-10T08:29:45Z</time>
      </trkpt>
      <trkpt lat="38.840547" lon="-0.409075">
        <ele>700.426</ele>
        <time>2022-07-10T08:29:47Z</time>
      </trkpt>
      <trkpt lat="38.840497" lon="-0.409023">
        <ele>700.065</ele>
        <time>2022-07-10T08:29:52Z</time>
      </trkpt>
      <trkpt lat="38.840483" lon="-0.409022">
        <ele>699.841</ele>
        <time>2022-07-10T08:29:53Z</time>
      </trkpt>
      <trkpt lat="38.840421" lon="-0.409018">
        <ele>699.024</ele>
        <time>2022-07-10T08:29:57Z</time>
      </trkpt>
      <trkpt lat="38.840408" lon="-0.409009">
        <ele>698.848</ele>
        <time>2022-07-10T08:29:58Z</time>
      </trkpt>
      <trkpt lat="38.840398" lon="-0.409000">
        <ele>698.684</ele>
        <time>2022-07-10T08:29:59Z</time>
      </trkpt>
      <trkpt lat="38.840376" lon="-0.408996">
        <ele>698.644</ele>
        <time>2022-07-10T08:30:00Z</time>
      </trkpt>
      <trkpt lat="38.840330" lon="-0.409004">
        <ele>698.005</ele>
        <time>2022-07-10T08:30:03Z</time>
      </trkpt>
      <trkpt lat="38.840282" lon="-0.409020">
        <ele>697.615</ele>
        <time>2022-07-10T08:30:06Z</time>
      </trkpt>
      <trkpt lat="38.840243" lon="-0.409026">
        <ele>697.009</ele>
        <time>2022-07-10T08:30:09Z</time>
      </trkpt>
      <trkpt lat="38.840203" lon="-0.409020">
        <ele>696.895</ele>
        <time>2022-07-10T08:30:11Z</time>
      </trkpt>
      <trkpt lat="38.840191" lon="-0.409013">
        <ele>696.664</ele>
        <time>2022-07-10T08:30:12Z</time>
      </trkpt>
      <trkpt lat="38.840174" lon="-0.409004">
        <ele>696.221</ele>
        <time>2022-07-10T08:30:14Z</time>
      </trkpt>
      <trkpt lat="38.840155" lon="-0.409010">
        <ele>695.839</ele>
        <time>2022-07-10T08:30:16Z</time>
      </trkpt>
      <trkpt lat="38.840146" lon="-0.409021">
        <ele>695.448</ele>
        <time>2022-07-10T08:30:17Z</time>
      </trkpt>
      <trkpt lat="38.840138" lon="-0.409026">
        <ele>695.234</ele>
        <time>2022-07-10T08:30:18Z</time>
      </trkpt>
      <trkpt lat="38.840131" lon="-0.409030">
        <ele>695.247</ele>
        <time>2022-07-10T08:30:19Z</time>
      </trkpt>
      <trkpt lat="38.840060" lon="-0.409019">
        <ele>694.241</ele>
        <time>2022-07-10T08:30:24Z</time>
      </trkpt>
      <trkpt lat="38.840048" lon="-0.409013">
        <ele>694.247</ele>
        <time>2022-07-10T08:30:25Z</time>
      </trkpt>
      <trkpt lat="38.840041" lon="-0.409013">
        <ele>694.046</ele>
        <time>2022-07-10T08:30:26Z</time>
      </trkpt>
      <trkpt lat="38.840032" lon="-0.409009">
        <ele>693.888</ele>
        <time>2022-07-10T08:30:27Z</time>
      </trkpt>
      <trkpt lat="38.839984" lon="-0.408971">
        <ele>693.016</ele>
        <time>2022-07-10T08:30:32Z</time>
      </trkpt>
      <trkpt lat="38.839958" lon="-0.408959">
        <ele>692.609</ele>
        <time>2022-07-10T08:30:34Z</time>
      </trkpt>
      <trkpt lat="38.839903" lon="-0.408920">
        <ele>692.245</ele>
        <time>2022-07-10T08:30:39Z</time>
      </trkpt>
      <trkpt lat="38.839893" lon="-0.408924">
        <ele>692.084</ele>
        <time>2022-07-10T08:30:40Z</time>
      </trkpt>
      <trkpt lat="38.839845" lon="-0.408911">
        <ele>690.811</ele>
        <time>2022-07-10T08:30:44Z</time>
      </trkpt>
      <trkpt lat="38.839824" lon="-0.408894">
        <ele>690.479</ele>
        <time>2022-07-10T08:30:46Z</time>
      </trkpt>
      <trkpt lat="38.839800" lon="-0.408892">
        <ele>690.058</ele>
        <time>2022-07-10T08:30:48Z</time>
      </trkpt>
      <trkpt lat="38.839774" lon="-0.408906">
        <ele>689.624</ele>
        <time>2022-07-10T08:30:50Z</time>
      </trkpt>
      <trkpt lat="38.839758" lon="-0.408917">
        <ele>689.417</ele>
        <time>2022-07-10T08:30:51Z</time>
      </trkpt>
      <trkpt lat="38.839687" lon="-0.408913">
        <ele>688.471</ele>
        <time>2022-07-10T08:30:57Z</time>
      </trkpt>
      <trkpt lat="38.839687" lon="-0.408913">
        <ele>688.447</ele>
        <time>2022-07-10T08:30:58Z</time>
      </trkpt>
      <trkpt lat="38.839665" lon="-0.408904">
        <ele>688.049</ele>
        <time>2022-07-10T08:31:00Z</time>
      </trkpt>
      <trkpt lat="38.839648" lon="-0.408891">
        <ele>687.802</ele>
        <time>2022-07-10T08:31:02Z</time>
      </trkpt>
      <trkpt lat="38.839623" lon="-0.408880">
        <ele>687.422</ele>
        <time>2022-07-10T08:31:04Z</time>
      </trkpt>
      <trkpt lat="38.839563" lon="-0.408892">
        <ele>686.209</ele>
        <time>2022-07-10T08:31:10Z</time>
      </trkpt>
      <trkpt lat="38.839551" lon="-0.408889">
        <ele>686.055</ele>
        <time>2022-07-10T08:31:11Z</time>
      </trkpt>
      <trkpt lat="38.839480" lon="-0.408885">
        <ele>685.214</ele>
        <time>2022-07-10T08:31:16Z</time>
      </trkpt>
      <trkpt lat="38.839431" lon="-0.408880">
        <ele>684.481</ele>
        <time>2022-07-10T08:31:21Z</time>
      </trkpt>
      <trkpt lat="38.839414" lon="-0.408894">
        <ele>684.229</ele>
        <time>2022-07-10T08:31:23Z</time>
      </trkpt>
      <trkpt lat="38.839372" lon="-0.408881">
        <ele>683.618</ele>
        <time>2022-07-10T08:31:26Z</time>
      </trkpt>
      <trkpt lat="38.839362" lon="-0.408880">
        <ele>683.414</ele>
        <time>2022-07-10T08:31:27Z</time>
      </trkpt>
      <trkpt lat="38.839355" lon="-0.408872">
        <ele>683.277</ele>
        <time>2022-07-10T08:31:28Z</time>
      </trkpt>
      <trkpt lat="38.839346" lon="-0.408867">
        <ele>683.261</ele>
        <time>2022-07-10T08:31:29Z</time>
      </trkpt>
      <trkpt lat="38.839300" lon="-0.408863">
        <ele>682.497</ele>
        <time>2022-07-10T08:31:33Z</time>
      </trkpt>
      <trkpt lat="38.839279" lon="-0.408853">
        <ele>682.221</ele>
        <time>2022-07-10T08:31:35Z</time>
      </trkpt>
      <trkpt lat="38.839234" lon="-0.408833">
        <ele>681.641</ele>
        <time>2022-07-10T08:31:39Z</time>
      </trkpt>
      <trkpt lat="38.839220" lon="-0.408808">
        <ele>681.005</ele>
        <time>2022-07-10T08:31:41Z</time>
      </trkpt>
      <trkpt lat="38.839196" lon="-0.408760">
        <ele>680.209</ele>
        <time>2022-07-10T08:31:45Z</time>
      </trkpt>
      <trkpt lat="38.839186" lon="-0.408745">
        <ele>680.093</ele>
        <time>2022-07-10T08:31:46Z</time>
      </trkpt>
      <trkpt lat="38.839173" lon="-0.408736">
        <ele>679.892</ele>
        <time>2022-07-10T08:31:47Z</time>
      </trkpt>
      <trkpt lat="38.839161" lon="-0.408733">
        <ele>679.699</ele>
        <time>2022-07-10T08:31:48Z</time>
      </trkpt>
      <trkpt lat="38.839137" lon="-0.408706">
        <ele>679.097</ele>
        <time>2022-07-10T08:31:52Z</time>
      </trkpt>
      <trkpt lat="38.839129" lon="-0.408688">
        <ele>678.646</ele>
        <time>2022-07-10T08:31:54Z</time>
      </trkpt>
      <trkpt lat="38.839064" lon="-0.408650">
        <ele>678.012</ele>
        <time>2022-07-10T08:32:00Z</time>
      </trkpt>
      <trkpt lat="38.839053" lon="-0.408635">
        <ele>677.885</ele>
        <time>2022-07-10T08:32:01Z</time>
      </trkpt>
      <trkpt lat="38.839041" lon="-0.408625">
        <ele>677.669</ele>
        <time>2022-07-10T08:32:02Z</time>
      </trkpt>
      <trkpt lat="38.839018" lon="-0.408607">
        <ele>677.245</ele>
        <time>2022-07-10T08:32:04Z</time>
      </trkpt>
      <trkpt lat="38.839006" lon="-0.408598">
        <ele>676.883</ele>
        <time>2022-07-10T08:32:05Z</time>
      </trkpt>
      <trkpt lat="38.838985" lon="-0.408585">
        <ele>676.425</ele>
        <time>2022-07-10T08:32:07Z</time>
      </trkpt>
      <trkpt lat="38.838937" lon="-0.408572">
        <ele>675.817</ele>
        <time>2022-07-10T08:32:11Z</time>
      </trkpt>
      <trkpt lat="38.838916" lon="-0.408576">
        <ele>675.409</ele>
        <time>2022-07-10T08:32:13Z</time>
      </trkpt>
      <trkpt lat="38.838915" lon="-0.408566">
        <ele>675.469</ele>
        <time>2022-07-10T08:32:14Z</time>
      </trkpt>
      <trkpt lat="38.838913" lon="-0.408564">
        <ele>675.218</ele>
        <time>2022-07-10T08:32:15Z</time>
      </trkpt>
      <trkpt lat="38.838899" lon="-0.408558">
        <ele>674.845</ele>
        <time>2022-07-10T08:32:17Z</time>
      </trkpt>
      <trkpt lat="38.838888" lon="-0.408550">
        <ele>674.643</ele>
        <time>2022-07-10T08:32:18Z</time>
      </trkpt>
      <trkpt lat="38.838863" lon="-0.408534">
        <ele>674.282</ele>
        <time>2022-07-10T08:32:20Z</time>
      </trkpt>
      <trkpt lat="38.838832" lon="-0.408513">
        <ele>673.818</ele>
        <time>2022-07-10T08:32:23Z</time>
      </trkpt>
      <trkpt lat="38.838814" lon="-0.408488">
        <ele>673.241</ele>
        <time>2022-07-10T08:32:25Z</time>
      </trkpt>
      <trkpt lat="38.838725" lon="-0.408404">
        <ele>672.425</ele>
        <time>2022-07-10T08:32:32Z</time>
      </trkpt>
      <trkpt lat="38.838712" lon="-0.408398">
        <ele>672.231</ele>
        <time>2022-07-10T08:32:33Z</time>
      </trkpt>
      <trkpt lat="38.838645" lon="-0.408406">
        <ele>671.241</ele>
        <time>2022-07-10T08:32:38Z</time>
      </trkpt>
      <trkpt lat="38.838619" lon="-0.408410">
        <ele>670.681</ele>
        <time>2022-07-10T08:32:41Z</time>
      </trkpt>
      <trkpt lat="38.838593" lon="-0.408410">
        <ele>670.409</ele>
        <time>2022-07-10T08:32:43Z</time>
      </trkpt>
      <trkpt lat="38.838582" lon="-0.408408">
        <ele>670.009</ele>
        <time>2022-07-10T08:32:44Z</time>
      </trkpt>
      <trkpt lat="38.838551" lon="-0.408392">
        <ele>669.615</ele>
        <time>2022-07-10T08:32:47Z</time>
      </trkpt>
      <trkpt lat="38.838552" lon="-0.408391">
        <ele>669.444</ele>
        <time>2022-07-10T08:32:48Z</time>
      </trkpt>
      <trkpt lat="38.838536" lon="-0.408378">
        <ele>668.881</ele>
        <time>2022-07-10T08:32:51Z</time>
      </trkpt>
      <trkpt lat="38.838513" lon="-0.408371">
        <ele>668.699</ele>
        <time>2022-07-10T08:32:53Z</time>
      </trkpt>
      <trkpt lat="38.838476" lon="-0.408349">
        <ele>667.888</ele>
        <time>2022-07-10T08:32:58Z</time>
      </trkpt>
      <trkpt lat="38.838475" lon="-0.408357">
        <ele>667.864</ele>
        <time>2022-07-10T08:32:59Z</time>
      </trkpt>
      <trkpt lat="38.838482" lon="-0.408358">
        <ele>667.677</ele>
        <time>2022-07-10T08:33:00Z</time>
      </trkpt>
      <trkpt lat="38.838496" lon="-0.408372">
        <ele>667.411</ele>
        <time>2022-07-10T08:33:02Z</time>
      </trkpt>
      <trkpt lat="38.838514" lon="-0.408380">
        <ele>667.047</ele>
        <time>2022-07-10T08:33:04Z</time>
      </trkpt>
      <trkpt lat="38.838525" lon="-0.408385">
        <ele>666.869</ele>
        <time>2022-07-10T08:33:05Z</time>
      </trkpt>
      <trkpt lat="38.838530" lon="-0.408398">
        <ele>666.604</ele>
        <time>2022-07-10T08:33:06Z</time>
      </trkpt>
      <trkpt lat="38.838548" lon="-0.408434">
        <ele>666.224</ele>
        <time>2022-07-10T08:33:08Z</time>
      </trkpt>
      <trkpt lat="38.838557" lon="-0.408446">
        <ele>665.809</ele>
        <time>2022-07-10T08:33:09Z</time>
      </trkpt>
      <trkpt lat="38.838619" lon="-0.408476">
        <ele>664.887</ele>
        <time>2022-07-10T08:33:14Z</time>
      </trkpt>
      <trkpt lat="38.838631" lon="-0.408485">
        <ele>664.646</ele>
        <time>2022-07-10T08:33:15Z</time>
      </trkpt>
      <trkpt lat="38.838654" lon="-0.408509">
        <ele>663.873</ele>
        <time>2022-07-10T08:33:18Z</time>
      </trkpt>
      <trkpt lat="38.838663" lon="-0.408518">
        <ele>663.641</ele>
        <time>2022-07-10T08:33:19Z</time>
      </trkpt>
      <trkpt lat="38.838673" lon="-0.408535">
        <ele>663.470</ele>
        <time>2022-07-10T08:33:20Z</time>
      </trkpt>
      <trkpt lat="38.838686" lon="-0.408574">
        <ele>663.046</ele>
        <time>2022-07-10T08:33:23Z</time>
      </trkpt>
      <trkpt lat="38.838684" lon="-0.408600">
        <ele>662.619</ele>
        <time>2022-07-10T08:33:25Z</time>
      </trkpt>
      <trkpt lat="38.838694" lon="-0.408617">
        <ele>662.223</ele>
        <time>2022-07-10T08:33:26Z</time>
      </trkpt>
      <trkpt lat="38.838726" lon="-0.408655">
        <ele>661.689</ele>
        <time>2022-07-10T08:33:28Z</time>
      </trkpt>
      <trkpt lat="38.838750" lon="-0.408688">
        <ele>661.213</ele>
        <time>2022-07-10T08:33:30Z</time>
      </trkpt>
      <trkpt lat="38.838749" lon="-0.408708">
        <ele>661.043</ele>
        <time>2022-07-10T08:33:31Z</time>
      </trkpt>
      <trkpt lat="38.838745" lon="-0.408757">
        <ele>660.207</ele>
        <time>2022-07-10T08:33:34Z</time>
      </trkpt>
      <trkpt lat="38.838747" lon="-0.408766">
        <ele>660.009</ele>
        <time>2022-07-10T08:33:35Z</time>
      </trkpt>
      <trkpt lat="38.838752" lon="-0.408771">
        <ele>659.852</ele>
        <time>2022-07-10T08:33:36Z</time>
      </trkpt>
      <trkpt lat="38.838773" lon="-0.408783">
        <ele>659.471</ele>
        <time>2022-07-10T08:33:38Z</time>
      </trkpt>
      <trkpt lat="38.838780" lon="-0.408795">
        <ele>659.268</ele>
        <time>2022-07-10T08:33:39Z</time>
      </trkpt>
      <trkpt lat="38.838784" lon="-0.408805">
        <ele>659.016</ele>
        <time>2022-07-10T08:33:40Z</time>
      </trkpt>
      <trkpt lat="38.838788" lon="-0.408816">
        <ele>658.815</ele>
        <time>2022-07-10T08:33:41Z</time>
      </trkpt>
      <trkpt lat="38.838784" lon="-0.408847">
        <ele>658.491</ele>
        <time>2022-07-10T08:33:44Z</time>
      </trkpt>
      <trkpt lat="38.838765" lon="-0.408858">
        <ele>658.034</ele>
        <time>2022-07-10T08:33:46Z</time>
      </trkpt>
      <trkpt lat="38.838757" lon="-0.408850">
        <ele>657.828</ele>
        <time>2022-07-10T08:33:47Z</time>
      </trkpt>
      <trkpt lat="38.838748" lon="-0.408841">
        <ele>657.684</ele>
        <time>2022-07-10T08:33:48Z</time>
      </trkpt>
      <trkpt lat="38.838700" lon="-0.408816">
        <ele>657.459</ele>
        <time>2022-07-10T08:33:53Z</time>
      </trkpt>
      <trkpt lat="38.838674" lon="-0.408815">
        <ele>657.003</ele>
        <time>2022-07-10T08:33:54Z</time>
      </trkpt>
      <trkpt lat="38.838632" lon="-0.408822">
        <ele>656.623</ele>
        <time>2022-07-10T08:33:56Z</time>
      </trkpt>
      <trkpt lat="38.838623" lon="-0.408821">
        <ele>656.409</ele>
        <time>2022-07-10T08:33:57Z</time>
      </trkpt>
      <trkpt lat="38.838609" lon="-0.408821">
        <ele>656.096</ele>
        <time>2022-07-10T08:33:59Z</time>
      </trkpt>
      <trkpt lat="38.838600" lon="-0.408824">
        <ele>655.885</ele>
        <time>2022-07-10T08:34:00Z</time>
      </trkpt>
      <trkpt lat="38.838575" lon="-0.408819">
        <ele>655.462</ele>
        <time>2022-07-10T08:34:02Z</time>
      </trkpt>
      <trkpt lat="38.838546" lon="-0.408832">
        <ele>654.860</ele>
        <time>2022-07-10T08:34:05Z</time>
      </trkpt>
      <trkpt lat="38.838494" lon="-0.408830">
        <ele>654.469</ele>
        <time>2022-07-10T08:34:09Z</time>
      </trkpt>
      <trkpt lat="38.838467" lon="-0.408831">
        <ele>654.085</ele>
        <time>2022-07-10T08:34:12Z</time>
      </trkpt>
      <trkpt lat="38.838425" lon="-0.408847">
        <ele>653.278</ele>
        <time>2022-07-10T08:34:16Z</time>
      </trkpt>
      <trkpt lat="38.838415" lon="-0.408859">
        <ele>653.022</ele>
        <time>2022-07-10T08:34:17Z</time>
      </trkpt>
      <trkpt lat="38.838395" lon="-0.408863">
        <ele>652.688</ele>
        <time>2022-07-10T08:34:19Z</time>
      </trkpt>
      <trkpt lat="38.838372" lon="-0.408846">
        <ele>652.256</ele>
        <time>2022-07-10T08:34:21Z</time>
      </trkpt>
      <trkpt lat="38.838358" lon="-0.408865">
        <ele>651.859</ele>
        <time>2022-07-10T08:34:23Z</time>
      </trkpt>
      <trkpt lat="38.838345" lon="-0.408879">
        <ele>651.614</ele>
        <time>2022-07-10T08:34:25Z</time>
      </trkpt>
      <trkpt lat="38.838309" lon="-0.408895">
        <ele>651.209</ele>
        <time>2022-07-10T08:34:28Z</time>
      </trkpt>
      <trkpt lat="38.838278" lon="-0.408919">
        <ele>650.676</ele>
        <time>2022-07-10T08:34:32Z</time>
      </trkpt>
      <trkpt lat="38.838290" lon="-0.408930">
        <ele>650.295</ele>
        <time>2022-07-10T08:34:34Z</time>
      </trkpt>
      <trkpt lat="38.838298" lon="-0.408940">
        <ele>650.042</ele>
        <time>2022-07-10T08:34:35Z</time>
      </trkpt>
      <trkpt lat="38.838350" lon="-0.408971">
        <ele>648.860</ele>
        <time>2022-07-10T08:34:40Z</time>
      </trkpt>
      <trkpt lat="38.838359" lon="-0.408974">
        <ele>648.699</ele>
        <time>2022-07-10T08:34:41Z</time>
      </trkpt>
      <trkpt lat="38.838379" lon="-0.408978">
        <ele>648.235</ele>
        <time>2022-07-10T08:34:43Z</time>
      </trkpt>
      <trkpt lat="38.838401" lon="-0.408983">
        <ele>647.668</ele>
        <time>2022-07-10T08:34:45Z</time>
      </trkpt>
      <trkpt lat="38.838441" lon="-0.409001">
        <ele>647.272</ele>
        <time>2022-07-10T08:34:48Z</time>
      </trkpt>
      <trkpt lat="38.838452" lon="-0.409004">
        <ele>646.858</ele>
        <time>2022-07-10T08:34:49Z</time>
      </trkpt>
      <trkpt lat="38.838457" lon="-0.409017">
        <ele>646.479</ele>
        <time>2022-07-10T08:34:51Z</time>
      </trkpt>
      <trkpt lat="38.838464" lon="-0.409027">
        <ele>646.205</ele>
        <time>2022-07-10T08:34:52Z</time>
      </trkpt>
      <trkpt lat="38.838510" lon="-0.409054">
        <ele>645.425</ele>
        <time>2022-07-10T08:34:56Z</time>
      </trkpt>
      <trkpt lat="38.838517" lon="-0.409054">
        <ele>645.209</ele>
        <time>2022-07-10T08:34:57Z</time>
      </trkpt>
      <trkpt lat="38.838535" lon="-0.409061">
        <ele>645.068</ele>
        <time>2022-07-10T08:34:59Z</time>
      </trkpt>
      <trkpt lat="38.838544" lon="-0.409094">
        <ele>644.657</ele>
        <time>2022-07-10T08:35:01Z</time>
      </trkpt>
      <trkpt lat="38.838550" lon="-0.409112">
        <ele>644.494</ele>
        <time>2022-07-10T08:35:02Z</time>
      </trkpt>
      <trkpt lat="38.838556" lon="-0.409125">
        <ele>644.082</ele>
        <time>2022-07-10T08:35:03Z</time>
      </trkpt>
      <trkpt lat="38.838562" lon="-0.409139">
        <ele>644.061</ele>
        <time>2022-07-10T08:35:04Z</time>
      </trkpt>
      <trkpt lat="38.838585" lon="-0.409173">
        <ele>643.267</ele>
        <time>2022-07-10T08:35:08Z</time>
      </trkpt>
      <trkpt lat="38.838592" lon="-0.409177">
        <ele>643.050</ele>
        <time>2022-07-10T08:35:09Z</time>
      </trkpt>
      <trkpt lat="38.838611" lon="-0.409193">
        <ele>642.454</ele>
        <time>2022-07-10T08:35:12Z</time>
      </trkpt>
      <trkpt lat="38.838619" lon="-0.409193">
        <ele>642.220</ele>
        <time>2022-07-10T08:35:13Z</time>
      </trkpt>
      <trkpt lat="38.838624" lon="-0.409209">
        <ele>641.818</ele>
        <time>2022-07-10T08:35:15Z</time>
      </trkpt>
      <trkpt lat="38.838634" lon="-0.409241">
        <ele>641.298</ele>
        <time>2022-07-10T08:35:18Z</time>
      </trkpt>
      <trkpt lat="38.838642" lon="-0.409250">
        <ele>641.017</ele>
        <time>2022-07-10T08:35:19Z</time>
      </trkpt>
      <trkpt lat="38.838648" lon="-0.409275">
        <ele>640.609</ele>
        <time>2022-07-10T08:35:21Z</time>
      </trkpt>
      <trkpt lat="38.838650" lon="-0.409318">
        <ele>640.272</ele>
        <time>2022-07-10T08:35:23Z</time>
      </trkpt>
      <trkpt lat="38.838662" lon="-0.409362">
        <ele>639.671</ele>
        <time>2022-07-10T08:35:25Z</time>
      </trkpt>
      <trkpt lat="38.838662" lon="-0.409383">
        <ele>639.448</ele>
        <time>2022-07-10T08:35:26Z</time>
      </trkpt>
      <trkpt lat="38.838660" lon="-0.409415">
        <ele>639.276</ele>
        <time>2022-07-10T08:35:28Z</time>
      </trkpt>
      <trkpt lat="38.838675" lon="-0.409430">
        <ele>639.065</ele>
        <time>2022-07-10T08:35:29Z</time>
      </trkpt>
      <trkpt lat="38.838681" lon="-0.409444">
        <ele>638.881</ele>
        <time>2022-07-10T08:35:30Z</time>
      </trkpt>
      <trkpt lat="38.838685" lon="-0.409449">
        <ele>638.674</ele>
        <time>2022-07-10T08:35:31Z</time>
      </trkpt>
      <trkpt lat="38.838689" lon="-0.409452">
        <ele>638.458</ele>
        <time>2022-07-10T08:35:32Z</time>
      </trkpt>
      <trkpt lat="38.838720" lon="-0.409482">
        <ele>638.024</ele>
        <time>2022-07-10T08:35:34Z</time>
      </trkpt>
      <trkpt lat="38.838725" lon="-0.409523">
        <ele>637.485</ele>
        <time>2022-07-10T08:35:36Z</time>
      </trkpt>
      <trkpt lat="38.838719" lon="-0.409551">
        <ele>637.289</ele>
        <time>2022-07-10T08:35:37Z</time>
      </trkpt>
      <trkpt lat="38.838721" lon="-0.409588">
        <ele>636.817</ele>
        <time>2022-07-10T08:35:39Z</time>
      </trkpt>
      <trkpt lat="38.838721" lon="-0.409600">
        <ele>636.409</ele>
        <time>2022-07-10T08:35:40Z</time>
      </trkpt>
      <trkpt lat="38.838720" lon="-0.409611">
        <ele>636.249</ele>
        <time>2022-07-10T08:35:41Z</time>
      </trkpt>
      <trkpt lat="38.838725" lon="-0.409620">
        <ele>636.058</ele>
        <time>2022-07-10T08:35:42Z</time>
      </trkpt>
      <trkpt lat="38.838732" lon="-0.409637">
        <ele>635.635</ele>
        <time>2022-07-10T08:35:44Z</time>
      </trkpt>
      <trkpt lat="38.838738" lon="-0.409651">
        <ele>635.273</ele>
        <time>2022-07-10T08:35:46Z</time>
      </trkpt>
      <trkpt lat="38.838737" lon="-0.409665">
        <ele>635.042</ele>
        <time>2022-07-10T08:35:47Z</time>
      </trkpt>
      <trkpt lat="38.838737" lon="-0.409691">
        <ele>634.888</ele>
        <time>2022-07-10T08:35:49Z</time>
      </trkpt>
      <trkpt lat="38.838737" lon="-0.409702">
        <ele>634.651</ele>
        <time>2022-07-10T08:35:50Z</time>
      </trkpt>
      <trkpt lat="38.838741" lon="-0.409704">
        <ele>634.625</ele>
        <time>2022-07-10T08:35:52Z</time>
      </trkpt>
      <trkpt lat="38.838753" lon="-0.409719">
        <ele>634.031</ele>
        <time>2022-07-10T08:35:53Z</time>
      </trkpt>
      <trkpt lat="38.838765" lon="-0.409776">
        <ele>633.092</ele>
        <time>2022-07-10T08:35:57Z</time>
      </trkpt>
      <trkpt lat="38.838770" lon="-0.409788">
        <ele>632.873</ele>
        <time>2022-07-10T08:35:58Z</time>
      </trkpt>
      <trkpt lat="38.838779" lon="-0.409816">
        <ele>632.420</ele>
        <time>2022-07-10T08:36:00Z</time>
      </trkpt>
      <trkpt lat="38.838775" lon="-0.409844">
        <ele>631.809</ele>
        <time>2022-07-10T08:36:02Z</time>
      </trkpt>
      <trkpt lat="38.838785" lon="-0.409856">
        <ele>631.630</ele>
        <time>2022-07-10T08:36:03Z</time>
      </trkpt>
      <trkpt lat="38.838813" lon="-0.409891">
        <ele>631.279</ele>
        <time>2022-07-10T08:36:06Z</time>
      </trkpt>
      <trkpt lat="38.838825" lon="-0.409921">
        <ele>630.836</ele>
        <time>2022-07-10T08:36:08Z</time>
      </trkpt>
      <trkpt lat="38.838819" lon="-0.409939">
        <ele>630.454</ele>
        <time>2022-07-10T08:36:09Z</time>
      </trkpt>
      <trkpt lat="38.838816" lon="-0.409966">
        <ele>630.043</ele>
        <time>2022-07-10T08:36:11Z</time>
      </trkpt>
      <trkpt lat="38.838822" lon="-0.409978">
        <ele>629.619</ele>
        <time>2022-07-10T08:36:13Z</time>
      </trkpt>
      <trkpt lat="38.838829" lon="-0.409985">
        <ele>629.442</ele>
        <time>2022-07-10T08:36:14Z</time>
      </trkpt>
      <trkpt lat="38.838840" lon="-0.409988">
        <ele>629.226</ele>
        <time>2022-07-10T08:36:15Z</time>
      </trkpt>
      <trkpt lat="38.838857" lon="-0.409993">
        <ele>629.282</ele>
        <time>2022-07-10T08:36:16Z</time>
      </trkpt>
      <trkpt lat="38.838870" lon="-0.410009">
        <ele>628.687</ele>
        <time>2022-07-10T08:36:18Z</time>
      </trkpt>
      <trkpt lat="38.838893" lon="-0.410013">
        <ele>628.242</ele>
        <time>2022-07-10T08:36:20Z</time>
      </trkpt>
      <trkpt lat="38.838903" lon="-0.410022">
        <ele>627.626</ele>
        <time>2022-07-10T08:36:22Z</time>
      </trkpt>
      <trkpt lat="38.838905" lon="-0.410037">
        <ele>627.409</ele>
        <time>2022-07-10T08:36:23Z</time>
      </trkpt>
      <trkpt lat="38.838915" lon="-0.410059">
        <ele>627.079</ele>
        <time>2022-07-10T08:36:25Z</time>
      </trkpt>
      <trkpt lat="38.838925" lon="-0.410062">
        <ele>626.898</ele>
        <time>2022-07-10T08:36:26Z</time>
      </trkpt>
      <trkpt lat="38.838938" lon="-0.410080">
        <ele>626.485</ele>
        <time>2022-07-10T08:36:28Z</time>
      </trkpt>
      <trkpt lat="38.838954" lon="-0.410112">
        <ele>625.813</ele>
        <time>2022-07-10T08:36:31Z</time>
      </trkpt>
      <trkpt lat="38.838964" lon="-0.410149">
        <ele>625.282</ele>
        <time>2022-07-10T08:36:34Z</time>
      </trkpt>
      <trkpt lat="38.838968" lon="-0.410163">
        <ele>624.818</ele>
        <time>2022-07-10T08:36:35Z</time>
      </trkpt>
      <trkpt lat="38.838974" lon="-0.410201">
        <ele>624.031</ele>
        <time>2022-07-10T08:36:38Z</time>
      </trkpt>
      <trkpt lat="38.839004" lon="-0.410235">
        <ele>623.085</ele>
        <time>2022-07-10T08:36:42Z</time>
      </trkpt>
      <trkpt lat="38.839015" lon="-0.410243">
        <ele>622.821</ele>
        <time>2022-07-10T08:36:43Z</time>
      </trkpt>
      <trkpt lat="38.839022" lon="-0.410254">
        <ele>622.642</ele>
        <time>2022-07-10T08:36:44Z</time>
      </trkpt>
      <trkpt lat="38.839049" lon="-0.410279">
        <ele>621.822</ele>
        <time>2022-07-10T08:36:47Z</time>
      </trkpt>
      <trkpt lat="38.839059" lon="-0.410287">
        <ele>621.614</ele>
        <time>2022-07-10T08:36:48Z</time>
      </trkpt>
      <trkpt lat="38.839070" lon="-0.410309">
        <ele>621.609</ele>
        <time>2022-07-10T08:36:50Z</time>
      </trkpt>
      <trkpt lat="38.839080" lon="-0.410336">
        <ele>620.825</ele>
        <time>2022-07-10T08:36:53Z</time>
      </trkpt>
      <trkpt lat="38.839093" lon="-0.410339">
        <ele>620.614</ele>
        <time>2022-07-10T08:36:54Z</time>
      </trkpt>
      <trkpt lat="38.839113" lon="-0.410336">
        <ele>620.221</ele>
        <time>2022-07-10T08:36:55Z</time>
      </trkpt>
      <trkpt lat="38.839142" lon="-0.410337">
        <ele>619.819</ele>
        <time>2022-07-10T08:36:57Z</time>
      </trkpt>
      <trkpt lat="38.839164" lon="-0.410381">
        <ele>619.088</ele>
        <time>2022-07-10T08:37:01Z</time>
      </trkpt>
      <trkpt lat="38.839168" lon="-0.410390">
        <ele>618.894</ele>
        <time>2022-07-10T08:37:02Z</time>
      </trkpt>
      <trkpt lat="38.839175" lon="-0.410391">
        <ele>618.437</ele>
        <time>2022-07-10T08:37:03Z</time>
      </trkpt>
      <trkpt lat="38.839216" lon="-0.410396">
        <ele>617.621</ele>
        <time>2022-07-10T08:37:07Z</time>
      </trkpt>
      <trkpt lat="38.839253" lon="-0.410402">
        <ele>617.297</ele>
        <time>2022-07-10T08:37:10Z</time>
      </trkpt>
      <trkpt lat="38.839256" lon="-0.410407">
        <ele>616.873</ele>
        <time>2022-07-10T08:37:11Z</time>
      </trkpt>
      <trkpt lat="38.839266" lon="-0.410415">
        <ele>616.685</ele>
        <time>2022-07-10T08:37:13Z</time>
      </trkpt>
      <trkpt lat="38.839292" lon="-0.410396">
        <ele>616.013</ele>
        <time>2022-07-10T08:37:16Z</time>
      </trkpt>
      <trkpt lat="38.839350" lon="-0.410390">
        <ele>615.409</ele>
        <time>2022-07-10T08:37:20Z</time>
      </trkpt>
      <trkpt lat="38.839371" lon="-0.410397">
        <ele>615.248</ele>
        <time>2022-07-10T08:37:22Z</time>
      </trkpt>
      <trkpt lat="38.839400" lon="-0.410399">
        <ele>614.677</ele>
        <time>2022-07-10T08:37:25Z</time>
      </trkpt>
      <trkpt lat="38.839425" lon="-0.410388">
        <ele>614.654</ele>
        <time>2022-07-10T08:37:27Z</time>
      </trkpt>
      <trkpt lat="38.839433" lon="-0.410392">
        <ele>614.452</ele>
        <time>2022-07-10T08:37:28Z</time>
      </trkpt>
      <trkpt lat="38.839458" lon="-0.410398">
        <ele>614.091</ele>
        <time>2022-07-10T08:37:30Z</time>
      </trkpt>
      <trkpt lat="38.839475" lon="-0.410429">
        <ele>613.417</ele>
        <time>2022-07-10T08:37:33Z</time>
      </trkpt>
      <trkpt lat="38.839486" lon="-0.410434">
        <ele>613.220</ele>
        <time>2022-07-10T08:37:34Z</time>
      </trkpt>
      <trkpt lat="38.839505" lon="-0.410444">
        <ele>613.064</ele>
        <time>2022-07-10T08:37:36Z</time>
      </trkpt>
      <trkpt lat="38.839533" lon="-0.410449">
        <ele>612.620</ele>
        <time>2022-07-10T08:37:38Z</time>
      </trkpt>
      <trkpt lat="38.839538" lon="-0.410452">
        <ele>612.418</ele>
        <time>2022-07-10T08:37:39Z</time>
      </trkpt>
      <trkpt lat="38.839543" lon="-0.410454">
        <ele>612.298</ele>
        <time>2022-07-10T08:37:40Z</time>
      </trkpt>
      <trkpt lat="38.839581" lon="-0.410494">
        <ele>611.417</ele>
        <time>2022-07-10T08:37:45Z</time>
      </trkpt>
      <trkpt lat="38.839584" lon="-0.410511">
        <ele>611.209</ele>
        <time>2022-07-10T08:37:46Z</time>
      </trkpt>
      <trkpt lat="38.839601" lon="-0.410608">
        <ele>610.062</ele>
        <time>2022-07-10T08:37:51Z</time>
      </trkpt>
      <trkpt lat="38.839608" lon="-0.410610">
        <ele>609.871</ele>
        <time>2022-07-10T08:37:52Z</time>
      </trkpt>
      <trkpt lat="38.839645" lon="-0.410631">
        <ele>609.248</ele>
        <time>2022-07-10T08:37:56Z</time>
      </trkpt>
      <trkpt lat="38.839654" lon="-0.410637">
        <ele>609.076</ele>
        <time>2022-07-10T08:37:57Z</time>
      </trkpt>
      <trkpt lat="38.839664" lon="-0.410644">
        <ele>608.885</ele>
        <time>2022-07-10T08:37:58Z</time>
      </trkpt>
      <trkpt lat="38.839697" lon="-0.410667">
        <ele>608.291</ele>
        <time>2022-07-10T08:38:01Z</time>
      </trkpt>
      <trkpt lat="38.839717" lon="-0.410685">
        <ele>607.834</ele>
        <time>2022-07-10T08:38:03Z</time>
      </trkpt>
      <trkpt lat="38.839722" lon="-0.410692">
        <ele>607.658</ele>
        <time>2022-07-10T08:38:04Z</time>
      </trkpt>
      <trkpt lat="38.839734" lon="-0.410703">
        <ele>607.464</ele>
        <time>2022-07-10T08:38:06Z</time>
      </trkpt>
      <trkpt lat="38.839744" lon="-0.410714">
        <ele>607.275</ele>
        <time>2022-07-10T08:38:08Z</time>
      </trkpt>
      <trkpt lat="38.839748" lon="-0.410744">
        <ele>606.828</ele>
        <time>2022-07-10T08:38:10Z</time>
      </trkpt>
      <trkpt lat="38.839777" lon="-0.410778">
        <ele>605.820</ele>
        <time>2022-07-10T08:38:14Z</time>
      </trkpt>
      <trkpt lat="38.839783" lon="-0.410787">
        <ele>605.609</ele>
        <time>2022-07-10T08:38:15Z</time>
      </trkpt>
      <trkpt lat="38.839811" lon="-0.410838">
        <ele>605.068</ele>
        <time>2022-07-10T08:38:19Z</time>
      </trkpt>
      <trkpt lat="38.839813" lon="-0.410841">
        <ele>604.657</ele>
        <time>2022-07-10T08:38:20Z</time>
      </trkpt>
      <trkpt lat="38.839826" lon="-0.410853">
        <ele>604.284</ele>
        <time>2022-07-10T08:38:22Z</time>
      </trkpt>
      <trkpt lat="38.839847" lon="-0.410878">
        <ele>603.612</ele>
        <time>2022-07-10T08:38:26Z</time>
      </trkpt>
      <trkpt lat="38.839857" lon="-0.410894">
        <ele>603.491</ele>
        <time>2022-07-10T08:38:28Z</time>
      </trkpt>
      <trkpt lat="38.839863" lon="-0.410918">
        <ele>603.087</ele>
        <time>2022-07-10T08:38:30Z</time>
      </trkpt>
      <trkpt lat="38.839867" lon="-0.410923">
        <ele>602.810</ele>
        <time>2022-07-10T08:38:31Z</time>
      </trkpt>
      <trkpt lat="38.839872" lon="-0.410930">
        <ele>602.624</ele>
        <time>2022-07-10T08:38:32Z</time>
      </trkpt>
      <trkpt lat="38.839882" lon="-0.410948">
        <ele>602.290</ele>
        <time>2022-07-10T08:38:34Z</time>
      </trkpt>
      <trkpt lat="38.839883" lon="-0.410984">
        <ele>601.877</ele>
        <time>2022-07-10T08:38:36Z</time>
      </trkpt>
      <trkpt lat="38.839888" lon="-0.410997">
        <ele>601.661</ele>
        <time>2022-07-10T08:38:37Z</time>
      </trkpt>
      <trkpt lat="38.839898" lon="-0.411004">
        <ele>601.427</ele>
        <time>2022-07-10T08:38:38Z</time>
      </trkpt>
      <trkpt lat="38.839924" lon="-0.411011">
        <ele>601.209</ele>
        <time>2022-07-10T08:38:40Z</time>
      </trkpt>
      <trkpt lat="38.839952" lon="-0.411018">
        <ele>601.038</ele>
        <time>2022-07-10T08:38:42Z</time>
      </trkpt>
      <trkpt lat="38.839979" lon="-0.411026">
        <ele>600.287</ele>
        <time>2022-07-10T08:38:45Z</time>
      </trkpt>
      <trkpt lat="38.839989" lon="-0.411016">
        <ele>600.064</ele>
        <time>2022-07-10T08:38:46Z</time>
      </trkpt>
      <trkpt lat="38.839998" lon="-0.411013">
        <ele>600.072</ele>
        <time>2022-07-10T08:38:47Z</time>
      </trkpt>
      <trkpt lat="38.840028" lon="-0.411029">
        <ele>599.221</ele>
        <time>2022-07-10T08:38:51Z</time>
      </trkpt>
      <trkpt lat="38.840027" lon="-0.411038">
        <ele>599.087</ele>
        <time>2022-07-10T08:38:52Z</time>
      </trkpt>
      <trkpt lat="38.839999" lon="-0.411036">
        <ele>598.040</ele>
        <time>2022-07-10T08:38:59Z</time>
      </trkpt>
      <trkpt lat="38.839947" lon="-0.411020">
        <ele>597.094</ele>
        <time>2022-07-10T08:39:05Z</time>
      </trkpt>
      <trkpt lat="38.839894" lon="-0.411027">
        <ele>596.630</ele>
        <time>2022-07-10T08:39:09Z</time>
      </trkpt>
      <trkpt lat="38.839887" lon="-0.411045">
        <ele>596.455</ele>
        <time>2022-07-10T08:39:11Z</time>
      </trkpt>
      <trkpt lat="38.839902" lon="-0.411067">
        <ele>596.207</ele>
        <time>2022-07-10T08:39:12Z</time>
      </trkpt>
      <trkpt lat="38.839911" lon="-0.411081">
        <ele>596.017</ele>
        <time>2022-07-10T08:39:13Z</time>
      </trkpt>
      <trkpt lat="38.839923" lon="-0.411088">
        <ele>596.009</ele>
        <time>2022-07-10T08:39:14Z</time>
      </trkpt>
      <trkpt lat="38.839928" lon="-0.411094">
        <ele>595.636</ele>
        <time>2022-07-10T08:39:15Z</time>
      </trkpt>
      <trkpt lat="38.839937" lon="-0.411098">
        <ele>595.235</ele>
        <time>2022-07-10T08:39:17Z</time>
      </trkpt>
      <trkpt lat="38.839951" lon="-0.411099">
        <ele>594.852</ele>
        <time>2022-07-10T08:39:19Z</time>
      </trkpt>
      <trkpt lat="38.839970" lon="-0.411106">
        <ele>594.490</ele>
        <time>2022-07-10T08:39:21Z</time>
      </trkpt>
      <trkpt lat="38.840011" lon="-0.411135">
        <ele>593.829</ele>
        <time>2022-07-10T08:39:25Z</time>
      </trkpt>
      <trkpt lat="38.840022" lon="-0.411134">
        <ele>593.825</ele>
        <time>2022-07-10T08:39:26Z</time>
      </trkpt>
      <trkpt lat="38.840031" lon="-0.411143">
        <ele>593.658</ele>
        <time>2022-07-10T08:39:27Z</time>
      </trkpt>
      <trkpt lat="38.840048" lon="-0.411176">
        <ele>593.282</ele>
        <time>2022-07-10T08:39:29Z</time>
      </trkpt>
      <trkpt lat="38.840055" lon="-0.411184">
        <ele>593.238</ele>
        <time>2022-07-10T08:39:30Z</time>
      </trkpt>
      <trkpt lat="38.840082" lon="-0.411202">
        <ele>592.842</ele>
        <time>2022-07-10T08:39:32Z</time>
      </trkpt>
      <trkpt lat="38.840095" lon="-0.411210">
        <ele>592.622</ele>
        <time>2022-07-10T08:39:33Z</time>
      </trkpt>
      <trkpt lat="38.840110" lon="-0.411221">
        <ele>592.214</ele>
        <time>2022-07-10T08:39:35Z</time>
      </trkpt>
      <trkpt lat="38.840131" lon="-0.411233">
        <ele>592.009</ele>
        <time>2022-07-10T08:39:37Z</time>
      </trkpt>
      <trkpt lat="38.840165" lon="-0.411226">
        <ele>591.615</ele>
        <time>2022-07-10T08:39:39Z</time>
      </trkpt>
      <trkpt lat="38.840181" lon="-0.411226">
        <ele>591.624</ele>
        <time>2022-07-10T08:39:41Z</time>
      </trkpt>
      <trkpt lat="38.840208" lon="-0.411237">
        <ele>590.841</ele>
        <time>2022-07-10T08:39:44Z</time>
      </trkpt>
      <trkpt lat="38.840223" lon="-0.411244">
        <ele>590.479</ele>
        <time>2022-07-10T08:39:46Z</time>
      </trkpt>
      <trkpt lat="38.840233" lon="-0.411250">
        <ele>590.228</ele>
        <time>2022-07-10T08:39:48Z</time>
      </trkpt>
      <trkpt lat="38.840237" lon="-0.411257">
        <ele>590.074</ele>
        <time>2022-07-10T08:39:49Z</time>
      </trkpt>
      <trkpt lat="38.840255" lon="-0.411263">
        <ele>589.677</ele>
        <time>2022-07-10T08:39:51Z</time>
      </trkpt>
      <trkpt lat="38.840260" lon="-0.411271">
        <ele>589.421</ele>
        <time>2022-07-10T08:39:52Z</time>
      </trkpt>
      <trkpt lat="38.840279" lon="-0.411274">
        <ele>589.037</ele>
        <time>2022-07-10T08:39:54Z</time>
      </trkpt>
      <trkpt lat="38.840290" lon="-0.411268">
        <ele>588.813</ele>
        <time>2022-07-10T08:39:55Z</time>
      </trkpt>
      <trkpt lat="38.840295" lon="-0.411294">
        <ele>588.643</ele>
        <time>2022-07-10T08:39:58Z</time>
      </trkpt>
      <trkpt lat="38.840293" lon="-0.411307">
        <ele>588.407</ele>
        <time>2022-07-10T08:39:59Z</time>
      </trkpt>
      <trkpt lat="38.840277" lon="-0.411304">
        <ele>587.609</ele>
        <time>2022-07-10T08:40:03Z</time>
      </trkpt>
      <trkpt lat="38.840265" lon="-0.411286">
        <ele>587.292</ele>
        <time>2022-07-10T08:40:05Z</time>
      </trkpt>
      <trkpt lat="38.840238" lon="-0.411287">
        <ele>586.471</ele>
        <time>2022-07-10T08:40:09Z</time>
      </trkpt>
      <trkpt lat="38.840233" lon="-0.411284">
        <ele>586.498</ele>
        <time>2022-07-10T08:40:10Z</time>
      </trkpt>
      <trkpt lat="38.840212" lon="-0.411290">
        <ele>586.056</ele>
        <time>2022-07-10T08:40:12Z</time>
      </trkpt>
      <trkpt lat="38.840198" lon="-0.411288">
        <ele>585.685</ele>
        <time>2022-07-10T08:40:13Z</time>
      </trkpt>
      <trkpt lat="38.840191" lon="-0.411290">
        <ele>585.491</ele>
        <time>2022-07-10T08:40:14Z</time>
      </trkpt>
      <trkpt lat="38.840179" lon="-0.411302">
        <ele>585.074</ele>
        <time>2022-07-10T08:40:16Z</time>
      </trkpt>
      <trkpt lat="38.840176" lon="-0.411313">
        <ele>585.098</ele>
        <time>2022-07-10T08:40:17Z</time>
      </trkpt>
      <trkpt lat="38.840178" lon="-0.411321">
        <ele>584.834</ele>
        <time>2022-07-10T08:40:18Z</time>
      </trkpt>
      <trkpt lat="38.840143" lon="-0.411362">
        <ele>584.241</ele>
        <time>2022-07-10T08:40:21Z</time>
      </trkpt>
      <trkpt lat="38.840136" lon="-0.411377">
        <ele>584.081</ele>
        <time>2022-07-10T08:40:22Z</time>
      </trkpt>
      <trkpt lat="38.840116" lon="-0.411400">
        <ele>583.409</ele>
        <time>2022-07-10T08:40:24Z</time>
      </trkpt>
      <trkpt lat="38.840092" lon="-0.411418">
        <ele>582.809</ele>
        <time>2022-07-10T08:40:26Z</time>
      </trkpt>
      <trkpt lat="38.840046" lon="-0.411441">
        <ele>582.055</ele>
        <time>2022-07-10T08:40:30Z</time>
      </trkpt>
      <trkpt lat="38.840042" lon="-0.411448">
        <ele>581.854</ele>
        <time>2022-07-10T08:40:32Z</time>
      </trkpt>
      <trkpt lat="38.840022" lon="-0.411468">
        <ele>581.481</ele>
        <time>2022-07-10T08:40:34Z</time>
      </trkpt>
      <trkpt lat="38.840015" lon="-0.411505">
        <ele>581.229</ele>
        <time>2022-07-10T08:40:36Z</time>
      </trkpt>
      <trkpt lat="38.840025" lon="-0.411529">
        <ele>580.818</ele>
        <time>2022-07-10T08:40:38Z</time>
      </trkpt>
      <trkpt lat="38.840034" lon="-0.411522">
        <ele>580.684</ele>
        <time>2022-07-10T08:40:39Z</time>
      </trkpt>
      <trkpt lat="38.840043" lon="-0.411513">
        <ele>580.287</ele>
        <time>2022-07-10T08:40:40Z</time>
      </trkpt>
      <trkpt lat="38.840097" lon="-0.411491">
        <ele>579.651</ele>
        <time>2022-07-10T08:40:44Z</time>
      </trkpt>
      <trkpt lat="38.840105" lon="-0.411489">
        <ele>579.497</ele>
        <time>2022-07-10T08:40:45Z</time>
      </trkpt>
      <trkpt lat="38.840118" lon="-0.411481">
        <ele>578.899</ele>
        <time>2022-07-10T08:40:47Z</time>
      </trkpt>
      <trkpt lat="38.840155" lon="-0.411473">
        <ele>578.407</ele>
        <time>2022-07-10T08:40:52Z</time>
      </trkpt>
      <trkpt lat="38.840168" lon="-0.411484">
        <ele>578.227</ele>
        <time>2022-07-10T08:40:53Z</time>
      </trkpt>
      <trkpt lat="38.840208" lon="-0.411497">
        <ele>577.609</ele>
        <time>2022-07-10T08:40:56Z</time>
      </trkpt>
      <trkpt lat="38.840240" lon="-0.411485">
        <ele>577.210</ele>
        <time>2022-07-10T08:40:59Z</time>
      </trkpt>
      <trkpt lat="38.840228" lon="-0.411522">
        <ele>576.239</ele>
        <time>2022-07-10T08:41:04Z</time>
      </trkpt>
      <trkpt lat="38.840218" lon="-0.411516">
        <ele>576.096</ele>
        <time>2022-07-10T08:41:06Z</time>
      </trkpt>
      <trkpt lat="38.840200" lon="-0.411514">
        <ele>575.824</ele>
        <time>2022-07-10T08:41:08Z</time>
      </trkpt>
      <trkpt lat="38.840192" lon="-0.411521">
        <ele>575.663</ele>
        <time>2022-07-10T08:41:09Z</time>
      </trkpt>
      <trkpt lat="38.840167" lon="-0.411549">
        <ele>575.259</ele>
        <time>2022-07-10T08:41:12Z</time>
      </trkpt>
      <trkpt lat="38.840161" lon="-0.411563">
        <ele>575.072</ele>
        <time>2022-07-10T08:41:13Z</time>
      </trkpt>
      <trkpt lat="38.840158" lon="-0.411584">
        <ele>574.826</ele>
        <time>2022-07-10T08:41:14Z</time>
      </trkpt>
      <trkpt lat="38.840157" lon="-0.411602">
        <ele>574.682</ele>
        <time>2022-07-10T08:41:15Z</time>
      </trkpt>
      <trkpt lat="38.840156" lon="-0.411610">
        <ele>574.483</ele>
        <time>2022-07-10T08:41:16Z</time>
      </trkpt>
      <trkpt lat="38.840156" lon="-0.411667">
        <ele>573.825</ele>
        <time>2022-07-10T08:41:19Z</time>
      </trkpt>
      <trkpt lat="38.840164" lon="-0.411681">
        <ele>573.617</ele>
        <time>2022-07-10T08:41:20Z</time>
      </trkpt>
      <trkpt lat="38.840214" lon="-0.411667">
        <ele>572.609</ele>
        <time>2022-07-10T08:41:25Z</time>
      </trkpt>
      <trkpt lat="38.840220" lon="-0.411661">
        <ele>572.459</ele>
        <time>2022-07-10T08:41:26Z</time>
      </trkpt>
      <trkpt lat="38.840256" lon="-0.411647">
        <ele>571.628</ele>
        <time>2022-07-10T08:41:29Z</time>
      </trkpt>
      <trkpt lat="38.840270" lon="-0.411645">
        <ele>571.435</ele>
        <time>2022-07-10T08:41:30Z</time>
      </trkpt>
      <trkpt lat="38.840292" lon="-0.411645">
        <ele>571.093</ele>
        <time>2022-07-10T08:41:32Z</time>
      </trkpt>
      <trkpt lat="38.840299" lon="-0.411651">
        <ele>571.032</ele>
        <time>2022-07-10T08:41:33Z</time>
      </trkpt>
      <trkpt lat="38.840310" lon="-0.411651">
        <ele>570.468</ele>
        <time>2022-07-10T08:41:35Z</time>
      </trkpt>
      <trkpt lat="38.840315" lon="-0.411652">
        <ele>570.261</ele>
        <time>2022-07-10T08:41:36Z</time>
      </trkpt>
      <trkpt lat="38.840324" lon="-0.411655">
        <ele>570.065</ele>
        <time>2022-07-10T08:41:37Z</time>
      </trkpt>
      <trkpt lat="38.840336" lon="-0.411659">
        <ele>570.011</ele>
        <time>2022-07-10T08:41:38Z</time>
      </trkpt>
      <trkpt lat="38.840350" lon="-0.411655">
        <ele>569.421</ele>
        <time>2022-07-10T08:41:40Z</time>
      </trkpt>
      <trkpt lat="38.840365" lon="-0.411652">
        <ele>569.241</ele>
        <time>2022-07-10T08:41:41Z</time>
      </trkpt>
      <trkpt lat="38.840381" lon="-0.411652">
        <ele>568.805</ele>
        <time>2022-07-10T08:41:42Z</time>
      </trkpt>
      <trkpt lat="38.840417" lon="-0.411669">
        <ele>568.209</ele>
        <time>2022-07-10T08:41:45Z</time>
      </trkpt>
      <trkpt lat="38.840427" lon="-0.411662">
        <ele>568.063</ele>
        <time>2022-07-10T08:41:46Z</time>
      </trkpt>
      <trkpt lat="38.840447" lon="-0.411643">
        <ele>567.452</ele>
        <time>2022-07-10T08:41:48Z</time>
      </trkpt>
      <trkpt lat="38.840454" lon="-0.411644">
        <ele>567.219</ele>
        <time>2022-07-10T08:41:49Z</time>
      </trkpt>
      <trkpt lat="38.840502" lon="-0.411636">
        <ele>566.477</ele>
        <time>2022-07-10T08:41:53Z</time>
      </trkpt>
      <trkpt lat="38.840513" lon="-0.411645">
        <ele>566.286</ele>
        <time>2022-07-10T08:41:54Z</time>
      </trkpt>
      <trkpt lat="38.840561" lon="-0.411664">
        <ele>565.892</ele>
        <time>2022-07-10T08:41:58Z</time>
      </trkpt>
      <trkpt lat="38.840584" lon="-0.411663">
        <ele>565.225</ele>
        <time>2022-07-10T08:42:00Z</time>
      </trkpt>
      <trkpt lat="38.840592" lon="-0.411665">
        <ele>564.819</ele>
        <time>2022-07-10T08:42:01Z</time>
      </trkpt>
      <trkpt lat="38.840607" lon="-0.411682">
        <ele>564.455</ele>
        <time>2022-07-10T08:42:03Z</time>
      </trkpt>
      <trkpt lat="38.840616" lon="-0.411685">
        <ele>564.233</ele>
        <time>2022-07-10T08:42:04Z</time>
      </trkpt>
      <trkpt lat="38.840650" lon="-0.411701">
        <ele>563.823</ele>
        <time>2022-07-10T08:42:07Z</time>
      </trkpt>
      <trkpt lat="38.840673" lon="-0.411733">
        <ele>563.415</ele>
        <time>2022-07-10T08:42:10Z</time>
      </trkpt>
      <trkpt lat="38.840676" lon="-0.411745">
        <ele>563.209</ele>
        <time>2022-07-10T08:42:11Z</time>
      </trkpt>
      <trkpt lat="38.840691" lon="-0.411783">
        <ele>562.694</ele>
        <time>2022-07-10T08:42:14Z</time>
      </trkpt>
      <trkpt lat="38.840694" lon="-0.411792">
        <ele>562.473</ele>
        <time>2022-07-10T08:42:15Z</time>
      </trkpt>
      <trkpt lat="38.840696" lon="-0.411800">
        <ele>562.290</ele>
        <time>2022-07-10T08:42:16Z</time>
      </trkpt>
      <trkpt lat="38.840691" lon="-0.411824">
        <ele>561.638</ele>
        <time>2022-07-10T08:42:19Z</time>
      </trkpt>
      <trkpt lat="38.840694" lon="-0.411828">
        <ele>561.447</ele>
        <time>2022-07-10T08:42:20Z</time>
      </trkpt>
      <trkpt lat="38.840699" lon="-0.411879">
        <ele>560.653</ele>
        <time>2022-07-10T08:42:25Z</time>
      </trkpt>
      <trkpt lat="38.840695" lon="-0.411903">
        <ele>560.636</ele>
        <time>2022-07-10T08:42:26Z</time>
      </trkpt>
      <trkpt lat="38.840701" lon="-0.411931">
        <ele>560.470</ele>
        <time>2022-07-10T08:42:27Z</time>
      </trkpt>
      <trkpt lat="38.840737" lon="-0.411963">
        <ele>560.016</ele>
        <time>2022-07-10T08:42:30Z</time>
      </trkpt>
      <trkpt lat="38.840744" lon="-0.411968">
        <ele>559.692</ele>
        <time>2022-07-10T08:42:31Z</time>
      </trkpt>
      <trkpt lat="38.840738" lon="-0.411966">
        <ele>559.273</ele>
        <time>2022-07-10T08:42:33Z</time>
      </trkpt>
      <trkpt lat="38.840717" lon="-0.411962">
        <ele>558.820</ele>
        <time>2022-07-10T08:42:35Z</time>
      </trkpt>
      <trkpt lat="38.840701" lon="-0.411955">
        <ele>558.609</ele>
        <time>2022-07-10T08:42:37Z</time>
      </trkpt>
      <trkpt lat="38.840694" lon="-0.411949">
        <ele>558.440</ele>
        <time>2022-07-10T08:42:38Z</time>
      </trkpt>
      <trkpt lat="38.840690" lon="-0.411939">
        <ele>558.219</ele>
        <time>2022-07-10T08:42:39Z</time>
      </trkpt>
      <trkpt lat="38.840658" lon="-0.411921">
        <ele>557.646</ele>
        <time>2022-07-10T08:42:42Z</time>
      </trkpt>
      <trkpt lat="38.840648" lon="-0.411916">
        <ele>557.464</ele>
        <time>2022-07-10T08:42:43Z</time>
      </trkpt>
      <trkpt lat="38.840643" lon="-0.411907">
        <ele>557.093</ele>
        <time>2022-07-10T08:42:45Z</time>
      </trkpt>
      <trkpt lat="38.840653" lon="-0.411894">
        <ele>556.889</ele>
        <time>2022-07-10T08:42:47Z</time>
      </trkpt>
      <trkpt lat="38.840653" lon="-0.411892">
        <ele>556.482</ele>
        <time>2022-07-10T08:42:48Z</time>
      </trkpt>
      <trkpt lat="38.840648" lon="-0.411890">
        <ele>556.256</ele>
        <time>2022-07-10T08:42:49Z</time>
      </trkpt>
      <trkpt lat="38.840643" lon="-0.411891">
        <ele>556.052</ele>
        <time>2022-07-10T08:42:50Z</time>
      </trkpt>
      <trkpt lat="38.840582" lon="-0.411903">
        <ele>555.027</ele>
        <time>2022-07-10T08:42:55Z</time>
      </trkpt>
      <trkpt lat="38.840567" lon="-0.411917">
        <ele>554.668</ele>
        <time>2022-07-10T08:42:57Z</time>
      </trkpt>
      <trkpt lat="38.840544" lon="-0.411945">
        <ele>553.814</ele>
        <time>2022-07-10T08:43:00Z</time>
      </trkpt>
      <trkpt lat="38.840514" lon="-0.411970">
        <ele>553.409</ele>
        <time>2022-07-10T08:43:03Z</time>
      </trkpt>
      <trkpt lat="38.840489" lon="-0.412031">
        <ele>552.823</ele>
        <time>2022-07-10T08:43:07Z</time>
      </trkpt>
      <trkpt lat="38.840455" lon="-0.412048">
        <ele>552.032</ele>
        <time>2022-07-10T08:43:10Z</time>
      </trkpt>
      <trkpt lat="38.840444" lon="-0.412056">
        <ele>551.689</ele>
        <time>2022-07-10T08:43:12Z</time>
      </trkpt>
      <trkpt lat="38.840416" lon="-0.412056">
        <ele>551.257</ele>
        <time>2022-07-10T08:43:14Z</time>
      </trkpt>
      <trkpt lat="38.840385" lon="-0.412052">
        <ele>550.616</ele>
        <time>2022-07-10T08:43:17Z</time>
      </trkpt>
      <trkpt lat="38.840349" lon="-0.412053">
        <ele>549.662</ele>
        <time>2022-07-10T08:43:20Z</time>
      </trkpt>
      <trkpt lat="38.840340" lon="-0.412051">
        <ele>549.455</ele>
        <time>2022-07-10T08:43:21Z</time>
      </trkpt>
      <trkpt lat="38.840276" lon="-0.412060">
        <ele>548.699</ele>
        <time>2022-07-10T08:43:26Z</time>
      </trkpt>
      <trkpt lat="38.840262" lon="-0.412070">
        <ele>548.285</ele>
        <time>2022-07-10T08:43:27Z</time>
      </trkpt>
      <trkpt lat="38.840218" lon="-0.412088">
        <ele>547.457</ele>
        <time>2022-07-10T08:43:31Z</time>
      </trkpt>
      <trkpt lat="38.840213" lon="-0.412093">
        <ele>547.200</ele>
        <time>2022-07-10T08:43:32Z</time>
      </trkpt>
      <trkpt lat="38.840188" lon="-0.412104">
        <ele>546.620</ele>
        <time>2022-07-10T08:43:35Z</time>
      </trkpt>
      <trkpt lat="38.840165" lon="-0.412107">
        <ele>546.009</ele>
        <time>2022-07-10T08:43:37Z</time>
      </trkpt>
      <trkpt lat="38.840157" lon="-0.412104">
        <ele>545.856</ele>
        <time>2022-07-10T08:43:38Z</time>
      </trkpt>
      <trkpt lat="38.840096" lon="-0.412151">
        <ele>545.035</ele>
        <time>2022-07-10T08:43:43Z</time>
      </trkpt>
      <trkpt lat="38.840088" lon="-0.412159">
        <ele>544.852</ele>
        <time>2022-07-10T08:43:44Z</time>
      </trkpt>
      <trkpt lat="38.840062" lon="-0.412169">
        <ele>544.210</ele>
        <time>2022-07-10T08:43:48Z</time>
      </trkpt>
      <trkpt lat="38.840065" lon="-0.412208">
        <ele>543.849</ele>
        <time>2022-07-10T08:43:50Z</time>
      </trkpt>
      <trkpt lat="38.840076" lon="-0.412241">
        <ele>543.215</ele>
        <time>2022-07-10T08:43:52Z</time>
      </trkpt>
      <trkpt lat="38.840096" lon="-0.412252">
        <ele>542.888</ele>
        <time>2022-07-10T08:43:54Z</time>
      </trkpt>
      <trkpt lat="38.840104" lon="-0.412257">
        <ele>542.642</ele>
        <time>2022-07-10T08:43:55Z</time>
      </trkpt>
      <trkpt lat="38.840166" lon="-0.412269">
        <ele>541.658</ele>
        <time>2022-07-10T08:44:01Z</time>
      </trkpt>
      <trkpt lat="38.840185" lon="-0.412295">
        <ele>541.071</ele>
        <time>2022-07-10T08:44:04Z</time>
      </trkpt>
      <trkpt lat="38.840189" lon="-0.412313">
        <ele>541.041</ele>
        <time>2022-07-10T08:44:05Z</time>
      </trkpt>
      <trkpt lat="38.840203" lon="-0.412324">
        <ele>540.815</ele>
        <time>2022-07-10T08:44:06Z</time>
      </trkpt>
      <trkpt lat="38.840219" lon="-0.412326">
        <ele>540.609</ele>
        <time>2022-07-10T08:44:07Z</time>
      </trkpt>
      <trkpt lat="38.840244" lon="-0.412327">
        <ele>540.248</ele>
        <time>2022-07-10T08:44:09Z</time>
      </trkpt>
      <trkpt lat="38.840254" lon="-0.412328">
        <ele>540.067</ele>
        <time>2022-07-10T08:44:10Z</time>
      </trkpt>
      <trkpt lat="38.840278" lon="-0.412333">
        <ele>539.624</ele>
        <time>2022-07-10T08:44:12Z</time>
      </trkpt>
      <trkpt lat="38.840287" lon="-0.412341">
        <ele>539.262</ele>
        <time>2022-07-10T08:44:13Z</time>
      </trkpt>
      <trkpt lat="38.840302" lon="-0.412356">
        <ele>538.831</ele>
        <time>2022-07-10T08:44:15Z</time>
      </trkpt>
      <trkpt lat="38.840307" lon="-0.412369">
        <ele>538.647</ele>
        <time>2022-07-10T08:44:16Z</time>
      </trkpt>
      <trkpt lat="38.840317" lon="-0.412390">
        <ele>538.260</ele>
        <time>2022-07-10T08:44:18Z</time>
      </trkpt>
      <trkpt lat="38.840330" lon="-0.412413">
        <ele>537.874</ele>
        <time>2022-07-10T08:44:20Z</time>
      </trkpt>
      <trkpt lat="38.840340" lon="-0.412452">
        <ele>537.480</ele>
        <time>2022-07-10T08:44:23Z</time>
      </trkpt>
      <trkpt lat="38.840358" lon="-0.412443">
        <ele>537.286</ele>
        <time>2022-07-10T08:44:25Z</time>
      </trkpt>
      <trkpt lat="38.840370" lon="-0.412433">
        <ele>537.060</ele>
        <time>2022-07-10T08:44:26Z</time>
      </trkpt>
      <trkpt lat="38.840392" lon="-0.412443">
        <ele>536.626</ele>
        <time>2022-07-10T08:44:29Z</time>
      </trkpt>
      <trkpt lat="38.840409" lon="-0.412461">
        <ele>536.009</ele>
        <time>2022-07-10T08:44:31Z</time>
      </trkpt>
      <trkpt lat="38.840425" lon="-0.412510">
        <ele>534.819</ele>
        <time>2022-07-10T08:44:36Z</time>
      </trkpt>
      <trkpt lat="38.840452" lon="-0.412584">
        <ele>534.088</ele>
        <time>2022-07-10T08:44:42Z</time>
      </trkpt>
      <trkpt lat="38.840457" lon="-0.412598">
        <ele>533.635</ele>
        <time>2022-07-10T08:44:43Z</time>
      </trkpt>
      <trkpt lat="38.840491" lon="-0.412660">
        <ele>532.683</ele>
        <time>2022-07-10T08:44:48Z</time>
      </trkpt>
      <trkpt lat="38.840502" lon="-0.412669">
        <ele>532.432</ele>
        <time>2022-07-10T08:44:49Z</time>
      </trkpt>
      <trkpt lat="38.840522" lon="-0.412699">
        <ele>532.098</ele>
        <time>2022-07-10T08:44:51Z</time>
      </trkpt>
      <trkpt lat="38.840546" lon="-0.412743">
        <ele>531.421</ele>
        <time>2022-07-10T08:44:54Z</time>
      </trkpt>
      <trkpt lat="38.840549" lon="-0.412748">
        <ele>531.435</ele>
        <time>2022-07-10T08:44:55Z</time>
      </trkpt>
      <trkpt lat="38.840566" lon="-0.412751">
        <ele>531.251</ele>
        <time>2022-07-10T08:44:57Z</time>
      </trkpt>
      <trkpt lat="38.840573" lon="-0.412752">
        <ele>530.867</ele>
        <time>2022-07-10T08:44:58Z</time>
      </trkpt>
      <trkpt lat="38.840585" lon="-0.412790">
        <ele>530.481</ele>
        <time>2022-07-10T08:45:00Z</time>
      </trkpt>
      <trkpt lat="38.840592" lon="-0.412809">
        <ele>529.419</ele>
        <time>2022-07-10T08:45:05Z</time>
      </trkpt>
      <trkpt lat="38.840583" lon="-0.412803">
        <ele>529.209</ele>
        <time>2022-07-10T08:45:06Z</time>
      </trkpt>
      <trkpt lat="38.840505" lon="-0.412786">
        <ele>528.437</ele>
        <time>2022-07-10T08:45:11Z</time>
      </trkpt>
      <trkpt lat="38.840492" lon="-0.412774">
        <ele>528.256</ele>
        <time>2022-07-10T08:45:12Z</time>
      </trkpt>
      <trkpt lat="38.840428" lon="-0.412773">
        <ele>527.253</ele>
        <time>2022-07-10T08:45:18Z</time>
      </trkpt>
      <trkpt lat="38.840424" lon="-0.412786">
        <ele>527.241</ele>
        <time>2022-07-10T08:45:19Z</time>
      </trkpt>
      <trkpt lat="38.840438" lon="-0.412875">
        <ele>526.270</ele>
        <time>2022-07-10T08:45:24Z</time>
      </trkpt>
      <trkpt lat="38.840447" lon="-0.412893">
        <ele>525.866</ele>
        <time>2022-07-10T08:45:25Z</time>
      </trkpt>
      <trkpt lat="38.840471" lon="-0.412976">
        <ele>525.079</ele>
        <time>2022-07-10T08:45:30Z</time>
      </trkpt>
      <trkpt lat="38.840490" lon="-0.412984">
        <ele>524.873</ele>
        <time>2022-07-10T08:45:31Z</time>
      </trkpt>
      <trkpt lat="38.840508" lon="-0.412998">
        <ele>524.699</ele>
        <time>2022-07-10T08:45:32Z</time>
      </trkpt>
      <trkpt lat="38.840562" lon="-0.413038">
        <ele>524.041</ele>
        <time>2022-07-10T08:45:36Z</time>
      </trkpt>
      <trkpt lat="38.840580" lon="-0.413043">
        <ele>523.881</ele>
        <time>2022-07-10T08:45:37Z</time>
      </trkpt>
      <trkpt lat="38.840621" lon="-0.413087">
        <ele>523.009</ele>
        <time>2022-07-10T08:45:43Z</time>
      </trkpt>
      <trkpt lat="38.840624" lon="-0.413091">
        <ele>522.809</ele>
        <time>2022-07-10T08:45:44Z</time>
      </trkpt>
      <trkpt lat="38.840623" lon="-0.413097">
        <ele>522.865</ele>
        <time>2022-07-10T08:45:46Z</time>
      </trkpt>
      <trkpt lat="38.840626" lon="-0.413098">
        <ele>522.884</ele>
        <time>2022-07-10T08:45:48Z</time>
      </trkpt>
      <trkpt lat="38.840644" lon="-0.413105">
        <ele>522.881</ele>
        <time>2022-07-10T08:45:50Z</time>
      </trkpt>
      <trkpt lat="38.840654" lon="-0.413123">
        <ele>522.419</ele>
        <time>2022-07-10T08:45:53Z</time>
      </trkpt>
      <trkpt lat="38.840676" lon="-0.413165">
        <ele>521.828</ele>
        <time>2022-07-10T08:45:57Z</time>
      </trkpt>
      <trkpt lat="38.840676" lon="-0.413168">
        <ele>521.894</ele>
        <time>2022-07-10T08:45:58Z</time>
      </trkpt>
      <trkpt lat="38.840769" lon="-0.413149">
        <ele>521.047</ele>
        <time>2022-07-10T08:46:09Z</time>
      </trkpt>
      <trkpt lat="38.840812" lon="-0.413148">
        <ele>520.841</ele>
        <time>2022-07-10T08:46:12Z</time>
      </trkpt>
      <trkpt lat="38.840819" lon="-0.413153">
        <ele>520.427</ele>
        <time>2022-07-10T08:46:13Z</time>
      </trkpt>
      <trkpt lat="38.840844" lon="-0.413173">
        <ele>519.478</ele>
        <time>2022-07-10T08:46:17Z</time>
      </trkpt>
      <trkpt lat="38.840852" lon="-0.413185">
        <ele>519.033</ele>
        <time>2022-07-10T08:46:18Z</time>
      </trkpt>
      <trkpt lat="38.840877" lon="-0.413220">
        <ele>518.226</ele>
        <time>2022-07-10T08:46:23Z</time>
      </trkpt>
      <trkpt lat="38.840920" lon="-0.413236">
        <ele>517.409</ele>
        <time>2022-07-10T08:46:29Z</time>
      </trkpt>
      <trkpt lat="38.840931" lon="-0.413255">
        <ele>517.218</ele>
        <time>2022-07-10T08:46:31Z</time>
      </trkpt>
      <trkpt lat="38.840934" lon="-0.413266">
        <ele>517.257</ele>
        <time>2022-07-10T08:46:32Z</time>
      </trkpt>
      <trkpt lat="38.840935" lon="-0.413283">
        <ele>516.484</ele>
        <time>2022-07-10T08:47:28Z</time>
      </trkpt>
      <trkpt lat="38.840926" lon="-0.413278">
        <ele>516.662</ele>
        <time>2022-07-10T08:47:29Z</time>
      </trkpt>
      <trkpt lat="38.840900" lon="-0.413275">
        <ele>517.091</ele>
        <time>2022-07-10T08:47:32Z</time>
      </trkpt>
      <trkpt lat="38.840904" lon="-0.413251">
        <ele>517.697</ele>
        <time>2022-07-10T08:47:35Z</time>
      </trkpt>
      <trkpt lat="38.840927" lon="-0.413241">
        <ele>518.030</ele>
        <time>2022-07-10T08:47:38Z</time>
      </trkpt>
      <trkpt lat="38.840958" lon="-0.413241">
        <ele>518.014</ele>
        <time>2022-07-10T08:47:41Z</time>
      </trkpt>
      <trkpt lat="38.841007" lon="-0.413228">
        <ele>517.840</ele>
        <time>2022-07-10T08:47:46Z</time>
      </trkpt>
      <trkpt lat="38.841041" lon="-0.413277">
        <ele>517.685</ele>
        <time>2022-07-10T08:47:50Z</time>
      </trkpt>
      <trkpt lat="38.841062" lon="-0.413294">
        <ele>517.289</ele>
        <time>2022-07-10T08:47:53Z</time>
      </trkpt>
      <trkpt lat="38.841092" lon="-0.413298">
        <ele>517.217</ele>
        <time>2022-07-10T08:47:56Z</time>
      </trkpt>
      <trkpt lat="38.841119" lon="-0.413286">
        <ele>517.009</ele>
        <time>2022-07-10T08:47:59Z</time>
      </trkpt>
      <trkpt lat="38.841151" lon="-0.413295">
        <ele>517.019</ele>
        <time>2022-07-10T08:48:01Z</time>
      </trkpt>
      <trkpt lat="38.841198" lon="-0.413352">
        <ele>516.878</ele>
        <time>2022-07-10T08:48:06Z</time>
      </trkpt>
      <trkpt lat="38.841260" lon="-0.413402">
        <ele>516.415</ele>
        <time>2022-07-10T08:48:11Z</time>
      </trkpt>
      <trkpt lat="38.841286" lon="-0.413404">
        <ele>516.253</ele>
        <time>2022-07-10T08:48:13Z</time>
      </trkpt>
      <trkpt lat="38.841355" lon="-0.413419">
        <ele>515.832</ele>
        <time>2022-07-10T08:48:17Z</time>
      </trkpt>
      <trkpt lat="38.841396" lon="-0.413446">
        <ele>515.258</ele>
        <time>2022-07-10T08:48:20Z</time>
      </trkpt>
      <trkpt lat="38.841416" lon="-0.413453">
        <ele>515.061</ele>
        <time>2022-07-10T08:48:21Z</time>
      </trkpt>
      <trkpt lat="38.841458" lon="-0.413471">
        <ele>514.825</ele>
        <time>2022-07-10T08:48:23Z</time>
      </trkpt>
      <trkpt lat="38.841507" lon="-0.413505">
        <ele>514.291</ele>
        <time>2022-07-10T08:48:26Z</time>
      </trkpt>
      <trkpt lat="38.841520" lon="-0.413506">
        <ele>514.036</ele>
        <time>2022-07-10T08:48:27Z</time>
      </trkpt>
      <trkpt lat="38.841544" lon="-0.413509">
        <ele>513.617</ele>
        <time>2022-07-10T08:48:29Z</time>
      </trkpt>
      <trkpt lat="38.841571" lon="-0.413514">
        <ele>513.218</ele>
        <time>2022-07-10T08:48:31Z</time>
      </trkpt>
      <trkpt lat="38.841586" lon="-0.413510">
        <ele>513.209</ele>
        <time>2022-07-10T08:48:32Z</time>
      </trkpt>
      <trkpt lat="38.841619" lon="-0.413509">
        <ele>512.874</ele>
        <time>2022-07-10T08:48:34Z</time>
      </trkpt>
      <trkpt lat="38.841632" lon="-0.413514">
        <ele>512.833</ele>
        <time>2022-07-10T08:48:35Z</time>
      </trkpt>
      <trkpt lat="38.841663" lon="-0.413510">
        <ele>512.660</ele>
        <time>2022-07-10T08:48:37Z</time>
      </trkpt>
      <trkpt lat="38.841692" lon="-0.413522">
        <ele>512.478</ele>
        <time>2022-07-10T08:48:39Z</time>
      </trkpt>
      <trkpt lat="38.841712" lon="-0.413546">
        <ele>512.467</ele>
        <time>2022-07-10T08:48:41Z</time>
      </trkpt>
      <trkpt lat="38.841734" lon="-0.413570">
        <ele>512.233</ele>
        <time>2022-07-10T08:48:43Z</time>
      </trkpt>
      <trkpt lat="38.841762" lon="-0.413584">
        <ele>512.216</ele>
        <time>2022-07-10T08:48:45Z</time>
      </trkpt>
      <trkpt lat="38.841812" lon="-0.413594">
        <ele>511.820</ele>
        <time>2022-07-10T08:48:48Z</time>
      </trkpt>
      <trkpt lat="38.841820" lon="-0.413591">
        <ele>511.666</ele>
        <time>2022-07-10T08:48:50Z</time>
      </trkpt>
      <trkpt lat="38.841835" lon="-0.413588">
        <ele>511.644</ele>
        <time>2022-07-10T08:48:51Z</time>
      </trkpt>
      <trkpt lat="38.841895" lon="-0.413573">
        <ele>511.205</ele>
        <time>2022-07-10T08:48:56Z</time>
      </trkpt>
      <trkpt lat="38.841898" lon="-0.413576">
        <ele>511.015</ele>
        <time>2022-07-10T08:48:57Z</time>
      </trkpt>
      <trkpt lat="38.841910" lon="-0.413593">
        <ele>510.809</ele>
        <time>2022-07-10T08:48:59Z</time>
      </trkpt>
      <trkpt lat="38.841918" lon="-0.413598">
        <ele>510.825</ele>
        <time>2022-07-10T08:49:00Z</time>
      </trkpt>
      <trkpt lat="38.841936" lon="-0.413621">
        <ele>510.694</ele>
        <time>2022-07-10T08:49:02Z</time>
      </trkpt>
      <trkpt lat="38.841947" lon="-0.413627">
        <ele>510.661</ele>
        <time>2022-07-10T08:49:03Z</time>
      </trkpt>
      <trkpt lat="38.841969" lon="-0.413639">
        <ele>510.279</ele>
        <time>2022-07-10T08:49:06Z</time>
      </trkpt>
      <trkpt lat="38.841976" lon="-0.413640">
        <ele>510.078</ele>
        <time>2022-07-10T08:49:07Z</time>
      </trkpt>
      <trkpt lat="38.842016" lon="-0.413678">
        <ele>509.624</ele>
        <time>2022-07-10T08:49:10Z</time>
      </trkpt>
      <trkpt lat="38.842050" lon="-0.413688">
        <ele>509.477</ele>
        <time>2022-07-10T08:49:13Z</time>
      </trkpt>
      <trkpt lat="38.842081" lon="-0.413696">
        <ele>509.221</ele>
        <time>2022-07-10T08:49:15Z</time>
      </trkpt>
      <trkpt lat="38.842093" lon="-0.413708">
        <ele>509.297</ele>
        <time>2022-07-10T08:49:16Z</time>
      </trkpt>
      <trkpt lat="38.842122" lon="-0.413725">
        <ele>509.228</ele>
        <time>2022-07-10T08:49:18Z</time>
      </trkpt>
      <trkpt lat="38.842133" lon="-0.413723">
        <ele>509.289</ele>
        <time>2022-07-10T08:49:19Z</time>
      </trkpt>
      <trkpt lat="38.842142" lon="-0.413716">
        <ele>509.217</ele>
        <time>2022-07-10T08:49:20Z</time>
      </trkpt>
      <trkpt lat="38.842166" lon="-0.413717">
        <ele>509.209</ele>
        <time>2022-07-10T08:49:22Z</time>
      </trkpt>
      <trkpt lat="38.842204" lon="-0.413720">
        <ele>509.023</ele>
        <time>2022-07-10T08:49:24Z</time>
      </trkpt>
      <trkpt lat="38.842234" lon="-0.413706">
        <ele>508.862</ele>
        <time>2022-07-10T08:49:26Z</time>
      </trkpt>
      <trkpt lat="38.842262" lon="-0.413709">
        <ele>508.859</ele>
        <time>2022-07-10T08:49:28Z</time>
      </trkpt>
      <trkpt lat="38.842279" lon="-0.413707">
        <ele>508.897</ele>
        <time>2022-07-10T08:49:29Z</time>
      </trkpt>
      <trkpt lat="38.842301" lon="-0.413706">
        <ele>508.626</ele>
        <time>2022-07-10T08:49:31Z</time>
      </trkpt>
      <trkpt lat="38.842309" lon="-0.413710">
        <ele>508.642</ele>
        <time>2022-07-10T08:49:33Z</time>
      </trkpt>
      <trkpt lat="38.842313" lon="-0.413715">
        <ele>508.615</ele>
        <time>2022-07-10T08:49:34Z</time>
      </trkpt>
      <trkpt lat="38.842315" lon="-0.413730">
        <ele>508.649</ele>
        <time>2022-07-10T08:49:36Z</time>
      </trkpt>
      <trkpt lat="38.842314" lon="-0.413733">
        <ele>508.635</ele>
        <time>2022-07-10T08:49:38Z</time>
      </trkpt>
      <trkpt lat="38.842314" lon="-0.413737">
        <ele>508.677</ele>
        <time>2022-07-10T08:49:39Z</time>
      </trkpt>
      <trkpt lat="38.842325" lon="-0.413743">
        <ele>508.661</ele>
        <time>2022-07-10T08:49:42Z</time>
      </trkpt>
      <trkpt lat="38.842334" lon="-0.413739">
        <ele>508.627</ele>
        <time>2022-07-10T08:49:45Z</time>
      </trkpt>
      <trkpt lat="38.842334" lon="-0.413739">
        <ele>508.609</ele>
        <time>2022-07-10T08:49:46Z</time>
      </trkpt>
      <trkpt lat="38.842334" lon="-0.413739">
        <ele>508.638</ele>
        <time>2022-07-10T08:49:47Z</time>
      </trkpt>
      <trkpt lat="38.842334" lon="-0.413739">
        <ele>508.627</ele>
        <time>2022-07-10T08:49:49Z</time>
      </trkpt>
      <trkpt lat="38.842334" lon="-0.413739">
        <ele>508.684</ele>
        <time>2022-07-10T08:49:51Z</time>
      </trkpt>
      <trkpt lat="38.842400" lon="-0.413749">
        <ele>508.632</ele>
        <time>2022-07-10T08:49:55Z</time>
      </trkpt>
      <trkpt lat="38.842468" lon="-0.413734">
        <ele>508.821</ele>
        <time>2022-07-10T08:50:00Z</time>
      </trkpt>
      <trkpt lat="38.842494" lon="-0.413745">
        <ele>508.657</ele>
        <time>2022-07-10T08:50:03Z</time>
      </trkpt>
      <trkpt lat="38.842505" lon="-0.413756">
        <ele>508.620</ele>
        <time>2022-07-10T08:50:05Z</time>
      </trkpt>
      <trkpt lat="38.842521" lon="-0.413758">
        <ele>508.684</ele>
        <time>2022-07-10T08:50:06Z</time>
      </trkpt>
      <trkpt lat="38.842577" lon="-0.413771">
        <ele>508.660</ele>
        <time>2022-07-10T08:50:10Z</time>
      </trkpt>
      <trkpt lat="38.842588" lon="-0.413771">
        <ele>508.651</ele>
        <time>2022-07-10T08:50:11Z</time>
      </trkpt>
      <trkpt lat="38.842593" lon="-0.413782">
        <ele>508.401</ele>
        <time>2022-07-10T08:50:12Z</time>
      </trkpt>
      <trkpt lat="38.842618" lon="-0.413795">
        <ele>508.411</ele>
        <time>2022-07-10T08:50:14Z</time>
      </trkpt>
      <trkpt lat="38.842633" lon="-0.413794">
        <ele>508.409</ele>
        <time>2022-07-10T08:50:15Z</time>
      </trkpt>
      <trkpt lat="38.842645" lon="-0.413798">
        <ele>508.446</ele>
        <time>2022-07-10T08:50:16Z</time>
      </trkpt>
      <trkpt lat="38.842690" lon="-0.413811">
        <ele>508.445</ele>
        <time>2022-07-10T08:50:19Z</time>
      </trkpt>
      <trkpt lat="38.842700" lon="-0.413808">
        <ele>508.432</ele>
        <time>2022-07-10T08:50:20Z</time>
      </trkpt>
      <trkpt lat="38.842716" lon="-0.413800">
        <ele>508.290</ele>
        <time>2022-07-10T08:50:23Z</time>
      </trkpt>
      <trkpt lat="38.842742" lon="-0.413830">
        <ele>508.239</ele>
        <time>2022-07-10T08:50:26Z</time>
      </trkpt>
      <trkpt lat="38.842750" lon="-0.413844">
        <ele>508.065</ele>
        <time>2022-07-10T08:50:27Z</time>
      </trkpt>
      <trkpt lat="38.842766" lon="-0.413867">
        <ele>507.678</ele>
        <time>2022-07-10T08:50:29Z</time>
      </trkpt>
      <trkpt lat="38.842783" lon="-0.413880">
        <ele>507.222</ele>
        <time>2022-07-10T08:50:31Z</time>
      </trkpt>
      <trkpt lat="38.842830" lon="-0.413924">
        <ele>506.638</ele>
        <time>2022-07-10T08:50:35Z</time>
      </trkpt>
      <trkpt lat="38.842849" lon="-0.413953">
        <ele>506.233</ele>
        <time>2022-07-10T08:50:37Z</time>
      </trkpt>
      <trkpt lat="38.842888" lon="-0.413965">
        <ele>506.023</ele>
        <time>2022-07-10T08:50:39Z</time>
      </trkpt>
      <trkpt lat="38.842959" lon="-0.414021">
        <ele>505.415</ele>
        <time>2022-07-10T08:50:44Z</time>
      </trkpt>
      <trkpt lat="38.842990" lon="-0.414037">
        <ele>505.409</ele>
        <time>2022-07-10T08:50:46Z</time>
      </trkpt>
      <trkpt lat="38.843002" lon="-0.414041">
        <ele>505.264</ele>
        <time>2022-07-10T08:50:47Z</time>
      </trkpt>
      <trkpt lat="38.843067" lon="-0.414053">
        <ele>504.843</ele>
        <time>2022-07-10T08:50:51Z</time>
      </trkpt>
      <trkpt lat="38.843104" lon="-0.414091">
        <ele>504.620</ele>
        <time>2022-07-10T08:50:55Z</time>
      </trkpt>
      <trkpt lat="38.843104" lon="-0.414120">
        <ele>504.638</ele>
        <time>2022-07-10T08:50:56Z</time>
      </trkpt>
      <trkpt lat="38.843105" lon="-0.414187">
        <ele>504.677</ele>
        <time>2022-07-10T08:50:58Z</time>
      </trkpt>
      <trkpt lat="38.843130" lon="-0.414226">
        <ele>504.643</ele>
        <time>2022-07-10T08:51:00Z</time>
      </trkpt>
      <trkpt lat="38.843223" lon="-0.414342">
        <ele>504.656</ele>
        <time>2022-07-10T08:51:09Z</time>
      </trkpt>
      <trkpt lat="38.843298" lon="-0.414442">
        <ele>504.660</ele>
        <time>2022-07-10T08:51:16Z</time>
      </trkpt>
      <trkpt lat="38.843407" lon="-0.414529">
        <ele>504.616</ele>
        <time>2022-07-10T08:51:24Z</time>
      </trkpt>
      <trkpt lat="38.843421" lon="-0.414542">
        <ele>504.415</ele>
        <time>2022-07-10T08:51:26Z</time>
      </trkpt>
      <trkpt lat="38.843514" lon="-0.414532">
        <ele>504.065</ele>
        <time>2022-07-10T08:51:32Z</time>
      </trkpt>
      <trkpt lat="38.843530" lon="-0.414530">
        <ele>504.011</ele>
        <time>2022-07-10T08:51:33Z</time>
      </trkpt>
      <trkpt lat="38.843577" lon="-0.414534">
        <ele>504.009</ele>
        <time>2022-07-10T08:51:36Z</time>
      </trkpt>
      <trkpt lat="38.843616" lon="-0.414557">
        <ele>503.852</ele>
        <time>2022-07-10T08:51:39Z</time>
      </trkpt>
      <trkpt lat="38.843644" lon="-0.414546">
        <ele>503.681</ele>
        <time>2022-07-10T08:51:41Z</time>
      </trkpt>
      <trkpt lat="38.843665" lon="-0.414540">
        <ele>503.458</ele>
        <time>2022-07-10T08:51:42Z</time>
      </trkpt>
      <trkpt lat="38.843693" lon="-0.414521">
        <ele>503.246</ele>
        <time>2022-07-10T08:51:44Z</time>
      </trkpt>
      <trkpt lat="38.843696" lon="-0.414514">
        <ele>503.275</ele>
        <time>2022-07-10T08:51:46Z</time>
      </trkpt>
      <trkpt lat="38.843726" lon="-0.414517">
        <ele>502.821</ele>
        <time>2022-07-10T08:51:49Z</time>
      </trkpt>
      <trkpt lat="38.843764" lon="-0.414515">
        <ele>502.494</ele>
        <time>2022-07-10T08:51:52Z</time>
      </trkpt>
      <trkpt lat="38.843840" lon="-0.414505">
        <ele>501.668</ele>
        <time>2022-07-10T08:51:57Z</time>
      </trkpt>
      <trkpt lat="38.843876" lon="-0.414502">
        <ele>501.424</ele>
        <time>2022-07-10T08:51:59Z</time>
      </trkpt>
      <trkpt lat="38.843896" lon="-0.414495">
        <ele>501.026</ele>
        <time>2022-07-10T08:52:00Z</time>
      </trkpt>
      <trkpt lat="38.843910" lon="-0.414499">
        <ele>501.047</ele>
        <time>2022-07-10T08:52:01Z</time>
      </trkpt>
      <trkpt lat="38.843945" lon="-0.414518">
        <ele>500.811</ele>
        <time>2022-07-10T08:52:03Z</time>
      </trkpt>
      <trkpt lat="38.844033" lon="-0.414537">
        <ele>499.809</ele>
        <time>2022-07-10T08:52:08Z</time>
      </trkpt>
      <trkpt lat="38.844045" lon="-0.414546">
        <ele>499.453</ele>
        <time>2022-07-10T08:52:09Z</time>
      </trkpt>
      <trkpt lat="38.844073" lon="-0.414583">
        <ele>498.622</ele>
        <time>2022-07-10T08:52:12Z</time>
      </trkpt>
      <trkpt lat="38.844138" lon="-0.414659">
        <ele>497.679</ele>
        <time>2022-07-10T08:52:17Z</time>
      </trkpt>
      <trkpt lat="38.844147" lon="-0.414674">
        <ele>497.267</ele>
        <time>2022-07-10T08:52:18Z</time>
      </trkpt>
      <trkpt lat="38.844172" lon="-0.414689">
        <ele>496.866</ele>
        <time>2022-07-10T08:52:20Z</time>
      </trkpt>
      <trkpt lat="38.844201" lon="-0.414681">
        <ele>496.632</ele>
        <time>2022-07-10T08:52:22Z</time>
      </trkpt>
      <trkpt lat="38.844216" lon="-0.414676">
        <ele>496.455</ele>
        <time>2022-07-10T08:52:23Z</time>
      </trkpt>
      <trkpt lat="38.844255" lon="-0.414664">
        <ele>496.019</ele>
        <time>2022-07-10T08:52:26Z</time>
      </trkpt>
      <trkpt lat="38.844272" lon="-0.414646">
        <ele>495.475</ele>
        <time>2022-07-10T08:52:28Z</time>
      </trkpt>
      <trkpt lat="38.844284" lon="-0.414652">
        <ele>495.248</ele>
        <time>2022-07-10T08:52:29Z</time>
      </trkpt>
      <trkpt lat="38.844343" lon="-0.414661">
        <ele>494.461</ele>
        <time>2022-07-10T08:52:33Z</time>
      </trkpt>
      <trkpt lat="38.844357" lon="-0.414661">
        <ele>494.217</ele>
        <time>2022-07-10T08:52:34Z</time>
      </trkpt>
      <trkpt lat="38.844372" lon="-0.414667">
        <ele>494.009</ele>
        <time>2022-07-10T08:52:35Z</time>
      </trkpt>
      <trkpt lat="38.844416" lon="-0.414657">
        <ele>493.215</ele>
        <time>2022-07-10T08:52:38Z</time>
      </trkpt>
      <trkpt lat="38.844428" lon="-0.414648">
        <ele>493.094</ele>
        <time>2022-07-10T08:52:39Z</time>
      </trkpt>
      <trkpt lat="38.844443" lon="-0.414642">
        <ele>492.891</ele>
        <time>2022-07-10T08:52:40Z</time>
      </trkpt>
      <trkpt lat="38.844485" lon="-0.414608">
        <ele>492.439</ele>
        <time>2022-07-10T08:52:43Z</time>
      </trkpt>
      <trkpt lat="38.844565" lon="-0.414556">
        <ele>492.078</ele>
        <time>2022-07-10T08:52:47Z</time>
      </trkpt>
      <trkpt lat="38.844621" lon="-0.414512">
        <ele>491.654</ele>
        <time>2022-07-10T08:52:50Z</time>
      </trkpt>
      <trkpt lat="38.844653" lon="-0.414503">
        <ele>491.427</ele>
        <time>2022-07-10T08:52:52Z</time>
      </trkpt>
      <trkpt lat="38.844673" lon="-0.414499">
        <ele>491.261</ele>
        <time>2022-07-10T08:52:54Z</time>
      </trkpt>
      <trkpt lat="38.844690" lon="-0.414489">
        <ele>490.847</ele>
        <time>2022-07-10T08:52:56Z</time>
      </trkpt>
      <trkpt lat="38.844802" lon="-0.414425">
        <ele>490.219</ele>
        <time>2022-07-10T08:53:04Z</time>
      </trkpt>
      <trkpt lat="38.844813" lon="-0.414410">
        <ele>490.009</ele>
        <time>2022-07-10T08:53:05Z</time>
      </trkpt>
      <trkpt lat="38.844830" lon="-0.414382">
        <ele>489.819</ele>
        <time>2022-07-10T08:53:07Z</time>
      </trkpt>
      <trkpt lat="38.844850" lon="-0.414368">
        <ele>489.409</ele>
        <time>2022-07-10T08:53:09Z</time>
      </trkpt>
      <trkpt lat="38.844861" lon="-0.414371">
        <ele>489.242</ele>
        <time>2022-07-10T08:53:10Z</time>
      </trkpt>
      <trkpt lat="38.844887" lon="-0.414377">
        <ele>488.671</ele>
        <time>2022-07-10T08:53:12Z</time>
      </trkpt>
      <trkpt lat="38.844895" lon="-0.414397">
        <ele>488.258</ele>
        <time>2022-07-10T08:53:14Z</time>
      </trkpt>
      <trkpt lat="38.844898" lon="-0.414418">
        <ele>487.676</ele>
        <time>2022-07-10T08:53:18Z</time>
      </trkpt>
      <trkpt lat="38.844897" lon="-0.414417">
        <ele>487.635</ele>
        <time>2022-07-10T08:53:19Z</time>
      </trkpt>
      <trkpt lat="38.844894" lon="-0.414415">
        <ele>487.461</ele>
        <time>2022-07-10T08:53:20Z</time>
      </trkpt>
      <trkpt lat="38.844896" lon="-0.414420">
        <ele>487.274</ele>
        <time>2022-07-10T08:53:21Z</time>
      </trkpt>
      <trkpt lat="38.844895" lon="-0.414435">
        <ele>486.878</ele>
        <time>2022-07-10T08:53:23Z</time>
      </trkpt>
      <trkpt lat="38.844888" lon="-0.414444">
        <ele>486.654</ele>
        <time>2022-07-10T08:53:24Z</time>
      </trkpt>
      <trkpt lat="38.844831" lon="-0.414505">
        <ele>485.492</ele>
        <time>2022-07-10T08:53:29Z</time>
      </trkpt>
      <trkpt lat="38.844803" lon="-0.414550">
        <ele>485.073</ele>
        <time>2022-07-10T08:53:32Z</time>
      </trkpt>
      <trkpt lat="38.844767" lon="-0.414601">
        <ele>484.420</ele>
        <time>2022-07-10T08:53:36Z</time>
      </trkpt>
      <trkpt lat="38.844762" lon="-0.414612">
        <ele>484.409</ele>
        <time>2022-07-10T08:53:37Z</time>
      </trkpt>
      <trkpt lat="38.844754" lon="-0.414624">
        <ele>484.220</ele>
        <time>2022-07-10T08:53:38Z</time>
      </trkpt>
      <trkpt lat="38.844740" lon="-0.414650">
        <ele>484.069</ele>
        <time>2022-07-10T08:53:40Z</time>
      </trkpt>
      <trkpt lat="38.844738" lon="-0.414680">
        <ele>483.616</ele>
        <time>2022-07-10T08:53:42Z</time>
      </trkpt>
      <trkpt lat="38.844735" lon="-0.414686">
        <ele>483.464</ele>
        <time>2022-07-10T08:53:43Z</time>
      </trkpt>
      <trkpt lat="38.844724" lon="-0.414697">
        <ele>483.243</ele>
        <time>2022-07-10T08:53:44Z</time>
      </trkpt>
      <trkpt lat="38.844673" lon="-0.414779">
        <ele>482.689</ele>
        <time>2022-07-10T08:53:50Z</time>
      </trkpt>
      <trkpt lat="38.844665" lon="-0.414852">
        <ele>482.292</ele>
        <time>2022-07-10T08:53:54Z</time>
      </trkpt>
      <trkpt lat="38.844642" lon="-0.414905">
        <ele>482.046</ele>
        <time>2022-07-10T08:53:57Z</time>
      </trkpt>
      <trkpt lat="38.844616" lon="-0.414945">
        <ele>481.822</ele>
        <time>2022-07-10T08:53:59Z</time>
      </trkpt>
      <trkpt lat="38.844581" lon="-0.414998">
        <ele>481.857</ele>
        <time>2022-07-10T08:54:02Z</time>
      </trkpt>
      <trkpt lat="38.844585" lon="-0.415039">
        <ele>481.800</ele>
        <time>2022-07-10T08:54:04Z</time>
      </trkpt>
      <trkpt lat="38.844553" lon="-0.415138">
        <ele>481.620</ele>
        <time>2022-07-10T08:54:10Z</time>
      </trkpt>
      <trkpt lat="38.844514" lon="-0.415250">
        <ele>481.609</ele>
        <time>2022-07-10T08:54:17Z</time>
      </trkpt>
      <trkpt lat="38.844502" lon="-0.415270">
        <ele>481.646</ele>
        <time>2022-07-10T08:54:19Z</time>
      </trkpt>
      <trkpt lat="38.844488" lon="-0.415315">
        <ele>481.655</ele>
        <time>2022-07-10T08:54:22Z</time>
      </trkpt>
      <trkpt lat="38.844449" lon="-0.415363">
        <ele>481.482</ele>
        <time>2022-07-10T08:54:27Z</time>
      </trkpt>
      <trkpt lat="38.844427" lon="-0.415378">
        <ele>481.450</ele>
        <time>2022-07-10T08:54:29Z</time>
      </trkpt>
      <trkpt lat="38.844413" lon="-0.415395">
        <ele>481.279</ele>
        <time>2022-07-10T08:54:31Z</time>
      </trkpt>
      <trkpt lat="38.844407" lon="-0.415408">
        <ele>481.245</ele>
        <time>2022-07-10T08:54:32Z</time>
      </trkpt>
      <trkpt lat="38.844393" lon="-0.415419">
        <ele>481.238</ele>
        <time>2022-07-10T08:54:33Z</time>
      </trkpt>
      <trkpt lat="38.844326" lon="-0.415418">
        <ele>481.042</ele>
        <time>2022-07-10T08:54:39Z</time>
      </trkpt>
      <trkpt lat="38.844306" lon="-0.415413">
        <ele>480.648</ele>
        <time>2022-07-10T08:54:44Z</time>
      </trkpt>
      <trkpt lat="38.844304" lon="-0.415417">
        <ele>480.696</ele>
        <time>2022-07-10T08:54:45Z</time>
      </trkpt>
      <trkpt lat="38.844286" lon="-0.415412">
        <ele>480.031</ele>
        <time>2022-07-10T08:54:48Z</time>
      </trkpt>
      <trkpt lat="38.844280" lon="-0.415406">
        <ele>480.024</ele>
        <time>2022-07-10T08:54:49Z</time>
      </trkpt>
      <trkpt lat="38.844269" lon="-0.415406">
        <ele>479.809</ele>
        <time>2022-07-10T08:54:50Z</time>
      </trkpt>
      <trkpt lat="38.844233" lon="-0.415412">
        <ele>479.060</ele>
        <time>2022-07-10T08:54:54Z</time>
      </trkpt>
      <trkpt lat="38.844217" lon="-0.415405">
        <ele>478.879</ele>
        <time>2022-07-10T08:54:55Z</time>
      </trkpt>
      <trkpt lat="38.844196" lon="-0.415397">
        <ele>478.686</ele>
        <time>2022-07-10T08:54:56Z</time>
      </trkpt>
      <trkpt lat="38.844175" lon="-0.415394">
        <ele>478.464</ele>
        <time>2022-07-10T08:54:57Z</time>
      </trkpt>
      <trkpt lat="38.844119" lon="-0.415412">
        <ele>477.863</ele>
        <time>2022-07-10T08:55:00Z</time>
      </trkpt>
      <trkpt lat="38.844084" lon="-0.415406">
        <ele>477.449</ele>
        <time>2022-07-10T08:55:02Z</time>
      </trkpt>
      <trkpt lat="38.843970" lon="-0.415350">
        <ele>477.052</ele>
        <time>2022-07-10T08:55:09Z</time>
      </trkpt>
      <trkpt lat="38.843937" lon="-0.415356">
        <ele>476.826</ele>
        <time>2022-07-10T08:55:11Z</time>
      </trkpt>
      <trkpt lat="38.843898" lon="-0.415361">
        <ele>476.842</ele>
        <time>2022-07-10T08:55:13Z</time>
      </trkpt>
      <trkpt lat="38.843871" lon="-0.415358">
        <ele>476.666</ele>
        <time>2022-07-10T08:55:15Z</time>
      </trkpt>
      <trkpt lat="38.843845" lon="-0.415346">
        <ele>476.629</ele>
        <time>2022-07-10T08:55:19Z</time>
      </trkpt>
      <trkpt lat="38.843834" lon="-0.415351">
        <ele>476.621</ele>
        <time>2022-07-10T08:55:20Z</time>
      </trkpt>
      <trkpt lat="38.843735" lon="-0.415356">
        <ele>476.209</ele>
        <time>2022-07-10T08:55:25Z</time>
      </trkpt>
      <trkpt lat="38.843673" lon="-0.415369">
        <ele>475.887</ele>
        <time>2022-07-10T08:55:30Z</time>
      </trkpt>
      <trkpt lat="38.843660" lon="-0.415376">
        <ele>475.836</ele>
        <time>2022-07-10T08:55:31Z</time>
      </trkpt>
      <trkpt lat="38.843561" lon="-0.415386">
        <ele>475.823</ele>
        <time>2022-07-10T08:55:38Z</time>
      </trkpt>
      <trkpt lat="38.843527" lon="-0.415363">
        <ele>475.881</ele>
        <time>2022-07-10T08:55:40Z</time>
      </trkpt>
      <trkpt lat="38.843507" lon="-0.415330">
        <ele>475.830</ele>
        <time>2022-07-10T08:55:42Z</time>
      </trkpt>
      <trkpt lat="38.843493" lon="-0.415327">
        <ele>475.836</ele>
        <time>2022-07-10T08:55:43Z</time>
      </trkpt>
      <trkpt lat="38.843419" lon="-0.415259">
        <ele>475.869</ele>
        <time>2022-07-10T08:55:51Z</time>
      </trkpt>
      <trkpt lat="38.843403" lon="-0.415229">
        <ele>475.843</ele>
        <time>2022-07-10T08:55:53Z</time>
      </trkpt>
      <trkpt lat="38.843391" lon="-0.415152">
        <ele>475.629</ele>
        <time>2022-07-10T08:55:56Z</time>
      </trkpt>
      <trkpt lat="38.843353" lon="-0.415066">
        <ele>475.257</ele>
        <time>2022-07-10T08:56:01Z</time>
      </trkpt>
      <trkpt lat="38.843343" lon="-0.415057">
        <ele>475.200</ele>
        <time>2022-07-10T08:56:02Z</time>
      </trkpt>
      <trkpt lat="38.843328" lon="-0.415036">
        <ele>475.020</ele>
        <time>2022-07-10T08:56:04Z</time>
      </trkpt>
      <trkpt lat="38.843318" lon="-0.415013">
        <ele>475.009</ele>
        <time>2022-07-10T08:56:06Z</time>
      </trkpt>
      <trkpt lat="38.843277" lon="-0.414985">
        <ele>474.846</ele>
        <time>2022-07-10T08:56:10Z</time>
      </trkpt>
      <trkpt lat="38.843242" lon="-0.414995">
        <ele>474.645</ele>
        <time>2022-07-10T08:56:12Z</time>
      </trkpt>
      <trkpt lat="38.843163" lon="-0.415005">
        <ele>474.032</ele>
        <time>2022-07-10T08:56:17Z</time>
      </trkpt>
      <trkpt lat="38.843122" lon="-0.415007">
        <ele>473.650</ele>
        <time>2022-07-10T08:56:19Z</time>
      </trkpt>
      <trkpt lat="38.843044" lon="-0.415034">
        <ele>472.649</ele>
        <time>2022-07-10T08:56:24Z</time>
      </trkpt>
      <trkpt lat="38.843017" lon="-0.415062">
        <ele>472.285</ele>
        <time>2022-07-10T08:56:27Z</time>
      </trkpt>
      <trkpt lat="38.842988" lon="-0.415079">
        <ele>472.058</ele>
        <time>2022-07-10T08:56:29Z</time>
      </trkpt>
      <trkpt lat="38.842951" lon="-0.415081">
        <ele>472.082</ele>
        <time>2022-07-10T08:56:31Z</time>
      </trkpt>
      <trkpt lat="38.842901" lon="-0.415093">
        <ele>471.418</ele>
        <time>2022-07-10T08:56:34Z</time>
      </trkpt>
      <trkpt lat="38.842873" lon="-0.415115">
        <ele>471.242</ele>
        <time>2022-07-10T08:56:36Z</time>
      </trkpt>
      <trkpt lat="38.842858" lon="-0.415134">
        <ele>471.222</ele>
        <time>2022-07-10T08:56:37Z</time>
      </trkpt>
      <trkpt lat="38.842733" lon="-0.415213">
        <ele>470.414</ele>
        <time>2022-07-10T08:56:45Z</time>
      </trkpt>
      <trkpt lat="38.842662" lon="-0.415234">
        <ele>469.209</ele>
        <time>2022-07-10T08:56:50Z</time>
      </trkpt>
      <trkpt lat="38.842649" lon="-0.415234">
        <ele>469.265</ele>
        <time>2022-07-10T08:56:51Z</time>
      </trkpt>
      <trkpt lat="38.842638" lon="-0.415241">
        <ele>469.224</ele>
        <time>2022-07-10T08:56:52Z</time>
      </trkpt>
      <trkpt lat="38.842615" lon="-0.415274">
        <ele>468.871</ele>
        <time>2022-07-10T08:56:55Z</time>
      </trkpt>
      <trkpt lat="38.842603" lon="-0.415309">
        <ele>468.239</ele>
        <time>2022-07-10T08:56:58Z</time>
      </trkpt>
      <trkpt lat="38.842594" lon="-0.415376">
        <ele>467.838</ele>
        <time>2022-07-10T08:57:01Z</time>
      </trkpt>
      <trkpt lat="38.842600" lon="-0.415511">
        <ele>467.474</ele>
        <time>2022-07-10T08:57:06Z</time>
      </trkpt>
      <trkpt lat="38.842621" lon="-0.415532">
        <ele>467.227</ele>
        <time>2022-07-10T08:57:08Z</time>
      </trkpt>
      <trkpt lat="38.842674" lon="-0.415554">
        <ele>466.841</ele>
        <time>2022-07-10T08:57:13Z</time>
      </trkpt>
      <trkpt lat="38.842697" lon="-0.415607">
        <ele>466.017</ele>
        <time>2022-07-10T08:57:16Z</time>
      </trkpt>
      <trkpt lat="38.842702" lon="-0.415615">
        <ele>465.841</ele>
        <time>2022-07-10T08:57:17Z</time>
      </trkpt>
      <trkpt lat="38.842711" lon="-0.415638">
        <ele>465.281</ele>
        <time>2022-07-10T08:57:19Z</time>
      </trkpt>
      <trkpt lat="38.842714" lon="-0.415665">
        <ele>465.009</ele>
        <time>2022-07-10T08:57:20Z</time>
      </trkpt>
      <trkpt lat="38.842736" lon="-0.415748">
        <ele>463.809</ele>
        <time>2022-07-10T08:57:24Z</time>
      </trkpt>
      <trkpt lat="38.842753" lon="-0.415782">
        <ele>463.015</ele>
        <time>2022-07-10T08:57:26Z</time>
      </trkpt>
      <trkpt lat="38.842756" lon="-0.415802">
        <ele>463.064</ele>
        <time>2022-07-10T08:57:27Z</time>
      </trkpt>
      <trkpt lat="38.842765" lon="-0.415838">
        <ele>462.611</ele>
        <time>2022-07-10T08:57:29Z</time>
      </trkpt>
      <trkpt lat="38.842780" lon="-0.415856">
        <ele>462.279</ele>
        <time>2022-07-10T08:57:31Z</time>
      </trkpt>
      <trkpt lat="38.842788" lon="-0.415883">
        <ele>461.668</ele>
        <time>2022-07-10T08:57:33Z</time>
      </trkpt>
      <trkpt lat="38.842793" lon="-0.415894">
        <ele>461.434</ele>
        <time>2022-07-10T08:57:34Z</time>
      </trkpt>
      <trkpt lat="38.842800" lon="-0.415911">
        <ele>461.017</ele>
        <time>2022-07-10T08:57:35Z</time>
      </trkpt>
      <trkpt lat="38.842811" lon="-0.415921">
        <ele>460.861</ele>
        <time>2022-07-10T08:57:36Z</time>
      </trkpt>
      <trkpt lat="38.842839" lon="-0.415949">
        <ele>460.287</ele>
        <time>2022-07-10T08:57:39Z</time>
      </trkpt>
      <trkpt lat="38.842864" lon="-0.415983">
        <ele>460.013</ele>
        <time>2022-07-10T08:57:41Z</time>
      </trkpt>
      <trkpt lat="38.842916" lon="-0.416019">
        <ele>459.043</ele>
        <time>2022-07-10T08:57:45Z</time>
      </trkpt>
      <trkpt lat="38.842968" lon="-0.416038">
        <ele>458.607</ele>
        <time>2022-07-10T08:57:48Z</time>
      </trkpt>
      <trkpt lat="38.843043" lon="-0.416057">
        <ele>458.009</ele>
        <time>2022-07-10T08:57:52Z</time>
      </trkpt>
      <trkpt lat="38.843092" lon="-0.416078">
        <ele>457.642</ele>
        <time>2022-07-10T08:57:55Z</time>
      </trkpt>
      <trkpt lat="38.843131" lon="-0.416082">
        <ele>457.471</ele>
        <time>2022-07-10T08:57:57Z</time>
      </trkpt>
      <trkpt lat="38.843170" lon="-0.416097">
        <ele>457.298</ele>
        <time>2022-07-10T08:58:00Z</time>
      </trkpt>
      <trkpt lat="38.843190" lon="-0.416120">
        <ele>457.056</ele>
        <time>2022-07-10T08:58:03Z</time>
      </trkpt>
      <trkpt lat="38.843217" lon="-0.416128">
        <ele>456.665</ele>
        <time>2022-07-10T08:58:05Z</time>
      </trkpt>
      <trkpt lat="38.843243" lon="-0.416144">
        <ele>456.291</ele>
        <time>2022-07-10T08:58:07Z</time>
      </trkpt>
      <trkpt lat="38.843252" lon="-0.416150">
        <ele>455.854</ele>
        <time>2022-07-10T08:58:08Z</time>
      </trkpt>
      <trkpt lat="38.843288" lon="-0.416183">
        <ele>454.848</ele>
        <time>2022-07-10T08:58:12Z</time>
      </trkpt>
      <trkpt lat="38.843294" lon="-0.416204">
        <ele>454.654</ele>
        <time>2022-07-10T08:58:13Z</time>
      </trkpt>
      <trkpt lat="38.843336" lon="-0.416275">
        <ele>453.668</ele>
        <time>2022-07-10T08:58:17Z</time>
      </trkpt>
      <trkpt lat="38.843365" lon="-0.416299">
        <ele>453.242</ele>
        <time>2022-07-10T08:58:19Z</time>
      </trkpt>
      <trkpt lat="38.843394" lon="-0.416362">
        <ele>452.426</ele>
        <time>2022-07-10T08:58:23Z</time>
      </trkpt>
      <trkpt lat="38.843411" lon="-0.416389">
        <ele>452.209</ele>
        <time>2022-07-10T08:58:25Z</time>
      </trkpt>
      <trkpt lat="38.843458" lon="-0.416437">
        <ele>451.477</ele>
        <time>2022-07-10T08:58:29Z</time>
      </trkpt>
      <trkpt lat="38.843506" lon="-0.416476">
        <ele>450.636</ele>
        <time>2022-07-10T08:58:34Z</time>
      </trkpt>
      <trkpt lat="38.843539" lon="-0.416512">
        <ele>450.243</ele>
        <time>2022-07-10T08:58:37Z</time>
      </trkpt>
      <trkpt lat="38.843605" lon="-0.416589">
        <ele>449.641</ele>
        <time>2022-07-10T08:58:43Z</time>
      </trkpt>
      <trkpt lat="38.843613" lon="-0.416621">
        <ele>449.470</ele>
        <time>2022-07-10T08:58:45Z</time>
      </trkpt>
      <trkpt lat="38.843614" lon="-0.416652">
        <ele>449.416</ele>
        <time>2022-07-10T08:58:47Z</time>
      </trkpt>
      <trkpt lat="38.843616" lon="-0.416666">
        <ele>449.279</ele>
        <time>2022-07-10T08:58:48Z</time>
      </trkpt>
      <trkpt lat="38.843591" lon="-0.416751">
        <ele>448.643</ele>
        <time>2022-07-10T08:58:53Z</time>
      </trkpt>
      <trkpt lat="38.843578" lon="-0.416825">
        <ele>448.229</ele>
        <time>2022-07-10T08:58:57Z</time>
      </trkpt>
      <trkpt lat="38.843569" lon="-0.416915">
        <ele>447.685</ele>
        <time>2022-07-10T08:59:02Z</time>
      </trkpt>
      <trkpt lat="38.843604" lon="-0.416997">
        <ele>447.289</ele>
        <time>2022-07-10T08:59:07Z</time>
      </trkpt>
      <trkpt lat="38.843619" lon="-0.417021">
        <ele>447.017</ele>
        <time>2022-07-10T08:59:09Z</time>
      </trkpt>
      <trkpt lat="38.843680" lon="-0.417063">
        <ele>446.209</ele>
        <time>2022-07-10T08:59:14Z</time>
      </trkpt>
      <trkpt lat="38.843711" lon="-0.417109">
        <ele>445.629</ele>
        <time>2022-07-10T08:59:18Z</time>
      </trkpt>
      <trkpt lat="38.843776" lon="-0.417159">
        <ele>445.038</ele>
        <time>2022-07-10T08:59:22Z</time>
      </trkpt>
      <trkpt lat="38.843824" lon="-0.417180">
        <ele>444.875</ele>
        <time>2022-07-10T08:59:25Z</time>
      </trkpt>
      <trkpt lat="38.843904" lon="-0.417228">
        <ele>443.893</ele>
        <time>2022-07-10T08:59:32Z</time>
      </trkpt>
      <trkpt lat="38.843946" lon="-0.417251">
        <ele>443.422</ele>
        <time>2022-07-10T08:59:35Z</time>
      </trkpt>
      <trkpt lat="38.843961" lon="-0.417261">
        <ele>443.418</ele>
        <time>2022-07-10T08:59:36Z</time>
      </trkpt>
      <trkpt lat="38.844014" lon="-0.417301">
        <ele>442.881</ele>
        <time>2022-07-10T08:59:40Z</time>
      </trkpt>
      <trkpt lat="38.844050" lon="-0.417364">
        <ele>442.465</ele>
        <time>2022-07-10T08:59:44Z</time>
      </trkpt>
      <trkpt lat="38.844068" lon="-0.417393">
        <ele>442.281</ele>
        <time>2022-07-10T08:59:46Z</time>
      </trkpt>
      <trkpt lat="38.844111" lon="-0.417433">
        <ele>441.618</ele>
        <time>2022-07-10T08:59:49Z</time>
      </trkpt>
      <trkpt lat="38.844122" lon="-0.417442">
        <ele>441.498</ele>
        <time>2022-07-10T08:59:50Z</time>
      </trkpt>
      <trkpt lat="38.844159" lon="-0.417436">
        <ele>441.017</ele>
        <time>2022-07-10T08:59:53Z</time>
      </trkpt>
      <trkpt lat="38.844194" lon="-0.417445">
        <ele>440.809</ele>
        <time>2022-07-10T08:59:56Z</time>
      </trkpt>
      <trkpt lat="38.844211" lon="-0.417447">
        <ele>440.632</ele>
        <time>2022-07-10T08:59:57Z</time>
      </trkpt>
      <trkpt lat="38.844276" lon="-0.417449">
        <ele>439.891</ele>
        <time>2022-07-10T09:00:01Z</time>
      </trkpt>
      <trkpt lat="38.844293" lon="-0.417450">
        <ele>439.848</ele>
        <time>2022-07-10T09:00:02Z</time>
      </trkpt>
      <trkpt lat="38.844343" lon="-0.417448">
        <ele>439.646</ele>
        <time>2022-07-10T09:00:06Z</time>
      </trkpt>
      <trkpt lat="38.844353" lon="-0.417444">
        <ele>439.445</ele>
        <time>2022-07-10T09:00:07Z</time>
      </trkpt>
      <trkpt lat="38.844367" lon="-0.417437">
        <ele>439.271</ele>
        <time>2022-07-10T09:00:09Z</time>
      </trkpt>
      <trkpt lat="38.844397" lon="-0.417433">
        <ele>438.824</ele>
        <time>2022-07-10T09:00:12Z</time>
      </trkpt>
      <trkpt lat="38.844465" lon="-0.417389">
        <ele>438.458</ele>
        <time>2022-07-10T09:00:17Z</time>
      </trkpt>
      <trkpt lat="38.844547" lon="-0.417359">
        <ele>438.694</ele>
        <time>2022-07-10T09:00:23Z</time>
      </trkpt>
      <trkpt lat="38.844612" lon="-0.417339">
        <ele>438.896</ele>
        <time>2022-07-10T09:00:29Z</time>
      </trkpt>
      <trkpt lat="38.844672" lon="-0.417334">
        <ele>438.631</ele>
        <time>2022-07-10T09:00:33Z</time>
      </trkpt>
      <trkpt lat="38.844714" lon="-0.417334">
        <ele>438.424</ele>
        <time>2022-07-10T09:00:36Z</time>
      </trkpt>
      <trkpt lat="38.844728" lon="-0.417343">
        <ele>438.409</ele>
        <time>2022-07-10T09:00:37Z</time>
      </trkpt>
      <trkpt lat="38.844813" lon="-0.417365">
        <ele>438.210</ele>
        <time>2022-07-10T09:00:42Z</time>
      </trkpt>
      <trkpt lat="38.844869" lon="-0.417377">
        <ele>438.269</ele>
        <time>2022-07-10T09:00:45Z</time>
      </trkpt>
      <trkpt lat="38.844928" lon="-0.417397">
        <ele>437.266</ele>
        <time>2022-07-10T09:00:50Z</time>
      </trkpt>
      <trkpt lat="38.844960" lon="-0.417412">
        <ele>436.824</ele>
        <time>2022-07-10T09:00:53Z</time>
      </trkpt>
      <trkpt lat="38.845018" lon="-0.417450">
        <ele>436.213</ele>
        <time>2022-07-10T09:00:57Z</time>
      </trkpt>
      <trkpt lat="38.845075" lon="-0.417462">
        <ele>435.629</ele>
        <time>2022-07-10T09:01:00Z</time>
      </trkpt>
      <trkpt lat="38.845088" lon="-0.417473">
        <ele>435.452</ele>
        <time>2022-07-10T09:01:01Z</time>
      </trkpt>
      <trkpt lat="38.845106" lon="-0.417485">
        <ele>435.236</ele>
        <time>2022-07-10T09:01:03Z</time>
      </trkpt>
      <trkpt lat="38.845125" lon="-0.417490">
        <ele>435.072</ele>
        <time>2022-07-10T09:01:05Z</time>
      </trkpt>
      <trkpt lat="38.845192" lon="-0.417534">
        <ele>434.497</ele>
        <time>2022-07-10T09:01:11Z</time>
      </trkpt>
      <trkpt lat="38.845228" lon="-0.417562">
        <ele>434.023</ele>
        <time>2022-07-10T09:01:13Z</time>
      </trkpt>
      <trkpt lat="38.845270" lon="-0.417577">
        <ele>433.825</ele>
        <time>2022-07-10T09:01:16Z</time>
      </trkpt>
      <trkpt lat="38.845311" lon="-0.417595">
        <ele>433.609</ele>
        <time>2022-07-10T09:01:19Z</time>
      </trkpt>
      <trkpt lat="38.845339" lon="-0.417604">
        <ele>433.660</ele>
        <time>2022-07-10T09:01:21Z</time>
      </trkpt>
      <trkpt lat="38.845339" lon="-0.417604">
        <ele>433.699</ele>
        <time>2022-07-10T09:01:22Z</time>
      </trkpt>
      <trkpt lat="38.845417" lon="-0.417605">
        <ele>433.436</ele>
        <time>2022-07-10T09:01:26Z</time>
      </trkpt>
      <trkpt lat="38.845443" lon="-0.417623">
        <ele>433.024</ele>
        <time>2022-07-10T09:01:28Z</time>
      </trkpt>
      <trkpt lat="38.845450" lon="-0.417626">
        <ele>433.093</ele>
        <time>2022-07-10T09:01:29Z</time>
      </trkpt>
      <trkpt lat="38.845465" lon="-0.417628">
        <ele>433.049</ele>
        <time>2022-07-10T09:01:31Z</time>
      </trkpt>
      <trkpt lat="38.845488" lon="-0.417631">
        <ele>433.052</ele>
        <time>2022-07-10T09:01:33Z</time>
      </trkpt>
    </trkseg>
  </trk>
</gpx>
